<?xml version="1.0" encoding="UTF-8" standalone="no" ?>
<gpx xmlns="http://www.topografix.com/GPX/1/1" xmlns:xsi="http://www.w3.org/2001/XMLSchema-instance" xsi:schemaLocation="http://www.topografix.com/GPX/1/1 http://www.topografix.com/GPX/1/1/gpx.xsd" version="1.1" creator="VisuGPX - https://www.visugpx.com">
  <metadata>
    <name>lundi 2015 04 06 ( lune )</name>
    <desc><![CDATA[rando du lundi]]></desc>
  </metadata>
  <trk>
    <name><![CDATA[06/04/2015 20:20]]></name>
    <desc><![CDATA[]]></desc>
    <trkseg>
      <trkpt lat="48.85659" lon="2.3465">
        <ele>97.9</ele>
        <time>2015-04-06T18:20:56.358Z</time>
      </trkpt>
      <trkpt lat="48.85659" lon="2.3465">
        <ele>97.9</ele>
        <time>2015-04-06T18:20:57.121Z</time>
      </trkpt>
      <trkpt lat="48.85637" lon="2.3464">
        <ele>74.6</ele>
        <time>2015-04-06T18:20:59.889Z</time>
      </trkpt>
      <trkpt lat="48.85631" lon="2.34639">
        <ele>79.1</ele>
        <time>2015-04-06T18:21:02.151Z</time>
      </trkpt>
      <trkpt lat="48.85626" lon="2.34638">
        <ele>77.6</ele>
        <time>2015-04-06T18:21:02.895Z</time>
      </trkpt>
      <trkpt lat="48.85619" lon="2.34636">
        <ele>76.3</ele>
        <time>2015-04-06T18:21:04.845Z</time>
      </trkpt>
      <trkpt lat="48.85616" lon="2.34636">
        <ele>75.4</ele>
        <time>2015-04-06T18:21:05.859Z</time>
      </trkpt>
      <trkpt lat="48.8561" lon="2.34635">
        <ele>76.8</ele>
        <time>2015-04-06T18:21:07.954Z</time>
      </trkpt>
      <trkpt lat="48.85606" lon="2.34633">
        <ele>77.4</ele>
        <time>2015-04-06T18:21:08.843Z</time>
      </trkpt>
      <trkpt lat="48.85601" lon="2.34627">
        <ele>78.6</ele>
        <time>2015-04-06T18:21:10.885Z</time>
      </trkpt>
      <trkpt lat="48.85599" lon="2.34624">
        <ele>79.3</ele>
        <time>2015-04-06T18:21:11.971Z</time>
      </trkpt>
      <trkpt lat="48.85592" lon="2.34615">
        <ele>79.8</ele>
        <time>2015-04-06T18:21:14.895Z</time>
      </trkpt>
      <trkpt lat="48.8559" lon="2.34611">
        <ele>79.9</ele>
        <time>2015-04-06T18:21:15.863Z</time>
      </trkpt>
      <trkpt lat="48.85585" lon="2.34606">
        <ele>76.4</ele>
        <time>2015-04-06T18:21:16.899Z</time>
      </trkpt>
      <trkpt lat="48.85582" lon="2.34602">
        <ele>74.9</ele>
        <time>2015-04-06T18:21:17.929Z</time>
      </trkpt>
      <trkpt lat="48.85576" lon="2.346">
        <ele>74.2</ele>
        <time>2015-04-06T18:21:19.903Z</time>
      </trkpt>
      <trkpt lat="48.85573" lon="2.346">
        <ele>73.6</ele>
        <time>2015-04-06T18:21:20.842Z</time>
      </trkpt>
      <trkpt lat="48.85566" lon="2.34596">
        <ele>72.8</ele>
        <time>2015-04-06T18:21:22.932Z</time>
      </trkpt>
      <trkpt lat="48.85563" lon="2.34595">
        <ele>71.2</ele>
        <time>2015-04-06T18:21:23.960Z</time>
      </trkpt>
      <trkpt lat="48.85557" lon="2.34588">
        <ele>76.1</ele>
        <time>2015-04-06T18:21:25.930Z</time>
      </trkpt>
      <trkpt lat="48.85554" lon="2.34585">
        <ele>77.5</ele>
        <time>2015-04-06T18:21:26.879Z</time>
      </trkpt>
      <trkpt lat="48.85549" lon="2.34582">
        <ele>79.3</ele>
        <time>2015-04-06T18:21:27.874Z</time>
      </trkpt>
      <trkpt lat="48.85545" lon="2.34578">
        <ele>80.2</ele>
        <time>2015-04-06T18:21:28.898Z</time>
      </trkpt>
      <trkpt lat="48.85541" lon="2.34574">
        <ele>80.9</ele>
        <time>2015-04-06T18:21:29.961Z</time>
      </trkpt>
      <trkpt lat="48.85537" lon="2.3457">
        <ele>81.3</ele>
        <time>2015-04-06T18:21:30.863Z</time>
      </trkpt>
      <trkpt lat="48.85529" lon="2.34565">
        <ele>82.2</ele>
        <time>2015-04-06T18:21:32.896Z</time>
      </trkpt>
      <trkpt lat="48.85525" lon="2.34562">
        <ele>82.3</ele>
        <time>2015-04-06T18:21:33.969Z</time>
      </trkpt>
      <trkpt lat="48.85519" lon="2.34557">
        <ele>82.9</ele>
        <time>2015-04-06T18:21:35.899Z</time>
      </trkpt>
      <trkpt lat="48.85516" lon="2.34554">
        <ele>83.3</ele>
        <time>2015-04-06T18:21:36.890Z</time>
      </trkpt>
      <trkpt lat="48.85509" lon="2.34548">
        <ele>83.9</ele>
        <time>2015-04-06T18:21:38.922Z</time>
      </trkpt>
      <trkpt lat="48.85505" lon="2.34545">
        <ele>84.5</ele>
        <time>2015-04-06T18:21:39.930Z</time>
      </trkpt>
      <trkpt lat="48.855" lon="2.34543">
        <ele>84.5</ele>
        <time>2015-04-06T18:21:40.949Z</time>
      </trkpt>
      <trkpt lat="48.85495" lon="2.3454">
        <ele>83.6</ele>
        <time>2015-04-06T18:21:41.953Z</time>
      </trkpt>
      <trkpt lat="48.85489" lon="2.34536">
        <ele>82.3</ele>
        <time>2015-04-06T18:21:42.876Z</time>
      </trkpt>
      <trkpt lat="48.85484" lon="2.34531">
        <ele>80.9</ele>
        <time>2015-04-06T18:21:43.906Z</time>
      </trkpt>
      <trkpt lat="48.8548" lon="2.34527">
        <ele>81.1</ele>
        <time>2015-04-06T18:21:44.864Z</time>
      </trkpt>
      <trkpt lat="48.85475" lon="2.34524">
        <ele>81.4</ele>
        <time>2015-04-06T18:21:45.872Z</time>
      </trkpt>
      <trkpt lat="48.8547" lon="2.3452">
        <ele>80.3</ele>
        <time>2015-04-06T18:21:46.892Z</time>
      </trkpt>
      <trkpt lat="48.8546" lon="2.34516">
        <ele>77.1</ele>
        <time>2015-04-06T18:21:47.903Z</time>
      </trkpt>
      <trkpt lat="48.85453" lon="2.34511">
        <ele>75.2</ele>
        <time>2015-04-06T18:21:48.920Z</time>
      </trkpt>
      <trkpt lat="48.85447" lon="2.34507">
        <ele>73.6</ele>
        <time>2015-04-06T18:21:49.924Z</time>
      </trkpt>
      <trkpt lat="48.85441" lon="2.34504">
        <ele>73.1</ele>
        <time>2015-04-06T18:21:51.064Z</time>
      </trkpt>
      <trkpt lat="48.85437" lon="2.345">
        <ele>72.4</ele>
        <time>2015-04-06T18:21:51.876Z</time>
      </trkpt>
      <trkpt lat="48.85429" lon="2.34494">
        <ele>73</ele>
        <time>2015-04-06T18:21:53.885Z</time>
      </trkpt>
      <trkpt lat="48.85425" lon="2.3449">
        <ele>73.1</ele>
        <time>2015-04-06T18:21:54.892Z</time>
      </trkpt>
      <trkpt lat="48.85422" lon="2.34486">
        <ele>73.5</ele>
        <time>2015-04-06T18:21:55.911Z</time>
      </trkpt>
      <trkpt lat="48.85419" lon="2.34481">
        <ele>73.8</ele>
        <time>2015-04-06T18:21:56.936Z</time>
      </trkpt>
      <trkpt lat="48.85414" lon="2.34475">
        <ele>75.6</ele>
        <time>2015-04-06T18:21:57.951Z</time>
      </trkpt>
      <trkpt lat="48.8541" lon="2.34471">
        <ele>76.9</ele>
        <time>2015-04-06T18:21:58.870Z</time>
      </trkpt>
      <trkpt lat="48.85405" lon="2.34468">
        <ele>77.4</ele>
        <time>2015-04-06T18:21:59.871Z</time>
      </trkpt>
      <trkpt lat="48.85401" lon="2.34464">
        <ele>77.8</ele>
        <time>2015-04-06T18:22:00.872Z</time>
      </trkpt>
      <trkpt lat="48.85396" lon="2.34456">
        <ele>78.3</ele>
        <time>2015-04-06T18:22:03.594Z</time>
      </trkpt>
      <trkpt lat="48.85394" lon="2.34452">
        <ele>78.4</ele>
        <time>2015-04-06T18:22:03.862Z</time>
      </trkpt>
      <trkpt lat="48.85388" lon="2.34446">
        <ele>78.8</ele>
        <time>2015-04-06T18:22:05.878Z</time>
      </trkpt>
      <trkpt lat="48.85386" lon="2.34442">
        <ele>78.7</ele>
        <time>2015-04-06T18:22:06.890Z</time>
      </trkpt>
      <trkpt lat="48.8538" lon="2.34437">
        <ele>78.9</ele>
        <time>2015-04-06T18:22:08.906Z</time>
      </trkpt>
      <trkpt lat="48.85376" lon="2.34433">
        <ele>78.7</ele>
        <time>2015-04-06T18:22:09.926Z</time>
      </trkpt>
      <trkpt lat="48.85368" lon="2.34428">
        <ele>78.5</ele>
        <time>2015-04-06T18:22:11.865Z</time>
      </trkpt>
      <trkpt lat="48.85364" lon="2.34425">
        <ele>78.3</ele>
        <time>2015-04-06T18:22:12.872Z</time>
      </trkpt>
      <trkpt lat="48.85359" lon="2.34422">
        <ele>78.1</ele>
        <time>2015-04-06T18:22:13.892Z</time>
      </trkpt>
      <trkpt lat="48.85355" lon="2.3442">
        <ele>78.2</ele>
        <time>2015-04-06T18:22:14.908Z</time>
      </trkpt>
      <trkpt lat="48.85347" lon="2.34418">
        <ele>78.3</ele>
        <time>2015-04-06T18:22:16.938Z</time>
      </trkpt>
      <trkpt lat="48.85343" lon="2.34417">
        <ele>78.4</ele>
        <time>2015-04-06T18:22:17.940Z</time>
      </trkpt>
      <trkpt lat="48.85335" lon="2.34412">
        <ele>78.6</ele>
        <time>2015-04-06T18:22:20.880Z</time>
      </trkpt>
      <trkpt lat="48.85332" lon="2.34409">
        <ele>78.8</ele>
        <time>2015-04-06T18:22:21.913Z</time>
      </trkpt>
      <trkpt lat="48.85325" lon="2.34405">
        <ele>79.3</ele>
        <time>2015-04-06T18:22:23.935Z</time>
      </trkpt>
      <trkpt lat="48.8532" lon="2.34403">
        <ele>79.2</ele>
        <time>2015-04-06T18:22:24.839Z</time>
      </trkpt>
      <trkpt lat="48.85313" lon="2.34397">
        <ele>79.2</ele>
        <time>2015-04-06T18:22:26.921Z</time>
      </trkpt>
      <trkpt lat="48.85309" lon="2.34395">
        <ele>79.4</ele>
        <time>2015-04-06T18:22:27.934Z</time>
      </trkpt>
      <trkpt lat="48.85303" lon="2.3439">
        <ele>79.9</ele>
        <time>2015-04-06T18:22:29.894Z</time>
      </trkpt>
      <trkpt lat="48.85299" lon="2.34388">
        <ele>80.1</ele>
        <time>2015-04-06T18:22:30.868Z</time>
      </trkpt>
      <trkpt lat="48.85295" lon="2.34387">
        <ele>80.5</ele>
        <time>2015-04-06T18:22:31.936Z</time>
      </trkpt>
      <trkpt lat="48.8529" lon="2.34385">
        <ele>81</ele>
        <time>2015-04-06T18:22:32.861Z</time>
      </trkpt>
      <trkpt lat="48.85283" lon="2.3438">
        <ele>81.8</ele>
        <time>2015-04-06T18:22:34.910Z</time>
      </trkpt>
      <trkpt lat="48.85281" lon="2.34379">
        <ele>82</ele>
        <time>2015-04-06T18:22:35.893Z</time>
      </trkpt>
      <trkpt lat="48.85274" lon="2.34376">
        <ele>82.3</ele>
        <time>2015-04-06T18:22:37.887Z</time>
      </trkpt>
      <trkpt lat="48.85271" lon="2.34374">
        <ele>82.6</ele>
        <time>2015-04-06T18:22:38.870Z</time>
      </trkpt>
      <trkpt lat="48.85265" lon="2.34365">
        <ele>83.3</ele>
        <time>2015-04-06T18:22:41.870Z</time>
      </trkpt>
      <trkpt lat="48.85261" lon="2.34363">
        <ele>83.6</ele>
        <time>2015-04-06T18:22:42.873Z</time>
      </trkpt>
      <trkpt lat="48.85257" lon="2.3436">
        <ele>83.7</ele>
        <time>2015-04-06T18:22:44.076Z</time>
      </trkpt>
      <trkpt lat="48.85253" lon="2.34356">
        <ele>83.8</ele>
        <time>2015-04-06T18:22:44.927Z</time>
      </trkpt>
      <trkpt lat="48.85246" lon="2.34348">
        <ele>84.5</ele>
        <time>2015-04-06T18:22:46.872Z</time>
      </trkpt>
      <trkpt lat="48.85242" lon="2.34345">
        <ele>84.8</ele>
        <time>2015-04-06T18:22:47.894Z</time>
      </trkpt>
      <trkpt lat="48.85236" lon="2.34341">
        <ele>85.5</ele>
        <time>2015-04-06T18:22:49.919Z</time>
      </trkpt>
      <trkpt lat="48.85232" lon="2.34339">
        <ele>85.8</ele>
        <time>2015-04-06T18:22:50.923Z</time>
      </trkpt>
      <trkpt lat="48.85225" lon="2.34335">
        <ele>86.5</ele>
        <time>2015-04-06T18:22:52.933Z</time>
      </trkpt>
      <trkpt lat="48.85222" lon="2.34333">
        <ele>86.8</ele>
        <time>2015-04-06T18:22:53.947Z</time>
      </trkpt>
      <trkpt lat="48.85214" lon="2.34332">
        <ele>87.4</ele>
        <time>2015-04-06T18:22:56.103Z</time>
      </trkpt>
      <trkpt lat="48.8521" lon="2.3433">
        <ele>87.7</ele>
        <time>2015-04-06T18:22:56.920Z</time>
      </trkpt>
      <trkpt lat="48.85203" lon="2.34327">
        <ele>88.3</ele>
        <time>2015-04-06T18:22:58.941Z</time>
      </trkpt>
      <trkpt lat="48.85199" lon="2.34325">
        <ele>88.5</ele>
        <time>2015-04-06T18:22:59.955Z</time>
      </trkpt>
      <trkpt lat="48.85191" lon="2.34324">
        <ele>89.4</ele>
        <time>2015-04-06T18:23:01.931Z</time>
      </trkpt>
      <trkpt lat="48.85189" lon="2.34324">
        <ele>89.6</ele>
        <time>2015-04-06T18:23:02.943Z</time>
      </trkpt>
      <trkpt lat="48.85182" lon="2.34321">
        <ele>90.1</ele>
        <time>2015-04-06T18:23:04.947Z</time>
      </trkpt>
      <trkpt lat="48.85179" lon="2.34319">
        <ele>90.2</ele>
        <time>2015-04-06T18:23:05.867Z</time>
      </trkpt>
      <trkpt lat="48.85174" lon="2.34317">
        <ele>90.2</ele>
        <time>2015-04-06T18:23:06.987Z</time>
      </trkpt>
      <trkpt lat="48.8517" lon="2.34314">
        <ele>90.7</ele>
        <time>2015-04-06T18:23:07.905Z</time>
      </trkpt>
      <trkpt lat="48.85165" lon="2.34312">
        <ele>91.3</ele>
        <time>2015-04-06T18:23:08.910Z</time>
      </trkpt>
      <trkpt lat="48.8516" lon="2.3431">
        <ele>91.9</ele>
        <time>2015-04-06T18:23:09.915Z</time>
      </trkpt>
      <trkpt lat="48.85155" lon="2.34307">
        <ele>92.5</ele>
        <time>2015-04-06T18:23:11.397Z</time>
      </trkpt>
      <trkpt lat="48.8515" lon="2.34305">
        <ele>92.9</ele>
        <time>2015-04-06T18:23:11.951Z</time>
      </trkpt>
      <trkpt lat="48.85144" lon="2.343">
        <ele>93.5</ele>
        <time>2015-04-06T18:23:13.872Z</time>
      </trkpt>
      <trkpt lat="48.85141" lon="2.34297">
        <ele>93.8</ele>
        <time>2015-04-06T18:23:14.867Z</time>
      </trkpt>
      <trkpt lat="48.85134" lon="2.34292">
        <ele>94.2</ele>
        <time>2015-04-06T18:23:16.556Z</time>
      </trkpt>
      <trkpt lat="48.8513" lon="2.34289">
        <ele>94.7</ele>
        <time>2015-04-06T18:23:17.893Z</time>
      </trkpt>
      <trkpt lat="48.85121" lon="2.34285">
        <ele>95.1</ele>
        <time>2015-04-06T18:23:19.939Z</time>
      </trkpt>
      <trkpt lat="48.85117" lon="2.34282">
        <ele>94.5</ele>
        <time>2015-04-06T18:23:20.955Z</time>
      </trkpt>
      <trkpt lat="48.8511" lon="2.34278">
        <ele>94.4</ele>
        <time>2015-04-06T18:23:22.860Z</time>
      </trkpt>
      <trkpt lat="48.85106" lon="2.34276">
        <ele>94.5</ele>
        <time>2015-04-06T18:23:23.883Z</time>
      </trkpt>
      <trkpt lat="48.85102" lon="2.34271">
        <ele>95</ele>
        <time>2015-04-06T18:23:25.904Z</time>
      </trkpt>
      <trkpt lat="48.85098" lon="2.34269">
        <ele>95.1</ele>
        <time>2015-04-06T18:23:26.923Z</time>
      </trkpt>
      <trkpt lat="48.85094" lon="2.34266">
        <ele>94.9</ele>
        <time>2015-04-06T18:23:28.351Z</time>
      </trkpt>
      <trkpt lat="48.85089" lon="2.34263">
        <ele>94.6</ele>
        <time>2015-04-06T18:23:28.976Z</time>
      </trkpt>
      <trkpt lat="48.85084" lon="2.3426">
        <ele>94.4</ele>
        <time>2015-04-06T18:23:29.837Z</time>
      </trkpt>
      <trkpt lat="48.85079" lon="2.34257">
        <ele>94.5</ele>
        <time>2015-04-06T18:23:30.864Z</time>
      </trkpt>
      <trkpt lat="48.85074" lon="2.34255">
        <ele>94.8</ele>
        <time>2015-04-06T18:23:31.863Z</time>
      </trkpt>
      <trkpt lat="48.8507" lon="2.34252">
        <ele>95.3</ele>
        <time>2015-04-06T18:23:32.934Z</time>
      </trkpt>
      <trkpt lat="48.85066" lon="2.3425">
        <ele>95.6</ele>
        <time>2015-04-06T18:23:33.945Z</time>
      </trkpt>
      <trkpt lat="48.85061" lon="2.34248">
        <ele>95.8</ele>
        <time>2015-04-06T18:23:34.869Z</time>
      </trkpt>
      <trkpt lat="48.85057" lon="2.34246">
        <ele>96</ele>
        <time>2015-04-06T18:23:35.866Z</time>
      </trkpt>
      <trkpt lat="48.85047" lon="2.34244">
        <ele>96.8</ele>
        <time>2015-04-06T18:23:36.925Z</time>
      </trkpt>
      <trkpt lat="48.85042" lon="2.34241">
        <ele>97</ele>
        <time>2015-04-06T18:23:37.938Z</time>
      </trkpt>
      <trkpt lat="48.85037" lon="2.34238">
        <ele>97.3</ele>
        <time>2015-04-06T18:23:38.950Z</time>
      </trkpt>
      <trkpt lat="48.85032" lon="2.34234">
        <ele>97.5</ele>
        <time>2015-04-06T18:23:39.866Z</time>
      </trkpt>
      <trkpt lat="48.85028" lon="2.34231">
        <ele>97.7</ele>
        <time>2015-04-06T18:23:40.871Z</time>
      </trkpt>
      <trkpt lat="48.8502" lon="2.34226">
        <ele>98.1</ele>
        <time>2015-04-06T18:23:42.914Z</time>
      </trkpt>
      <trkpt lat="48.85016" lon="2.34224">
        <ele>98.2</ele>
        <time>2015-04-06T18:23:43.927Z</time>
      </trkpt>
      <trkpt lat="48.85009" lon="2.3422">
        <ele>98.2</ele>
        <time>2015-04-06T18:23:45.987Z</time>
      </trkpt>
      <trkpt lat="48.85006" lon="2.34218">
        <ele>98.3</ele>
        <time>2015-04-06T18:23:46.869Z</time>
      </trkpt>
      <trkpt lat="48.85001" lon="2.34214">
        <ele>98.5</ele>
        <time>2015-04-06T18:23:48.878Z</time>
      </trkpt>
      <trkpt lat="48.84997" lon="2.34212">
        <ele>98.5</ele>
        <time>2015-04-06T18:23:49.906Z</time>
      </trkpt>
      <trkpt lat="48.84989" lon="2.34206">
        <ele>98.6</ele>
        <time>2015-04-06T18:23:51.910Z</time>
      </trkpt>
      <trkpt lat="48.84985" lon="2.34203">
        <ele>98.7</ele>
        <time>2015-04-06T18:23:52.931Z</time>
      </trkpt>
      <trkpt lat="48.8498" lon="2.34197">
        <ele>98.6</ele>
        <time>2015-04-06T18:23:54.934Z</time>
      </trkpt>
      <trkpt lat="48.84976" lon="2.34194">
        <ele>98.8</ele>
        <time>2015-04-06T18:23:55.943Z</time>
      </trkpt>
      <trkpt lat="48.84969" lon="2.34189">
        <ele>99.1</ele>
        <time>2015-04-06T18:23:57.973Z</time>
      </trkpt>
      <trkpt lat="48.84965" lon="2.34188">
        <ele>99.3</ele>
        <time>2015-04-06T18:23:58.873Z</time>
      </trkpt>
      <trkpt lat="48.84957" lon="2.34184">
        <ele>99.9</ele>
        <time>2015-04-06T18:24:01.169Z</time>
      </trkpt>
      <trkpt lat="48.84954" lon="2.34182">
        <ele>100.1</ele>
        <time>2015-04-06T18:24:01.934Z</time>
      </trkpt>
      <trkpt lat="48.84949" lon="2.3418">
        <ele>100.6</ele>
        <time>2015-04-06T18:24:02.944Z</time>
      </trkpt>
      <trkpt lat="48.84943" lon="2.3418">
        <ele>100.8</ele>
        <time>2015-04-06T18:24:03.960Z</time>
      </trkpt>
      <trkpt lat="48.84938" lon="2.34179">
        <ele>100.9</ele>
        <time>2015-04-06T18:24:04.859Z</time>
      </trkpt>
      <trkpt lat="48.84932" lon="2.34178">
        <ele>101.1</ele>
        <time>2015-04-06T18:24:05.862Z</time>
      </trkpt>
      <trkpt lat="48.84927" lon="2.34177">
        <ele>101.4</ele>
        <time>2015-04-06T18:24:06.885Z</time>
      </trkpt>
      <trkpt lat="48.8492" lon="2.34174">
        <ele>102.3</ele>
        <time>2015-04-06T18:24:07.903Z</time>
      </trkpt>
      <trkpt lat="48.84915" lon="2.34175">
        <ele>102.3</ele>
        <time>2015-04-06T18:24:08.917Z</time>
      </trkpt>
      <trkpt lat="48.8491" lon="2.34174">
        <ele>102.7</ele>
        <time>2015-04-06T18:24:09.925Z</time>
      </trkpt>
      <trkpt lat="48.84904" lon="2.34172">
        <ele>103.1</ele>
        <time>2015-04-06T18:24:11.324Z</time>
      </trkpt>
      <trkpt lat="48.84901" lon="2.34171">
        <ele>103.2</ele>
        <time>2015-04-06T18:24:11.855Z</time>
      </trkpt>
      <trkpt lat="48.84892" lon="2.34168">
        <ele>102.9</ele>
        <time>2015-04-06T18:24:13.913Z</time>
      </trkpt>
      <trkpt lat="48.84889" lon="2.34166">
        <ele>103</ele>
        <time>2015-04-06T18:24:14.915Z</time>
      </trkpt>
      <trkpt lat="48.84881" lon="2.34162">
        <ele>103.6</ele>
        <time>2015-04-06T18:24:16.856Z</time>
      </trkpt>
      <trkpt lat="48.84877" lon="2.34159">
        <ele>104</ele>
        <time>2015-04-06T18:24:17.860Z</time>
      </trkpt>
      <trkpt lat="48.8487" lon="2.34153">
        <ele>104.7</ele>
        <time>2015-04-06T18:24:19.959Z</time>
      </trkpt>
      <trkpt lat="48.84867" lon="2.3415">
        <ele>104.9</ele>
        <time>2015-04-06T18:24:20.869Z</time>
      </trkpt>
      <trkpt lat="48.84862" lon="2.34141">
        <ele>105.3</ele>
        <time>2015-04-06T18:24:23.211Z</time>
      </trkpt>
      <trkpt lat="48.84861" lon="2.34138">
        <ele>105.4</ele>
        <time>2015-04-06T18:24:24.991Z</time>
      </trkpt>
      <trkpt lat="48.84855" lon="2.34131">
        <ele>105.5</ele>
        <time>2015-04-06T18:24:27.841Z</time>
      </trkpt>
      <trkpt lat="48.84852" lon="2.34129">
        <ele>105.5</ele>
        <time>2015-04-06T18:24:28.890Z</time>
      </trkpt>
      <trkpt lat="48.84847" lon="2.34124">
        <ele>105.9</ele>
        <time>2015-04-06T18:24:31.508Z</time>
      </trkpt>
      <trkpt lat="48.84844" lon="2.34122">
        <ele>106.1</ele>
        <time>2015-04-06T18:24:31.948Z</time>
      </trkpt>
      <trkpt lat="48.84838" lon="2.34115">
        <ele>105.9</ele>
        <time>2015-04-06T18:24:33.862Z</time>
      </trkpt>
      <trkpt lat="48.84834" lon="2.34113">
        <ele>106</ele>
        <time>2015-04-06T18:24:34.872Z</time>
      </trkpt>
      <trkpt lat="48.84829" lon="2.34111">
        <ele>106.2</ele>
        <time>2015-04-06T18:24:36.584Z</time>
      </trkpt>
      <trkpt lat="48.84824" lon="2.34111">
        <ele>106.3</ele>
        <time>2015-04-06T18:24:36.895Z</time>
      </trkpt>
      <trkpt lat="48.84816" lon="2.3411">
        <ele>107.1</ele>
        <time>2015-04-06T18:24:38.932Z</time>
      </trkpt>
      <trkpt lat="48.84812" lon="2.3411">
        <ele>107.2</ele>
        <time>2015-04-06T18:24:39.949Z</time>
      </trkpt>
      <trkpt lat="48.84804" lon="2.34109">
        <ele>106.1</ele>
        <time>2015-04-06T18:24:41.679Z</time>
      </trkpt>
      <trkpt lat="48.84792" lon="2.34104">
        <ele>102.1</ele>
        <time>2015-04-06T18:24:41.855Z</time>
      </trkpt>
      <trkpt lat="48.84785" lon="2.34103">
        <ele>101.4</ele>
        <time>2015-04-06T18:24:42.871Z</time>
      </trkpt>
      <trkpt lat="48.84781" lon="2.34103">
        <ele>101.6</ele>
        <time>2015-04-06T18:24:43.903Z</time>
      </trkpt>
      <trkpt lat="48.84778" lon="2.34101">
        <ele>101.3</ele>
        <time>2015-04-06T18:24:44.913Z</time>
      </trkpt>
      <trkpt lat="48.84772" lon="2.34097">
        <ele>99.9</ele>
        <time>2015-04-06T18:24:45.958Z</time>
      </trkpt>
      <trkpt lat="48.84764" lon="2.34093">
        <ele>99.9</ele>
        <time>2015-04-06T18:24:48.966Z</time>
      </trkpt>
      <trkpt lat="48.84762" lon="2.34092">
        <ele>100.3</ele>
        <time>2015-04-06T18:24:49.902Z</time>
      </trkpt>
      <trkpt lat="48.84753" lon="2.34091">
        <ele>99.9</ele>
        <time>2015-04-06T18:24:53.872Z</time>
      </trkpt>
      <trkpt lat="48.84754" lon="2.3409">
        <ele>100.3</ele>
        <time>2015-04-06T18:24:54.882Z</time>
      </trkpt>
      <trkpt lat="48.84754" lon="2.3409">
        <ele>100.3</ele>
        <time>2015-04-06T18:25:11.631Z</time>
      </trkpt>
      <trkpt lat="48.84752" lon="2.34086">
        <ele>103.5</ele>
        <time>2015-04-06T18:25:11.838Z</time>
      </trkpt>
      <trkpt lat="48.84745" lon="2.34084">
        <ele>104.3</ele>
        <time>2015-04-06T18:25:16.854Z</time>
      </trkpt>
      <trkpt lat="48.84743" lon="2.34083">
        <ele>104.5</ele>
        <time>2015-04-06T18:25:17.892Z</time>
      </trkpt>
      <trkpt lat="48.84737" lon="2.34078">
        <ele>103.7</ele>
        <time>2015-04-06T18:25:20.875Z</time>
      </trkpt>
      <trkpt lat="48.84734" lon="2.34075">
        <ele>103.2</ele>
        <time>2015-04-06T18:25:21.897Z</time>
      </trkpt>
      <trkpt lat="48.84727" lon="2.3407">
        <ele>102.5</ele>
        <time>2015-04-06T18:25:24.876Z</time>
      </trkpt>
      <trkpt lat="48.84725" lon="2.34069">
        <ele>102.4</ele>
        <time>2015-04-06T18:25:25.993Z</time>
      </trkpt>
      <trkpt lat="48.84719" lon="2.34062">
        <ele>102.6</ele>
        <time>2015-04-06T18:25:29.904Z</time>
      </trkpt>
      <trkpt lat="48.84717" lon="2.3406">
        <ele>102.5</ele>
        <time>2015-04-06T18:25:30.910Z</time>
      </trkpt>
      <trkpt lat="48.84712" lon="2.34056">
        <ele>102.4</ele>
        <time>2015-04-06T18:25:33.887Z</time>
      </trkpt>
      <trkpt lat="48.84709" lon="2.34053">
        <ele>102.4</ele>
        <time>2015-04-06T18:25:34.927Z</time>
      </trkpt>
      <trkpt lat="48.84704" lon="2.34048">
        <ele>102</ele>
        <time>2015-04-06T18:25:37.728Z</time>
      </trkpt>
      <trkpt lat="48.84701" lon="2.34046">
        <ele>101.8</ele>
        <time>2015-04-06T18:25:37.932Z</time>
      </trkpt>
      <trkpt lat="48.84694" lon="2.34039">
        <ele>101.5</ele>
        <time>2015-04-06T18:25:41.134Z</time>
      </trkpt>
      <trkpt lat="48.84691" lon="2.34037">
        <ele>101.5</ele>
        <time>2015-04-06T18:25:41.896Z</time>
      </trkpt>
      <trkpt lat="48.84683" lon="2.34033">
        <ele>101.4</ele>
        <time>2015-04-06T18:25:44.930Z</time>
      </trkpt>
      <trkpt lat="48.84681" lon="2.34032">
        <ele>101.3</ele>
        <time>2015-04-06T18:25:45.952Z</time>
      </trkpt>
      <trkpt lat="48.84675" lon="2.3403">
        <ele>101.3</ele>
        <time>2015-04-06T18:25:47.890Z</time>
      </trkpt>
      <trkpt lat="48.84672" lon="2.34027">
        <ele>101.3</ele>
        <time>2015-04-06T18:25:48.936Z</time>
      </trkpt>
      <trkpt lat="48.84665" lon="2.34023">
        <ele>101.5</ele>
        <time>2015-04-06T18:25:50.982Z</time>
      </trkpt>
      <trkpt lat="48.84661" lon="2.34019">
        <ele>101</ele>
        <time>2015-04-06T18:25:51.911Z</time>
      </trkpt>
      <trkpt lat="48.84654" lon="2.34014">
        <ele>101</ele>
        <time>2015-04-06T18:25:53.840Z</time>
      </trkpt>
      <trkpt lat="48.84651" lon="2.3401">
        <ele>101</ele>
        <time>2015-04-06T18:25:54.876Z</time>
      </trkpt>
      <trkpt lat="48.84646" lon="2.34003">
        <ele>101.3</ele>
        <time>2015-04-06T18:25:56.905Z</time>
      </trkpt>
      <trkpt lat="48.84642" lon="2.33999">
        <ele>101.4</ele>
        <time>2015-04-06T18:25:57.916Z</time>
      </trkpt>
      <trkpt lat="48.84638" lon="2.33995">
        <ele>101.5</ele>
        <time>2015-04-06T18:25:58.841Z</time>
      </trkpt>
      <trkpt lat="48.84634" lon="2.33991">
        <ele>101.6</ele>
        <time>2015-04-06T18:25:59.839Z</time>
      </trkpt>
      <trkpt lat="48.84626" lon="2.3399">
        <ele>102.4</ele>
        <time>2015-04-06T18:26:01.015Z</time>
      </trkpt>
      <trkpt lat="48.84617" lon="2.33988">
        <ele>103.2</ele>
        <time>2015-04-06T18:26:01.929Z</time>
      </trkpt>
      <trkpt lat="48.84611" lon="2.33985">
        <ele>103.4</ele>
        <time>2015-04-06T18:26:02.934Z</time>
      </trkpt>
      <trkpt lat="48.84605" lon="2.33981">
        <ele>103.6</ele>
        <time>2015-04-06T18:26:03.861Z</time>
      </trkpt>
      <trkpt lat="48.84599" lon="2.33977">
        <ele>103.8</ele>
        <time>2015-04-06T18:26:04.864Z</time>
      </trkpt>
      <trkpt lat="48.84594" lon="2.33972">
        <ele>104</ele>
        <time>2015-04-06T18:26:05.872Z</time>
      </trkpt>
      <trkpt lat="48.84588" lon="2.33969">
        <ele>104</ele>
        <time>2015-04-06T18:26:06.900Z</time>
      </trkpt>
      <trkpt lat="48.84579" lon="2.33969">
        <ele>104.2</ele>
        <time>2015-04-06T18:26:07.920Z</time>
      </trkpt>
      <trkpt lat="48.8457" lon="2.33967">
        <ele>104.2</ele>
        <time>2015-04-06T18:26:08.844Z</time>
      </trkpt>
      <trkpt lat="48.84561" lon="2.33964">
        <ele>104.4</ele>
        <time>2015-04-06T18:26:09.845Z</time>
      </trkpt>
      <trkpt lat="48.84552" lon="2.33961">
        <ele>104.5</ele>
        <time>2015-04-06T18:26:10.860Z</time>
      </trkpt>
      <trkpt lat="48.8454" lon="2.33958">
        <ele>104.3</ele>
        <time>2015-04-06T18:26:11.902Z</time>
      </trkpt>
      <trkpt lat="48.84523" lon="2.33952">
        <ele>104.7</ele>
        <time>2015-04-06T18:26:13.929Z</time>
      </trkpt>
      <trkpt lat="48.84514" lon="2.33949">
        <ele>105</ele>
        <time>2015-04-06T18:26:14.839Z</time>
      </trkpt>
      <trkpt lat="48.84506" lon="2.33946">
        <ele>105.2</ele>
        <time>2015-04-06T18:26:15.858Z</time>
      </trkpt>
      <trkpt lat="48.84492" lon="2.33944">
        <ele>106.2</ele>
        <time>2015-04-06T18:26:16.869Z</time>
      </trkpt>
      <trkpt lat="48.84482" lon="2.33942">
        <ele>106.8</ele>
        <time>2015-04-06T18:26:17.904Z</time>
      </trkpt>
      <trkpt lat="48.84472" lon="2.33939">
        <ele>107.4</ele>
        <time>2015-04-06T18:26:18.918Z</time>
      </trkpt>
      <trkpt lat="48.84462" lon="2.33938">
        <ele>108</ele>
        <time>2015-04-06T18:26:19.934Z</time>
      </trkpt>
      <trkpt lat="48.84453" lon="2.33937">
        <ele>107.9</ele>
        <time>2015-04-06T18:26:20.852Z</time>
      </trkpt>
      <trkpt lat="48.84442" lon="2.33935">
        <ele>107</ele>
        <time>2015-04-06T18:26:21.867Z</time>
      </trkpt>
      <trkpt lat="48.84433" lon="2.3393">
        <ele>107.1</ele>
        <time>2015-04-06T18:26:22.887Z</time>
      </trkpt>
      <trkpt lat="48.84424" lon="2.33928">
        <ele>107.5</ele>
        <time>2015-04-06T18:26:23.919Z</time>
      </trkpt>
      <trkpt lat="48.84418" lon="2.33925">
        <ele>107.9</ele>
        <time>2015-04-06T18:26:24.945Z</time>
      </trkpt>
      <trkpt lat="48.8441" lon="2.3392">
        <ele>108.9</ele>
        <time>2015-04-06T18:26:26.876Z</time>
      </trkpt>
      <trkpt lat="48.84405" lon="2.33918">
        <ele>109.3</ele>
        <time>2015-04-06T18:26:27.892Z</time>
      </trkpt>
      <trkpt lat="48.84402" lon="2.33917">
        <ele>109.2</ele>
        <time>2015-04-06T18:26:28.922Z</time>
      </trkpt>
      <trkpt lat="48.84396" lon="2.33913">
        <ele>109.8</ele>
        <time>2015-04-06T18:26:29.928Z</time>
      </trkpt>
      <trkpt lat="48.84391" lon="2.33909">
        <ele>110.6</ele>
        <time>2015-04-06T18:26:30.939Z</time>
      </trkpt>
      <trkpt lat="48.84388" lon="2.33905">
        <ele>111.1</ele>
        <time>2015-04-06T18:26:31.951Z</time>
      </trkpt>
      <trkpt lat="48.84383" lon="2.33899">
        <ele>111.1</ele>
        <time>2015-04-06T18:26:33.864Z</time>
      </trkpt>
      <trkpt lat="48.84379" lon="2.33897">
        <ele>111.1</ele>
        <time>2015-04-06T18:26:34.886Z</time>
      </trkpt>
      <trkpt lat="48.84373" lon="2.3389">
        <ele>110.7</ele>
        <time>2015-04-06T18:26:36.916Z</time>
      </trkpt>
      <trkpt lat="48.84369" lon="2.33888">
        <ele>111.4</ele>
        <time>2015-04-06T18:26:37.935Z</time>
      </trkpt>
      <trkpt lat="48.84363" lon="2.3388">
        <ele>112.6</ele>
        <time>2015-04-06T18:26:39.870Z</time>
      </trkpt>
      <trkpt lat="48.84361" lon="2.33875">
        <ele>113.2</ele>
        <time>2015-04-06T18:26:40.893Z</time>
      </trkpt>
      <trkpt lat="48.84356" lon="2.33867">
        <ele>114.1</ele>
        <time>2015-04-06T18:26:42.936Z</time>
      </trkpt>
      <trkpt lat="48.84354" lon="2.33863">
        <ele>114.3</ele>
        <time>2015-04-06T18:26:43.953Z</time>
      </trkpt>
      <trkpt lat="48.84347" lon="2.33857">
        <ele>114.9</ele>
        <time>2015-04-06T18:26:45.900Z</time>
      </trkpt>
      <trkpt lat="48.84342" lon="2.33855">
        <ele>115.4</ele>
        <time>2015-04-06T18:26:46.916Z</time>
      </trkpt>
      <trkpt lat="48.84338" lon="2.33853">
        <ele>115.7</ele>
        <time>2015-04-06T18:26:47.868Z</time>
      </trkpt>
      <trkpt lat="48.84333" lon="2.3385">
        <ele>116.4</ele>
        <time>2015-04-06T18:26:48.873Z</time>
      </trkpt>
      <trkpt lat="48.84328" lon="2.33846">
        <ele>117.1</ele>
        <time>2015-04-06T18:26:49.905Z</time>
      </trkpt>
      <trkpt lat="48.84323" lon="2.33842">
        <ele>117.7</ele>
        <time>2015-04-06T18:26:50.908Z</time>
      </trkpt>
      <trkpt lat="48.84318" lon="2.3384">
        <ele>117.8</ele>
        <time>2015-04-06T18:26:51.940Z</time>
      </trkpt>
      <trkpt lat="48.84312" lon="2.33837">
        <ele>118.3</ele>
        <time>2015-04-06T18:26:52.968Z</time>
      </trkpt>
      <trkpt lat="48.84308" lon="2.33833">
        <ele>118.9</ele>
        <time>2015-04-06T18:26:53.863Z</time>
      </trkpt>
      <trkpt lat="48.84304" lon="2.33831">
        <ele>119.2</ele>
        <time>2015-04-06T18:26:54.867Z</time>
      </trkpt>
      <trkpt lat="48.843" lon="2.33826">
        <ele>119.4</ele>
        <time>2015-04-06T18:26:55.928Z</time>
      </trkpt>
      <trkpt lat="48.84296" lon="2.33822">
        <ele>119.8</ele>
        <time>2015-04-06T18:26:56.954Z</time>
      </trkpt>
      <trkpt lat="48.84289" lon="2.33814">
        <ele>119.9</ele>
        <time>2015-04-06T18:26:58.862Z</time>
      </trkpt>
      <trkpt lat="48.84286" lon="2.3381">
        <ele>120.3</ele>
        <time>2015-04-06T18:26:59.884Z</time>
      </trkpt>
      <trkpt lat="48.84279" lon="2.33803">
        <ele>120.7</ele>
        <time>2015-04-06T18:27:01.925Z</time>
      </trkpt>
      <trkpt lat="48.84273" lon="2.33802">
        <ele>121.1</ele>
        <time>2015-04-06T18:27:02.926Z</time>
      </trkpt>
      <trkpt lat="48.84266" lon="2.33804">
        <ele>120.9</ele>
        <time>2015-04-06T18:27:26.886Z</time>
      </trkpt>
      <trkpt lat="48.84256" lon="2.33811">
        <ele>119.1</ele>
        <time>2015-04-06T18:27:27.906Z</time>
      </trkpt>
      <trkpt lat="48.84249" lon="2.33809">
        <ele>119.3</ele>
        <time>2015-04-06T18:27:29.859Z</time>
      </trkpt>
      <trkpt lat="48.84245" lon="2.33807">
        <ele>119.3</ele>
        <time>2015-04-06T18:27:30.884Z</time>
      </trkpt>
      <trkpt lat="48.84241" lon="2.33804">
        <ele>119.4</ele>
        <time>2015-04-06T18:27:31.962Z</time>
      </trkpt>
      <trkpt lat="48.84236" lon="2.338">
        <ele>119.6</ele>
        <time>2015-04-06T18:27:32.853Z</time>
      </trkpt>
      <trkpt lat="48.8423" lon="2.33796">
        <ele>119.9</ele>
        <time>2015-04-06T18:27:33.858Z</time>
      </trkpt>
      <trkpt lat="48.84226" lon="2.33794">
        <ele>120</ele>
        <time>2015-04-06T18:27:34.867Z</time>
      </trkpt>
      <trkpt lat="48.84218" lon="2.33791">
        <ele>119.9</ele>
        <time>2015-04-06T18:27:36.878Z</time>
      </trkpt>
      <trkpt lat="48.84213" lon="2.33789">
        <ele>119.6</ele>
        <time>2015-04-06T18:27:37.916Z</time>
      </trkpt>
      <trkpt lat="48.84207" lon="2.33785">
        <ele>118.4</ele>
        <time>2015-04-06T18:27:38.948Z</time>
      </trkpt>
      <trkpt lat="48.84198" lon="2.33781">
        <ele>116.9</ele>
        <time>2015-04-06T18:27:39.851Z</time>
      </trkpt>
      <trkpt lat="48.84192" lon="2.33775">
        <ele>116.2</ele>
        <time>2015-04-06T18:27:40.863Z</time>
      </trkpt>
      <trkpt lat="48.84187" lon="2.33771">
        <ele>115.9</ele>
        <time>2015-04-06T18:27:41.868Z</time>
      </trkpt>
      <trkpt lat="48.84181" lon="2.33768">
        <ele>115.3</ele>
        <time>2015-04-06T18:27:42.879Z</time>
      </trkpt>
      <trkpt lat="48.84176" lon="2.33765">
        <ele>115.2</ele>
        <time>2015-04-06T18:27:43.888Z</time>
      </trkpt>
      <trkpt lat="48.84171" lon="2.33761">
        <ele>115.9</ele>
        <time>2015-04-06T18:27:44.895Z</time>
      </trkpt>
      <trkpt lat="48.84167" lon="2.33761">
        <ele>115.9</ele>
        <time>2015-04-06T18:27:45.906Z</time>
      </trkpt>
      <trkpt lat="48.84162" lon="2.33756">
        <ele>116</ele>
        <time>2015-04-06T18:27:47.921Z</time>
      </trkpt>
      <trkpt lat="48.84159" lon="2.33754">
        <ele>115.9</ele>
        <time>2015-04-06T18:27:48.949Z</time>
      </trkpt>
      <trkpt lat="48.84154" lon="2.33751">
        <ele>115.1</ele>
        <time>2015-04-06T18:27:49.979Z</time>
      </trkpt>
      <trkpt lat="48.8415" lon="2.33748">
        <ele>114.5</ele>
        <time>2015-04-06T18:27:50.855Z</time>
      </trkpt>
      <trkpt lat="48.84144" lon="2.33746">
        <ele>113.9</ele>
        <time>2015-04-06T18:27:51.859Z</time>
      </trkpt>
      <trkpt lat="48.84137" lon="2.33746">
        <ele>113.5</ele>
        <time>2015-04-06T18:27:52.862Z</time>
      </trkpt>
      <trkpt lat="48.8413" lon="2.33741">
        <ele>113.1</ele>
        <time>2015-04-06T18:27:54.892Z</time>
      </trkpt>
      <trkpt lat="48.84127" lon="2.33739">
        <ele>113</ele>
        <time>2015-04-06T18:27:55.922Z</time>
      </trkpt>
      <trkpt lat="48.8412" lon="2.33736">
        <ele>113.1</ele>
        <time>2015-04-06T18:27:57.854Z</time>
      </trkpt>
      <trkpt lat="48.84116" lon="2.33734">
        <ele>113.5</ele>
        <time>2015-04-06T18:27:58.876Z</time>
      </trkpt>
      <trkpt lat="48.8411" lon="2.33733">
        <ele>113.8</ele>
        <time>2015-04-06T18:27:59.918Z</time>
      </trkpt>
      <trkpt lat="48.84103" lon="2.3373">
        <ele>113.7</ele>
        <time>2015-04-06T18:28:00.956Z</time>
      </trkpt>
      <trkpt lat="48.84098" lon="2.33727">
        <ele>113.9</ele>
        <time>2015-04-06T18:28:01.958Z</time>
      </trkpt>
      <trkpt lat="48.84092" lon="2.33725">
        <ele>114.2</ele>
        <time>2015-04-06T18:28:02.856Z</time>
      </trkpt>
      <trkpt lat="48.84085" lon="2.3372">
        <ele>114.1</ele>
        <time>2015-04-06T18:28:04.905Z</time>
      </trkpt>
      <trkpt lat="48.84081" lon="2.33716">
        <ele>113.9</ele>
        <time>2015-04-06T18:28:05.924Z</time>
      </trkpt>
      <trkpt lat="48.84077" lon="2.33712">
        <ele>113.5</ele>
        <time>2015-04-06T18:28:06.964Z</time>
      </trkpt>
      <trkpt lat="48.84074" lon="2.33708">
        <ele>113.8</ele>
        <time>2015-04-06T18:28:07.969Z</time>
      </trkpt>
      <trkpt lat="48.84067" lon="2.337">
        <ele>114.4</ele>
        <time>2015-04-06T18:28:09.860Z</time>
      </trkpt>
      <trkpt lat="48.84065" lon="2.33696">
        <ele>114</ele>
        <time>2015-04-06T18:28:10.891Z</time>
      </trkpt>
      <trkpt lat="48.84061" lon="2.33689">
        <ele>116.3</ele>
        <time>2015-04-06T18:28:15.894Z</time>
      </trkpt>
      <trkpt lat="48.84061" lon="2.33683">
        <ele>116.9</ele>
        <time>2015-04-06T18:28:16.913Z</time>
      </trkpt>
      <trkpt lat="48.84053" lon="2.33678">
        <ele>117.7</ele>
        <time>2015-04-06T18:28:18.954Z</time>
      </trkpt>
      <trkpt lat="48.84048" lon="2.33675">
        <ele>117.8</ele>
        <time>2015-04-06T18:28:19.962Z</time>
      </trkpt>
      <trkpt lat="48.84044" lon="2.33673">
        <ele>117.6</ele>
        <time>2015-04-06T18:28:20.844Z</time>
      </trkpt>
      <trkpt lat="48.84038" lon="2.33673">
        <ele>117.3</ele>
        <time>2015-04-06T18:28:21.884Z</time>
      </trkpt>
      <trkpt lat="48.84033" lon="2.33672">
        <ele>117.6</ele>
        <time>2015-04-06T18:28:22.874Z</time>
      </trkpt>
      <trkpt lat="48.84028" lon="2.33672">
        <ele>118</ele>
        <time>2015-04-06T18:28:23.894Z</time>
      </trkpt>
      <trkpt lat="48.84023" lon="2.33672">
        <ele>118.1</ele>
        <time>2015-04-06T18:28:24.434Z</time>
      </trkpt>
      <trkpt lat="48.84017" lon="2.33673">
        <ele>118</ele>
        <time>2015-04-06T18:28:25.912Z</time>
      </trkpt>
      <trkpt lat="48.84011" lon="2.33674">
        <ele>118.3</ele>
        <time>2015-04-06T18:28:27.359Z</time>
      </trkpt>
      <trkpt lat="48.84007" lon="2.33674">
        <ele>118.5</ele>
        <time>2015-04-06T18:28:27.864Z</time>
      </trkpt>
      <trkpt lat="48.84" lon="2.33672">
        <ele>118.3</ele>
        <time>2015-04-06T18:28:30.878Z</time>
      </trkpt>
      <trkpt lat="48.83998" lon="2.33673">
        <ele>118.3</ele>
        <time>2015-04-06T18:28:32.006Z</time>
      </trkpt>
      <trkpt lat="48.8399" lon="2.33668">
        <ele>118.7</ele>
        <time>2015-04-06T18:28:35.894Z</time>
      </trkpt>
      <trkpt lat="48.83988" lon="2.33667">
        <ele>119.2</ele>
        <time>2015-04-06T18:28:36.933Z</time>
      </trkpt>
      <trkpt lat="48.8398" lon="2.33667">
        <ele>119.9</ele>
        <time>2015-04-06T18:28:39.833Z</time>
      </trkpt>
      <trkpt lat="48.83978" lon="2.33667">
        <ele>120</ele>
        <time>2015-04-06T18:28:40.860Z</time>
      </trkpt>
      <trkpt lat="48.83971" lon="2.33672">
        <ele>121.8</ele>
        <time>2015-04-06T18:28:43.968Z</time>
      </trkpt>
      <trkpt lat="48.83969" lon="2.33674">
        <ele>122.1</ele>
        <time>2015-04-06T18:28:44.868Z</time>
      </trkpt>
      <trkpt lat="48.83963" lon="2.33677">
        <ele>122.6</ele>
        <time>2015-04-06T18:28:46.871Z</time>
      </trkpt>
      <trkpt lat="48.8396" lon="2.33678">
        <ele>122.7</ele>
        <time>2015-04-06T18:28:47.884Z</time>
      </trkpt>
      <trkpt lat="48.83954" lon="2.33679">
        <ele>123.3</ele>
        <time>2015-04-06T18:28:49.905Z</time>
      </trkpt>
      <trkpt lat="48.83949" lon="2.3368">
        <ele>123.7</ele>
        <time>2015-04-06T18:28:50.907Z</time>
      </trkpt>
      <trkpt lat="48.83942" lon="2.33679">
        <ele>124.3</ele>
        <time>2015-04-06T18:28:53.063Z</time>
      </trkpt>
      <trkpt lat="48.83939" lon="2.33677">
        <ele>124.7</ele>
        <time>2015-04-06T18:28:53.835Z</time>
      </trkpt>
      <trkpt lat="48.83933" lon="2.33674">
        <ele>125.2</ele>
        <time>2015-04-06T18:28:56.007Z</time>
      </trkpt>
      <trkpt lat="48.8393" lon="2.33673">
        <ele>125.4</ele>
        <time>2015-04-06T18:28:56.895Z</time>
      </trkpt>
      <trkpt lat="48.83924" lon="2.33671">
        <ele>126.5</ele>
        <time>2015-04-06T18:28:58.916Z</time>
      </trkpt>
      <trkpt lat="48.83921" lon="2.3367">
        <ele>127</ele>
        <time>2015-04-06T18:28:59.926Z</time>
      </trkpt>
      <trkpt lat="48.83913" lon="2.33671">
        <ele>127.1</ele>
        <time>2015-04-06T18:29:01.467Z</time>
      </trkpt>
      <trkpt lat="48.83908" lon="2.33672">
        <ele>127.4</ele>
        <time>2015-04-06T18:29:02.929Z</time>
      </trkpt>
      <trkpt lat="48.83899" lon="2.33671">
        <ele>127.4</ele>
        <time>2015-04-06T18:29:04.856Z</time>
      </trkpt>
      <trkpt lat="48.83894" lon="2.33672">
        <ele>127.5</ele>
        <time>2015-04-06T18:29:05.861Z</time>
      </trkpt>
      <trkpt lat="48.83889" lon="2.33674">
        <ele>127.8</ele>
        <time>2015-04-06T18:29:06.891Z</time>
      </trkpt>
      <trkpt lat="48.83882" lon="2.33674">
        <ele>127.5</ele>
        <time>2015-04-06T18:29:07.914Z</time>
      </trkpt>
      <trkpt lat="48.83876" lon="2.33673">
        <ele>127.2</ele>
        <time>2015-04-06T18:29:08.907Z</time>
      </trkpt>
      <trkpt lat="48.83869" lon="2.33672">
        <ele>126.8</ele>
        <time>2015-04-06T18:29:09.919Z</time>
      </trkpt>
      <trkpt lat="48.83862" lon="2.33666">
        <ele>127</ele>
        <time>2015-04-06T18:29:11.836Z</time>
      </trkpt>
      <trkpt lat="48.83859" lon="2.33662">
        <ele>127</ele>
        <time>2015-04-06T18:29:12.886Z</time>
      </trkpt>
      <trkpt lat="48.83857" lon="2.33658">
        <ele>127.1</ele>
        <time>2015-04-06T18:29:13.919Z</time>
      </trkpt>
      <trkpt lat="48.83851" lon="2.33651">
        <ele>125.7</ele>
        <time>2015-04-06T18:29:14.929Z</time>
      </trkpt>
      <trkpt lat="48.83846" lon="2.33644">
        <ele>124.9</ele>
        <time>2015-04-06T18:29:16.561Z</time>
      </trkpt>
      <trkpt lat="48.8384" lon="2.33639">
        <ele>124.8</ele>
        <time>2015-04-06T18:29:16.961Z</time>
      </trkpt>
      <trkpt lat="48.83834" lon="2.33631">
        <ele>124.9</ele>
        <time>2015-04-06T18:29:18.964Z</time>
      </trkpt>
      <trkpt lat="48.83832" lon="2.33625">
        <ele>124.9</ele>
        <time>2015-04-06T18:29:19.909Z</time>
      </trkpt>
      <trkpt lat="48.83827" lon="2.33615">
        <ele>124.7</ele>
        <time>2015-04-06T18:29:21.837Z</time>
      </trkpt>
      <trkpt lat="48.83822" lon="2.3361">
        <ele>124.4</ele>
        <time>2015-04-06T18:29:22.838Z</time>
      </trkpt>
      <trkpt lat="48.83817" lon="2.33607">
        <ele>124.6</ele>
        <time>2015-04-06T18:29:23.877Z</time>
      </trkpt>
      <trkpt lat="48.83811" lon="2.33602">
        <ele>124.3</ele>
        <time>2015-04-06T18:29:24.882Z</time>
      </trkpt>
      <trkpt lat="48.83806" lon="2.33598">
        <ele>124.1</ele>
        <time>2015-04-06T18:29:26.747Z</time>
      </trkpt>
      <trkpt lat="48.83803" lon="2.33594">
        <ele>123.9</ele>
        <time>2015-04-06T18:29:26.899Z</time>
      </trkpt>
      <trkpt lat="48.83799" lon="2.3359">
        <ele>123.7</ele>
        <time>2015-04-06T18:29:27.917Z</time>
      </trkpt>
      <trkpt lat="48.83796" lon="2.33585">
        <ele>123.4</ele>
        <time>2015-04-06T18:29:28.949Z</time>
      </trkpt>
      <trkpt lat="48.8379" lon="2.3358">
        <ele>123</ele>
        <time>2015-04-06T18:29:29.874Z</time>
      </trkpt>
      <trkpt lat="48.83785" lon="2.33576">
        <ele>123</ele>
        <time>2015-04-06T18:29:30.890Z</time>
      </trkpt>
      <trkpt lat="48.83779" lon="2.33571">
        <ele>123</ele>
        <time>2015-04-06T18:29:31.901Z</time>
      </trkpt>
      <trkpt lat="48.83775" lon="2.33566">
        <ele>123.1</ele>
        <time>2015-04-06T18:29:32.909Z</time>
      </trkpt>
      <trkpt lat="48.83772" lon="2.3356">
        <ele>123</ele>
        <time>2015-04-06T18:29:33.920Z</time>
      </trkpt>
      <trkpt lat="48.83768" lon="2.33555">
        <ele>122.6</ele>
        <time>2015-04-06T18:29:34.933Z</time>
      </trkpt>
      <trkpt lat="48.83764" lon="2.3355">
        <ele>122.3</ele>
        <time>2015-04-06T18:29:35.868Z</time>
      </trkpt>
      <trkpt lat="48.83759" lon="2.33545">
        <ele>122</ele>
        <time>2015-04-06T18:29:36.898Z</time>
      </trkpt>
      <trkpt lat="48.83754" lon="2.3354">
        <ele>121.3</ele>
        <time>2015-04-06T18:29:37.907Z</time>
      </trkpt>
      <trkpt lat="48.83745" lon="2.33534">
        <ele>119.6</ele>
        <time>2015-04-06T18:29:38.923Z</time>
      </trkpt>
      <trkpt lat="48.83741" lon="2.3353">
        <ele>119.3</ele>
        <time>2015-04-06T18:29:39.931Z</time>
      </trkpt>
      <trkpt lat="48.83737" lon="2.33525">
        <ele>119.2</ele>
        <time>2015-04-06T18:29:40.931Z</time>
      </trkpt>
      <trkpt lat="48.83734" lon="2.3352">
        <ele>119</ele>
        <time>2015-04-06T18:29:42.075Z</time>
      </trkpt>
      <trkpt lat="48.83729" lon="2.33515">
        <ele>118.4</ele>
        <time>2015-04-06T18:29:42.869Z</time>
      </trkpt>
      <trkpt lat="48.83724" lon="2.33509">
        <ele>117.9</ele>
        <time>2015-04-06T18:29:43.973Z</time>
      </trkpt>
      <trkpt lat="48.83718" lon="2.33503">
        <ele>117.7</ele>
        <time>2015-04-06T18:29:44.861Z</time>
      </trkpt>
      <trkpt lat="48.83711" lon="2.33499">
        <ele>117.2</ele>
        <time>2015-04-06T18:29:45.885Z</time>
      </trkpt>
      <trkpt lat="48.83706" lon="2.33493">
        <ele>116.6</ele>
        <time>2015-04-06T18:29:46.896Z</time>
      </trkpt>
      <trkpt lat="48.837" lon="2.33487">
        <ele>116.2</ele>
        <time>2015-04-06T18:29:47.912Z</time>
      </trkpt>
      <trkpt lat="48.83695" lon="2.33479">
        <ele>115.7</ele>
        <time>2015-04-06T18:29:48.917Z</time>
      </trkpt>
      <trkpt lat="48.83689" lon="2.33472">
        <ele>115.2</ele>
        <time>2015-04-06T18:29:49.927Z</time>
      </trkpt>
      <trkpt lat="48.83682" lon="2.33465">
        <ele>114.3</ele>
        <time>2015-04-06T18:29:50.932Z</time>
      </trkpt>
      <trkpt lat="48.83676" lon="2.33458">
        <ele>113.9</ele>
        <time>2015-04-06T18:29:51.940Z</time>
      </trkpt>
      <trkpt lat="48.8367" lon="2.33452">
        <ele>113.7</ele>
        <time>2015-04-06T18:29:52.836Z</time>
      </trkpt>
      <trkpt lat="48.83664" lon="2.33447">
        <ele>113.8</ele>
        <time>2015-04-06T18:29:53.863Z</time>
      </trkpt>
      <trkpt lat="48.83657" lon="2.33441">
        <ele>113.4</ele>
        <time>2015-04-06T18:29:54.865Z</time>
      </trkpt>
      <trkpt lat="48.83651" lon="2.33436">
        <ele>113.1</ele>
        <time>2015-04-06T18:29:55.910Z</time>
      </trkpt>
      <trkpt lat="48.83645" lon="2.33431">
        <ele>113.3</ele>
        <time>2015-04-06T18:29:56.922Z</time>
      </trkpt>
      <trkpt lat="48.8364" lon="2.33425">
        <ele>113.6</ele>
        <time>2015-04-06T18:29:57.850Z</time>
      </trkpt>
      <trkpt lat="48.83634" lon="2.33418">
        <ele>113.5</ele>
        <time>2015-04-06T18:29:58.846Z</time>
      </trkpt>
      <trkpt lat="48.83629" lon="2.33412">
        <ele>113.2</ele>
        <time>2015-04-06T18:29:59.866Z</time>
      </trkpt>
      <trkpt lat="48.83621" lon="2.33408">
        <ele>113.3</ele>
        <time>2015-04-06T18:30:00.877Z</time>
      </trkpt>
      <trkpt lat="48.83614" lon="2.33405">
        <ele>113.9</ele>
        <time>2015-04-06T18:30:01.914Z</time>
      </trkpt>
      <trkpt lat="48.83606" lon="2.33401">
        <ele>114.3</ele>
        <time>2015-04-06T18:30:02.908Z</time>
      </trkpt>
      <trkpt lat="48.83598" lon="2.33396">
        <ele>114.2</ele>
        <time>2015-04-06T18:30:03.911Z</time>
      </trkpt>
      <trkpt lat="48.8359" lon="2.3339">
        <ele>114.4</ele>
        <time>2015-04-06T18:30:04.954Z</time>
      </trkpt>
      <trkpt lat="48.83584" lon="2.33384">
        <ele>113.7</ele>
        <time>2015-04-06T18:30:05.835Z</time>
      </trkpt>
      <trkpt lat="48.83577" lon="2.33379">
        <ele>113.2</ele>
        <time>2015-04-06T18:30:06.849Z</time>
      </trkpt>
      <trkpt lat="48.83572" lon="2.33376">
        <ele>112.9</ele>
        <time>2015-04-06T18:30:07.904Z</time>
      </trkpt>
      <trkpt lat="48.83567" lon="2.33371">
        <ele>112.7</ele>
        <time>2015-04-06T18:30:08.921Z</time>
      </trkpt>
      <trkpt lat="48.83562" lon="2.33365">
        <ele>112.6</ele>
        <time>2015-04-06T18:30:09.860Z</time>
      </trkpt>
      <trkpt lat="48.83556" lon="2.33359">
        <ele>112.7</ele>
        <time>2015-04-06T18:30:10.871Z</time>
      </trkpt>
      <trkpt lat="48.83551" lon="2.33353">
        <ele>112.8</ele>
        <time>2015-04-06T18:30:11.894Z</time>
      </trkpt>
      <trkpt lat="48.83547" lon="2.33347">
        <ele>113</ele>
        <time>2015-04-06T18:30:12.918Z</time>
      </trkpt>
      <trkpt lat="48.83545" lon="2.33342">
        <ele>113.1</ele>
        <time>2015-04-06T18:30:13.933Z</time>
      </trkpt>
      <trkpt lat="48.83541" lon="2.33337">
        <ele>113.6</ele>
        <time>2015-04-06T18:30:14.951Z</time>
      </trkpt>
      <trkpt lat="48.83537" lon="2.33332">
        <ele>114.1</ele>
        <time>2015-04-06T18:30:15.850Z</time>
      </trkpt>
      <trkpt lat="48.83534" lon="2.33327">
        <ele>114.5</ele>
        <time>2015-04-06T18:30:16.848Z</time>
      </trkpt>
      <trkpt lat="48.83529" lon="2.33325">
        <ele>114.9</ele>
        <time>2015-04-06T18:30:17.852Z</time>
      </trkpt>
      <trkpt lat="48.83526" lon="2.33322">
        <ele>115.2</ele>
        <time>2015-04-06T18:30:18.859Z</time>
      </trkpt>
      <trkpt lat="48.83518" lon="2.33316">
        <ele>115.7</ele>
        <time>2015-04-06T18:30:20.930Z</time>
      </trkpt>
      <trkpt lat="48.83514" lon="2.33313">
        <ele>115.6</ele>
        <time>2015-04-06T18:30:21.975Z</time>
      </trkpt>
      <trkpt lat="48.8351" lon="2.3331">
        <ele>115.7</ele>
        <time>2015-04-06T18:30:22.864Z</time>
      </trkpt>
      <trkpt lat="48.83503" lon="2.33306">
        <ele>115.7</ele>
        <time>2015-04-06T18:30:23.868Z</time>
      </trkpt>
      <trkpt lat="48.83492" lon="2.333">
        <ele>114.3</ele>
        <time>2015-04-06T18:30:24.886Z</time>
      </trkpt>
      <trkpt lat="48.83485" lon="2.33296">
        <ele>113.8</ele>
        <time>2015-04-06T18:30:25.921Z</time>
      </trkpt>
      <trkpt lat="48.83479" lon="2.33291">
        <ele>113.7</ele>
        <time>2015-04-06T18:30:26.943Z</time>
      </trkpt>
      <trkpt lat="48.83475" lon="2.33287">
        <ele>114</ele>
        <time>2015-04-06T18:30:27.870Z</time>
      </trkpt>
      <trkpt lat="48.83471" lon="2.33283">
        <ele>114.2</ele>
        <time>2015-04-06T18:30:28.872Z</time>
      </trkpt>
      <trkpt lat="48.83466" lon="2.33287">
        <ele>114.7</ele>
        <time>2015-04-06T18:31:40.854Z</time>
      </trkpt>
      <trkpt lat="48.83456" lon="2.33292">
        <ele>120</ele>
        <time>2015-04-06T18:31:41.875Z</time>
      </trkpt>
      <trkpt lat="48.8345" lon="2.33301">
        <ele>118.2</ele>
        <time>2015-04-06T18:31:46.919Z</time>
      </trkpt>
      <trkpt lat="48.83448" lon="2.33304">
        <ele>118</ele>
        <time>2015-04-06T18:31:47.998Z</time>
      </trkpt>
      <trkpt lat="48.83442" lon="2.33311">
        <ele>116.9</ele>
        <time>2015-04-06T18:31:51.952Z</time>
      </trkpt>
      <trkpt lat="48.8344" lon="2.33314">
        <ele>116.6</ele>
        <time>2015-04-06T18:31:52.881Z</time>
      </trkpt>
      <trkpt lat="48.83436" lon="2.33323">
        <ele>115.8</ele>
        <time>2015-04-06T18:31:56.928Z</time>
      </trkpt>
      <trkpt lat="48.83434" lon="2.33325">
        <ele>115.8</ele>
        <time>2015-04-06T18:31:57.880Z</time>
      </trkpt>
      <trkpt lat="48.83434" lon="2.33325">
        <ele>115.8</ele>
        <time>2015-04-06T18:32:05.884Z</time>
      </trkpt>
      <trkpt lat="48.83422" lon="2.33339">
        <ele>117.4</ele>
        <time>2015-04-06T18:32:06.921Z</time>
      </trkpt>
      <trkpt lat="48.83417" lon="2.33345">
        <ele>116.9</ele>
        <time>2015-04-06T18:32:08.860Z</time>
      </trkpt>
      <trkpt lat="48.83414" lon="2.33348">
        <ele>117</ele>
        <time>2015-04-06T18:32:09.887Z</time>
      </trkpt>
      <trkpt lat="48.83408" lon="2.33353">
        <ele>117.4</ele>
        <time>2015-04-06T18:32:11.928Z</time>
      </trkpt>
      <trkpt lat="48.83405" lon="2.33356">
        <ele>117.3</ele>
        <time>2015-04-06T18:32:12.943Z</time>
      </trkpt>
      <trkpt lat="48.83399" lon="2.33359">
        <ele>117.3</ele>
        <time>2015-04-06T18:32:14.908Z</time>
      </trkpt>
      <trkpt lat="48.83396" lon="2.33361">
        <ele>116.9</ele>
        <time>2015-04-06T18:32:15.917Z</time>
      </trkpt>
      <trkpt lat="48.83389" lon="2.33364">
        <ele>117.4</ele>
        <time>2015-04-06T18:32:24.977Z</time>
      </trkpt>
      <trkpt lat="48.83367" lon="2.33367">
        <ele>114.1</ele>
        <time>2015-04-06T18:32:25.934Z</time>
      </trkpt>
      <trkpt lat="48.8336" lon="2.33362">
        <ele>112.8</ele>
        <time>2015-04-06T18:32:27.891Z</time>
      </trkpt>
      <trkpt lat="48.83359" lon="2.33358">
        <ele>112.5</ele>
        <time>2015-04-06T18:32:28.889Z</time>
      </trkpt>
      <trkpt lat="48.83353" lon="2.33352">
        <ele>110.7</ele>
        <time>2015-04-06T18:32:31.946Z</time>
      </trkpt>
      <trkpt lat="48.83352" lon="2.33349">
        <ele>110.2</ele>
        <time>2015-04-06T18:32:32.858Z</time>
      </trkpt>
      <trkpt lat="48.83344" lon="2.33344">
        <ele>110.1</ele>
        <time>2015-04-06T18:32:35.920Z</time>
      </trkpt>
      <trkpt lat="48.83342" lon="2.33344">
        <ele>110.4</ele>
        <time>2015-04-06T18:32:36.932Z</time>
      </trkpt>
      <trkpt lat="48.83347" lon="2.33343">
        <ele>111.8</ele>
        <time>2015-04-06T18:33:28.080Z</time>
      </trkpt>
      <trkpt lat="48.8335" lon="2.33334">
        <ele>116.1</ele>
        <time>2015-04-06T18:33:28.897Z</time>
      </trkpt>
      <trkpt lat="48.83351" lon="2.33333">
        <ele>116.6</ele>
        <time>2015-04-06T18:33:29.866Z</time>
      </trkpt>
      <trkpt lat="48.83351" lon="2.33331">
        <ele>117.7</ele>
        <time>2015-04-06T18:33:30.889Z</time>
      </trkpt>
      <trkpt lat="48.83351" lon="2.3333">
        <ele>118.6</ele>
        <time>2015-04-06T18:34:18.869Z</time>
      </trkpt>
      <trkpt lat="48.83336" lon="2.33322">
        <ele>123.2</ele>
        <time>2015-04-06T18:35:24.944Z</time>
      </trkpt>
      <trkpt lat="48.83336" lon="2.33322">
        <ele>123.2</ele>
        <time>2015-04-06T18:36:13.900Z</time>
      </trkpt>
      <trkpt lat="48.83341" lon="2.3334">
        <ele>116.6</ele>
        <time>2015-04-06T18:36:14.907Z</time>
      </trkpt>
      <trkpt lat="48.83337" lon="2.33341">
        <ele>116.3</ele>
        <time>2015-04-06T18:36:18.854Z</time>
      </trkpt>
      <trkpt lat="48.8333" lon="2.3334">
        <ele>116.1</ele>
        <time>2015-04-06T18:36:19.851Z</time>
      </trkpt>
      <trkpt lat="48.83325" lon="2.3334">
        <ele>115.8</ele>
        <time>2015-04-06T18:36:20.852Z</time>
      </trkpt>
      <trkpt lat="48.83321" lon="2.33338">
        <ele>115.7</ele>
        <time>2015-04-06T18:36:21.868Z</time>
      </trkpt>
      <trkpt lat="48.83321" lon="2.33337">
        <ele>115.2</ele>
        <time>2015-04-06T18:37:01.936Z</time>
      </trkpt>
      <trkpt lat="48.83341" lon="2.33343">
        <ele>118.3</ele>
        <time>2015-04-06T18:37:02.943Z</time>
      </trkpt>
      <trkpt lat="48.83345" lon="2.33346">
        <ele>118.2</ele>
        <time>2015-04-06T18:37:03.859Z</time>
      </trkpt>
      <trkpt lat="48.83351" lon="2.3335">
        <ele>117.6</ele>
        <time>2015-04-06T18:37:04.860Z</time>
      </trkpt>
      <trkpt lat="48.83359" lon="2.33356">
        <ele>117.3</ele>
        <time>2015-04-06T18:37:06.900Z</time>
      </trkpt>
      <trkpt lat="48.83363" lon="2.33359">
        <ele>116.9</ele>
        <time>2015-04-06T18:37:07.932Z</time>
      </trkpt>
      <trkpt lat="48.8337" lon="2.33362">
        <ele>116.9</ele>
        <time>2015-04-06T18:37:09.880Z</time>
      </trkpt>
      <trkpt lat="48.83373" lon="2.33359">
        <ele>115.2</ele>
        <time>2015-04-06T18:37:10.903Z</time>
      </trkpt>
      <trkpt lat="48.83382" lon="2.33356">
        <ele>114.1</ele>
        <time>2015-04-06T18:37:14.936Z</time>
      </trkpt>
      <trkpt lat="48.83385" lon="2.33355">
        <ele>114.1</ele>
        <time>2015-04-06T18:37:15.865Z</time>
      </trkpt>
      <trkpt lat="48.83391" lon="2.33352">
        <ele>114.4</ele>
        <time>2015-04-06T18:37:17.970Z</time>
      </trkpt>
      <trkpt lat="48.83394" lon="2.33352">
        <ele>114.5</ele>
        <time>2015-04-06T18:37:18.879Z</time>
      </trkpt>
      <trkpt lat="48.83402" lon="2.33349">
        <ele>114.8</ele>
        <time>2015-04-06T18:37:20.899Z</time>
      </trkpt>
      <trkpt lat="48.83404" lon="2.33347">
        <ele>115.2</ele>
        <time>2015-04-06T18:37:21.907Z</time>
      </trkpt>
      <trkpt lat="48.8341" lon="2.33344">
        <ele>115.2</ele>
        <time>2015-04-06T18:37:23.832Z</time>
      </trkpt>
      <trkpt lat="48.83414" lon="2.33343">
        <ele>115.4</ele>
        <time>2015-04-06T18:37:24.885Z</time>
      </trkpt>
      <trkpt lat="48.8342" lon="2.3334">
        <ele>115.8</ele>
        <time>2015-04-06T18:37:50.854Z</time>
      </trkpt>
      <trkpt lat="48.83429" lon="2.3333">
        <ele>112</ele>
        <time>2015-04-06T18:37:51.850Z</time>
      </trkpt>
      <trkpt lat="48.83434" lon="2.33318">
        <ele>112.2</ele>
        <time>2015-04-06T18:37:56.919Z</time>
      </trkpt>
      <trkpt lat="48.83434" lon="2.33316">
        <ele>112.4</ele>
        <time>2015-04-06T18:37:57.936Z</time>
      </trkpt>
      <trkpt lat="48.83434" lon="2.33314">
        <ele>112.6</ele>
        <time>2015-04-06T18:38:16.881Z</time>
      </trkpt>
      <trkpt lat="48.83447" lon="2.33296">
        <ele>115.3</ele>
        <time>2015-04-06T18:38:17.905Z</time>
      </trkpt>
      <trkpt lat="48.83453" lon="2.33294">
        <ele>115.3</ele>
        <time>2015-04-06T18:38:25.274Z</time>
      </trkpt>
      <trkpt lat="48.83454" lon="2.33288">
        <ele>116.1</ele>
        <time>2015-04-06T18:38:25.914Z</time>
      </trkpt>
      <trkpt lat="48.83461" lon="2.33281">
        <ele>120</ele>
        <time>2015-04-06T18:38:44.880Z</time>
      </trkpt>
      <trkpt lat="48.83464" lon="2.33281">
        <ele>120</ele>
        <time>2015-04-06T18:38:45.956Z</time>
      </trkpt>
      <trkpt lat="48.83472" lon="2.33285">
        <ele>120.6</ele>
        <time>2015-04-06T18:38:48.916Z</time>
      </trkpt>
      <trkpt lat="48.83475" lon="2.33286">
        <ele>121</ele>
        <time>2015-04-06T18:38:49.989Z</time>
      </trkpt>
      <trkpt lat="48.83482" lon="2.3329">
        <ele>121</ele>
        <time>2015-04-06T18:38:51.855Z</time>
      </trkpt>
      <trkpt lat="48.83487" lon="2.33294">
        <ele>120.7</ele>
        <time>2015-04-06T18:38:52.882Z</time>
      </trkpt>
      <trkpt lat="48.83494" lon="2.333">
        <ele>121</ele>
        <time>2015-04-06T18:38:54.934Z</time>
      </trkpt>
      <trkpt lat="48.83498" lon="2.33303">
        <ele>120.6</ele>
        <time>2015-04-06T18:38:55.947Z</time>
      </trkpt>
      <trkpt lat="48.83504" lon="2.33311">
        <ele>121.1</ele>
        <time>2015-04-06T18:38:57.826Z</time>
      </trkpt>
      <trkpt lat="48.83511" lon="2.33317">
        <ele>119.6</ele>
        <time>2015-04-06T18:38:58.891Z</time>
      </trkpt>
      <trkpt lat="48.83518" lon="2.33322">
        <ele>118.5</ele>
        <time>2015-04-06T18:38:59.869Z</time>
      </trkpt>
      <trkpt lat="48.83525" lon="2.33326">
        <ele>117.6</ele>
        <time>2015-04-06T18:39:00.871Z</time>
      </trkpt>
      <trkpt lat="48.83531" lon="2.33331">
        <ele>117.1</ele>
        <time>2015-04-06T18:39:01.948Z</time>
      </trkpt>
      <trkpt lat="48.83536" lon="2.33335">
        <ele>117</ele>
        <time>2015-04-06T18:39:02.862Z</time>
      </trkpt>
      <trkpt lat="48.83542" lon="2.33338">
        <ele>116.7</ele>
        <time>2015-04-06T18:39:03.890Z</time>
      </trkpt>
      <trkpt lat="48.83548" lon="2.33341">
        <ele>116.7</ele>
        <time>2015-04-06T18:39:04.900Z</time>
      </trkpt>
      <trkpt lat="48.83552" lon="2.33345">
        <ele>116.5</ele>
        <time>2015-04-06T18:39:05.870Z</time>
      </trkpt>
      <trkpt lat="48.83556" lon="2.3335">
        <ele>116.5</ele>
        <time>2015-04-06T18:39:06.882Z</time>
      </trkpt>
      <trkpt lat="48.8356" lon="2.33354">
        <ele>116.5</ele>
        <time>2015-04-06T18:39:07.934Z</time>
      </trkpt>
      <trkpt lat="48.83564" lon="2.33359">
        <ele>116.3</ele>
        <time>2015-04-06T18:39:08.973Z</time>
      </trkpt>
      <trkpt lat="48.83568" lon="2.33363">
        <ele>116</ele>
        <time>2015-04-06T18:39:09.862Z</time>
      </trkpt>
      <trkpt lat="48.83573" lon="2.33368">
        <ele>115.9</ele>
        <time>2015-04-06T18:39:10.881Z</time>
      </trkpt>
      <trkpt lat="48.83577" lon="2.33373">
        <ele>115.9</ele>
        <time>2015-04-06T18:39:11.898Z</time>
      </trkpt>
      <trkpt lat="48.83581" lon="2.33378">
        <ele>116.1</ele>
        <time>2015-04-06T18:39:12.918Z</time>
      </trkpt>
      <trkpt lat="48.83585" lon="2.33382">
        <ele>116</ele>
        <time>2015-04-06T18:39:13.949Z</time>
      </trkpt>
      <trkpt lat="48.83589" lon="2.33386">
        <ele>116.4</ele>
        <time>2015-04-06T18:39:14.864Z</time>
      </trkpt>
      <trkpt lat="48.83592" lon="2.33392">
        <ele>116.7</ele>
        <time>2015-04-06T18:39:15.866Z</time>
      </trkpt>
      <trkpt lat="48.83598" lon="2.33399">
        <ele>117.1</ele>
        <time>2015-04-06T18:39:16.864Z</time>
      </trkpt>
      <trkpt lat="48.83604" lon="2.33405">
        <ele>117.1</ele>
        <time>2015-04-06T18:39:18.037Z</time>
      </trkpt>
      <trkpt lat="48.83609" lon="2.3341">
        <ele>117.3</ele>
        <time>2015-04-06T18:39:18.866Z</time>
      </trkpt>
      <trkpt lat="48.83614" lon="2.33416">
        <ele>117</ele>
        <time>2015-04-06T18:39:19.908Z</time>
      </trkpt>
      <trkpt lat="48.83618" lon="2.33421">
        <ele>117.1</ele>
        <time>2015-04-06T18:39:21.003Z</time>
      </trkpt>
      <trkpt lat="48.83623" lon="2.33427">
        <ele>116.9</ele>
        <time>2015-04-06T18:39:21.867Z</time>
      </trkpt>
      <trkpt lat="48.83627" lon="2.33431">
        <ele>116.6</ele>
        <time>2015-04-06T18:39:22.881Z</time>
      </trkpt>
      <trkpt lat="48.83633" lon="2.33434">
        <ele>116.3</ele>
        <time>2015-04-06T18:39:23.888Z</time>
      </trkpt>
      <trkpt lat="48.83638" lon="2.33439">
        <ele>116.6</ele>
        <time>2015-04-06T18:39:24.893Z</time>
      </trkpt>
      <trkpt lat="48.83643" lon="2.33444">
        <ele>116.5</ele>
        <time>2015-04-06T18:39:25.907Z</time>
      </trkpt>
      <trkpt lat="48.8365" lon="2.33448">
        <ele>116.6</ele>
        <time>2015-04-06T18:39:26.908Z</time>
      </trkpt>
      <trkpt lat="48.83657" lon="2.33452">
        <ele>116.4</ele>
        <time>2015-04-06T18:39:27.933Z</time>
      </trkpt>
      <trkpt lat="48.83663" lon="2.33457">
        <ele>116.4</ele>
        <time>2015-04-06T18:39:28.851Z</time>
      </trkpt>
      <trkpt lat="48.83668" lon="2.33461">
        <ele>116.2</ele>
        <time>2015-04-06T18:39:29.866Z</time>
      </trkpt>
      <trkpt lat="48.83672" lon="2.33466">
        <ele>116.1</ele>
        <time>2015-04-06T18:39:30.875Z</time>
      </trkpt>
      <trkpt lat="48.83676" lon="2.33471">
        <ele>115.9</ele>
        <time>2015-04-06T18:39:31.920Z</time>
      </trkpt>
      <trkpt lat="48.83681" lon="2.33475">
        <ele>115.5</ele>
        <time>2015-04-06T18:39:32.918Z</time>
      </trkpt>
      <trkpt lat="48.83686" lon="2.33479">
        <ele>115.3</ele>
        <time>2015-04-06T18:39:33.954Z</time>
      </trkpt>
      <trkpt lat="48.83692" lon="2.33482">
        <ele>115.3</ele>
        <time>2015-04-06T18:39:34.849Z</time>
      </trkpt>
      <trkpt lat="48.83697" lon="2.33488">
        <ele>115.5</ele>
        <time>2015-04-06T18:39:35.880Z</time>
      </trkpt>
      <trkpt lat="48.83702" lon="2.33493">
        <ele>115.7</ele>
        <time>2015-04-06T18:39:36.887Z</time>
      </trkpt>
      <trkpt lat="48.83708" lon="2.33499">
        <ele>116</ele>
        <time>2015-04-06T18:39:37.947Z</time>
      </trkpt>
      <trkpt lat="48.83715" lon="2.33505">
        <ele>116.4</ele>
        <time>2015-04-06T18:39:39.084Z</time>
      </trkpt>
      <trkpt lat="48.83721" lon="2.33513">
        <ele>116.7</ele>
        <time>2015-04-06T18:39:39.903Z</time>
      </trkpt>
      <trkpt lat="48.83728" lon="2.33519">
        <ele>116.9</ele>
        <time>2015-04-06T18:39:40.914Z</time>
      </trkpt>
      <trkpt lat="48.83735" lon="2.33525">
        <ele>116.9</ele>
        <time>2015-04-06T18:39:41.927Z</time>
      </trkpt>
      <trkpt lat="48.8374" lon="2.33531">
        <ele>117</ele>
        <time>2015-04-06T18:39:42.932Z</time>
      </trkpt>
      <trkpt lat="48.83746" lon="2.33538">
        <ele>116.7</ele>
        <time>2015-04-06T18:39:43.951Z</time>
      </trkpt>
      <trkpt lat="48.83751" lon="2.33543">
        <ele>116.2</ele>
        <time>2015-04-06T18:39:44.872Z</time>
      </trkpt>
      <trkpt lat="48.83755" lon="2.3355">
        <ele>115.5</ele>
        <time>2015-04-06T18:39:45.929Z</time>
      </trkpt>
      <trkpt lat="48.83759" lon="2.33555">
        <ele>115.1</ele>
        <time>2015-04-06T18:39:46.943Z</time>
      </trkpt>
      <trkpt lat="48.83763" lon="2.3356">
        <ele>115</ele>
        <time>2015-04-06T18:39:47.870Z</time>
      </trkpt>
      <trkpt lat="48.83767" lon="2.33566">
        <ele>114.4</ele>
        <time>2015-04-06T18:39:48.874Z</time>
      </trkpt>
      <trkpt lat="48.83769" lon="2.33573">
        <ele>113.9</ele>
        <time>2015-04-06T18:39:49.940Z</time>
      </trkpt>
      <trkpt lat="48.83771" lon="2.3358">
        <ele>113.4</ele>
        <time>2015-04-06T18:39:50.943Z</time>
      </trkpt>
      <trkpt lat="48.83775" lon="2.33586">
        <ele>112.6</ele>
        <time>2015-04-06T18:39:51.956Z</time>
      </trkpt>
      <trkpt lat="48.83779" lon="2.33592">
        <ele>112.2</ele>
        <time>2015-04-06T18:39:52.868Z</time>
      </trkpt>
      <trkpt lat="48.83784" lon="2.33597">
        <ele>111.8</ele>
        <time>2015-04-06T18:39:53.872Z</time>
      </trkpt>
      <trkpt lat="48.83789" lon="2.33602">
        <ele>111.3</ele>
        <time>2015-04-06T18:39:54.876Z</time>
      </trkpt>
      <trkpt lat="48.83793" lon="2.33608">
        <ele>110.7</ele>
        <time>2015-04-06T18:39:55.908Z</time>
      </trkpt>
      <trkpt lat="48.83798" lon="2.33613">
        <ele>110.5</ele>
        <time>2015-04-06T18:39:56.914Z</time>
      </trkpt>
      <trkpt lat="48.83803" lon="2.33617">
        <ele>110.1</ele>
        <time>2015-04-06T18:39:57.924Z</time>
      </trkpt>
      <trkpt lat="48.83812" lon="2.33619">
        <ele>110</ele>
        <time>2015-04-06T18:39:58.929Z</time>
      </trkpt>
      <trkpt lat="48.83821" lon="2.33624">
        <ele>109.3</ele>
        <time>2015-04-06T18:39:59.934Z</time>
      </trkpt>
      <trkpt lat="48.83831" lon="2.33631">
        <ele>108.5</ele>
        <time>2015-04-06T18:40:00.955Z</time>
      </trkpt>
      <trkpt lat="48.83838" lon="2.33638">
        <ele>108.5</ele>
        <time>2015-04-06T18:40:01.973Z</time>
      </trkpt>
      <trkpt lat="48.83843" lon="2.33644">
        <ele>108.3</ele>
        <time>2015-04-06T18:40:02.844Z</time>
      </trkpt>
      <trkpt lat="48.83849" lon="2.33651">
        <ele>108.3</ele>
        <time>2015-04-06T18:40:03.855Z</time>
      </trkpt>
      <trkpt lat="48.83854" lon="2.33657">
        <ele>108</ele>
        <time>2015-04-06T18:40:04.873Z</time>
      </trkpt>
      <trkpt lat="48.83859" lon="2.33663">
        <ele>107.9</ele>
        <time>2015-04-06T18:40:05.890Z</time>
      </trkpt>
      <trkpt lat="48.83864" lon="2.33667">
        <ele>107.6</ele>
        <time>2015-04-06T18:40:06.898Z</time>
      </trkpt>
      <trkpt lat="48.8387" lon="2.33672">
        <ele>107.6</ele>
        <time>2015-04-06T18:40:07.905Z</time>
      </trkpt>
      <trkpt lat="48.83876" lon="2.33674">
        <ele>107.2</ele>
        <time>2015-04-06T18:40:08.915Z</time>
      </trkpt>
      <trkpt lat="48.83882" lon="2.33676">
        <ele>107.1</ele>
        <time>2015-04-06T18:40:09.846Z</time>
      </trkpt>
      <trkpt lat="48.8389" lon="2.33676">
        <ele>107.6</ele>
        <time>2015-04-06T18:40:10.851Z</time>
      </trkpt>
      <trkpt lat="48.83897" lon="2.33675">
        <ele>108.3</ele>
        <time>2015-04-06T18:40:11.852Z</time>
      </trkpt>
      <trkpt lat="48.83902" lon="2.33674">
        <ele>108.3</ele>
        <time>2015-04-06T18:40:12.865Z</time>
      </trkpt>
      <trkpt lat="48.8391" lon="2.33675">
        <ele>109.1</ele>
        <time>2015-04-06T18:40:16.921Z</time>
      </trkpt>
      <trkpt lat="48.83912" lon="2.33674">
        <ele>109.2</ele>
        <time>2015-04-06T18:40:17.976Z</time>
      </trkpt>
      <trkpt lat="48.83919" lon="2.33675">
        <ele>108.8</ele>
        <time>2015-04-06T18:40:19.889Z</time>
      </trkpt>
      <trkpt lat="48.83924" lon="2.33676">
        <ele>108.5</ele>
        <time>2015-04-06T18:40:20.902Z</time>
      </trkpt>
      <trkpt lat="48.83929" lon="2.33676">
        <ele>108.2</ele>
        <time>2015-04-06T18:40:21.856Z</time>
      </trkpt>
      <trkpt lat="48.83933" lon="2.33676">
        <ele>108</ele>
        <time>2015-04-06T18:40:22.864Z</time>
      </trkpt>
      <trkpt lat="48.83939" lon="2.33678">
        <ele>108</ele>
        <time>2015-04-06T18:40:24.911Z</time>
      </trkpt>
      <trkpt lat="48.83942" lon="2.33679">
        <ele>108.2</ele>
        <time>2015-04-06T18:40:25.926Z</time>
      </trkpt>
      <trkpt lat="48.8395" lon="2.3368">
        <ele>109.2</ele>
        <time>2015-04-06T18:40:27.948Z</time>
      </trkpt>
      <trkpt lat="48.83953" lon="2.3368">
        <ele>109.7</ele>
        <time>2015-04-06T18:40:28.879Z</time>
      </trkpt>
      <trkpt lat="48.83953" lon="2.3368">
        <ele>109.7</ele>
        <time>2015-04-06T18:41:45.843Z</time>
      </trkpt>
      <trkpt lat="48.83962" lon="2.33679">
        <ele>109.3</ele>
        <time>2015-04-06T18:41:46.857Z</time>
      </trkpt>
      <trkpt lat="48.83968" lon="2.33683">
        <ele>109.6</ele>
        <time>2015-04-06T18:41:49.886Z</time>
      </trkpt>
      <trkpt lat="48.8397" lon="2.33684">
        <ele>109.5</ele>
        <time>2015-04-06T18:41:50.909Z</time>
      </trkpt>
      <trkpt lat="48.83979" lon="2.33683">
        <ele>110.5</ele>
        <time>2015-04-06T18:41:54.903Z</time>
      </trkpt>
      <trkpt lat="48.83981" lon="2.33683">
        <ele>110.8</ele>
        <time>2015-04-06T18:41:55.945Z</time>
      </trkpt>
      <trkpt lat="48.8399" lon="2.33684">
        <ele>111.5</ele>
        <time>2015-04-06T18:41:58.884Z</time>
      </trkpt>
      <trkpt lat="48.83994" lon="2.33684">
        <ele>111.8</ele>
        <time>2015-04-06T18:41:59.972Z</time>
      </trkpt>
      <trkpt lat="48.84003" lon="2.33686">
        <ele>112.9</ele>
        <time>2015-04-06T18:42:01.913Z</time>
      </trkpt>
      <trkpt lat="48.84007" lon="2.33687">
        <ele>112.9</ele>
        <time>2015-04-06T18:42:02.917Z</time>
      </trkpt>
      <trkpt lat="48.84015" lon="2.3369">
        <ele>112.9</ele>
        <time>2015-04-06T18:42:04.850Z</time>
      </trkpt>
      <trkpt lat="48.84018" lon="2.33692">
        <ele>113.3</ele>
        <time>2015-04-06T18:42:05.872Z</time>
      </trkpt>
      <trkpt lat="48.84025" lon="2.33695">
        <ele>113.7</ele>
        <time>2015-04-06T18:42:07.899Z</time>
      </trkpt>
      <trkpt lat="48.84028" lon="2.33698">
        <ele>114.1</ele>
        <time>2015-04-06T18:42:08.914Z</time>
      </trkpt>
      <trkpt lat="48.84035" lon="2.33705">
        <ele>115.5</ele>
        <time>2015-04-06T18:42:11.875Z</time>
      </trkpt>
      <trkpt lat="48.84038" lon="2.33708">
        <ele>115.9</ele>
        <time>2015-04-06T18:42:12.906Z</time>
      </trkpt>
      <trkpt lat="48.84046" lon="2.33714">
        <ele>116.7</ele>
        <time>2015-04-06T18:42:15.876Z</time>
      </trkpt>
      <trkpt lat="48.8405" lon="2.33715">
        <ele>116.9</ele>
        <time>2015-04-06T18:42:16.901Z</time>
      </trkpt>
      <trkpt lat="48.84057" lon="2.33718">
        <ele>117.4</ele>
        <time>2015-04-06T18:42:18.898Z</time>
      </trkpt>
      <trkpt lat="48.84061" lon="2.33719">
        <ele>117.3</ele>
        <time>2015-04-06T18:42:19.921Z</time>
      </trkpt>
      <trkpt lat="48.84069" lon="2.33722">
        <ele>117.7</ele>
        <time>2015-04-06T18:42:21.835Z</time>
      </trkpt>
      <trkpt lat="48.84073" lon="2.33725">
        <ele>117.8</ele>
        <time>2015-04-06T18:42:22.877Z</time>
      </trkpt>
      <trkpt lat="48.8408" lon="2.3373">
        <ele>118</ele>
        <time>2015-04-06T18:42:24.928Z</time>
      </trkpt>
      <trkpt lat="48.84084" lon="2.33733">
        <ele>118.2</ele>
        <time>2015-04-06T18:42:25.937Z</time>
      </trkpt>
      <trkpt lat="48.8409" lon="2.33738">
        <ele>118.1</ele>
        <time>2015-04-06T18:42:27.857Z</time>
      </trkpt>
      <trkpt lat="48.84095" lon="2.3374">
        <ele>118.4</ele>
        <time>2015-04-06T18:42:28.872Z</time>
      </trkpt>
      <trkpt lat="48.84103" lon="2.33742">
        <ele>118.2</ele>
        <time>2015-04-06T18:42:30.893Z</time>
      </trkpt>
      <trkpt lat="48.84108" lon="2.33745">
        <ele>118.2</ele>
        <time>2015-04-06T18:42:31.940Z</time>
      </trkpt>
      <trkpt lat="48.84113" lon="2.33748">
        <ele>118.3</ele>
        <time>2015-04-06T18:42:32.854Z</time>
      </trkpt>
      <trkpt lat="48.84117" lon="2.3375">
        <ele>118.3</ele>
        <time>2015-04-06T18:42:33.844Z</time>
      </trkpt>
      <trkpt lat="48.84124" lon="2.33754">
        <ele>118.1</ele>
        <time>2015-04-06T18:42:35.858Z</time>
      </trkpt>
      <trkpt lat="48.84127" lon="2.33757">
        <ele>118</ele>
        <time>2015-04-06T18:42:36.879Z</time>
      </trkpt>
      <trkpt lat="48.84133" lon="2.33762">
        <ele>117.7</ele>
        <time>2015-04-06T18:42:38.899Z</time>
      </trkpt>
      <trkpt lat="48.84135" lon="2.33765">
        <ele>117.7</ele>
        <time>2015-04-06T18:42:39.922Z</time>
      </trkpt>
      <trkpt lat="48.84139" lon="2.33768">
        <ele>117.4</ele>
        <time>2015-04-06T18:42:40.826Z</time>
      </trkpt>
      <trkpt lat="48.84144" lon="2.3377">
        <ele>117.2</ele>
        <time>2015-04-06T18:42:41.821Z</time>
      </trkpt>
      <trkpt lat="48.84149" lon="2.33773">
        <ele>117.1</ele>
        <time>2015-04-06T18:42:42.848Z</time>
      </trkpt>
      <trkpt lat="48.84153" lon="2.33775">
        <ele>116.9</ele>
        <time>2015-04-06T18:42:43.871Z</time>
      </trkpt>
      <trkpt lat="48.84162" lon="2.33779">
        <ele>116.9</ele>
        <time>2015-04-06T18:42:45.904Z</time>
      </trkpt>
      <trkpt lat="48.84167" lon="2.33781">
        <ele>116.5</ele>
        <time>2015-04-06T18:42:46.916Z</time>
      </trkpt>
      <trkpt lat="48.84172" lon="2.33784">
        <ele>116.1</ele>
        <time>2015-04-06T18:42:47.937Z</time>
      </trkpt>
      <trkpt lat="48.84177" lon="2.33787">
        <ele>116.1</ele>
        <time>2015-04-06T18:42:48.848Z</time>
      </trkpt>
      <trkpt lat="48.84183" lon="2.3379">
        <ele>116.2</ele>
        <time>2015-04-06T18:42:49.894Z</time>
      </trkpt>
      <trkpt lat="48.84189" lon="2.33793">
        <ele>116.5</ele>
        <time>2015-04-06T18:42:50.908Z</time>
      </trkpt>
      <trkpt lat="48.84196" lon="2.33795">
        <ele>116.9</ele>
        <time>2015-04-06T18:42:51.931Z</time>
      </trkpt>
      <trkpt lat="48.84203" lon="2.33797">
        <ele>117.3</ele>
        <time>2015-04-06T18:42:52.848Z</time>
      </trkpt>
      <trkpt lat="48.84209" lon="2.33799">
        <ele>117.8</ele>
        <time>2015-04-06T18:42:53.849Z</time>
      </trkpt>
      <trkpt lat="48.84216" lon="2.33803">
        <ele>118.3</ele>
        <time>2015-04-06T18:42:54.851Z</time>
      </trkpt>
      <trkpt lat="48.84225" lon="2.33808">
        <ele>118.8</ele>
        <time>2015-04-06T18:42:55.891Z</time>
      </trkpt>
      <trkpt lat="48.84231" lon="2.33812">
        <ele>118.7</ele>
        <time>2015-04-06T18:42:56.897Z</time>
      </trkpt>
      <trkpt lat="48.84235" lon="2.33815">
        <ele>118.5</ele>
        <time>2015-04-06T18:42:57.906Z</time>
      </trkpt>
      <trkpt lat="48.84241" lon="2.3382">
        <ele>118.6</ele>
        <time>2015-04-06T18:42:58.910Z</time>
      </trkpt>
      <trkpt lat="48.84246" lon="2.33824">
        <ele>118.7</ele>
        <time>2015-04-06T18:42:59.894Z</time>
      </trkpt>
      <trkpt lat="48.84252" lon="2.33825">
        <ele>118.5</ele>
        <time>2015-04-06T18:43:00.855Z</time>
      </trkpt>
      <trkpt lat="48.84257" lon="2.33827">
        <ele>118.4</ele>
        <time>2015-04-06T18:43:01.953Z</time>
      </trkpt>
      <trkpt lat="48.84262" lon="2.33828">
        <ele>118.7</ele>
        <time>2015-04-06T18:43:02.872Z</time>
      </trkpt>
      <trkpt lat="48.84266" lon="2.3383">
        <ele>118.2</ele>
        <time>2015-04-06T18:43:03.852Z</time>
      </trkpt>
      <trkpt lat="48.8427" lon="2.33833">
        <ele>118</ele>
        <time>2015-04-06T18:43:04.853Z</time>
      </trkpt>
      <trkpt lat="48.84279" lon="2.33837">
        <ele>118.2</ele>
        <time>2015-04-06T18:43:06.863Z</time>
      </trkpt>
      <trkpt lat="48.84282" lon="2.33838">
        <ele>117.9</ele>
        <time>2015-04-06T18:43:07.877Z</time>
      </trkpt>
      <trkpt lat="48.8429" lon="2.33845">
        <ele>118.3</ele>
        <time>2015-04-06T18:43:11.868Z</time>
      </trkpt>
      <trkpt lat="48.84293" lon="2.33846">
        <ele>118.2</ele>
        <time>2015-04-06T18:43:12.891Z</time>
      </trkpt>
      <trkpt lat="48.843" lon="2.33848">
        <ele>117.9</ele>
        <time>2015-04-06T18:43:14.854Z</time>
      </trkpt>
      <trkpt lat="48.84305" lon="2.33851">
        <ele>117.7</ele>
        <time>2015-04-06T18:43:15.869Z</time>
      </trkpt>
      <trkpt lat="48.84312" lon="2.33857">
        <ele>116.9</ele>
        <time>2015-04-06T18:43:17.900Z</time>
      </trkpt>
      <trkpt lat="48.84316" lon="2.3386">
        <ele>116.8</ele>
        <time>2015-04-06T18:43:18.927Z</time>
      </trkpt>
      <trkpt lat="48.84323" lon="2.33866">
        <ele>116.9</ele>
        <time>2015-04-06T18:43:20.887Z</time>
      </trkpt>
      <trkpt lat="48.84326" lon="2.33869">
        <ele>116.7</ele>
        <time>2015-04-06T18:43:21.899Z</time>
      </trkpt>
      <trkpt lat="48.84331" lon="2.33872">
        <ele>116.2</ele>
        <time>2015-04-06T18:43:22.928Z</time>
      </trkpt>
      <trkpt lat="48.84335" lon="2.33875">
        <ele>116.1</ele>
        <time>2015-04-06T18:43:23.934Z</time>
      </trkpt>
      <trkpt lat="48.84342" lon="2.33879">
        <ele>115.8</ele>
        <time>2015-04-06T18:43:25.897Z</time>
      </trkpt>
      <trkpt lat="48.84346" lon="2.33882">
        <ele>115.7</ele>
        <time>2015-04-06T18:43:26.900Z</time>
      </trkpt>
      <trkpt lat="48.84353" lon="2.33885">
        <ele>115.3</ele>
        <time>2015-04-06T18:43:27.928Z</time>
      </trkpt>
      <trkpt lat="48.84358" lon="2.33888">
        <ele>114.8</ele>
        <time>2015-04-06T18:43:28.845Z</time>
      </trkpt>
      <trkpt lat="48.84364" lon="2.33891">
        <ele>114.3</ele>
        <time>2015-04-06T18:43:29.842Z</time>
      </trkpt>
      <trkpt lat="48.84368" lon="2.33894">
        <ele>113.9</ele>
        <time>2015-04-06T18:43:30.845Z</time>
      </trkpt>
      <trkpt lat="48.84374" lon="2.33897">
        <ele>113.7</ele>
        <time>2015-04-06T18:43:31.998Z</time>
      </trkpt>
      <trkpt lat="48.84378" lon="2.33901">
        <ele>113.7</ele>
        <time>2015-04-06T18:43:32.937Z</time>
      </trkpt>
      <trkpt lat="48.84383" lon="2.33904">
        <ele>113.7</ele>
        <time>2015-04-06T18:43:33.847Z</time>
      </trkpt>
      <trkpt lat="48.84389" lon="2.33908">
        <ele>113.5</ele>
        <time>2015-04-06T18:43:34.847Z</time>
      </trkpt>
      <trkpt lat="48.84395" lon="2.33912">
        <ele>113.7</ele>
        <time>2015-04-06T18:43:35.958Z</time>
      </trkpt>
      <trkpt lat="48.844" lon="2.33916">
        <ele>113.8</ele>
        <time>2015-04-06T18:43:36.871Z</time>
      </trkpt>
      <trkpt lat="48.84407" lon="2.33918">
        <ele>113.5</ele>
        <time>2015-04-06T18:43:37.897Z</time>
      </trkpt>
      <trkpt lat="48.84414" lon="2.3392">
        <ele>113.4</ele>
        <time>2015-04-06T18:43:38.896Z</time>
      </trkpt>
      <trkpt lat="48.8442" lon="2.33922">
        <ele>113.3</ele>
        <time>2015-04-06T18:43:39.940Z</time>
      </trkpt>
      <trkpt lat="48.84428" lon="2.33925">
        <ele>113.9</ele>
        <time>2015-04-06T18:43:40.858Z</time>
      </trkpt>
      <trkpt lat="48.84433" lon="2.33928">
        <ele>114.1</ele>
        <time>2015-04-06T18:43:41.845Z</time>
      </trkpt>
      <trkpt lat="48.84438" lon="2.3393">
        <ele>114.4</ele>
        <time>2015-04-06T18:43:42.846Z</time>
      </trkpt>
      <trkpt lat="48.84442" lon="2.33933">
        <ele>114.5</ele>
        <time>2015-04-06T18:43:43.874Z</time>
      </trkpt>
      <trkpt lat="48.84446" lon="2.33935">
        <ele>114.4</ele>
        <time>2015-04-06T18:43:44.881Z</time>
      </trkpt>
      <trkpt lat="48.84451" lon="2.33938">
        <ele>114.3</ele>
        <time>2015-04-06T18:43:45.897Z</time>
      </trkpt>
      <trkpt lat="48.84454" lon="2.33942">
        <ele>114.3</ele>
        <time>2015-04-06T18:43:46.903Z</time>
      </trkpt>
      <trkpt lat="48.8446" lon="2.33944">
        <ele>114.6</ele>
        <time>2015-04-06T18:43:47.919Z</time>
      </trkpt>
      <trkpt lat="48.84468" lon="2.33947">
        <ele>114.9</ele>
        <time>2015-04-06T18:43:48.933Z</time>
      </trkpt>
      <trkpt lat="48.84475" lon="2.33951">
        <ele>115.6</ele>
        <time>2015-04-06T18:43:49.949Z</time>
      </trkpt>
      <trkpt lat="48.84481" lon="2.33955">
        <ele>116.2</ele>
        <time>2015-04-06T18:43:50.847Z</time>
      </trkpt>
      <trkpt lat="48.84488" lon="2.33959">
        <ele>116.6</ele>
        <time>2015-04-06T18:43:51.848Z</time>
      </trkpt>
      <trkpt lat="48.84495" lon="2.33961">
        <ele>117.1</ele>
        <time>2015-04-06T18:43:52.852Z</time>
      </trkpt>
      <trkpt lat="48.845" lon="2.33964">
        <ele>117.3</ele>
        <time>2015-04-06T18:43:53.865Z</time>
      </trkpt>
      <trkpt lat="48.84506" lon="2.33967">
        <ele>117.2</ele>
        <time>2015-04-06T18:43:54.876Z</time>
      </trkpt>
      <trkpt lat="48.84511" lon="2.33971">
        <ele>117.4</ele>
        <time>2015-04-06T18:43:55.894Z</time>
      </trkpt>
      <trkpt lat="48.84516" lon="2.33975">
        <ele>117.8</ele>
        <time>2015-04-06T18:43:56.963Z</time>
      </trkpt>
      <trkpt lat="48.8452" lon="2.33977">
        <ele>117.8</ele>
        <time>2015-04-06T18:43:57.832Z</time>
      </trkpt>
      <trkpt lat="48.84524" lon="2.3398">
        <ele>117.8</ele>
        <time>2015-04-06T18:43:58.847Z</time>
      </trkpt>
      <trkpt lat="48.8453" lon="2.33988">
        <ele>117.8</ele>
        <time>2015-04-06T18:44:00.867Z</time>
      </trkpt>
      <trkpt lat="48.84535" lon="2.33993">
        <ele>118.1</ele>
        <time>2015-04-06T18:44:01.938Z</time>
      </trkpt>
      <trkpt lat="48.8454" lon="2.33997">
        <ele>117.9</ele>
        <time>2015-04-06T18:44:02.849Z</time>
      </trkpt>
      <trkpt lat="48.84546" lon="2.34002">
        <ele>118.3</ele>
        <time>2015-04-06T18:44:03.839Z</time>
      </trkpt>
      <trkpt lat="48.84551" lon="2.34006">
        <ele>118.3</ele>
        <time>2015-04-06T18:44:04.869Z</time>
      </trkpt>
      <trkpt lat="48.84557" lon="2.34009">
        <ele>118.4</ele>
        <time>2015-04-06T18:44:05.878Z</time>
      </trkpt>
      <trkpt lat="48.84562" lon="2.34011">
        <ele>118.6</ele>
        <time>2015-04-06T18:44:06.893Z</time>
      </trkpt>
      <trkpt lat="48.84567" lon="2.34013">
        <ele>118.6</ele>
        <time>2015-04-06T18:44:07.909Z</time>
      </trkpt>
      <trkpt lat="48.84573" lon="2.34014">
        <ele>118.4</ele>
        <time>2015-04-06T18:44:08.926Z</time>
      </trkpt>
      <trkpt lat="48.84579" lon="2.34017">
        <ele>118.4</ele>
        <time>2015-04-06T18:44:09.845Z</time>
      </trkpt>
      <trkpt lat="48.84586" lon="2.34018">
        <ele>118</ele>
        <time>2015-04-06T18:44:10.844Z</time>
      </trkpt>
      <trkpt lat="48.84591" lon="2.3402">
        <ele>117.9</ele>
        <time>2015-04-06T18:44:11.850Z</time>
      </trkpt>
      <trkpt lat="48.84596" lon="2.34022">
        <ele>117.8</ele>
        <time>2015-04-06T18:44:12.890Z</time>
      </trkpt>
      <trkpt lat="48.84607" lon="2.34027">
        <ele>117.4</ele>
        <time>2015-04-06T18:44:13.916Z</time>
      </trkpt>
      <trkpt lat="48.84618" lon="2.34031">
        <ele>117.1</ele>
        <time>2015-04-06T18:44:14.851Z</time>
      </trkpt>
      <trkpt lat="48.84624" lon="2.34034">
        <ele>117.5</ele>
        <time>2015-04-06T18:44:15.869Z</time>
      </trkpt>
      <trkpt lat="48.84629" lon="2.34036">
        <ele>117.7</ele>
        <time>2015-04-06T18:44:16.883Z</time>
      </trkpt>
      <trkpt lat="48.84634" lon="2.34039">
        <ele>118.3</ele>
        <time>2015-04-06T18:44:17.899Z</time>
      </trkpt>
      <trkpt lat="48.84639" lon="2.34042">
        <ele>118.5</ele>
        <time>2015-04-06T18:44:18.925Z</time>
      </trkpt>
      <trkpt lat="48.84644" lon="2.34045">
        <ele>118.6</ele>
        <time>2015-04-06T18:44:19.937Z</time>
      </trkpt>
      <trkpt lat="48.84649" lon="2.34048">
        <ele>119.1</ele>
        <time>2015-04-06T18:44:20.835Z</time>
      </trkpt>
      <trkpt lat="48.84654" lon="2.34049">
        <ele>119.1</ele>
        <time>2015-04-06T18:44:21.845Z</time>
      </trkpt>
      <trkpt lat="48.84659" lon="2.34051">
        <ele>119.1</ele>
        <time>2015-04-06T18:44:22.858Z</time>
      </trkpt>
      <trkpt lat="48.84664" lon="2.34053">
        <ele>119</ele>
        <time>2015-04-06T18:44:23.879Z</time>
      </trkpt>
      <trkpt lat="48.8467" lon="2.34057">
        <ele>119</ele>
        <time>2015-04-06T18:44:24.890Z</time>
      </trkpt>
      <trkpt lat="48.84679" lon="2.34062">
        <ele>119.2</ele>
        <time>2015-04-06T18:44:25.895Z</time>
      </trkpt>
      <trkpt lat="48.8469" lon="2.34069">
        <ele>119.2</ele>
        <time>2015-04-06T18:44:26.914Z</time>
      </trkpt>
      <trkpt lat="48.84702" lon="2.34076">
        <ele>119</ele>
        <time>2015-04-06T18:44:27.966Z</time>
      </trkpt>
      <trkpt lat="48.84712" lon="2.34079">
        <ele>119.3</ele>
        <time>2015-04-06T18:44:28.863Z</time>
      </trkpt>
      <trkpt lat="48.84722" lon="2.34084">
        <ele>119.4</ele>
        <time>2015-04-06T18:44:29.874Z</time>
      </trkpt>
      <trkpt lat="48.8473" lon="2.34087">
        <ele>119.5</ele>
        <time>2015-04-06T18:44:30.879Z</time>
      </trkpt>
      <trkpt lat="48.84737" lon="2.3409">
        <ele>120.4</ele>
        <time>2015-04-06T18:44:31.911Z</time>
      </trkpt>
      <trkpt lat="48.84744" lon="2.34095">
        <ele>120.7</ele>
        <time>2015-04-06T18:44:33.851Z</time>
      </trkpt>
      <trkpt lat="48.84745" lon="2.34098">
        <ele>119.8</ele>
        <time>2015-04-06T18:44:34.843Z</time>
      </trkpt>
      <trkpt lat="48.84744" lon="2.34104">
        <ele>118.8</ele>
        <time>2015-04-06T18:44:36.857Z</time>
      </trkpt>
      <trkpt lat="48.84741" lon="2.34104">
        <ele>118.8</ele>
        <time>2015-04-06T18:44:37.918Z</time>
      </trkpt>
      <trkpt lat="48.84741" lon="2.34102">
        <ele>118.5</ele>
        <time>2015-04-06T18:44:56.870Z</time>
      </trkpt>
      <trkpt lat="48.84726" lon="2.34106">
        <ele>118.4</ele>
        <time>2015-04-06T18:44:57.898Z</time>
      </trkpt>
      <trkpt lat="48.84732" lon="2.34114">
        <ele>117.8</ele>
        <time>2015-04-06T18:45:02.915Z</time>
      </trkpt>
      <trkpt lat="48.84737" lon="2.34117">
        <ele>117.7</ele>
        <time>2015-04-06T18:45:03.923Z</time>
      </trkpt>
      <trkpt lat="48.84742" lon="2.34119">
        <ele>117.7</ele>
        <time>2015-04-06T18:45:04.929Z</time>
      </trkpt>
      <trkpt lat="48.84746" lon="2.34122">
        <ele>117.7</ele>
        <time>2015-04-06T18:45:05.838Z</time>
      </trkpt>
      <trkpt lat="48.84752" lon="2.34124">
        <ele>117.6</ele>
        <time>2015-04-06T18:45:06.848Z</time>
      </trkpt>
      <trkpt lat="48.84757" lon="2.34129">
        <ele>117.5</ele>
        <time>2015-04-06T18:45:07.894Z</time>
      </trkpt>
      <trkpt lat="48.84764" lon="2.34132">
        <ele>117.5</ele>
        <time>2015-04-06T18:45:08.879Z</time>
      </trkpt>
      <trkpt lat="48.8477" lon="2.34135">
        <ele>117.2</ele>
        <time>2015-04-06T18:45:09.886Z</time>
      </trkpt>
      <trkpt lat="48.84775" lon="2.34139">
        <ele>117</ele>
        <time>2015-04-06T18:45:10.894Z</time>
      </trkpt>
      <trkpt lat="48.84779" lon="2.34142">
        <ele>116.7</ele>
        <time>2015-04-06T18:45:11.904Z</time>
      </trkpt>
      <trkpt lat="48.84782" lon="2.34146">
        <ele>116.5</ele>
        <time>2015-04-06T18:45:12.917Z</time>
      </trkpt>
      <trkpt lat="48.84788" lon="2.34149">
        <ele>116.1</ele>
        <time>2015-04-06T18:45:13.925Z</time>
      </trkpt>
      <trkpt lat="48.84794" lon="2.34151">
        <ele>116</ele>
        <time>2015-04-06T18:45:14.839Z</time>
      </trkpt>
      <trkpt lat="48.848" lon="2.34155">
        <ele>116</ele>
        <time>2015-04-06T18:45:15.832Z</time>
      </trkpt>
      <trkpt lat="48.84805" lon="2.34158">
        <ele>115.8</ele>
        <time>2015-04-06T18:45:16.849Z</time>
      </trkpt>
      <trkpt lat="48.84815" lon="2.34164">
        <ele>114.8</ele>
        <time>2015-04-06T18:45:17.856Z</time>
      </trkpt>
      <trkpt lat="48.84825" lon="2.34169">
        <ele>114.2</ele>
        <time>2015-04-06T18:45:18.890Z</time>
      </trkpt>
      <trkpt lat="48.84829" lon="2.34172">
        <ele>114.1</ele>
        <time>2015-04-06T18:45:19.909Z</time>
      </trkpt>
      <trkpt lat="48.84835" lon="2.34176">
        <ele>113.7</ele>
        <time>2015-04-06T18:45:20.927Z</time>
      </trkpt>
      <trkpt lat="48.84839" lon="2.34178">
        <ele>113.4</ele>
        <time>2015-04-06T18:45:21.844Z</time>
      </trkpt>
      <trkpt lat="48.84844" lon="2.34181">
        <ele>113.4</ele>
        <time>2015-04-06T18:45:22.855Z</time>
      </trkpt>
      <trkpt lat="48.84849" lon="2.34184">
        <ele>113.1</ele>
        <time>2015-04-06T18:45:23.901Z</time>
      </trkpt>
      <trkpt lat="48.84854" lon="2.34188">
        <ele>112.9</ele>
        <time>2015-04-06T18:45:24.912Z</time>
      </trkpt>
      <trkpt lat="48.8486" lon="2.34193">
        <ele>112.4</ele>
        <time>2015-04-06T18:45:25.918Z</time>
      </trkpt>
      <trkpt lat="48.84868" lon="2.34199">
        <ele>111.9</ele>
        <time>2015-04-06T18:45:26.930Z</time>
      </trkpt>
      <trkpt lat="48.84876" lon="2.34205">
        <ele>111.5</ele>
        <time>2015-04-06T18:45:27.832Z</time>
      </trkpt>
      <trkpt lat="48.84884" lon="2.34212">
        <ele>110.8</ele>
        <time>2015-04-06T18:45:28.852Z</time>
      </trkpt>
      <trkpt lat="48.84893" lon="2.34219">
        <ele>110</ele>
        <time>2015-04-06T18:45:29.877Z</time>
      </trkpt>
      <trkpt lat="48.84899" lon="2.34225">
        <ele>109.2</ele>
        <time>2015-04-06T18:45:30.910Z</time>
      </trkpt>
      <trkpt lat="48.84903" lon="2.34231">
        <ele>108.3</ele>
        <time>2015-04-06T18:45:31.973Z</time>
      </trkpt>
      <trkpt lat="48.84908" lon="2.3424">
        <ele>107.1</ele>
        <time>2015-04-06T18:45:33.829Z</time>
      </trkpt>
      <trkpt lat="48.84911" lon="2.34245">
        <ele>106.5</ele>
        <time>2015-04-06T18:45:34.855Z</time>
      </trkpt>
      <trkpt lat="48.84918" lon="2.34254">
        <ele>105.7</ele>
        <time>2015-04-06T18:45:36.927Z</time>
      </trkpt>
      <trkpt lat="48.84921" lon="2.34257">
        <ele>104.6</ele>
        <time>2015-04-06T18:45:37.940Z</time>
      </trkpt>
      <trkpt lat="48.84926" lon="2.3426">
        <ele>103.8</ele>
        <time>2015-04-06T18:45:38.844Z</time>
      </trkpt>
      <trkpt lat="48.84931" lon="2.34262">
        <ele>102.9</ele>
        <time>2015-04-06T18:45:39.853Z</time>
      </trkpt>
      <trkpt lat="48.84938" lon="2.34264">
        <ele>102.1</ele>
        <time>2015-04-06T18:45:40.876Z</time>
      </trkpt>
      <trkpt lat="48.84945" lon="2.34266">
        <ele>101.2</ele>
        <time>2015-04-06T18:45:41.903Z</time>
      </trkpt>
      <trkpt lat="48.84958" lon="2.34272">
        <ele>99.7</ele>
        <time>2015-04-06T18:45:42.850Z</time>
      </trkpt>
      <trkpt lat="48.84968" lon="2.34273">
        <ele>98.7</ele>
        <time>2015-04-06T18:45:43.956Z</time>
      </trkpt>
      <trkpt lat="48.84974" lon="2.34273">
        <ele>98.1</ele>
        <time>2015-04-06T18:45:44.841Z</time>
      </trkpt>
      <trkpt lat="48.8498" lon="2.34273">
        <ele>97.6</ele>
        <time>2015-04-06T18:45:45.852Z</time>
      </trkpt>
      <trkpt lat="48.84989" lon="2.34273">
        <ele>97.1</ele>
        <time>2015-04-06T18:45:47.878Z</time>
      </trkpt>
      <trkpt lat="48.84994" lon="2.34273">
        <ele>96.7</ele>
        <time>2015-04-06T18:45:48.900Z</time>
      </trkpt>
      <trkpt lat="48.84999" lon="2.34275">
        <ele>96.4</ele>
        <time>2015-04-06T18:45:49.860Z</time>
      </trkpt>
      <trkpt lat="48.85007" lon="2.34277">
        <ele>95.9</ele>
        <time>2015-04-06T18:45:50.856Z</time>
      </trkpt>
      <trkpt lat="48.85018" lon="2.34282">
        <ele>95.2</ele>
        <time>2015-04-06T18:45:51.862Z</time>
      </trkpt>
      <trkpt lat="48.85027" lon="2.34288">
        <ele>94.8</ele>
        <time>2015-04-06T18:45:52.909Z</time>
      </trkpt>
      <trkpt lat="48.85039" lon="2.34291">
        <ele>95.6</ele>
        <time>2015-04-06T18:45:53.914Z</time>
      </trkpt>
      <trkpt lat="48.85048" lon="2.34293">
        <ele>96.2</ele>
        <time>2015-04-06T18:45:54.832Z</time>
      </trkpt>
      <trkpt lat="48.85056" lon="2.34296">
        <ele>96.2</ele>
        <time>2015-04-06T18:45:55.873Z</time>
      </trkpt>
      <trkpt lat="48.85062" lon="2.34298">
        <ele>96.9</ele>
        <time>2015-04-06T18:45:56.870Z</time>
      </trkpt>
      <trkpt lat="48.85069" lon="2.343">
        <ele>97.2</ele>
        <time>2015-04-06T18:45:57.911Z</time>
      </trkpt>
      <trkpt lat="48.85075" lon="2.34303">
        <ele>97.7</ele>
        <time>2015-04-06T18:45:58.917Z</time>
      </trkpt>
      <trkpt lat="48.85081" lon="2.34306">
        <ele>98.8</ele>
        <time>2015-04-06T18:45:59.963Z</time>
      </trkpt>
      <trkpt lat="48.85087" lon="2.34309">
        <ele>99</ele>
        <time>2015-04-06T18:46:00.904Z</time>
      </trkpt>
      <trkpt lat="48.85094" lon="2.3431">
        <ele>99.1</ele>
        <time>2015-04-06T18:46:01.911Z</time>
      </trkpt>
      <trkpt lat="48.85101" lon="2.3431">
        <ele>99.3</ele>
        <time>2015-04-06T18:46:02.921Z</time>
      </trkpt>
      <trkpt lat="48.85107" lon="2.34311">
        <ele>99.9</ele>
        <time>2015-04-06T18:46:03.840Z</time>
      </trkpt>
      <trkpt lat="48.85112" lon="2.34313">
        <ele>100.4</ele>
        <time>2015-04-06T18:46:04.857Z</time>
      </trkpt>
      <trkpt lat="48.8512" lon="2.34315">
        <ele>100.7</ele>
        <time>2015-04-06T18:46:06.876Z</time>
      </trkpt>
      <trkpt lat="48.85126" lon="2.34317">
        <ele>100.7</ele>
        <time>2015-04-06T18:46:07.890Z</time>
      </trkpt>
      <trkpt lat="48.85134" lon="2.34322">
        <ele>100.7</ele>
        <time>2015-04-06T18:46:09.918Z</time>
      </trkpt>
      <trkpt lat="48.85137" lon="2.34324">
        <ele>100.9</ele>
        <time>2015-04-06T18:46:10.966Z</time>
      </trkpt>
      <trkpt lat="48.85145" lon="2.34326">
        <ele>101.6</ele>
        <time>2015-04-06T18:46:14.903Z</time>
      </trkpt>
      <trkpt lat="48.85147" lon="2.34326">
        <ele>101.7</ele>
        <time>2015-04-06T18:46:15.917Z</time>
      </trkpt>
      <trkpt lat="48.85153" lon="2.34329">
        <ele>102</ele>
        <time>2015-04-06T18:46:17.835Z</time>
      </trkpt>
      <trkpt lat="48.85156" lon="2.34332">
        <ele>101.9</ele>
        <time>2015-04-06T18:46:18.861Z</time>
      </trkpt>
      <trkpt lat="48.85163" lon="2.34336">
        <ele>102.5</ele>
        <time>2015-04-06T18:46:20.829Z</time>
      </trkpt>
      <trkpt lat="48.85166" lon="2.34339">
        <ele>102.9</ele>
        <time>2015-04-06T18:46:21.827Z</time>
      </trkpt>
      <trkpt lat="48.85172" lon="2.34344">
        <ele>102.7</ele>
        <time>2015-04-06T18:46:23.858Z</time>
      </trkpt>
      <trkpt lat="48.85176" lon="2.34346">
        <ele>102.7</ele>
        <time>2015-04-06T18:46:24.880Z</time>
      </trkpt>
      <trkpt lat="48.8518" lon="2.34349">
        <ele>102.8</ele>
        <time>2015-04-06T18:46:25.918Z</time>
      </trkpt>
      <trkpt lat="48.85184" lon="2.34352">
        <ele>102.9</ele>
        <time>2015-04-06T18:46:26.907Z</time>
      </trkpt>
      <trkpt lat="48.85189" lon="2.34355">
        <ele>103.5</ele>
        <time>2015-04-06T18:46:27.830Z</time>
      </trkpt>
      <trkpt lat="48.85194" lon="2.34356">
        <ele>103.4</ele>
        <time>2015-04-06T18:46:28.831Z</time>
      </trkpt>
      <trkpt lat="48.852" lon="2.34358">
        <ele>103.8</ele>
        <time>2015-04-06T18:46:29.843Z</time>
      </trkpt>
      <trkpt lat="48.85207" lon="2.3436">
        <ele>103.9</ele>
        <time>2015-04-06T18:46:30.955Z</time>
      </trkpt>
      <trkpt lat="48.85213" lon="2.34362">
        <ele>104.3</ele>
        <time>2015-04-06T18:46:31.886Z</time>
      </trkpt>
      <trkpt lat="48.8522" lon="2.34365">
        <ele>104.8</ele>
        <time>2015-04-06T18:46:32.881Z</time>
      </trkpt>
      <trkpt lat="48.85226" lon="2.34367">
        <ele>105.3</ele>
        <time>2015-04-06T18:46:33.894Z</time>
      </trkpt>
      <trkpt lat="48.85234" lon="2.34368">
        <ele>105.5</ele>
        <time>2015-04-06T18:46:34.895Z</time>
      </trkpt>
      <trkpt lat="48.8524" lon="2.34371">
        <ele>106.3</ele>
        <time>2015-04-06T18:46:35.907Z</time>
      </trkpt>
      <trkpt lat="48.85246" lon="2.34373">
        <ele>106.7</ele>
        <time>2015-04-06T18:46:36.955Z</time>
      </trkpt>
      <trkpt lat="48.85253" lon="2.34374">
        <ele>106.9</ele>
        <time>2015-04-06T18:46:37.960Z</time>
      </trkpt>
      <trkpt lat="48.85258" lon="2.34377">
        <ele>107.3</ele>
        <time>2015-04-06T18:46:38.864Z</time>
      </trkpt>
      <trkpt lat="48.85264" lon="2.3438">
        <ele>107.8</ele>
        <time>2015-04-06T18:46:39.861Z</time>
      </trkpt>
      <trkpt lat="48.8527" lon="2.34383">
        <ele>107.9</ele>
        <time>2015-04-06T18:46:40.876Z</time>
      </trkpt>
      <trkpt lat="48.85275" lon="2.34386">
        <ele>108</ele>
        <time>2015-04-06T18:46:41.877Z</time>
      </trkpt>
      <trkpt lat="48.8528" lon="2.34388">
        <ele>107.9</ele>
        <time>2015-04-06T18:46:42.886Z</time>
      </trkpt>
      <trkpt lat="48.85285" lon="2.34391">
        <ele>107.6</ele>
        <time>2015-04-06T18:46:43.905Z</time>
      </trkpt>
      <trkpt lat="48.85289" lon="2.34394">
        <ele>107.1</ele>
        <time>2015-04-06T18:46:44.932Z</time>
      </trkpt>
      <trkpt lat="48.85295" lon="2.344">
        <ele>105.9</ele>
        <time>2015-04-06T18:46:46.863Z</time>
      </trkpt>
      <trkpt lat="48.85302" lon="2.34405">
        <ele>104.5</ele>
        <time>2015-04-06T18:46:47.879Z</time>
      </trkpt>
      <trkpt lat="48.8531" lon="2.34412">
        <ele>103</ele>
        <time>2015-04-06T18:46:48.933Z</time>
      </trkpt>
      <trkpt lat="48.85317" lon="2.34418">
        <ele>101.7</ele>
        <time>2015-04-06T18:46:49.945Z</time>
      </trkpt>
      <trkpt lat="48.85324" lon="2.34423">
        <ele>100.4</ele>
        <time>2015-04-06T18:46:50.873Z</time>
      </trkpt>
      <trkpt lat="48.8533" lon="2.34429">
        <ele>99.8</ele>
        <time>2015-04-06T18:46:51.885Z</time>
      </trkpt>
      <trkpt lat="48.85335" lon="2.34434">
        <ele>99.6</ele>
        <time>2015-04-06T18:46:52.895Z</time>
      </trkpt>
      <trkpt lat="48.85342" lon="2.34438">
        <ele>99.1</ele>
        <time>2015-04-06T18:46:53.901Z</time>
      </trkpt>
      <trkpt lat="48.85346" lon="2.34443">
        <ele>98.8</ele>
        <time>2015-04-06T18:46:54.909Z</time>
      </trkpt>
      <trkpt lat="48.8535" lon="2.34446">
        <ele>98.5</ele>
        <time>2015-04-06T18:46:56.350Z</time>
      </trkpt>
      <trkpt lat="48.85356" lon="2.34447">
        <ele>97.7</ele>
        <time>2015-04-06T18:46:56.931Z</time>
      </trkpt>
      <trkpt lat="48.85361" lon="2.34449">
        <ele>97.6</ele>
        <time>2015-04-06T18:46:57.841Z</time>
      </trkpt>
      <trkpt lat="48.85365" lon="2.3445">
        <ele>97.6</ele>
        <time>2015-04-06T18:46:58.865Z</time>
      </trkpt>
      <trkpt lat="48.85372" lon="2.34455">
        <ele>98</ele>
        <time>2015-04-06T18:47:01.910Z</time>
      </trkpt>
      <trkpt lat="48.85374" lon="2.34457">
        <ele>97.9</ele>
        <time>2015-04-06T18:47:02.810Z</time>
      </trkpt>
      <trkpt lat="48.8538" lon="2.34459">
        <ele>96.9</ele>
        <time>2015-04-06T18:47:06.575Z</time>
      </trkpt>
      <trkpt lat="48.85383" lon="2.3446">
        <ele>97.2</ele>
        <time>2015-04-06T18:47:06.861Z</time>
      </trkpt>
      <trkpt lat="48.85384" lon="2.34461">
        <ele>97.3</ele>
        <time>2015-04-06T18:47:07.886Z</time>
      </trkpt>
      <trkpt lat="48.85384" lon="2.34461">
        <ele>96.8</ele>
        <time>2015-04-06T18:47:08.886Z</time>
      </trkpt>
      <trkpt lat="48.85384" lon="2.34461">
        <ele>96.1</ele>
        <time>2015-04-06T18:47:23.892Z</time>
      </trkpt>
      <trkpt lat="48.85375" lon="2.34459">
        <ele>90.8</ele>
        <time>2015-04-06T18:47:24.899Z</time>
      </trkpt>
      <trkpt lat="48.85383" lon="2.34459">
        <ele>90.2</ele>
        <time>2015-04-06T18:47:27.084Z</time>
      </trkpt>
      <trkpt lat="48.85386" lon="2.3446">
        <ele>90.4</ele>
        <time>2015-04-06T18:47:27.923Z</time>
      </trkpt>
      <trkpt lat="48.85393" lon="2.34462">
        <ele>90.1</ele>
        <time>2015-04-06T18:47:29.853Z</time>
      </trkpt>
      <trkpt lat="48.85396" lon="2.34463">
        <ele>90.3</ele>
        <time>2015-04-06T18:47:30.861Z</time>
      </trkpt>
      <trkpt lat="48.85403" lon="2.34468">
        <ele>90.2</ele>
        <time>2015-04-06T18:47:33.875Z</time>
      </trkpt>
      <trkpt lat="48.85406" lon="2.3447">
        <ele>90.2</ele>
        <time>2015-04-06T18:47:34.868Z</time>
      </trkpt>
      <trkpt lat="48.8541" lon="2.34479">
        <ele>89.8</ele>
        <time>2015-04-06T18:47:37.939Z</time>
      </trkpt>
      <trkpt lat="48.85412" lon="2.34482">
        <ele>89.5</ele>
        <time>2015-04-06T18:47:38.850Z</time>
      </trkpt>
      <trkpt lat="48.85417" lon="2.34487">
        <ele>89.6</ele>
        <time>2015-04-06T18:47:40.864Z</time>
      </trkpt>
      <trkpt lat="48.8542" lon="2.3449">
        <ele>90</ele>
        <time>2015-04-06T18:47:41.867Z</time>
      </trkpt>
      <trkpt lat="48.85428" lon="2.34494">
        <ele>91.1</ele>
        <time>2015-04-06T18:47:43.894Z</time>
      </trkpt>
      <trkpt lat="48.85432" lon="2.34496">
        <ele>91.2</ele>
        <time>2015-04-06T18:47:44.903Z</time>
      </trkpt>
      <trkpt lat="48.85437" lon="2.34501">
        <ele>91.3</ele>
        <time>2015-04-06T18:47:46.860Z</time>
      </trkpt>
      <trkpt lat="48.85441" lon="2.34505">
        <ele>90.5</ele>
        <time>2015-04-06T18:47:47.863Z</time>
      </trkpt>
      <trkpt lat="48.85448" lon="2.34514">
        <ele>89.4</ele>
        <time>2015-04-06T18:47:51.023Z</time>
      </trkpt>
      <trkpt lat="48.8545" lon="2.34516">
        <ele>89.4</ele>
        <time>2015-04-06T18:47:51.929Z</time>
      </trkpt>
      <trkpt lat="48.85457" lon="2.34524">
        <ele>88.8</ele>
        <time>2015-04-06T18:47:54.894Z</time>
      </trkpt>
      <trkpt lat="48.85459" lon="2.34527">
        <ele>88.8</ele>
        <time>2015-04-06T18:47:55.912Z</time>
      </trkpt>
      <trkpt lat="48.85465" lon="2.34533">
        <ele>88.8</ele>
        <time>2015-04-06T18:47:57.853Z</time>
      </trkpt>
      <trkpt lat="48.85468" lon="2.34536">
        <ele>88.7</ele>
        <time>2015-04-06T18:47:58.874Z</time>
      </trkpt>
      <trkpt lat="48.85473" lon="2.34542">
        <ele>89.2</ele>
        <time>2015-04-06T18:48:01.155Z</time>
      </trkpt>
      <trkpt lat="48.85476" lon="2.34545">
        <ele>89.3</ele>
        <time>2015-04-06T18:48:01.925Z</time>
      </trkpt>
      <trkpt lat="48.85483" lon="2.34551">
        <ele>89.3</ele>
        <time>2015-04-06T18:48:03.916Z</time>
      </trkpt>
      <trkpt lat="48.85488" lon="2.34555">
        <ele>88.9</ele>
        <time>2015-04-06T18:48:04.928Z</time>
      </trkpt>
      <trkpt lat="48.85493" lon="2.34561">
        <ele>88.6</ele>
        <time>2015-04-06T18:48:06.213Z</time>
      </trkpt>
      <trkpt lat="48.85498" lon="2.34566">
        <ele>88.4</ele>
        <time>2015-04-06T18:48:06.826Z</time>
      </trkpt>
      <trkpt lat="48.85503" lon="2.34573">
        <ele>87.8</ele>
        <time>2015-04-06T18:48:07.891Z</time>
      </trkpt>
      <trkpt lat="48.85508" lon="2.34579">
        <ele>87.1</ele>
        <time>2015-04-06T18:48:08.890Z</time>
      </trkpt>
      <trkpt lat="48.85512" lon="2.34583">
        <ele>86.8</ele>
        <time>2015-04-06T18:48:09.905Z</time>
      </trkpt>
      <trkpt lat="48.85517" lon="2.34586">
        <ele>86.9</ele>
        <time>2015-04-06T18:48:10.920Z</time>
      </trkpt>
      <trkpt lat="48.85522" lon="2.34594">
        <ele>86.7</ele>
        <time>2015-04-06T18:48:12.924Z</time>
      </trkpt>
      <trkpt lat="48.85526" lon="2.34599">
        <ele>86.7</ele>
        <time>2015-04-06T18:48:13.936Z</time>
      </trkpt>
      <trkpt lat="48.8553" lon="2.34603">
        <ele>86.7</ele>
        <time>2015-04-06T18:48:14.852Z</time>
      </trkpt>
      <trkpt lat="48.85534" lon="2.34605">
        <ele>86.8</ele>
        <time>2015-04-06T18:48:15.860Z</time>
      </trkpt>
      <trkpt lat="48.85541" lon="2.34611">
        <ele>87.2</ele>
        <time>2015-04-06T18:48:17.878Z</time>
      </trkpt>
      <trkpt lat="48.85543" lon="2.34614">
        <ele>87.4</ele>
        <time>2015-04-06T18:48:18.886Z</time>
      </trkpt>
      <trkpt lat="48.8555" lon="2.34621">
        <ele>87.9</ele>
        <time>2015-04-06T18:48:21.475Z</time>
      </trkpt>
      <trkpt lat="48.85552" lon="2.34624">
        <ele>87.8</ele>
        <time>2015-04-06T18:48:21.829Z</time>
      </trkpt>
      <trkpt lat="48.85557" lon="2.34632">
        <ele>87.9</ele>
        <time>2015-04-06T18:48:23.870Z</time>
      </trkpt>
      <trkpt lat="48.85562" lon="2.34637">
        <ele>87.6</ele>
        <time>2015-04-06T18:48:24.888Z</time>
      </trkpt>
      <trkpt lat="48.85568" lon="2.34642">
        <ele>87</ele>
        <time>2015-04-06T18:48:26.584Z</time>
      </trkpt>
      <trkpt lat="48.85572" lon="2.34646">
        <ele>86.7</ele>
        <time>2015-04-06T18:48:26.817Z</time>
      </trkpt>
      <trkpt lat="48.85576" lon="2.3465">
        <ele>86.4</ele>
        <time>2015-04-06T18:48:27.849Z</time>
      </trkpt>
      <trkpt lat="48.85581" lon="2.34653">
        <ele>85.9</ele>
        <time>2015-04-06T18:48:28.930Z</time>
      </trkpt>
      <trkpt lat="48.85587" lon="2.34656">
        <ele>85</ele>
        <time>2015-04-06T18:48:29.862Z</time>
      </trkpt>
      <trkpt lat="48.85593" lon="2.34659">
        <ele>84.2</ele>
        <time>2015-04-06T18:48:30.868Z</time>
      </trkpt>
      <trkpt lat="48.85597" lon="2.34662">
        <ele>83.6</ele>
        <time>2015-04-06T18:48:31.921Z</time>
      </trkpt>
      <trkpt lat="48.85602" lon="2.34662">
        <ele>82.9</ele>
        <time>2015-04-06T18:48:32.928Z</time>
      </trkpt>
      <trkpt lat="48.85609" lon="2.34664">
        <ele>82</ele>
        <time>2015-04-06T18:48:34.864Z</time>
      </trkpt>
      <trkpt lat="48.85612" lon="2.34664">
        <ele>81.4</ele>
        <time>2015-04-06T18:48:35.877Z</time>
      </trkpt>
      <trkpt lat="48.85619" lon="2.3467">
        <ele>80.3</ele>
        <time>2015-04-06T18:48:38.923Z</time>
      </trkpt>
      <trkpt lat="48.85622" lon="2.34671">
        <ele>79.9</ele>
        <time>2015-04-06T18:48:39.874Z</time>
      </trkpt>
      <trkpt lat="48.85629" lon="2.34673">
        <ele>79.5</ele>
        <time>2015-04-06T18:48:41.888Z</time>
      </trkpt>
      <trkpt lat="48.85632" lon="2.34674">
        <ele>79.3</ele>
        <time>2015-04-06T18:48:42.902Z</time>
      </trkpt>
      <trkpt lat="48.85639" lon="2.34678">
        <ele>78.9</ele>
        <time>2015-04-06T18:48:44.839Z</time>
      </trkpt>
      <trkpt lat="48.85641" lon="2.3468">
        <ele>78.8</ele>
        <time>2015-04-06T18:48:45.843Z</time>
      </trkpt>
      <trkpt lat="48.85648" lon="2.34685">
        <ele>79.1</ele>
        <time>2015-04-06T18:48:47.919Z</time>
      </trkpt>
      <trkpt lat="48.85651" lon="2.34688">
        <ele>79.2</ele>
        <time>2015-04-06T18:48:48.911Z</time>
      </trkpt>
      <trkpt lat="48.85657" lon="2.34692">
        <ele>79.6</ele>
        <time>2015-04-06T18:48:51.142Z</time>
      </trkpt>
      <trkpt lat="48.8566" lon="2.34693">
        <ele>79.7</ele>
        <time>2015-04-06T18:48:51.863Z</time>
      </trkpt>
      <trkpt lat="48.85666" lon="2.34697">
        <ele>79.6</ele>
        <time>2015-04-06T18:48:53.897Z</time>
      </trkpt>
      <trkpt lat="48.85669" lon="2.34699">
        <ele>79.6</ele>
        <time>2015-04-06T18:48:54.903Z</time>
      </trkpt>
      <trkpt lat="48.85675" lon="2.34703">
        <ele>79.5</ele>
        <time>2015-04-06T18:48:56.836Z</time>
      </trkpt>
      <trkpt lat="48.85678" lon="2.34706">
        <ele>79.5</ele>
        <time>2015-04-06T18:48:57.839Z</time>
      </trkpt>
      <trkpt lat="48.85685" lon="2.34711">
        <ele>80.2</ele>
        <time>2015-04-06T18:48:59.455Z</time>
      </trkpt>
      <trkpt lat="48.85688" lon="2.34714">
        <ele>80.3</ele>
        <time>2015-04-06T18:49:00.879Z</time>
      </trkpt>
      <trkpt lat="48.85693" lon="2.34719">
        <ele>80.2</ele>
        <time>2015-04-06T18:49:02.842Z</time>
      </trkpt>
      <trkpt lat="48.85696" lon="2.34721">
        <ele>80.4</ele>
        <time>2015-04-06T18:49:03.871Z</time>
      </trkpt>
      <trkpt lat="48.85702" lon="2.34726">
        <ele>80.9</ele>
        <time>2015-04-06T18:49:05.915Z</time>
      </trkpt>
      <trkpt lat="48.85706" lon="2.34729">
        <ele>81.1</ele>
        <time>2015-04-06T18:49:06.923Z</time>
      </trkpt>
      <trkpt lat="48.8571" lon="2.34739">
        <ele>82.3</ele>
        <time>2015-04-06T18:49:09.621Z</time>
      </trkpt>
      <trkpt lat="48.85712" lon="2.34741">
        <ele>82.7</ele>
        <time>2015-04-06T18:49:10.840Z</time>
      </trkpt>
      <trkpt lat="48.85713" lon="2.34744">
        <ele>82.7</ele>
        <time>2015-04-06T18:49:12.897Z</time>
      </trkpt>
      <trkpt lat="48.85713" lon="2.34744">
        <ele>82.6</ele>
        <time>2015-04-06T18:49:13.917Z</time>
      </trkpt>
      <trkpt lat="48.85713" lon="2.34743">
        <ele>82.6</ele>
        <time>2015-04-06T18:50:18.892Z</time>
      </trkpt>
      <trkpt lat="48.85719" lon="2.3473">
        <ele>80.4</ele>
        <time>2015-04-06T18:50:19.964Z</time>
      </trkpt>
      <trkpt lat="48.85724" lon="2.34739">
        <ele>81.8</ele>
        <time>2015-04-06T18:50:22.864Z</time>
      </trkpt>
      <trkpt lat="48.85725" lon="2.34743">
        <ele>82.6</ele>
        <time>2015-04-06T18:50:23.870Z</time>
      </trkpt>
      <trkpt lat="48.8573" lon="2.34749">
        <ele>83.6</ele>
        <time>2015-04-06T18:50:25.898Z</time>
      </trkpt>
      <trkpt lat="48.85733" lon="2.3475">
        <ele>83.8</ele>
        <time>2015-04-06T18:50:26.916Z</time>
      </trkpt>
      <trkpt lat="48.8574" lon="2.34752">
        <ele>83</ele>
        <time>2015-04-06T18:50:28.947Z</time>
      </trkpt>
      <trkpt lat="48.85745" lon="2.34754">
        <ele>82.2</ele>
        <time>2015-04-06T18:50:29.854Z</time>
      </trkpt>
      <trkpt lat="48.8575" lon="2.34757">
        <ele>81.4</ele>
        <time>2015-04-06T18:50:30.860Z</time>
      </trkpt>
      <trkpt lat="48.85755" lon="2.3476">
        <ele>80.5</ele>
        <time>2015-04-06T18:50:31.896Z</time>
      </trkpt>
      <trkpt lat="48.8576" lon="2.34763">
        <ele>80.3</ele>
        <time>2015-04-06T18:50:32.919Z</time>
      </trkpt>
      <trkpt lat="48.85765" lon="2.34766">
        <ele>80</ele>
        <time>2015-04-06T18:50:33.941Z</time>
      </trkpt>
      <trkpt lat="48.85772" lon="2.34772">
        <ele>80.7</ele>
        <time>2015-04-06T18:50:35.847Z</time>
      </trkpt>
      <trkpt lat="48.85774" lon="2.34776">
        <ele>81.2</ele>
        <time>2015-04-06T18:50:36.870Z</time>
      </trkpt>
      <trkpt lat="48.8578" lon="2.34782">
        <ele>82.2</ele>
        <time>2015-04-06T18:50:38.904Z</time>
      </trkpt>
      <trkpt lat="48.85784" lon="2.34783">
        <ele>82.5</ele>
        <time>2015-04-06T18:50:39.920Z</time>
      </trkpt>
      <trkpt lat="48.8579" lon="2.34789">
        <ele>83.6</ele>
        <time>2015-04-06T18:50:42.871Z</time>
      </trkpt>
      <trkpt lat="48.85793" lon="2.3479">
        <ele>83.4</ele>
        <time>2015-04-06T18:50:43.900Z</time>
      </trkpt>
      <trkpt lat="48.85799" lon="2.34795">
        <ele>83.4</ele>
        <time>2015-04-06T18:50:45.985Z</time>
      </trkpt>
      <trkpt lat="48.85802" lon="2.34798">
        <ele>83.2</ele>
        <time>2015-04-06T18:50:46.856Z</time>
      </trkpt>
      <trkpt lat="48.85809" lon="2.34804">
        <ele>82.8</ele>
        <time>2015-04-06T18:50:48.872Z</time>
      </trkpt>
      <trkpt lat="48.85814" lon="2.34806">
        <ele>82.2</ele>
        <time>2015-04-06T18:50:49.905Z</time>
      </trkpt>
      <trkpt lat="48.85822" lon="2.34811">
        <ele>82.7</ele>
        <time>2015-04-06T18:50:51.902Z</time>
      </trkpt>
      <trkpt lat="48.85826" lon="2.34814">
        <ele>83.1</ele>
        <time>2015-04-06T18:50:52.913Z</time>
      </trkpt>
      <trkpt lat="48.85834" lon="2.34819">
        <ele>83.7</ele>
        <time>2015-04-06T18:50:54.848Z</time>
      </trkpt>
      <trkpt lat="48.85837" lon="2.34822">
        <ele>84</ele>
        <time>2015-04-06T18:50:55.858Z</time>
      </trkpt>
      <trkpt lat="48.85843" lon="2.3483">
        <ele>84.8</ele>
        <time>2015-04-06T18:50:58.939Z</time>
      </trkpt>
      <trkpt lat="48.85846" lon="2.34831">
        <ele>85.1</ele>
        <time>2015-04-06T18:50:59.813Z</time>
      </trkpt>
      <trkpt lat="48.85853" lon="2.34824">
        <ele>87.1</ele>
        <time>2015-04-06T18:51:06.873Z</time>
      </trkpt>
      <trkpt lat="48.85855" lon="2.34824">
        <ele>87.4</ele>
        <time>2015-04-06T18:51:07.886Z</time>
      </trkpt>
      <trkpt lat="48.85862" lon="2.3483">
        <ele>87.3</ele>
        <time>2015-04-06T18:51:09.841Z</time>
      </trkpt>
      <trkpt lat="48.85865" lon="2.34832">
        <ele>87.4</ele>
        <time>2015-04-06T18:51:10.877Z</time>
      </trkpt>
      <trkpt lat="48.85874" lon="2.34836">
        <ele>87.9</ele>
        <time>2015-04-06T18:51:12.865Z</time>
      </trkpt>
      <trkpt lat="48.85877" lon="2.34839">
        <ele>88.3</ele>
        <time>2015-04-06T18:51:13.936Z</time>
      </trkpt>
      <trkpt lat="48.85884" lon="2.34843">
        <ele>88.3</ele>
        <time>2015-04-06T18:51:16.420Z</time>
      </trkpt>
      <trkpt lat="48.85886" lon="2.34845">
        <ele>88.3</ele>
        <time>2015-04-06T18:51:16.872Z</time>
      </trkpt>
      <trkpt lat="48.85893" lon="2.3485">
        <ele>88.5</ele>
        <time>2015-04-06T18:51:18.918Z</time>
      </trkpt>
      <trkpt lat="48.85897" lon="2.34854">
        <ele>88.7</ele>
        <time>2015-04-06T18:51:19.939Z</time>
      </trkpt>
      <trkpt lat="48.85903" lon="2.34861">
        <ele>88.5</ele>
        <time>2015-04-06T18:51:21.819Z</time>
      </trkpt>
      <trkpt lat="48.85906" lon="2.34863">
        <ele>88.7</ele>
        <time>2015-04-06T18:51:22.849Z</time>
      </trkpt>
      <trkpt lat="48.85912" lon="2.34868">
        <ele>88.8</ele>
        <time>2015-04-06T18:51:24.855Z</time>
      </trkpt>
      <trkpt lat="48.85914" lon="2.34871">
        <ele>88.9</ele>
        <time>2015-04-06T18:51:25.880Z</time>
      </trkpt>
      <trkpt lat="48.85921" lon="2.34877">
        <ele>88.7</ele>
        <time>2015-04-06T18:51:28.811Z</time>
      </trkpt>
      <trkpt lat="48.85926" lon="2.3488">
        <ele>88.7</ele>
        <time>2015-04-06T18:51:29.929Z</time>
      </trkpt>
      <trkpt lat="48.85931" lon="2.34882">
        <ele>89.1</ele>
        <time>2015-04-06T18:51:31.784Z</time>
      </trkpt>
      <trkpt lat="48.85936" lon="2.34884">
        <ele>89.5</ele>
        <time>2015-04-06T18:51:31.878Z</time>
      </trkpt>
      <trkpt lat="48.85944" lon="2.34887">
        <ele>89.3</ele>
        <time>2015-04-06T18:51:33.834Z</time>
      </trkpt>
      <trkpt lat="48.85948" lon="2.3489">
        <ele>89.1</ele>
        <time>2015-04-06T18:51:34.848Z</time>
      </trkpt>
      <trkpt lat="48.85956" lon="2.34894">
        <ele>88.8</ele>
        <time>2015-04-06T18:51:36.856Z</time>
      </trkpt>
      <trkpt lat="48.8596" lon="2.34896">
        <ele>88.8</ele>
        <time>2015-04-06T18:51:37.879Z</time>
      </trkpt>
      <trkpt lat="48.85963" lon="2.34899">
        <ele>88.9</ele>
        <time>2015-04-06T18:51:38.877Z</time>
      </trkpt>
      <trkpt lat="48.85968" lon="2.34902">
        <ele>88.9</ele>
        <time>2015-04-06T18:51:39.889Z</time>
      </trkpt>
      <trkpt lat="48.85973" lon="2.34906">
        <ele>88.8</ele>
        <time>2015-04-06T18:51:40.834Z</time>
      </trkpt>
      <trkpt lat="48.85978" lon="2.34909">
        <ele>89</ele>
        <time>2015-04-06T18:51:41.852Z</time>
      </trkpt>
      <trkpt lat="48.85985" lon="2.34915">
        <ele>88.9</ele>
        <time>2015-04-06T18:51:43.870Z</time>
      </trkpt>
      <trkpt lat="48.85987" lon="2.34917">
        <ele>88.9</ele>
        <time>2015-04-06T18:51:44.880Z</time>
      </trkpt>
      <trkpt lat="48.85992" lon="2.34926">
        <ele>88.9</ele>
        <time>2015-04-06T18:51:47.903Z</time>
      </trkpt>
      <trkpt lat="48.85996" lon="2.3493">
        <ele>88.8</ele>
        <time>2015-04-06T18:51:48.924Z</time>
      </trkpt>
      <trkpt lat="48.85999" lon="2.34933">
        <ele>88.7</ele>
        <time>2015-04-06T18:51:49.881Z</time>
      </trkpt>
      <trkpt lat="48.86005" lon="2.34935">
        <ele>88.6</ele>
        <time>2015-04-06T18:51:50.836Z</time>
      </trkpt>
      <trkpt lat="48.86008" lon="2.34935">
        <ele>88.5</ele>
        <time>2015-04-06T18:51:51.858Z</time>
      </trkpt>
      <trkpt lat="48.86014" lon="2.34936">
        <ele>88.7</ele>
        <time>2015-04-06T18:51:52.870Z</time>
      </trkpt>
      <trkpt lat="48.86022" lon="2.34939">
        <ele>89.1</ele>
        <time>2015-04-06T18:51:54.893Z</time>
      </trkpt>
      <trkpt lat="48.86026" lon="2.34941">
        <ele>89.3</ele>
        <time>2015-04-06T18:51:55.902Z</time>
      </trkpt>
      <trkpt lat="48.86033" lon="2.34943">
        <ele>89.4</ele>
        <time>2015-04-06T18:51:56.839Z</time>
      </trkpt>
      <trkpt lat="48.86039" lon="2.34947">
        <ele>89.6</ele>
        <time>2015-04-06T18:51:57.836Z</time>
      </trkpt>
      <trkpt lat="48.86046" lon="2.34949">
        <ele>89.8</ele>
        <time>2015-04-06T18:51:58.856Z</time>
      </trkpt>
      <trkpt lat="48.86051" lon="2.34952">
        <ele>89.9</ele>
        <time>2015-04-06T18:51:59.865Z</time>
      </trkpt>
      <trkpt lat="48.86058" lon="2.34956">
        <ele>90.1</ele>
        <time>2015-04-06T18:52:01.173Z</time>
      </trkpt>
      <trkpt lat="48.86062" lon="2.34959">
        <ele>90.1</ele>
        <time>2015-04-06T18:52:01.923Z</time>
      </trkpt>
      <trkpt lat="48.86067" lon="2.34963">
        <ele>90.4</ele>
        <time>2015-04-06T18:52:02.836Z</time>
      </trkpt>
      <trkpt lat="48.86071" lon="2.34967">
        <ele>90.5</ele>
        <time>2015-04-06T18:52:03.808Z</time>
      </trkpt>
      <trkpt lat="48.86075" lon="2.3497">
        <ele>90.7</ele>
        <time>2015-04-06T18:52:04.810Z</time>
      </trkpt>
      <trkpt lat="48.8608" lon="2.34974">
        <ele>90.7</ele>
        <time>2015-04-06T18:52:05.829Z</time>
      </trkpt>
      <trkpt lat="48.86087" lon="2.34979">
        <ele>90.5</ele>
        <time>2015-04-06T18:52:07.925Z</time>
      </trkpt>
      <trkpt lat="48.86093" lon="2.34981">
        <ele>90.8</ele>
        <time>2015-04-06T18:52:08.826Z</time>
      </trkpt>
      <trkpt lat="48.86098" lon="2.34983">
        <ele>91.1</ele>
        <time>2015-04-06T18:52:09.834Z</time>
      </trkpt>
      <trkpt lat="48.86106" lon="2.34986">
        <ele>91</ele>
        <time>2015-04-06T18:52:10.854Z</time>
      </trkpt>
      <trkpt lat="48.86113" lon="2.34988">
        <ele>90.7</ele>
        <time>2015-04-06T18:52:11.881Z</time>
      </trkpt>
      <trkpt lat="48.86119" lon="2.3499">
        <ele>90.8</ele>
        <time>2015-04-06T18:52:12.888Z</time>
      </trkpt>
      <trkpt lat="48.86124" lon="2.34992">
        <ele>90.9</ele>
        <time>2015-04-06T18:52:13.899Z</time>
      </trkpt>
      <trkpt lat="48.86129" lon="2.34996">
        <ele>91.2</ele>
        <time>2015-04-06T18:52:14.912Z</time>
      </trkpt>
      <trkpt lat="48.86134" lon="2.34998">
        <ele>91.4</ele>
        <time>2015-04-06T18:52:15.823Z</time>
      </trkpt>
      <trkpt lat="48.86138" lon="2.35001">
        <ele>91.6</ele>
        <time>2015-04-06T18:52:16.832Z</time>
      </trkpt>
      <trkpt lat="48.86143" lon="2.35006">
        <ele>91.8</ele>
        <time>2015-04-06T18:52:17.847Z</time>
      </trkpt>
      <trkpt lat="48.86149" lon="2.3501">
        <ele>91.8</ele>
        <time>2015-04-06T18:52:18.852Z</time>
      </trkpt>
      <trkpt lat="48.86155" lon="2.35013">
        <ele>91.6</ele>
        <time>2015-04-06T18:52:19.873Z</time>
      </trkpt>
      <trkpt lat="48.86161" lon="2.35015">
        <ele>91.1</ele>
        <time>2015-04-06T18:52:20.860Z</time>
      </trkpt>
      <trkpt lat="48.86165" lon="2.35018">
        <ele>91</ele>
        <time>2015-04-06T18:52:21.883Z</time>
      </trkpt>
      <trkpt lat="48.8617" lon="2.3502">
        <ele>90.5</ele>
        <time>2015-04-06T18:52:22.895Z</time>
      </trkpt>
      <trkpt lat="48.86178" lon="2.35026">
        <ele>90.4</ele>
        <time>2015-04-06T18:52:24.827Z</time>
      </trkpt>
      <trkpt lat="48.86183" lon="2.35029">
        <ele>90</ele>
        <time>2015-04-06T18:52:25.844Z</time>
      </trkpt>
      <trkpt lat="48.86189" lon="2.35031">
        <ele>89.8</ele>
        <time>2015-04-06T18:52:26.898Z</time>
      </trkpt>
      <trkpt lat="48.86195" lon="2.35036">
        <ele>89.6</ele>
        <time>2015-04-06T18:52:27.910Z</time>
      </trkpt>
      <trkpt lat="48.86201" lon="2.35041">
        <ele>89.6</ele>
        <time>2015-04-06T18:52:28.831Z</time>
      </trkpt>
      <trkpt lat="48.86207" lon="2.35047">
        <ele>89.6</ele>
        <time>2015-04-06T18:52:29.824Z</time>
      </trkpt>
      <trkpt lat="48.86213" lon="2.35052">
        <ele>89.6</ele>
        <time>2015-04-06T18:52:30.840Z</time>
      </trkpt>
      <trkpt lat="48.86215" lon="2.35056">
        <ele>89.6</ele>
        <time>2015-04-06T18:52:31.901Z</time>
      </trkpt>
      <trkpt lat="48.86218" lon="2.3506">
        <ele>89.6</ele>
        <time>2015-04-06T18:52:32.901Z</time>
      </trkpt>
      <trkpt lat="48.86224" lon="2.35065">
        <ele>89.6</ele>
        <time>2015-04-06T18:52:33.825Z</time>
      </trkpt>
      <trkpt lat="48.86227" lon="2.35069">
        <ele>89.4</ele>
        <time>2015-04-06T18:52:34.828Z</time>
      </trkpt>
      <trkpt lat="48.86243" lon="2.35077">
        <ele>88.6</ele>
        <time>2015-04-06T18:52:35.863Z</time>
      </trkpt>
      <trkpt lat="48.86252" lon="2.3508">
        <ele>88.3</ele>
        <time>2015-04-06T18:52:36.946Z</time>
      </trkpt>
      <trkpt lat="48.86257" lon="2.35083">
        <ele>88.3</ele>
        <time>2015-04-06T18:52:37.875Z</time>
      </trkpt>
      <trkpt lat="48.86265" lon="2.35088">
        <ele>88.7</ele>
        <time>2015-04-06T18:52:39.823Z</time>
      </trkpt>
      <trkpt lat="48.8627" lon="2.3509">
        <ele>88.6</ele>
        <time>2015-04-06T18:52:40.845Z</time>
      </trkpt>
      <trkpt lat="48.86275" lon="2.35093">
        <ele>88.6</ele>
        <time>2015-04-06T18:52:41.883Z</time>
      </trkpt>
      <trkpt lat="48.86281" lon="2.35094">
        <ele>88.5</ele>
        <time>2015-04-06T18:52:42.887Z</time>
      </trkpt>
      <trkpt lat="48.86288" lon="2.35098">
        <ele>89.2</ele>
        <time>2015-04-06T18:52:44.914Z</time>
      </trkpt>
      <trkpt lat="48.86292" lon="2.35101">
        <ele>89.7</ele>
        <time>2015-04-06T18:52:45.960Z</time>
      </trkpt>
      <trkpt lat="48.86299" lon="2.35104">
        <ele>90.3</ele>
        <time>2015-04-06T18:52:47.841Z</time>
      </trkpt>
      <trkpt lat="48.86306" lon="2.35104">
        <ele>91.2</ele>
        <time>2015-04-06T18:52:48.860Z</time>
      </trkpt>
      <trkpt lat="48.86312" lon="2.35104">
        <ele>91.6</ele>
        <time>2015-04-06T18:52:49.903Z</time>
      </trkpt>
      <trkpt lat="48.8632" lon="2.35104">
        <ele>92.3</ele>
        <time>2015-04-06T18:52:50.914Z</time>
      </trkpt>
      <trkpt lat="48.8633" lon="2.35106">
        <ele>93.5</ele>
        <time>2015-04-06T18:52:51.920Z</time>
      </trkpt>
      <trkpt lat="48.86336" lon="2.35108">
        <ele>94.1</ele>
        <time>2015-04-06T18:52:52.828Z</time>
      </trkpt>
      <trkpt lat="48.86342" lon="2.35111">
        <ele>94.5</ele>
        <time>2015-04-06T18:52:53.868Z</time>
      </trkpt>
      <trkpt lat="48.8635" lon="2.35114">
        <ele>94.8</ele>
        <time>2015-04-06T18:52:54.901Z</time>
      </trkpt>
      <trkpt lat="48.86357" lon="2.35116">
        <ele>95.3</ele>
        <time>2015-04-06T18:52:55.916Z</time>
      </trkpt>
      <trkpt lat="48.86366" lon="2.35119">
        <ele>95.8</ele>
        <time>2015-04-06T18:52:56.916Z</time>
      </trkpt>
      <trkpt lat="48.86373" lon="2.35122">
        <ele>96.4</ele>
        <time>2015-04-06T18:52:57.919Z</time>
      </trkpt>
      <trkpt lat="48.8638" lon="2.35124">
        <ele>96.6</ele>
        <time>2015-04-06T18:52:58.942Z</time>
      </trkpt>
      <trkpt lat="48.86384" lon="2.35126">
        <ele>96.7</ele>
        <time>2015-04-06T18:52:59.855Z</time>
      </trkpt>
      <trkpt lat="48.8639" lon="2.35128">
        <ele>96.8</ele>
        <time>2015-04-06T18:53:00.852Z</time>
      </trkpt>
      <trkpt lat="48.86396" lon="2.3513">
        <ele>97</ele>
        <time>2015-04-06T18:53:01.908Z</time>
      </trkpt>
      <trkpt lat="48.86405" lon="2.35134">
        <ele>97.1</ele>
        <time>2015-04-06T18:53:02.839Z</time>
      </trkpt>
      <trkpt lat="48.86415" lon="2.35138">
        <ele>96.2</ele>
        <time>2015-04-06T18:53:03.838Z</time>
      </trkpt>
      <trkpt lat="48.86424" lon="2.35141">
        <ele>95.5</ele>
        <time>2015-04-06T18:53:04.846Z</time>
      </trkpt>
      <trkpt lat="48.86433" lon="2.35145">
        <ele>94.8</ele>
        <time>2015-04-06T18:53:05.886Z</time>
      </trkpt>
      <trkpt lat="48.86441" lon="2.35149">
        <ele>94.3</ele>
        <time>2015-04-06T18:53:06.901Z</time>
      </trkpt>
      <trkpt lat="48.86446" lon="2.35152">
        <ele>94.4</ele>
        <time>2015-04-06T18:53:07.961Z</time>
      </trkpt>
      <trkpt lat="48.8645" lon="2.35154">
        <ele>95.1</ele>
        <time>2015-04-06T18:53:08.842Z</time>
      </trkpt>
      <trkpt lat="48.86457" lon="2.35158">
        <ele>95.9</ele>
        <time>2015-04-06T18:53:10.829Z</time>
      </trkpt>
      <trkpt lat="48.86461" lon="2.35159">
        <ele>96.3</ele>
        <time>2015-04-06T18:53:11.833Z</time>
      </trkpt>
      <trkpt lat="48.86469" lon="2.3516">
        <ele>96.8</ele>
        <time>2015-04-06T18:53:13.900Z</time>
      </trkpt>
      <trkpt lat="48.86473" lon="2.35162">
        <ele>96.9</ele>
        <time>2015-04-06T18:53:14.936Z</time>
      </trkpt>
      <trkpt lat="48.8648" lon="2.35166">
        <ele>97.4</ele>
        <time>2015-04-06T18:53:16.847Z</time>
      </trkpt>
      <trkpt lat="48.86485" lon="2.35167">
        <ele>97.3</ele>
        <time>2015-04-06T18:53:17.916Z</time>
      </trkpt>
      <trkpt lat="48.86492" lon="2.35174">
        <ele>98</ele>
        <time>2015-04-06T18:53:19.959Z</time>
      </trkpt>
      <trkpt lat="48.86494" lon="2.35177">
        <ele>97.9</ele>
        <time>2015-04-06T18:53:20.977Z</time>
      </trkpt>
      <trkpt lat="48.86499" lon="2.3518">
        <ele>97.7</ele>
        <time>2015-04-06T18:53:21.910Z</time>
      </trkpt>
      <trkpt lat="48.86506" lon="2.35184">
        <ele>96.8</ele>
        <time>2015-04-06T18:53:22.911Z</time>
      </trkpt>
      <trkpt lat="48.86514" lon="2.35188">
        <ele>95.8</ele>
        <time>2015-04-06T18:53:23.926Z</time>
      </trkpt>
      <trkpt lat="48.86518" lon="2.3519">
        <ele>96.4</ele>
        <time>2015-04-06T18:53:24.876Z</time>
      </trkpt>
      <trkpt lat="48.86523" lon="2.35194">
        <ele>96.7</ele>
        <time>2015-04-06T18:53:25.918Z</time>
      </trkpt>
      <trkpt lat="48.86527" lon="2.35198">
        <ele>96.8</ele>
        <time>2015-04-06T18:53:26.926Z</time>
      </trkpt>
      <trkpt lat="48.86535" lon="2.35202">
        <ele>98.1</ele>
        <time>2015-04-06T18:53:28.864Z</time>
      </trkpt>
      <trkpt lat="48.8654" lon="2.35204">
        <ele>98.4</ele>
        <time>2015-04-06T18:53:29.891Z</time>
      </trkpt>
      <trkpt lat="48.86547" lon="2.35212">
        <ele>99.4</ele>
        <time>2015-04-06T18:53:31.928Z</time>
      </trkpt>
      <trkpt lat="48.8655" lon="2.35215">
        <ele>99.3</ele>
        <time>2015-04-06T18:53:32.935Z</time>
      </trkpt>
      <trkpt lat="48.86556" lon="2.35218">
        <ele>99.6</ele>
        <time>2015-04-06T18:53:33.846Z</time>
      </trkpt>
      <trkpt lat="48.86561" lon="2.35222">
        <ele>99.7</ele>
        <time>2015-04-06T18:53:34.847Z</time>
      </trkpt>
      <trkpt lat="48.86566" lon="2.35224">
        <ele>99.4</ele>
        <time>2015-04-06T18:53:35.872Z</time>
      </trkpt>
      <trkpt lat="48.86571" lon="2.35226">
        <ele>99.2</ele>
        <time>2015-04-06T18:53:36.879Z</time>
      </trkpt>
      <trkpt lat="48.86579" lon="2.35232">
        <ele>99.3</ele>
        <time>2015-04-06T18:53:38.917Z</time>
      </trkpt>
      <trkpt lat="48.86585" lon="2.35236">
        <ele>99.7</ele>
        <time>2015-04-06T18:53:39.821Z</time>
      </trkpt>
      <trkpt lat="48.8659" lon="2.35239">
        <ele>99.9</ele>
        <time>2015-04-06T18:53:40.845Z</time>
      </trkpt>
      <trkpt lat="48.86595" lon="2.35243">
        <ele>100.2</ele>
        <time>2015-04-06T18:53:41.880Z</time>
      </trkpt>
      <trkpt lat="48.86603" lon="2.3525">
        <ele>100.3</ele>
        <time>2015-04-06T18:53:43.910Z</time>
      </trkpt>
      <trkpt lat="48.86605" lon="2.35254">
        <ele>100.2</ele>
        <time>2015-04-06T18:53:44.808Z</time>
      </trkpt>
      <trkpt lat="48.86613" lon="2.35261">
        <ele>100.2</ele>
        <time>2015-04-06T18:53:45.972Z</time>
      </trkpt>
      <trkpt lat="48.86619" lon="2.35263">
        <ele>100.5</ele>
        <time>2015-04-06T18:53:47.868Z</time>
      </trkpt>
      <trkpt lat="48.86625" lon="2.35266">
        <ele>100.9</ele>
        <time>2015-04-06T18:53:48.892Z</time>
      </trkpt>
      <trkpt lat="48.8663" lon="2.35269">
        <ele>101.3</ele>
        <time>2015-04-06T18:53:49.898Z</time>
      </trkpt>
      <trkpt lat="48.86636" lon="2.35272">
        <ele>101.5</ele>
        <time>2015-04-06T18:53:51.076Z</time>
      </trkpt>
      <trkpt lat="48.86643" lon="2.35274">
        <ele>101.4</ele>
        <time>2015-04-06T18:53:51.833Z</time>
      </trkpt>
      <trkpt lat="48.86649" lon="2.35276">
        <ele>100.9</ele>
        <time>2015-04-06T18:53:52.843Z</time>
      </trkpt>
      <trkpt lat="48.86655" lon="2.35279">
        <ele>100.2</ele>
        <time>2015-04-06T18:53:53.864Z</time>
      </trkpt>
      <trkpt lat="48.86661" lon="2.35281">
        <ele>99.4</ele>
        <time>2015-04-06T18:53:54.876Z</time>
      </trkpt>
      <trkpt lat="48.86667" lon="2.35283">
        <ele>98.8</ele>
        <time>2015-04-06T18:53:55.887Z</time>
      </trkpt>
      <trkpt lat="48.86667" lon="2.35283">
        <ele>98.8</ele>
        <time>2015-04-06T18:53:56.188Z</time>
      </trkpt>
      <trkpt lat="48.86677" lon="2.35287">
        <ele>98.3</ele>
        <time>2015-04-06T18:53:56.893Z</time>
      </trkpt>
      <trkpt lat="48.86686" lon="2.35293">
        <ele>97.2</ele>
        <time>2015-04-06T18:53:57.911Z</time>
      </trkpt>
      <trkpt lat="48.86695" lon="2.35297">
        <ele>96.2</ele>
        <time>2015-04-06T18:53:58.830Z</time>
      </trkpt>
      <trkpt lat="48.86702" lon="2.35301">
        <ele>95.2</ele>
        <time>2015-04-06T18:53:59.835Z</time>
      </trkpt>
      <trkpt lat="48.86708" lon="2.35305">
        <ele>95</ele>
        <time>2015-04-06T18:54:00.844Z</time>
      </trkpt>
      <trkpt lat="48.86714" lon="2.35308">
        <ele>95.1</ele>
        <time>2015-04-06T18:54:01.899Z</time>
      </trkpt>
      <trkpt lat="48.86721" lon="2.35312">
        <ele>95.4</ele>
        <time>2015-04-06T18:54:02.898Z</time>
      </trkpt>
      <trkpt lat="48.86727" lon="2.35315">
        <ele>95.7</ele>
        <time>2015-04-06T18:54:03.821Z</time>
      </trkpt>
      <trkpt lat="48.86733" lon="2.35317">
        <ele>95.8</ele>
        <time>2015-04-06T18:54:04.875Z</time>
      </trkpt>
      <trkpt lat="48.8674" lon="2.35319">
        <ele>96.2</ele>
        <time>2015-04-06T18:54:06.343Z</time>
      </trkpt>
      <trkpt lat="48.86746" lon="2.35321">
        <ele>96.9</ele>
        <time>2015-04-06T18:54:06.892Z</time>
      </trkpt>
      <trkpt lat="48.86752" lon="2.35324">
        <ele>97.7</ele>
        <time>2015-04-06T18:54:07.898Z</time>
      </trkpt>
      <trkpt lat="48.86756" lon="2.35326">
        <ele>97.9</ele>
        <time>2015-04-06T18:54:08.909Z</time>
      </trkpt>
      <trkpt lat="48.86761" lon="2.35329">
        <ele>98.8</ele>
        <time>2015-04-06T18:54:09.826Z</time>
      </trkpt>
      <trkpt lat="48.86765" lon="2.35331">
        <ele>99.2</ele>
        <time>2015-04-06T18:54:10.822Z</time>
      </trkpt>
      <trkpt lat="48.86772" lon="2.35335">
        <ele>100.1</ele>
        <time>2015-04-06T18:54:12.835Z</time>
      </trkpt>
      <trkpt lat="48.86776" lon="2.35337">
        <ele>99.8</ele>
        <time>2015-04-06T18:54:13.860Z</time>
      </trkpt>
      <trkpt lat="48.86785" lon="2.35341">
        <ele>99.6</ele>
        <time>2015-04-06T18:54:15.889Z</time>
      </trkpt>
      <trkpt lat="48.86789" lon="2.35343">
        <ele>99.6</ele>
        <time>2015-04-06T18:54:16.843Z</time>
      </trkpt>
      <trkpt lat="48.86796" lon="2.35347">
        <ele>99.2</ele>
        <time>2015-04-06T18:54:18.836Z</time>
      </trkpt>
      <trkpt lat="48.868" lon="2.35349">
        <ele>99.1</ele>
        <time>2015-04-06T18:54:19.863Z</time>
      </trkpt>
      <trkpt lat="48.86807" lon="2.35354">
        <ele>99.4</ele>
        <time>2015-04-06T18:54:21.879Z</time>
      </trkpt>
      <trkpt lat="48.86812" lon="2.35355">
        <ele>99.1</ele>
        <time>2015-04-06T18:54:22.897Z</time>
      </trkpt>
      <trkpt lat="48.86816" lon="2.35356">
        <ele>99.1</ele>
        <time>2015-04-06T18:54:23.828Z</time>
      </trkpt>
      <trkpt lat="48.86821" lon="2.35358">
        <ele>98.9</ele>
        <time>2015-04-06T18:54:24.836Z</time>
      </trkpt>
      <trkpt lat="48.86826" lon="2.35359">
        <ele>98.7</ele>
        <time>2015-04-06T18:54:25.884Z</time>
      </trkpt>
      <trkpt lat="48.8683" lon="2.35362">
        <ele>98.8</ele>
        <time>2015-04-06T18:54:26.986Z</time>
      </trkpt>
      <trkpt lat="48.86834" lon="2.35364">
        <ele>98.9</ele>
        <time>2015-04-06T18:54:27.827Z</time>
      </trkpt>
      <trkpt lat="48.86839" lon="2.35367">
        <ele>99</ele>
        <time>2015-04-06T18:54:28.863Z</time>
      </trkpt>
      <trkpt lat="48.86844" lon="2.3537">
        <ele>99</ele>
        <time>2015-04-06T18:54:29.844Z</time>
      </trkpt>
      <trkpt lat="48.86849" lon="2.35373">
        <ele>99.2</ele>
        <time>2015-04-06T18:54:30.852Z</time>
      </trkpt>
      <trkpt lat="48.86855" lon="2.35376">
        <ele>99</ele>
        <time>2015-04-06T18:54:31.889Z</time>
      </trkpt>
      <trkpt lat="48.86861" lon="2.35377">
        <ele>98.8</ele>
        <time>2015-04-06T18:54:32.893Z</time>
      </trkpt>
      <trkpt lat="48.8687" lon="2.35378">
        <ele>98.3</ele>
        <time>2015-04-06T18:54:34.820Z</time>
      </trkpt>
      <trkpt lat="48.86872" lon="2.35377">
        <ele>98.3</ele>
        <time>2015-04-06T18:54:35.844Z</time>
      </trkpt>
      <trkpt lat="48.86877" lon="2.3537">
        <ele>97.4</ele>
        <time>2015-04-06T18:54:38.892Z</time>
      </trkpt>
      <trkpt lat="48.86878" lon="2.35366">
        <ele>97.4</ele>
        <time>2015-04-06T18:54:39.957Z</time>
      </trkpt>
      <trkpt lat="48.86881" lon="2.35356">
        <ele>97.1</ele>
        <time>2015-04-06T18:54:41.831Z</time>
      </trkpt>
      <trkpt lat="48.86881" lon="2.35351">
        <ele>97</ele>
        <time>2015-04-06T18:54:42.876Z</time>
      </trkpt>
      <trkpt lat="48.8688" lon="2.35342">
        <ele>96.9</ele>
        <time>2015-04-06T18:54:44.901Z</time>
      </trkpt>
      <trkpt lat="48.8688" lon="2.35337">
        <ele>96.8</ele>
        <time>2015-04-06T18:54:46.087Z</time>
      </trkpt>
      <trkpt lat="48.86878" lon="2.35327">
        <ele>96.6</ele>
        <time>2015-04-06T18:54:47.825Z</time>
      </trkpt>
      <trkpt lat="48.86878" lon="2.35322">
        <ele>96.6</ele>
        <time>2015-04-06T18:54:48.850Z</time>
      </trkpt>
      <trkpt lat="48.86878" lon="2.35311">
        <ele>96.4</ele>
        <time>2015-04-06T18:54:50.871Z</time>
      </trkpt>
      <trkpt lat="48.86878" lon="2.35305">
        <ele>96.4</ele>
        <time>2015-04-06T18:54:51.888Z</time>
      </trkpt>
      <trkpt lat="48.86879" lon="2.35293">
        <ele>96.2</ele>
        <time>2015-04-06T18:54:53.922Z</time>
      </trkpt>
      <trkpt lat="48.86881" lon="2.35286">
        <ele>96</ele>
        <time>2015-04-06T18:54:54.852Z</time>
      </trkpt>
      <trkpt lat="48.86882" lon="2.35279">
        <ele>96.1</ele>
        <time>2015-04-06T18:54:55.855Z</time>
      </trkpt>
      <trkpt lat="48.86884" lon="2.35271">
        <ele>96.1</ele>
        <time>2015-04-06T18:54:56.862Z</time>
      </trkpt>
      <trkpt lat="48.86884" lon="2.35259">
        <ele>96.2</ele>
        <time>2015-04-06T18:54:58.872Z</time>
      </trkpt>
      <trkpt lat="48.86889" lon="2.35252">
        <ele>96.4</ele>
        <time>2015-04-06T18:54:59.887Z</time>
      </trkpt>
      <trkpt lat="48.86891" lon="2.35247">
        <ele>96.6</ele>
        <time>2015-04-06T18:55:00.937Z</time>
      </trkpt>
      <trkpt lat="48.86895" lon="2.35242">
        <ele>96.6</ele>
        <time>2015-04-06T18:55:01.955Z</time>
      </trkpt>
      <trkpt lat="48.86894" lon="2.35231">
        <ele>96.9</ele>
        <time>2015-04-06T18:55:03.836Z</time>
      </trkpt>
      <trkpt lat="48.86892" lon="2.35227">
        <ele>96.9</ele>
        <time>2015-04-06T18:55:04.939Z</time>
      </trkpt>
      <trkpt lat="48.86888" lon="2.35215">
        <ele>96.8</ele>
        <time>2015-04-06T18:55:07.932Z</time>
      </trkpt>
      <trkpt lat="48.86889" lon="2.3521">
        <ele>96.6</ele>
        <time>2015-04-06T18:55:08.791Z</time>
      </trkpt>
      <trkpt lat="48.8689" lon="2.35186">
        <ele>96.1</ele>
        <time>2015-04-06T18:55:13.864Z</time>
      </trkpt>
      <trkpt lat="48.86895" lon="2.35182">
        <ele>95.9</ele>
        <time>2015-04-06T18:55:14.884Z</time>
      </trkpt>
      <trkpt lat="48.86898" lon="2.3518">
        <ele>95.8</ele>
        <time>2015-04-06T18:55:15.801Z</time>
      </trkpt>
      <trkpt lat="48.86895" lon="2.35169">
        <ele>95.8</ele>
        <time>2015-04-06T18:55:19.912Z</time>
      </trkpt>
      <trkpt lat="48.86895" lon="2.35165">
        <ele>95.8</ele>
        <time>2015-04-06T18:55:20.832Z</time>
      </trkpt>
      <trkpt lat="48.86893" lon="2.35153">
        <ele>95.9</ele>
        <time>2015-04-06T18:55:24.861Z</time>
      </trkpt>
      <trkpt lat="48.86893" lon="2.35151">
        <ele>95.9</ele>
        <time>2015-04-06T18:55:25.879Z</time>
      </trkpt>
      <trkpt lat="48.86892" lon="2.35144">
        <ele>96.4</ele>
        <time>2015-04-06T18:55:27.830Z</time>
      </trkpt>
      <trkpt lat="48.86901" lon="2.3514">
        <ele>97.4</ele>
        <time>2015-04-06T18:55:28.860Z</time>
      </trkpt>
      <trkpt lat="48.86903" lon="2.35129">
        <ele>98.1</ele>
        <time>2015-04-06T18:55:31.566Z</time>
      </trkpt>
      <trkpt lat="48.86905" lon="2.35125">
        <ele>97.9</ele>
        <time>2015-04-06T18:55:33.869Z</time>
      </trkpt>
      <trkpt lat="48.86907" lon="2.35121">
        <ele>97.7</ele>
        <time>2015-04-06T18:55:34.797Z</time>
      </trkpt>
      <trkpt lat="48.86909" lon="2.3512">
        <ele>97.5</ele>
        <time>2015-04-06T18:55:35.821Z</time>
      </trkpt>
      <trkpt lat="48.86911" lon="2.35118">
        <ele>97.3</ele>
        <time>2015-04-06T18:55:36.822Z</time>
      </trkpt>
      <trkpt lat="48.86913" lon="2.35115">
        <ele>97.3</ele>
        <time>2015-04-06T18:55:37.854Z</time>
      </trkpt>
      <trkpt lat="48.86915" lon="2.35102">
        <ele>97.6</ele>
        <time>2015-04-06T18:55:42.831Z</time>
      </trkpt>
      <trkpt lat="48.86915" lon="2.35098">
        <ele>97.7</ele>
        <time>2015-04-06T18:55:43.834Z</time>
      </trkpt>
      <trkpt lat="48.86916" lon="2.35089">
        <ele>98</ele>
        <time>2015-04-06T18:55:45.943Z</time>
      </trkpt>
      <trkpt lat="48.86922" lon="2.35065">
        <ele>98.2</ele>
        <time>2015-04-06T18:55:51.820Z</time>
      </trkpt>
      <trkpt lat="48.86928" lon="2.35061">
        <ele>98.3</ele>
        <time>2015-04-06T18:55:53.866Z</time>
      </trkpt>
      <trkpt lat="48.8693" lon="2.35058">
        <ele>98.3</ele>
        <time>2015-04-06T18:55:54.893Z</time>
      </trkpt>
      <trkpt lat="48.86934" lon="2.3505">
        <ele>98.3</ele>
        <time>2015-04-06T18:55:56.906Z</time>
      </trkpt>
      <trkpt lat="48.86933" lon="2.35044">
        <ele>98.1</ele>
        <time>2015-04-06T18:55:57.827Z</time>
      </trkpt>
      <trkpt lat="48.86931" lon="2.35038">
        <ele>97.8</ele>
        <time>2015-04-06T18:55:58.834Z</time>
      </trkpt>
      <trkpt lat="48.8692" lon="2.35">
        <ele>97.1</ele>
        <time>2015-04-06T18:56:05.876Z</time>
      </trkpt>
      <trkpt lat="48.86925" lon="2.34997">
        <ele>97.1</ele>
        <time>2015-04-06T18:56:06.907Z</time>
      </trkpt>
      <trkpt lat="48.8693" lon="2.34993">
        <ele>96.9</ele>
        <time>2015-04-06T18:56:07.918Z</time>
      </trkpt>
      <trkpt lat="48.86935" lon="2.34986">
        <ele>96.8</ele>
        <time>2015-04-06T18:56:11.408Z</time>
      </trkpt>
      <trkpt lat="48.86936" lon="2.34982">
        <ele>96.7</ele>
        <time>2015-04-06T18:56:11.837Z</time>
      </trkpt>
      <trkpt lat="48.86941" lon="2.34975">
        <ele>97.6</ele>
        <time>2015-04-06T18:56:22.828Z</time>
      </trkpt>
      <trkpt lat="48.86951" lon="2.34974">
        <ele>98.4</ele>
        <time>2015-04-06T18:56:23.860Z</time>
      </trkpt>
      <trkpt lat="48.86959" lon="2.34974">
        <ele>98.8</ele>
        <time>2015-04-06T18:56:26.879Z</time>
      </trkpt>
      <trkpt lat="48.86963" lon="2.34974">
        <ele>98.7</ele>
        <time>2015-04-06T18:56:27.890Z</time>
      </trkpt>
      <trkpt lat="48.8697" lon="2.34974">
        <ele>99.2</ele>
        <time>2015-04-06T18:56:29.915Z</time>
      </trkpt>
      <trkpt lat="48.86975" lon="2.34973">
        <ele>99.8</ele>
        <time>2015-04-06T18:56:31.013Z</time>
      </trkpt>
      <trkpt lat="48.86983" lon="2.34978">
        <ele>101.5</ele>
        <time>2015-04-06T18:56:33.918Z</time>
      </trkpt>
      <trkpt lat="48.86982" lon="2.34983">
        <ele>100.4</ele>
        <time>2015-04-06T18:56:34.823Z</time>
      </trkpt>
      <trkpt lat="48.86982" lon="2.34983">
        <ele>100.4</ele>
        <time>2015-04-06T18:57:08.918Z</time>
      </trkpt>
      <trkpt lat="48.86966" lon="2.34992">
        <ele>111.4</ele>
        <time>2015-04-06T18:57:09.838Z</time>
      </trkpt>
      <trkpt lat="48.86962" lon="2.3499">
        <ele>111.4</ele>
        <time>2015-04-06T19:01:19.914Z</time>
      </trkpt>
      <trkpt lat="48.86942" lon="2.3498">
        <ele>116.1</ele>
        <time>2015-04-06T19:01:20.910Z</time>
      </trkpt>
      <trkpt lat="48.86942" lon="2.34981">
        <ele>116.3</ele>
        <time>2015-04-06T19:01:22.079Z</time>
      </trkpt>
      <trkpt lat="48.86943" lon="2.34981">
        <ele>116.2</ele>
        <time>2015-04-06T19:01:22.823Z</time>
      </trkpt>
      <trkpt lat="48.86944" lon="2.34982">
        <ele>116.1</ele>
        <time>2015-04-06T19:02:01.899Z</time>
      </trkpt>
      <trkpt lat="48.8698" lon="2.34989">
        <ele>119.8</ele>
        <time>2015-04-06T19:02:02.909Z</time>
      </trkpt>
      <trkpt lat="48.86982" lon="2.34987">
        <ele>120.9</ele>
        <time>2015-04-06T19:06:11.867Z</time>
      </trkpt>
      <trkpt lat="48.86972" lon="2.3497">
        <ele>123.1</ele>
        <time>2015-04-06T19:06:12.895Z</time>
      </trkpt>
      <trkpt lat="48.86977" lon="2.3496">
        <ele>121.8</ele>
        <time>2015-04-06T19:06:16.851Z</time>
      </trkpt>
      <trkpt lat="48.86977" lon="2.34956">
        <ele>121.3</ele>
        <time>2015-04-06T19:06:17.871Z</time>
      </trkpt>
      <trkpt lat="48.86977" lon="2.34953">
        <ele>121.1</ele>
        <time>2015-04-06T19:06:18.912Z</time>
      </trkpt>
      <trkpt lat="48.86975" lon="2.34915">
        <ele>121.3</ele>
        <time>2015-04-06T19:06:27.862Z</time>
      </trkpt>
      <trkpt lat="48.86968" lon="2.34909">
        <ele>121.6</ele>
        <time>2015-04-06T19:06:30.814Z</time>
      </trkpt>
      <trkpt lat="48.86964" lon="2.34907">
        <ele>121.7</ele>
        <time>2015-04-06T19:06:31.893Z</time>
      </trkpt>
      <trkpt lat="48.86956" lon="2.34903">
        <ele>122</ele>
        <time>2015-04-06T19:06:34.841Z</time>
      </trkpt>
      <trkpt lat="48.86953" lon="2.34903">
        <ele>122.1</ele>
        <time>2015-04-06T19:06:35.864Z</time>
      </trkpt>
      <trkpt lat="48.86944" lon="2.34902">
        <ele>122.4</ele>
        <time>2015-04-06T19:06:38.795Z</time>
      </trkpt>
      <trkpt lat="48.86942" lon="2.34901">
        <ele>122.5</ele>
        <time>2015-04-06T19:06:39.820Z</time>
      </trkpt>
      <trkpt lat="48.86934" lon="2.34899">
        <ele>122.7</ele>
        <time>2015-04-06T19:06:42.877Z</time>
      </trkpt>
      <trkpt lat="48.86931" lon="2.34901">
        <ele>122.8</ele>
        <time>2015-04-06T19:06:44.773Z</time>
      </trkpt>
      <trkpt lat="48.86931" lon="2.34912">
        <ele>122.9</ele>
        <time>2015-04-06T19:06:47.852Z</time>
      </trkpt>
      <trkpt lat="48.86931" lon="2.34916">
        <ele>122.9</ele>
        <time>2015-04-06T19:06:48.950Z</time>
      </trkpt>
      <trkpt lat="48.8693" lon="2.34951">
        <ele>122.8</ele>
        <time>2015-04-06T19:06:57.888Z</time>
      </trkpt>
      <trkpt lat="48.86933" lon="2.34961">
        <ele>122.1</ele>
        <time>2015-04-06T19:06:59.796Z</time>
      </trkpt>
      <trkpt lat="48.86933" lon="2.34964">
        <ele>121.9</ele>
        <time>2015-04-06T19:07:00.819Z</time>
      </trkpt>
      <trkpt lat="48.8693" lon="2.34976">
        <ele>121.7</ele>
        <time>2015-04-06T19:07:03.816Z</time>
      </trkpt>
      <trkpt lat="48.8693" lon="2.3498">
        <ele>121.3</ele>
        <time>2015-04-06T19:07:04.845Z</time>
      </trkpt>
      <trkpt lat="48.86932" lon="2.34993">
        <ele>120.7</ele>
        <time>2015-04-06T19:07:06.872Z</time>
      </trkpt>
      <trkpt lat="48.86934" lon="2.34998">
        <ele>120.2</ele>
        <time>2015-04-06T19:07:07.904Z</time>
      </trkpt>
      <trkpt lat="48.86935" lon="2.35012">
        <ele>119.1</ele>
        <time>2015-04-06T19:07:09.480Z</time>
      </trkpt>
      <trkpt lat="48.86937" lon="2.35018">
        <ele>118.6</ele>
        <time>2015-04-06T19:07:10.869Z</time>
      </trkpt>
      <trkpt lat="48.86941" lon="2.35025">
        <ele>116.1</ele>
        <time>2015-04-06T19:07:11.926Z</time>
      </trkpt>
      <trkpt lat="48.86945" lon="2.35032">
        <ele>113.8</ele>
        <time>2015-04-06T19:07:12.811Z</time>
      </trkpt>
      <trkpt lat="48.86949" lon="2.35044">
        <ele>112</ele>
        <time>2015-04-06T19:07:14.851Z</time>
      </trkpt>
      <trkpt lat="48.86949" lon="2.35051">
        <ele>111.7</ele>
        <time>2015-04-06T19:07:15.858Z</time>
      </trkpt>
      <trkpt lat="48.86949" lon="2.35057">
        <ele>111.5</ele>
        <time>2015-04-06T19:07:16.854Z</time>
      </trkpt>
      <trkpt lat="48.86951" lon="2.35068">
        <ele>111.2</ele>
        <time>2015-04-06T19:07:18.880Z</time>
      </trkpt>
      <trkpt lat="48.86947" lon="2.35077">
        <ele>110.4</ele>
        <time>2015-04-06T19:07:21.592Z</time>
      </trkpt>
      <trkpt lat="48.86945" lon="2.35082">
        <ele>110.2</ele>
        <time>2015-04-06T19:07:21.823Z</time>
      </trkpt>
      <trkpt lat="48.86947" lon="2.35094">
        <ele>110.1</ele>
        <time>2015-04-06T19:07:23.848Z</time>
      </trkpt>
      <trkpt lat="48.86947" lon="2.351">
        <ele>110</ele>
        <time>2015-04-06T19:07:24.868Z</time>
      </trkpt>
      <trkpt lat="48.86945" lon="2.35112">
        <ele>109.7</ele>
        <time>2015-04-06T19:07:26.629Z</time>
      </trkpt>
      <trkpt lat="48.86945" lon="2.35116">
        <ele>109.5</ele>
        <time>2015-04-06T19:07:27.832Z</time>
      </trkpt>
      <trkpt lat="48.86945" lon="2.35128">
        <ele>108.7</ele>
        <time>2015-04-06T19:07:31.914Z</time>
      </trkpt>
      <trkpt lat="48.86948" lon="2.35132">
        <ele>108.7</ele>
        <time>2015-04-06T19:07:32.834Z</time>
      </trkpt>
      <trkpt lat="48.8695" lon="2.35136">
        <ele>109</ele>
        <time>2015-04-06T19:07:33.817Z</time>
      </trkpt>
      <trkpt lat="48.86954" lon="2.35142">
        <ele>108.8</ele>
        <time>2015-04-06T19:07:34.830Z</time>
      </trkpt>
      <trkpt lat="48.86956" lon="2.35155">
        <ele>108.2</ele>
        <time>2015-04-06T19:07:37.907Z</time>
      </trkpt>
      <trkpt lat="48.86956" lon="2.35158">
        <ele>107.8</ele>
        <time>2015-04-06T19:07:38.792Z</time>
      </trkpt>
      <trkpt lat="48.86955" lon="2.35172">
        <ele>107.8</ele>
        <time>2015-04-06T19:07:41.880Z</time>
      </trkpt>
      <trkpt lat="48.86956" lon="2.35175">
        <ele>107.6</ele>
        <time>2015-04-06T19:07:42.849Z</time>
      </trkpt>
      <trkpt lat="48.86956" lon="2.35188">
        <ele>105.8</ele>
        <time>2015-04-06T19:07:45.837Z</time>
      </trkpt>
      <trkpt lat="48.86955" lon="2.35192">
        <ele>104.8</ele>
        <time>2015-04-06T19:07:46.860Z</time>
      </trkpt>
      <trkpt lat="48.86955" lon="2.35202">
        <ele>103.1</ele>
        <time>2015-04-06T19:07:48.887Z</time>
      </trkpt>
      <trkpt lat="48.86955" lon="2.35208">
        <ele>102.4</ele>
        <time>2015-04-06T19:07:49.906Z</time>
      </trkpt>
      <trkpt lat="48.86955" lon="2.35219">
        <ele>101.6</ele>
        <time>2015-04-06T19:07:51.824Z</time>
      </trkpt>
      <trkpt lat="48.86955" lon="2.35225">
        <ele>101.4</ele>
        <time>2015-04-06T19:07:52.837Z</time>
      </trkpt>
      <trkpt lat="48.86954" lon="2.35233">
        <ele>99.4</ele>
        <time>2015-04-06T19:07:53.878Z</time>
      </trkpt>
      <trkpt lat="48.86959" lon="2.3524">
        <ele>97.4</ele>
        <time>2015-04-06T19:07:54.811Z</time>
      </trkpt>
      <trkpt lat="48.86957" lon="2.35252">
        <ele>95.6</ele>
        <time>2015-04-06T19:07:56.857Z</time>
      </trkpt>
      <trkpt lat="48.86956" lon="2.35258">
        <ele>95.2</ele>
        <time>2015-04-06T19:07:57.875Z</time>
      </trkpt>
      <trkpt lat="48.86955" lon="2.35265">
        <ele>94.8</ele>
        <time>2015-04-06T19:07:58.810Z</time>
      </trkpt>
      <trkpt lat="48.86954" lon="2.35272">
        <ele>94.7</ele>
        <time>2015-04-06T19:07:59.820Z</time>
      </trkpt>
      <trkpt lat="48.86953" lon="2.35286">
        <ele>94</ele>
        <time>2015-04-06T19:08:01.888Z</time>
      </trkpt>
      <trkpt lat="48.86952" lon="2.35293">
        <ele>94.1</ele>
        <time>2015-04-06T19:08:02.889Z</time>
      </trkpt>
      <trkpt lat="48.8695" lon="2.35299">
        <ele>94.2</ele>
        <time>2015-04-06T19:08:03.822Z</time>
      </trkpt>
      <trkpt lat="48.86947" lon="2.35305">
        <ele>94.5</ele>
        <time>2015-04-06T19:08:04.835Z</time>
      </trkpt>
      <trkpt lat="48.86944" lon="2.35316">
        <ele>94.8</ele>
        <time>2015-04-06T19:08:06.838Z</time>
      </trkpt>
      <trkpt lat="48.8694" lon="2.35321">
        <ele>94.3</ele>
        <time>2015-04-06T19:08:07.911Z</time>
      </trkpt>
      <trkpt lat="48.86935" lon="2.35331">
        <ele>94.2</ele>
        <time>2015-04-06T19:08:09.826Z</time>
      </trkpt>
      <trkpt lat="48.86932" lon="2.35335">
        <ele>94.5</ele>
        <time>2015-04-06T19:08:10.846Z</time>
      </trkpt>
      <trkpt lat="48.86928" lon="2.35346">
        <ele>94.8</ele>
        <time>2015-04-06T19:08:12.910Z</time>
      </trkpt>
      <trkpt lat="48.86927" lon="2.35352">
        <ele>94.9</ele>
        <time>2015-04-06T19:08:13.929Z</time>
      </trkpt>
      <trkpt lat="48.86924" lon="2.35362">
        <ele>94.8</ele>
        <time>2015-04-06T19:08:15.848Z</time>
      </trkpt>
      <trkpt lat="48.86924" lon="2.35367">
        <ele>94.5</ele>
        <time>2015-04-06T19:08:16.873Z</time>
      </trkpt>
      <trkpt lat="48.86923" lon="2.35377">
        <ele>94.3</ele>
        <time>2015-04-06T19:08:18.821Z</time>
      </trkpt>
      <trkpt lat="48.86923" lon="2.35382">
        <ele>93.9</ele>
        <time>2015-04-06T19:08:19.888Z</time>
      </trkpt>
      <trkpt lat="48.86925" lon="2.35394">
        <ele>94</ele>
        <time>2015-04-06T19:08:21.820Z</time>
      </trkpt>
      <trkpt lat="48.86929" lon="2.354">
        <ele>92.8</ele>
        <time>2015-04-06T19:08:22.849Z</time>
      </trkpt>
      <trkpt lat="48.86929" lon="2.35413">
        <ele>92.5</ele>
        <time>2015-04-06T19:08:25.892Z</time>
      </trkpt>
      <trkpt lat="48.86928" lon="2.35417">
        <ele>92.4</ele>
        <time>2015-04-06T19:08:26.904Z</time>
      </trkpt>
      <trkpt lat="48.86925" lon="2.35429">
        <ele>91.9</ele>
        <time>2015-04-06T19:08:29.885Z</time>
      </trkpt>
      <trkpt lat="48.86925" lon="2.35432">
        <ele>91.9</ele>
        <time>2015-04-06T19:08:30.888Z</time>
      </trkpt>
      <trkpt lat="48.86917" lon="2.35434">
        <ele>93.6</ele>
        <time>2015-04-06T19:08:47.029Z</time>
      </trkpt>
      <trkpt lat="48.86916" lon="2.35433">
        <ele>93.6</ele>
        <time>2015-04-06T19:08:47.860Z</time>
      </trkpt>
      <trkpt lat="48.8691" lon="2.35426">
        <ele>94.6</ele>
        <time>2015-04-06T19:08:54.813Z</time>
      </trkpt>
      <trkpt lat="48.86909" lon="2.35423">
        <ele>94.8</ele>
        <time>2015-04-06T19:08:55.881Z</time>
      </trkpt>
      <trkpt lat="48.86903" lon="2.3542">
        <ele>96.2</ele>
        <time>2015-04-06T19:08:59.887Z</time>
      </trkpt>
      <trkpt lat="48.869" lon="2.35426">
        <ele>96.7</ele>
        <time>2015-04-06T19:09:00.810Z</time>
      </trkpt>
      <trkpt lat="48.86895" lon="2.35436">
        <ele>97.1</ele>
        <time>2015-04-06T19:09:02.804Z</time>
      </trkpt>
      <trkpt lat="48.86893" lon="2.35441">
        <ele>97.2</ele>
        <time>2015-04-06T19:09:03.812Z</time>
      </trkpt>
      <trkpt lat="48.8689" lon="2.35449">
        <ele>97.5</ele>
        <time>2015-04-06T19:09:05.879Z</time>
      </trkpt>
      <trkpt lat="48.86889" lon="2.35453">
        <ele>97.7</ele>
        <time>2015-04-06T19:09:06.868Z</time>
      </trkpt>
      <trkpt lat="48.86887" lon="2.35461">
        <ele>97.9</ele>
        <time>2015-04-06T19:09:08.867Z</time>
      </trkpt>
      <trkpt lat="48.86885" lon="2.35467">
        <ele>98.1</ele>
        <time>2015-04-06T19:09:09.809Z</time>
      </trkpt>
      <trkpt lat="48.86883" lon="2.35477">
        <ele>98.2</ele>
        <time>2015-04-06T19:09:11.823Z</time>
      </trkpt>
      <trkpt lat="48.8688" lon="2.35481">
        <ele>98.2</ele>
        <time>2015-04-06T19:09:12.837Z</time>
      </trkpt>
      <trkpt lat="48.86879" lon="2.3549">
        <ele>98.2</ele>
        <time>2015-04-06T19:09:14.860Z</time>
      </trkpt>
      <trkpt lat="48.86877" lon="2.35495">
        <ele>98.2</ele>
        <time>2015-04-06T19:09:15.871Z</time>
      </trkpt>
      <trkpt lat="48.86875" lon="2.35506">
        <ele>98.3</ele>
        <time>2015-04-06T19:09:17.791Z</time>
      </trkpt>
      <trkpt lat="48.86875" lon="2.35513">
        <ele>96.5</ele>
        <time>2015-04-06T19:09:18.822Z</time>
      </trkpt>
      <trkpt lat="48.86869" lon="2.35521">
        <ele>96.1</ele>
        <time>2015-04-06T19:09:20.796Z</time>
      </trkpt>
      <trkpt lat="48.8687" lon="2.35526">
        <ele>96</ele>
        <time>2015-04-06T19:09:21.819Z</time>
      </trkpt>
      <trkpt lat="48.86867" lon="2.35536">
        <ele>95.8</ele>
        <time>2015-04-06T19:09:24.872Z</time>
      </trkpt>
      <trkpt lat="48.86865" lon="2.35538">
        <ele>95.7</ele>
        <time>2015-04-06T19:09:25.974Z</time>
      </trkpt>
      <trkpt lat="48.86856" lon="2.35539">
        <ele>95.7</ele>
        <time>2015-04-06T19:09:29.888Z</time>
      </trkpt>
      <trkpt lat="48.86853" lon="2.35538">
        <ele>96</ele>
        <time>2015-04-06T19:09:30.813Z</time>
      </trkpt>
      <trkpt lat="48.86846" lon="2.35534">
        <ele>96.4</ele>
        <time>2015-04-06T19:09:32.824Z</time>
      </trkpt>
      <trkpt lat="48.86843" lon="2.35533">
        <ele>96.8</ele>
        <time>2015-04-06T19:09:33.835Z</time>
      </trkpt>
      <trkpt lat="48.86835" lon="2.35529">
        <ele>97.3</ele>
        <time>2015-04-06T19:09:36.877Z</time>
      </trkpt>
      <trkpt lat="48.86833" lon="2.35528">
        <ele>97.7</ele>
        <time>2015-04-06T19:09:37.894Z</time>
      </trkpt>
      <trkpt lat="48.86826" lon="2.35523">
        <ele>98.3</ele>
        <time>2015-04-06T19:09:39.811Z</time>
      </trkpt>
      <trkpt lat="48.86822" lon="2.3552">
        <ele>98.8</ele>
        <time>2015-04-06T19:09:40.835Z</time>
      </trkpt>
      <trkpt lat="48.86817" lon="2.35516">
        <ele>99.4</ele>
        <time>2015-04-06T19:09:41.870Z</time>
      </trkpt>
      <trkpt lat="48.86813" lon="2.35512">
        <ele>99.7</ele>
        <time>2015-04-06T19:09:42.891Z</time>
      </trkpt>
      <trkpt lat="48.86806" lon="2.35506">
        <ele>100.2</ele>
        <time>2015-04-06T19:09:44.810Z</time>
      </trkpt>
      <trkpt lat="48.86802" lon="2.35503">
        <ele>100.5</ele>
        <time>2015-04-06T19:09:45.818Z</time>
      </trkpt>
      <trkpt lat="48.86796" lon="2.35499">
        <ele>101</ele>
        <time>2015-04-06T19:09:47.876Z</time>
      </trkpt>
      <trkpt lat="48.86792" lon="2.35498">
        <ele>101.3</ele>
        <time>2015-04-06T19:09:48.892Z</time>
      </trkpt>
      <trkpt lat="48.86784" lon="2.35494">
        <ele>101.4</ele>
        <time>2015-04-06T19:09:50.994Z</time>
      </trkpt>
      <trkpt lat="48.86781" lon="2.35492">
        <ele>101.5</ele>
        <time>2015-04-06T19:09:51.837Z</time>
      </trkpt>
      <trkpt lat="48.86773" lon="2.3549">
        <ele>101.5</ele>
        <time>2015-04-06T19:09:54.843Z</time>
      </trkpt>
      <trkpt lat="48.86771" lon="2.35489">
        <ele>101.4</ele>
        <time>2015-04-06T19:09:55.858Z</time>
      </trkpt>
      <trkpt lat="48.86763" lon="2.35485">
        <ele>101.8</ele>
        <time>2015-04-06T19:09:58.896Z</time>
      </trkpt>
      <trkpt lat="48.86761" lon="2.35481">
        <ele>101.9</ele>
        <time>2015-04-06T19:09:59.793Z</time>
      </trkpt>
      <trkpt lat="48.86756" lon="2.35473">
        <ele>101.5</ele>
        <time>2015-04-06T19:10:01.878Z</time>
      </trkpt>
      <trkpt lat="48.86753" lon="2.35469">
        <ele>101.3</ele>
        <time>2015-04-06T19:10:02.879Z</time>
      </trkpt>
      <trkpt lat="48.8675" lon="2.35465">
        <ele>101.2</ele>
        <time>2015-04-06T19:10:03.829Z</time>
      </trkpt>
      <trkpt lat="48.86742" lon="2.35465">
        <ele>101</ele>
        <time>2015-04-06T19:10:04.819Z</time>
      </trkpt>
      <trkpt lat="48.86735" lon="2.35464">
        <ele>100.9</ele>
        <time>2015-04-06T19:10:05.838Z</time>
      </trkpt>
      <trkpt lat="48.86729" lon="2.35461">
        <ele>100.9</ele>
        <time>2015-04-06T19:10:06.851Z</time>
      </trkpt>
      <trkpt lat="48.86724" lon="2.35459">
        <ele>100.9</ele>
        <time>2015-04-06T19:10:07.851Z</time>
      </trkpt>
      <trkpt lat="48.8672" lon="2.35458">
        <ele>101.3</ele>
        <time>2015-04-06T19:10:08.805Z</time>
      </trkpt>
      <trkpt lat="48.86712" lon="2.35455">
        <ele>101.8</ele>
        <time>2015-04-06T19:10:10.840Z</time>
      </trkpt>
      <trkpt lat="48.86708" lon="2.35452">
        <ele>102</ele>
        <time>2015-04-06T19:10:11.851Z</time>
      </trkpt>
      <trkpt lat="48.867" lon="2.35447">
        <ele>102.4</ele>
        <time>2015-04-06T19:10:13.877Z</time>
      </trkpt>
      <trkpt lat="48.86696" lon="2.35446">
        <ele>102.9</ele>
        <time>2015-04-06T19:10:14.900Z</time>
      </trkpt>
      <trkpt lat="48.86688" lon="2.35442">
        <ele>103.8</ele>
        <time>2015-04-06T19:10:16.805Z</time>
      </trkpt>
      <trkpt lat="48.86685" lon="2.3544">
        <ele>104.4</ele>
        <time>2015-04-06T19:10:17.837Z</time>
      </trkpt>
      <trkpt lat="48.86678" lon="2.35438">
        <ele>106.1</ele>
        <time>2015-04-06T19:10:19.865Z</time>
      </trkpt>
      <trkpt lat="48.86675" lon="2.35437">
        <ele>106.9</ele>
        <time>2015-04-06T19:10:20.891Z</time>
      </trkpt>
      <trkpt lat="48.86668" lon="2.35431">
        <ele>106.8</ele>
        <time>2015-04-06T19:10:23.835Z</time>
      </trkpt>
      <trkpt lat="48.86666" lon="2.3543">
        <ele>106.8</ele>
        <time>2015-04-06T19:10:24.849Z</time>
      </trkpt>
      <trkpt lat="48.86658" lon="2.35425">
        <ele>106.6</ele>
        <time>2015-04-06T19:10:27.887Z</time>
      </trkpt>
      <trkpt lat="48.86655" lon="2.35423">
        <ele>106.3</ele>
        <time>2015-04-06T19:10:28.819Z</time>
      </trkpt>
      <trkpt lat="48.86648" lon="2.3542">
        <ele>105.7</ele>
        <time>2015-04-06T19:10:30.863Z</time>
      </trkpt>
      <trkpt lat="48.86644" lon="2.35418">
        <ele>105.7</ele>
        <time>2015-04-06T19:10:31.871Z</time>
      </trkpt>
      <trkpt lat="48.86639" lon="2.35415">
        <ele>105.8</ele>
        <time>2015-04-06T19:10:32.888Z</time>
      </trkpt>
      <trkpt lat="48.86632" lon="2.35414">
        <ele>105.7</ele>
        <time>2015-04-06T19:10:33.802Z</time>
      </trkpt>
      <trkpt lat="48.86627" lon="2.35412">
        <ele>105.8</ele>
        <time>2015-04-06T19:10:34.796Z</time>
      </trkpt>
      <trkpt lat="48.86622" lon="2.35408">
        <ele>106.1</ele>
        <time>2015-04-06T19:10:35.801Z</time>
      </trkpt>
      <trkpt lat="48.86617" lon="2.35398">
        <ele>106.2</ele>
        <time>2015-04-06T19:10:37.835Z</time>
      </trkpt>
      <trkpt lat="48.86615" lon="2.35396">
        <ele>106.4</ele>
        <time>2015-04-06T19:10:38.841Z</time>
      </trkpt>
      <trkpt lat="48.86611" lon="2.35391">
        <ele>106.9</ele>
        <time>2015-04-06T19:10:40.880Z</time>
      </trkpt>
      <trkpt lat="48.86608" lon="2.35387">
        <ele>107.6</ele>
        <time>2015-04-06T19:10:41.816Z</time>
      </trkpt>
      <trkpt lat="48.866" lon="2.35381">
        <ele>110</ele>
        <time>2015-04-06T19:10:46.885Z</time>
      </trkpt>
      <trkpt lat="48.86598" lon="2.35383">
        <ele>110.5</ele>
        <time>2015-04-06T19:10:47.902Z</time>
      </trkpt>
      <trkpt lat="48.86592" lon="2.35392">
        <ele>110.6</ele>
        <time>2015-04-06T19:10:50.848Z</time>
      </trkpt>
      <trkpt lat="48.86589" lon="2.35397">
        <ele>110.6</ele>
        <time>2015-04-06T19:10:51.853Z</time>
      </trkpt>
      <trkpt lat="48.86585" lon="2.35409">
        <ele>110.4</ele>
        <time>2015-04-06T19:10:53.877Z</time>
      </trkpt>
      <trkpt lat="48.86583" lon="2.35415">
        <ele>110.3</ele>
        <time>2015-04-06T19:10:54.898Z</time>
      </trkpt>
      <trkpt lat="48.86581" lon="2.35421">
        <ele>110.4</ele>
        <time>2015-04-06T19:10:55.862Z</time>
      </trkpt>
      <trkpt lat="48.86579" lon="2.35427">
        <ele>110.4</ele>
        <time>2015-04-06T19:10:56.863Z</time>
      </trkpt>
      <trkpt lat="48.86576" lon="2.35438">
        <ele>110.3</ele>
        <time>2015-04-06T19:10:58.878Z</time>
      </trkpt>
      <trkpt lat="48.86575" lon="2.35445">
        <ele>109.5</ele>
        <time>2015-04-06T19:10:59.905Z</time>
      </trkpt>
      <trkpt lat="48.86574" lon="2.35452">
        <ele>108.9</ele>
        <time>2015-04-06T19:11:00.809Z</time>
      </trkpt>
      <trkpt lat="48.86573" lon="2.35459">
        <ele>107.1</ele>
        <time>2015-04-06T19:11:01.839Z</time>
      </trkpt>
      <trkpt lat="48.86572" lon="2.35466">
        <ele>105.4</ele>
        <time>2015-04-06T19:11:02.861Z</time>
      </trkpt>
      <trkpt lat="48.86571" lon="2.35473">
        <ele>104.1</ele>
        <time>2015-04-06T19:11:03.863Z</time>
      </trkpt>
      <trkpt lat="48.8657" lon="2.35485">
        <ele>102.2</ele>
        <time>2015-04-06T19:11:05.890Z</time>
      </trkpt>
      <trkpt lat="48.86569" lon="2.35491">
        <ele>101.2</ele>
        <time>2015-04-06T19:11:06.895Z</time>
      </trkpt>
      <trkpt lat="48.86565" lon="2.35502">
        <ele>100.6</ele>
        <time>2015-04-06T19:11:08.914Z</time>
      </trkpt>
      <trkpt lat="48.86565" lon="2.35508">
        <ele>100.6</ele>
        <time>2015-04-06T19:11:10.063Z</time>
      </trkpt>
      <trkpt lat="48.86564" lon="2.35517">
        <ele>100.2</ele>
        <time>2015-04-06T19:11:11.245Z</time>
      </trkpt>
      <trkpt lat="48.86564" lon="2.35523">
        <ele>100.2</ele>
        <time>2015-04-06T19:11:12.859Z</time>
      </trkpt>
      <trkpt lat="48.86563" lon="2.35534">
        <ele>100.2</ele>
        <time>2015-04-06T19:11:14.904Z</time>
      </trkpt>
      <trkpt lat="48.86562" lon="2.35539">
        <ele>100.3</ele>
        <time>2015-04-06T19:11:15.812Z</time>
      </trkpt>
      <trkpt lat="48.8656" lon="2.35549">
        <ele>99.6</ele>
        <time>2015-04-06T19:11:17.844Z</time>
      </trkpt>
      <trkpt lat="48.86559" lon="2.35553">
        <ele>99.6</ele>
        <time>2015-04-06T19:11:18.863Z</time>
      </trkpt>
      <trkpt lat="48.86556" lon="2.35566">
        <ele>99.9</ele>
        <time>2015-04-06T19:11:21.829Z</time>
      </trkpt>
      <trkpt lat="48.86555" lon="2.35569">
        <ele>99.5</ele>
        <time>2015-04-06T19:11:22.846Z</time>
      </trkpt>
      <trkpt lat="48.86556" lon="2.3558">
        <ele>99.1</ele>
        <time>2015-04-06T19:11:25.874Z</time>
      </trkpt>
      <trkpt lat="48.86557" lon="2.35583">
        <ele>99.1</ele>
        <time>2015-04-06T19:11:26.884Z</time>
      </trkpt>
      <trkpt lat="48.86562" lon="2.35587">
        <ele>99</ele>
        <time>2015-04-06T19:11:29.913Z</time>
      </trkpt>
      <trkpt lat="48.86565" lon="2.3559">
        <ele>99</ele>
        <time>2015-04-06T19:11:30.822Z</time>
      </trkpt>
      <trkpt lat="48.86572" lon="2.35596">
        <ele>99</ele>
        <time>2015-04-06T19:11:33.830Z</time>
      </trkpt>
      <trkpt lat="48.86574" lon="2.35598">
        <ele>99</ele>
        <time>2015-04-06T19:11:34.830Z</time>
      </trkpt>
      <trkpt lat="48.86581" lon="2.35599">
        <ele>98.6</ele>
        <time>2015-04-06T19:11:36.916Z</time>
      </trkpt>
      <trkpt lat="48.86585" lon="2.35601">
        <ele>98.4</ele>
        <time>2015-04-06T19:11:37.914Z</time>
      </trkpt>
      <trkpt lat="48.86593" lon="2.35603">
        <ele>97.6</ele>
        <time>2015-04-06T19:11:40.835Z</time>
      </trkpt>
      <trkpt lat="48.86596" lon="2.35605">
        <ele>97.3</ele>
        <time>2015-04-06T19:11:41.851Z</time>
      </trkpt>
      <trkpt lat="48.86602" lon="2.35609">
        <ele>96.9</ele>
        <time>2015-04-06T19:11:43.865Z</time>
      </trkpt>
      <trkpt lat="48.86606" lon="2.3561">
        <ele>97</ele>
        <time>2015-04-06T19:11:44.875Z</time>
      </trkpt>
      <trkpt lat="48.86612" lon="2.35614">
        <ele>96.6</ele>
        <time>2015-04-06T19:11:46.907Z</time>
      </trkpt>
      <trkpt lat="48.86615" lon="2.35617">
        <ele>96.4</ele>
        <time>2015-04-06T19:11:47.909Z</time>
      </trkpt>
      <trkpt lat="48.86622" lon="2.35621">
        <ele>96.2</ele>
        <time>2015-04-06T19:11:49.930Z</time>
      </trkpt>
      <trkpt lat="48.86626" lon="2.35624">
        <ele>96.1</ele>
        <time>2015-04-06T19:11:50.861Z</time>
      </trkpt>
      <trkpt lat="48.86633" lon="2.35629">
        <ele>95.6</ele>
        <time>2015-04-06T19:11:52.828Z</time>
      </trkpt>
      <trkpt lat="48.86638" lon="2.35632">
        <ele>95.3</ele>
        <time>2015-04-06T19:11:53.852Z</time>
      </trkpt>
      <trkpt lat="48.86645" lon="2.35636">
        <ele>95.1</ele>
        <time>2015-04-06T19:11:56.265Z</time>
      </trkpt>
      <trkpt lat="48.86648" lon="2.35637">
        <ele>94.4</ele>
        <time>2015-04-06T19:11:56.849Z</time>
      </trkpt>
      <trkpt lat="48.86656" lon="2.35641">
        <ele>94.1</ele>
        <time>2015-04-06T19:11:58.895Z</time>
      </trkpt>
      <trkpt lat="48.86658" lon="2.35644">
        <ele>94</ele>
        <time>2015-04-06T19:11:59.902Z</time>
      </trkpt>
      <trkpt lat="48.86662" lon="2.3565">
        <ele>93.8</ele>
        <time>2015-04-06T19:12:01.844Z</time>
      </trkpt>
      <trkpt lat="48.86665" lon="2.35653">
        <ele>94.1</ele>
        <time>2015-04-06T19:12:02.848Z</time>
      </trkpt>
      <trkpt lat="48.86671" lon="2.35662">
        <ele>93.7</ele>
        <time>2015-04-06T19:12:06.444Z</time>
      </trkpt>
      <trkpt lat="48.86674" lon="2.35666">
        <ele>93.7</ele>
        <time>2015-04-06T19:12:06.804Z</time>
      </trkpt>
      <trkpt lat="48.8668" lon="2.35669">
        <ele>93.8</ele>
        <time>2015-04-06T19:12:07.841Z</time>
      </trkpt>
      <trkpt lat="48.86685" lon="2.3567">
        <ele>93.7</ele>
        <time>2015-04-06T19:12:08.850Z</time>
      </trkpt>
      <trkpt lat="48.86689" lon="2.35672">
        <ele>93.7</ele>
        <time>2015-04-06T19:12:09.876Z</time>
      </trkpt>
      <trkpt lat="48.86697" lon="2.35674">
        <ele>94.1</ele>
        <time>2015-04-06T19:12:10.799Z</time>
      </trkpt>
      <trkpt lat="48.86704" lon="2.35675">
        <ele>94.4</ele>
        <time>2015-04-06T19:12:11.812Z</time>
      </trkpt>
      <trkpt lat="48.86708" lon="2.35678">
        <ele>94.7</ele>
        <time>2015-04-06T19:12:12.818Z</time>
      </trkpt>
      <trkpt lat="48.86716" lon="2.35683">
        <ele>95.1</ele>
        <time>2015-04-06T19:12:14.865Z</time>
      </trkpt>
      <trkpt lat="48.86716" lon="2.35688">
        <ele>93.7</ele>
        <time>2015-04-06T19:12:15.869Z</time>
      </trkpt>
      <trkpt lat="48.86719" lon="2.35699">
        <ele>93.4</ele>
        <time>2015-04-06T19:12:18.854Z</time>
      </trkpt>
      <trkpt lat="48.86718" lon="2.35703">
        <ele>93.3</ele>
        <time>2015-04-06T19:12:19.894Z</time>
      </trkpt>
      <trkpt lat="48.86716" lon="2.35713">
        <ele>93.3</ele>
        <time>2015-04-06T19:12:21.778Z</time>
      </trkpt>
      <trkpt lat="48.86715" lon="2.35717">
        <ele>93.1</ele>
        <time>2015-04-06T19:12:22.810Z</time>
      </trkpt>
      <trkpt lat="48.86714" lon="2.35729">
        <ele>92.8</ele>
        <time>2015-04-06T19:12:26.665Z</time>
      </trkpt>
      <trkpt lat="48.86714" lon="2.35734">
        <ele>92.7</ele>
        <time>2015-04-06T19:12:26.776Z</time>
      </trkpt>
      <trkpt lat="48.86712" lon="2.35744">
        <ele>92.7</ele>
        <time>2015-04-06T19:12:28.848Z</time>
      </trkpt>
      <trkpt lat="48.86712" lon="2.3575">
        <ele>92.6</ele>
        <time>2015-04-06T19:12:29.879Z</time>
      </trkpt>
      <trkpt lat="48.86712" lon="2.35761">
        <ele>92.6</ele>
        <time>2015-04-06T19:12:31.818Z</time>
      </trkpt>
      <trkpt lat="48.86711" lon="2.35766">
        <ele>92.5</ele>
        <time>2015-04-06T19:12:32.852Z</time>
      </trkpt>
      <trkpt lat="48.86709" lon="2.35778">
        <ele>92.3</ele>
        <time>2015-04-06T19:12:34.812Z</time>
      </trkpt>
      <trkpt lat="48.86708" lon="2.35783">
        <ele>92.3</ele>
        <time>2015-04-06T19:12:35.819Z</time>
      </trkpt>
      <trkpt lat="48.86705" lon="2.35794">
        <ele>92.2</ele>
        <time>2015-04-06T19:12:37.850Z</time>
      </trkpt>
      <trkpt lat="48.86703" lon="2.35801">
        <ele>92.2</ele>
        <time>2015-04-06T19:12:38.866Z</time>
      </trkpt>
      <trkpt lat="48.86704" lon="2.35813">
        <ele>92.1</ele>
        <time>2015-04-06T19:12:40.890Z</time>
      </trkpt>
      <trkpt lat="48.86703" lon="2.35818">
        <ele>92</ele>
        <time>2015-04-06T19:12:41.907Z</time>
      </trkpt>
      <trkpt lat="48.86697" lon="2.35827">
        <ele>92</ele>
        <time>2015-04-06T19:12:43.843Z</time>
      </trkpt>
      <trkpt lat="48.86698" lon="2.35832">
        <ele>91.9</ele>
        <time>2015-04-06T19:12:44.852Z</time>
      </trkpt>
      <trkpt lat="48.86695" lon="2.3584">
        <ele>91.6</ele>
        <time>2015-04-06T19:12:46.926Z</time>
      </trkpt>
      <trkpt lat="48.86694" lon="2.35845">
        <ele>91.5</ele>
        <time>2015-04-06T19:12:47.855Z</time>
      </trkpt>
      <trkpt lat="48.86689" lon="2.35851">
        <ele>91.3</ele>
        <time>2015-04-06T19:12:49.917Z</time>
      </trkpt>
      <trkpt lat="48.86687" lon="2.35855">
        <ele>91.1</ele>
        <time>2015-04-06T19:12:50.788Z</time>
      </trkpt>
      <trkpt lat="48.86682" lon="2.35865">
        <ele>90.9</ele>
        <time>2015-04-06T19:12:52.852Z</time>
      </trkpt>
      <trkpt lat="48.86682" lon="2.3587">
        <ele>90.8</ele>
        <time>2015-04-06T19:12:53.890Z</time>
      </trkpt>
      <trkpt lat="48.86681" lon="2.35878">
        <ele>91</ele>
        <time>2015-04-06T19:12:56.145Z</time>
      </trkpt>
      <trkpt lat="48.8668" lon="2.35883">
        <ele>91</ele>
        <time>2015-04-06T19:12:56.844Z</time>
      </trkpt>
      <trkpt lat="48.86676" lon="2.35893">
        <ele>91.1</ele>
        <time>2015-04-06T19:12:59.877Z</time>
      </trkpt>
      <trkpt lat="48.86673" lon="2.35896">
        <ele>91</ele>
        <time>2015-04-06T19:13:00.801Z</time>
      </trkpt>
      <trkpt lat="48.86673" lon="2.35905">
        <ele>91.1</ele>
        <time>2015-04-06T19:13:02.848Z</time>
      </trkpt>
      <trkpt lat="48.86674" lon="2.3591">
        <ele>91.2</ele>
        <time>2015-04-06T19:13:03.926Z</time>
      </trkpt>
      <trkpt lat="48.86671" lon="2.35921">
        <ele>91</ele>
        <time>2015-04-06T19:13:06.223Z</time>
      </trkpt>
      <trkpt lat="48.86669" lon="2.35926">
        <ele>90.9</ele>
        <time>2015-04-06T19:13:06.866Z</time>
      </trkpt>
      <trkpt lat="48.86664" lon="2.3593">
        <ele>90.8</ele>
        <time>2015-04-06T19:13:07.869Z</time>
      </trkpt>
      <trkpt lat="48.86661" lon="2.35935">
        <ele>90.8</ele>
        <time>2015-04-06T19:13:08.877Z</time>
      </trkpt>
      <trkpt lat="48.86658" lon="2.35945">
        <ele>90.6</ele>
        <time>2015-04-06T19:13:11.354Z</time>
      </trkpt>
      <trkpt lat="48.86655" lon="2.3595">
        <ele>90.7</ele>
        <time>2015-04-06T19:13:11.852Z</time>
      </trkpt>
      <trkpt lat="48.8665" lon="2.35954">
        <ele>90.8</ele>
        <time>2015-04-06T19:13:12.866Z</time>
      </trkpt>
      <trkpt lat="48.86646" lon="2.35959">
        <ele>90.8</ele>
        <time>2015-04-06T19:13:13.869Z</time>
      </trkpt>
      <trkpt lat="48.86643" lon="2.35964">
        <ele>90.7</ele>
        <time>2015-04-06T19:13:14.907Z</time>
      </trkpt>
      <trkpt lat="48.86639" lon="2.35969">
        <ele>90.6</ele>
        <time>2015-04-06T19:13:15.782Z</time>
      </trkpt>
      <trkpt lat="48.86636" lon="2.35973">
        <ele>90.4</ele>
        <time>2015-04-06T19:13:16.823Z</time>
      </trkpt>
      <trkpt lat="48.86632" lon="2.35977">
        <ele>90.4</ele>
        <time>2015-04-06T19:13:17.830Z</time>
      </trkpt>
      <trkpt lat="48.8663" lon="2.35987">
        <ele>90.2</ele>
        <time>2015-04-06T19:13:19.842Z</time>
      </trkpt>
      <trkpt lat="48.86633" lon="2.35993">
        <ele>90.1</ele>
        <time>2015-04-06T19:13:20.859Z</time>
      </trkpt>
      <trkpt lat="48.86635" lon="2.35998">
        <ele>90.2</ele>
        <time>2015-04-06T19:13:21.884Z</time>
      </trkpt>
      <trkpt lat="48.86642" lon="2.36005">
        <ele>90.3</ele>
        <time>2015-04-06T19:13:22.899Z</time>
      </trkpt>
      <trkpt lat="48.86645" lon="2.36015">
        <ele>90.8</ele>
        <time>2015-04-06T19:13:24.801Z</time>
      </trkpt>
      <trkpt lat="48.86644" lon="2.36019">
        <ele>90.9</ele>
        <time>2015-04-06T19:13:25.857Z</time>
      </trkpt>
      <trkpt lat="48.86642" lon="2.36029">
        <ele>91</ele>
        <time>2015-04-06T19:13:28.822Z</time>
      </trkpt>
      <trkpt lat="48.8664" lon="2.36033">
        <ele>91.2</ele>
        <time>2015-04-06T19:13:29.830Z</time>
      </trkpt>
      <trkpt lat="48.86639" lon="2.36045">
        <ele>91.4</ele>
        <time>2015-04-06T19:13:36.839Z</time>
      </trkpt>
      <trkpt lat="48.8664" lon="2.36048">
        <ele>91.5</ele>
        <time>2015-04-06T19:13:37.878Z</time>
      </trkpt>
      <trkpt lat="48.8664" lon="2.3606">
        <ele>92</ele>
        <time>2015-04-06T19:13:42.853Z</time>
      </trkpt>
      <trkpt lat="48.86637" lon="2.36061">
        <ele>92.2</ele>
        <time>2015-04-06T19:13:43.867Z</time>
      </trkpt>
      <trkpt lat="48.86635" lon="2.36065">
        <ele>92.3</ele>
        <time>2015-04-06T19:13:44.802Z</time>
      </trkpt>
      <trkpt lat="48.86628" lon="2.36069">
        <ele>92.5</ele>
        <time>2015-04-06T19:13:45.798Z</time>
      </trkpt>
      <trkpt lat="48.8662" lon="2.36072">
        <ele>92.7</ele>
        <time>2015-04-06T19:13:46.829Z</time>
      </trkpt>
      <trkpt lat="48.86616" lon="2.36077">
        <ele>92.8</ele>
        <time>2015-04-06T19:13:47.843Z</time>
      </trkpt>
      <trkpt lat="48.86614" lon="2.36085">
        <ele>92.9</ele>
        <time>2015-04-06T19:13:48.804Z</time>
      </trkpt>
      <trkpt lat="48.86612" lon="2.3609">
        <ele>92.9</ele>
        <time>2015-04-06T19:13:49.833Z</time>
      </trkpt>
      <trkpt lat="48.86607" lon="2.361">
        <ele>92.8</ele>
        <time>2015-04-06T19:13:52.909Z</time>
      </trkpt>
      <trkpt lat="48.86604" lon="2.36098">
        <ele>91.7</ele>
        <time>2015-04-06T19:13:53.852Z</time>
      </trkpt>
      <trkpt lat="48.86596" lon="2.36095">
        <ele>89.6</ele>
        <time>2015-04-06T19:13:57.915Z</time>
      </trkpt>
      <trkpt lat="48.86594" lon="2.36094">
        <ele>89.2</ele>
        <time>2015-04-06T19:13:58.850Z</time>
      </trkpt>
      <trkpt lat="48.86587" lon="2.36095">
        <ele>87.9</ele>
        <time>2015-04-06T19:14:02.874Z</time>
      </trkpt>
      <trkpt lat="48.86584" lon="2.361">
        <ele>88.1</ele>
        <time>2015-04-06T19:14:03.872Z</time>
      </trkpt>
      <trkpt lat="48.8658" lon="2.36107">
        <ele>88.6</ele>
        <time>2015-04-06T19:14:05.816Z</time>
      </trkpt>
      <trkpt lat="48.86578" lon="2.3611">
        <ele>88.8</ele>
        <time>2015-04-06T19:14:06.912Z</time>
      </trkpt>
      <trkpt lat="48.86573" lon="2.36121">
        <ele>89</ele>
        <time>2015-04-06T19:14:08.808Z</time>
      </trkpt>
      <trkpt lat="48.86571" lon="2.36125">
        <ele>89.2</ele>
        <time>2015-04-06T19:14:09.842Z</time>
      </trkpt>
      <trkpt lat="48.86565" lon="2.36134">
        <ele>89.4</ele>
        <time>2015-04-06T19:14:11.800Z</time>
      </trkpt>
      <trkpt lat="48.86562" lon="2.36138">
        <ele>89.4</ele>
        <time>2015-04-06T19:14:12.825Z</time>
      </trkpt>
      <trkpt lat="48.86558" lon="2.36145">
        <ele>89.5</ele>
        <time>2015-04-06T19:14:14.857Z</time>
      </trkpt>
      <trkpt lat="48.86555" lon="2.3615">
        <ele>89.4</ele>
        <time>2015-04-06T19:14:15.883Z</time>
      </trkpt>
      <trkpt lat="48.86551" lon="2.36162">
        <ele>89.5</ele>
        <time>2015-04-06T19:14:18.842Z</time>
      </trkpt>
      <trkpt lat="48.8655" lon="2.36165">
        <ele>89.5</ele>
        <time>2015-04-06T19:14:19.948Z</time>
      </trkpt>
      <trkpt lat="48.86541" lon="2.36166">
        <ele>88.4</ele>
        <time>2015-04-06T19:14:28.820Z</time>
      </trkpt>
      <trkpt lat="48.86539" lon="2.36164">
        <ele>88.6</ele>
        <time>2015-04-06T19:14:29.816Z</time>
      </trkpt>
      <trkpt lat="48.86532" lon="2.3617">
        <ele>90.4</ele>
        <time>2015-04-06T19:14:37.258Z</time>
      </trkpt>
      <trkpt lat="48.8653" lon="2.36173">
        <ele>91.1</ele>
        <time>2015-04-06T19:14:37.849Z</time>
      </trkpt>
      <trkpt lat="48.86528" lon="2.36179">
        <ele>91.6</ele>
        <time>2015-04-06T19:14:38.856Z</time>
      </trkpt>
      <trkpt lat="48.86525" lon="2.36185">
        <ele>92</ele>
        <time>2015-04-06T19:14:39.868Z</time>
      </trkpt>
      <trkpt lat="48.86522" lon="2.36197">
        <ele>92.6</ele>
        <time>2015-04-06T19:14:42.382Z</time>
      </trkpt>
      <trkpt lat="48.8652" lon="2.36202">
        <ele>92.9</ele>
        <time>2015-04-06T19:14:42.884Z</time>
      </trkpt>
      <trkpt lat="48.86517" lon="2.36211">
        <ele>93.6</ele>
        <time>2015-04-06T19:14:44.841Z</time>
      </trkpt>
      <trkpt lat="48.86515" lon="2.36214">
        <ele>93.7</ele>
        <time>2015-04-06T19:14:45.854Z</time>
      </trkpt>
      <trkpt lat="48.86512" lon="2.36225">
        <ele>94.3</ele>
        <time>2015-04-06T19:14:48.794Z</time>
      </trkpt>
      <trkpt lat="48.86511" lon="2.36228">
        <ele>94.4</ele>
        <time>2015-04-06T19:14:49.858Z</time>
      </trkpt>
      <trkpt lat="48.86506" lon="2.36237">
        <ele>94.8</ele>
        <time>2015-04-06T19:14:51.860Z</time>
      </trkpt>
      <trkpt lat="48.86504" lon="2.3624">
        <ele>95</ele>
        <time>2015-04-06T19:14:52.884Z</time>
      </trkpt>
      <trkpt lat="48.86499" lon="2.36248">
        <ele>94.9</ele>
        <time>2015-04-06T19:14:54.812Z</time>
      </trkpt>
      <trkpt lat="48.86498" lon="2.36251">
        <ele>94.8</ele>
        <time>2015-04-06T19:14:55.868Z</time>
      </trkpt>
      <trkpt lat="48.86492" lon="2.36257">
        <ele>95.3</ele>
        <time>2015-04-06T19:14:58.853Z</time>
      </trkpt>
      <trkpt lat="48.8649" lon="2.3626">
        <ele>95.5</ele>
        <time>2015-04-06T19:14:59.879Z</time>
      </trkpt>
      <trkpt lat="48.86486" lon="2.36269">
        <ele>96.4</ele>
        <time>2015-04-06T19:15:04.845Z</time>
      </trkpt>
      <trkpt lat="48.86485" lon="2.36272">
        <ele>96.7</ele>
        <time>2015-04-06T19:15:05.870Z</time>
      </trkpt>
      <trkpt lat="48.86481" lon="2.36284">
        <ele>97.2</ele>
        <time>2015-04-06T19:15:08.856Z</time>
      </trkpt>
      <trkpt lat="48.86479" lon="2.36288">
        <ele>97.4</ele>
        <time>2015-04-06T19:15:09.889Z</time>
      </trkpt>
      <trkpt lat="48.86473" lon="2.36295">
        <ele>98.2</ele>
        <time>2015-04-06T19:15:11.816Z</time>
      </trkpt>
      <trkpt lat="48.8647" lon="2.36299">
        <ele>98.4</ele>
        <time>2015-04-06T19:15:12.871Z</time>
      </trkpt>
      <trkpt lat="48.86465" lon="2.36308">
        <ele>99</ele>
        <time>2015-04-06T19:15:14.791Z</time>
      </trkpt>
      <trkpt lat="48.86462" lon="2.36311">
        <ele>98.7</ele>
        <time>2015-04-06T19:15:15.802Z</time>
      </trkpt>
      <trkpt lat="48.86457" lon="2.36319">
        <ele>98.8</ele>
        <time>2015-04-06T19:15:17.856Z</time>
      </trkpt>
      <trkpt lat="48.86455" lon="2.36324">
        <ele>99.2</ele>
        <time>2015-04-06T19:15:18.872Z</time>
      </trkpt>
      <trkpt lat="48.86453" lon="2.36337">
        <ele>99.9</ele>
        <time>2015-04-06T19:15:21.778Z</time>
      </trkpt>
      <trkpt lat="48.86453" lon="2.3634">
        <ele>100</ele>
        <time>2015-04-06T19:15:22.817Z</time>
      </trkpt>
      <trkpt lat="48.86454" lon="2.3635">
        <ele>100.3</ele>
        <time>2015-04-06T19:15:26.741Z</time>
      </trkpt>
      <trkpt lat="48.86454" lon="2.36355">
        <ele>100.5</ele>
        <time>2015-04-06T19:15:26.781Z</time>
      </trkpt>
      <trkpt lat="48.86459" lon="2.36365">
        <ele>100.9</ele>
        <time>2015-04-06T19:15:28.799Z</time>
      </trkpt>
      <trkpt lat="48.86462" lon="2.36371">
        <ele>101</ele>
        <time>2015-04-06T19:15:29.813Z</time>
      </trkpt>
      <trkpt lat="48.86467" lon="2.36381">
        <ele>101</ele>
        <time>2015-04-06T19:15:31.920Z</time>
      </trkpt>
      <trkpt lat="48.86469" lon="2.36387">
        <ele>100.9</ele>
        <time>2015-04-06T19:15:32.884Z</time>
      </trkpt>
      <trkpt lat="48.86473" lon="2.36397">
        <ele>100.7</ele>
        <time>2015-04-06T19:15:34.819Z</time>
      </trkpt>
      <trkpt lat="48.86472" lon="2.36402">
        <ele>100.7</ele>
        <time>2015-04-06T19:15:35.841Z</time>
      </trkpt>
      <trkpt lat="48.86473" lon="2.36412">
        <ele>101</ele>
        <time>2015-04-06T19:15:37.877Z</time>
      </trkpt>
      <trkpt lat="48.86473" lon="2.36418">
        <ele>101.1</ele>
        <time>2015-04-06T19:15:38.889Z</time>
      </trkpt>
      <trkpt lat="48.86473" lon="2.36427">
        <ele>100.8</ele>
        <time>2015-04-06T19:15:40.825Z</time>
      </trkpt>
      <trkpt lat="48.86474" lon="2.36432">
        <ele>100.6</ele>
        <time>2015-04-06T19:15:41.857Z</time>
      </trkpt>
      <trkpt lat="48.86475" lon="2.36442">
        <ele>100.6</ele>
        <time>2015-04-06T19:15:43.841Z</time>
      </trkpt>
      <trkpt lat="48.86476" lon="2.36446">
        <ele>100.4</ele>
        <time>2015-04-06T19:15:44.803Z</time>
      </trkpt>
      <trkpt lat="48.86475" lon="2.36456">
        <ele>100.1</ele>
        <time>2015-04-06T19:15:46.851Z</time>
      </trkpt>
      <trkpt lat="48.86475" lon="2.36461">
        <ele>100.1</ele>
        <time>2015-04-06T19:15:47.826Z</time>
      </trkpt>
      <trkpt lat="48.86474" lon="2.36472">
        <ele>99.9</ele>
        <time>2015-04-06T19:15:49.844Z</time>
      </trkpt>
      <trkpt lat="48.86469" lon="2.36473">
        <ele>98.9</ele>
        <time>2015-04-06T19:15:50.841Z</time>
      </trkpt>
      <trkpt lat="48.86463" lon="2.36474">
        <ele>97.4</ele>
        <time>2015-04-06T19:15:51.876Z</time>
      </trkpt>
      <trkpt lat="48.86458" lon="2.36476">
        <ele>97</ele>
        <time>2015-04-06T19:15:52.892Z</time>
      </trkpt>
      <trkpt lat="48.8645" lon="2.36477">
        <ele>96.7</ele>
        <time>2015-04-06T19:15:54.877Z</time>
      </trkpt>
      <trkpt lat="48.86446" lon="2.36476">
        <ele>96.7</ele>
        <time>2015-04-06T19:15:55.868Z</time>
      </trkpt>
      <trkpt lat="48.86438" lon="2.36474">
        <ele>96.7</ele>
        <time>2015-04-06T19:15:57.806Z</time>
      </trkpt>
      <trkpt lat="48.86434" lon="2.36472">
        <ele>96.7</ele>
        <time>2015-04-06T19:15:58.818Z</time>
      </trkpt>
      <trkpt lat="48.86426" lon="2.3647">
        <ele>96.8</ele>
        <time>2015-04-06T19:16:01.488Z</time>
      </trkpt>
      <trkpt lat="48.86421" lon="2.36469">
        <ele>96.9</ele>
        <time>2015-04-06T19:16:01.856Z</time>
      </trkpt>
      <trkpt lat="48.86413" lon="2.36467">
        <ele>96.9</ele>
        <time>2015-04-06T19:16:03.872Z</time>
      </trkpt>
      <trkpt lat="48.86408" lon="2.36467">
        <ele>97</ele>
        <time>2015-04-06T19:16:04.787Z</time>
      </trkpt>
      <trkpt lat="48.86404" lon="2.36468">
        <ele>97.1</ele>
        <time>2015-04-06T19:16:06.564Z</time>
      </trkpt>
      <trkpt lat="48.86399" lon="2.36467">
        <ele>97.1</ele>
        <time>2015-04-06T19:16:06.808Z</time>
      </trkpt>
      <trkpt lat="48.8639" lon="2.36464">
        <ele>97.2</ele>
        <time>2015-04-06T19:16:08.853Z</time>
      </trkpt>
      <trkpt lat="48.86381" lon="2.36465">
        <ele>97.4</ele>
        <time>2015-04-06T19:16:10.785Z</time>
      </trkpt>
      <trkpt lat="48.86377" lon="2.36467">
        <ele>97.5</ele>
        <time>2015-04-06T19:16:11.804Z</time>
      </trkpt>
      <trkpt lat="48.86372" lon="2.36467">
        <ele>97.5</ele>
        <time>2015-04-06T19:16:12.836Z</time>
      </trkpt>
      <trkpt lat="48.86367" lon="2.36466">
        <ele>97.5</ele>
        <time>2015-04-06T19:16:13.852Z</time>
      </trkpt>
      <trkpt lat="48.86359" lon="2.36465">
        <ele>97.7</ele>
        <time>2015-04-06T19:16:15.805Z</time>
      </trkpt>
      <trkpt lat="48.86354" lon="2.36464">
        <ele>97.8</ele>
        <time>2015-04-06T19:16:16.848Z</time>
      </trkpt>
      <trkpt lat="48.86345" lon="2.36462">
        <ele>97.9</ele>
        <time>2015-04-06T19:16:18.798Z</time>
      </trkpt>
      <trkpt lat="48.86341" lon="2.36463">
        <ele>98</ele>
        <time>2015-04-06T19:16:19.861Z</time>
      </trkpt>
      <trkpt lat="48.86333" lon="2.36464">
        <ele>97.4</ele>
        <time>2015-04-06T19:16:22.275Z</time>
      </trkpt>
      <trkpt lat="48.86329" lon="2.36464">
        <ele>97.1</ele>
        <time>2015-04-06T19:16:22.856Z</time>
      </trkpt>
      <trkpt lat="48.86321" lon="2.36465">
        <ele>97</ele>
        <time>2015-04-06T19:16:24.813Z</time>
      </trkpt>
      <trkpt lat="48.86317" lon="2.36465">
        <ele>97.1</ele>
        <time>2015-04-06T19:16:25.833Z</time>
      </trkpt>
      <trkpt lat="48.86312" lon="2.36465">
        <ele>97.2</ele>
        <time>2015-04-06T19:16:27.342Z</time>
      </trkpt>
      <trkpt lat="48.86308" lon="2.36466">
        <ele>97.3</ele>
        <time>2015-04-06T19:16:27.797Z</time>
      </trkpt>
      <trkpt lat="48.86303" lon="2.36467">
        <ele>97.3</ele>
        <time>2015-04-06T19:16:28.798Z</time>
      </trkpt>
      <trkpt lat="48.86299" lon="2.36468">
        <ele>97.4</ele>
        <time>2015-04-06T19:16:29.809Z</time>
      </trkpt>
      <trkpt lat="48.8629" lon="2.36468">
        <ele>97.6</ele>
        <time>2015-04-06T19:16:32.450Z</time>
      </trkpt>
      <trkpt lat="48.86286" lon="2.36467">
        <ele>97.7</ele>
        <time>2015-04-06T19:16:32.842Z</time>
      </trkpt>
      <trkpt lat="48.86281" lon="2.36466">
        <ele>97.7</ele>
        <time>2015-04-06T19:16:33.872Z</time>
      </trkpt>
      <trkpt lat="48.86276" lon="2.36465">
        <ele>97.8</ele>
        <time>2015-04-06T19:16:34.797Z</time>
      </trkpt>
      <trkpt lat="48.86268" lon="2.36466">
        <ele>98</ele>
        <time>2015-04-06T19:16:36.789Z</time>
      </trkpt>
      <trkpt lat="48.86264" lon="2.36467">
        <ele>98.1</ele>
        <time>2015-04-06T19:16:37.813Z</time>
      </trkpt>
      <trkpt lat="48.86256" lon="2.36467">
        <ele>98.2</ele>
        <time>2015-04-06T19:16:39.837Z</time>
      </trkpt>
      <trkpt lat="48.86252" lon="2.36467">
        <ele>98.3</ele>
        <time>2015-04-06T19:16:40.879Z</time>
      </trkpt>
      <trkpt lat="48.86243" lon="2.36467">
        <ele>98.4</ele>
        <time>2015-04-06T19:16:42.829Z</time>
      </trkpt>
      <trkpt lat="48.86239" lon="2.36467">
        <ele>98.5</ele>
        <time>2015-04-06T19:16:43.850Z</time>
      </trkpt>
      <trkpt lat="48.86231" lon="2.36466">
        <ele>98.6</ele>
        <time>2015-04-06T19:16:45.796Z</time>
      </trkpt>
      <trkpt lat="48.86227" lon="2.36466">
        <ele>98.7</ele>
        <time>2015-04-06T19:16:46.812Z</time>
      </trkpt>
      <trkpt lat="48.8622" lon="2.36465">
        <ele>98.8</ele>
        <time>2015-04-06T19:16:48.828Z</time>
      </trkpt>
      <trkpt lat="48.86217" lon="2.36466">
        <ele>98.8</ele>
        <time>2015-04-06T19:16:49.841Z</time>
      </trkpt>
      <trkpt lat="48.86208" lon="2.3647">
        <ele>98.9</ele>
        <time>2015-04-06T19:16:52.798Z</time>
      </trkpt>
      <trkpt lat="48.86206" lon="2.36471">
        <ele>98.9</ele>
        <time>2015-04-06T19:16:53.793Z</time>
      </trkpt>
      <trkpt lat="48.86202" lon="2.36481">
        <ele>98.8</ele>
        <time>2015-04-06T19:16:56.847Z</time>
      </trkpt>
      <trkpt lat="48.86203" lon="2.36485">
        <ele>98.6</ele>
        <time>2015-04-06T19:16:57.858Z</time>
      </trkpt>
      <trkpt lat="48.86208" lon="2.36492">
        <ele>97.4</ele>
        <time>2015-04-06T19:16:59.891Z</time>
      </trkpt>
      <trkpt lat="48.86211" lon="2.36495">
        <ele>97</ele>
        <time>2015-04-06T19:17:00.808Z</time>
      </trkpt>
      <trkpt lat="48.86217" lon="2.365">
        <ele>96.4</ele>
        <time>2015-04-06T19:17:02.872Z</time>
      </trkpt>
      <trkpt lat="48.8622" lon="2.36504">
        <ele>96.1</ele>
        <time>2015-04-06T19:17:03.878Z</time>
      </trkpt>
      <trkpt lat="48.86225" lon="2.36511">
        <ele>95.6</ele>
        <time>2015-04-06T19:17:05.820Z</time>
      </trkpt>
      <trkpt lat="48.86226" lon="2.36515">
        <ele>95.4</ele>
        <time>2015-04-06T19:17:06.845Z</time>
      </trkpt>
      <trkpt lat="48.86231" lon="2.36522">
        <ele>94.3</ele>
        <time>2015-04-06T19:17:08.880Z</time>
      </trkpt>
      <trkpt lat="48.86234" lon="2.36526">
        <ele>93.8</ele>
        <time>2015-04-06T19:17:09.821Z</time>
      </trkpt>
      <trkpt lat="48.86238" lon="2.36535">
        <ele>93.3</ele>
        <time>2015-04-06T19:17:11.815Z</time>
      </trkpt>
      <trkpt lat="48.8624" lon="2.36537">
        <ele>93.2</ele>
        <time>2015-04-06T19:17:12.840Z</time>
      </trkpt>
      <trkpt lat="48.86246" lon="2.36545">
        <ele>93.1</ele>
        <time>2015-04-06T19:17:15.857Z</time>
      </trkpt>
      <trkpt lat="48.86247" lon="2.36548">
        <ele>93.1</ele>
        <time>2015-04-06T19:17:16.868Z</time>
      </trkpt>
      <trkpt lat="48.86249" lon="2.3656">
        <ele>93.3</ele>
        <time>2015-04-06T19:17:20.837Z</time>
      </trkpt>
      <trkpt lat="48.86251" lon="2.36563">
        <ele>93.6</ele>
        <time>2015-04-06T19:17:21.824Z</time>
      </trkpt>
      <trkpt lat="48.86256" lon="2.36569">
        <ele>93.7</ele>
        <time>2015-04-06T19:17:23.839Z</time>
      </trkpt>
      <trkpt lat="48.86259" lon="2.36571">
        <ele>93.8</ele>
        <time>2015-04-06T19:17:24.870Z</time>
      </trkpt>
      <trkpt lat="48.86264" lon="2.36577">
        <ele>94.2</ele>
        <time>2015-04-06T19:17:26.810Z</time>
      </trkpt>
      <trkpt lat="48.86268" lon="2.36581">
        <ele>94.3</ele>
        <time>2015-04-06T19:17:27.847Z</time>
      </trkpt>
      <trkpt lat="48.86275" lon="2.36588">
        <ele>94.8</ele>
        <time>2015-04-06T19:17:29.894Z</time>
      </trkpt>
      <trkpt lat="48.86278" lon="2.36591">
        <ele>94.8</ele>
        <time>2015-04-06T19:17:30.808Z</time>
      </trkpt>
      <trkpt lat="48.86283" lon="2.36598">
        <ele>94.9</ele>
        <time>2015-04-06T19:17:32.812Z</time>
      </trkpt>
      <trkpt lat="48.86286" lon="2.36602">
        <ele>95</ele>
        <time>2015-04-06T19:17:33.878Z</time>
      </trkpt>
      <trkpt lat="48.8629" lon="2.36612">
        <ele>94.5</ele>
        <time>2015-04-06T19:17:35.825Z</time>
      </trkpt>
      <trkpt lat="48.86294" lon="2.36615">
        <ele>94.2</ele>
        <time>2015-04-06T19:17:36.867Z</time>
      </trkpt>
      <trkpt lat="48.86298" lon="2.36623">
        <ele>93.7</ele>
        <time>2015-04-06T19:17:39.310Z</time>
      </trkpt>
      <trkpt lat="48.86301" lon="2.36627">
        <ele>93.5</ele>
        <time>2015-04-06T19:17:39.830Z</time>
      </trkpt>
      <trkpt lat="48.86305" lon="2.36637">
        <ele>93</ele>
        <time>2015-04-06T19:17:42.913Z</time>
      </trkpt>
      <trkpt lat="48.86306" lon="2.36641">
        <ele>93.1</ele>
        <time>2015-04-06T19:17:43.912Z</time>
      </trkpt>
      <trkpt lat="48.86307" lon="2.36652">
        <ele>93.3</ele>
        <time>2015-04-06T19:18:26.648Z</time>
      </trkpt>
      <trkpt lat="48.86298" lon="2.36667">
        <ele>91.1</ele>
        <time>2015-04-06T19:18:26.799Z</time>
      </trkpt>
      <trkpt lat="48.86295" lon="2.36677">
        <ele>91.1</ele>
        <time>2015-04-06T19:18:29.859Z</time>
      </trkpt>
      <trkpt lat="48.86292" lon="2.3668">
        <ele>91</ele>
        <time>2015-04-06T19:18:30.891Z</time>
      </trkpt>
      <trkpt lat="48.86285" lon="2.36686">
        <ele>91</ele>
        <time>2015-04-06T19:18:33.819Z</time>
      </trkpt>
      <trkpt lat="48.86283" lon="2.36687">
        <ele>91</ele>
        <time>2015-04-06T19:18:34.853Z</time>
      </trkpt>
      <trkpt lat="48.86276" lon="2.36692">
        <ele>91.1</ele>
        <time>2015-04-06T19:18:37.878Z</time>
      </trkpt>
      <trkpt lat="48.86274" lon="2.36694">
        <ele>91.2</ele>
        <time>2015-04-06T19:18:38.899Z</time>
      </trkpt>
      <trkpt lat="48.86266" lon="2.36701">
        <ele>92.5</ele>
        <time>2015-04-06T19:18:41.803Z</time>
      </trkpt>
      <trkpt lat="48.86263" lon="2.36703">
        <ele>92.8</ele>
        <time>2015-04-06T19:18:42.822Z</time>
      </trkpt>
      <trkpt lat="48.86256" lon="2.36707">
        <ele>93.8</ele>
        <time>2015-04-06T19:18:45.949Z</time>
      </trkpt>
      <trkpt lat="48.86255" lon="2.36708">
        <ele>93.9</ele>
        <time>2015-04-06T19:18:46.904Z</time>
      </trkpt>
      <trkpt lat="48.86255" lon="2.36722">
        <ele>94.9</ele>
        <time>2015-04-06T19:18:51.825Z</time>
      </trkpt>
      <trkpt lat="48.86256" lon="2.36725">
        <ele>94.7</ele>
        <time>2015-04-06T19:18:52.843Z</time>
      </trkpt>
      <trkpt lat="48.86255" lon="2.36737">
        <ele>94.6</ele>
        <time>2015-04-06T19:18:56.086Z</time>
      </trkpt>
      <trkpt lat="48.86254" lon="2.36739">
        <ele>94.5</ele>
        <time>2015-04-06T19:18:56.905Z</time>
      </trkpt>
      <trkpt lat="48.86247" lon="2.36741">
        <ele>94.7</ele>
        <time>2015-04-06T19:18:59.862Z</time>
      </trkpt>
      <trkpt lat="48.86243" lon="2.36741">
        <ele>94.5</ele>
        <time>2015-04-06T19:19:00.881Z</time>
      </trkpt>
      <trkpt lat="48.86235" lon="2.36739">
        <ele>93.9</ele>
        <time>2015-04-06T19:19:02.791Z</time>
      </trkpt>
      <trkpt lat="48.86231" lon="2.36738">
        <ele>93.7</ele>
        <time>2015-04-06T19:19:03.798Z</time>
      </trkpt>
      <trkpt lat="48.86225" lon="2.36737">
        <ele>93.3</ele>
        <time>2015-04-06T19:19:05.833Z</time>
      </trkpt>
      <trkpt lat="48.86215" lon="2.36741">
        <ele>93.3</ele>
        <time>2015-04-06T19:19:08.834Z</time>
      </trkpt>
      <trkpt lat="48.86208" lon="2.36743">
        <ele>93.4</ele>
        <time>2015-04-06T19:19:11.340Z</time>
      </trkpt>
      <trkpt lat="48.86204" lon="2.36743">
        <ele>93.3</ele>
        <time>2015-04-06T19:19:11.819Z</time>
      </trkpt>
      <trkpt lat="48.86201" lon="2.36745">
        <ele>93.3</ele>
        <time>2015-04-06T19:19:12.837Z</time>
      </trkpt>
      <trkpt lat="48.86193" lon="2.36748">
        <ele>93.2</ele>
        <time>2015-04-06T19:19:14.863Z</time>
      </trkpt>
      <trkpt lat="48.86187" lon="2.36748">
        <ele>93.3</ele>
        <time>2015-04-06T19:19:16.792Z</time>
      </trkpt>
      <trkpt lat="48.86183" lon="2.36749">
        <ele>93.3</ele>
        <time>2015-04-06T19:19:17.794Z</time>
      </trkpt>
      <trkpt lat="48.86176" lon="2.36755">
        <ele>93.2</ele>
        <time>2015-04-06T19:19:19.842Z</time>
      </trkpt>
      <trkpt lat="48.86173" lon="2.36758">
        <ele>93.2</ele>
        <time>2015-04-06T19:19:20.855Z</time>
      </trkpt>
      <trkpt lat="48.86167" lon="2.36759">
        <ele>93.3</ele>
        <time>2015-04-06T19:19:22.877Z</time>
      </trkpt>
      <trkpt lat="48.86164" lon="2.3676">
        <ele>93.3</ele>
        <time>2015-04-06T19:19:23.883Z</time>
      </trkpt>
      <trkpt lat="48.86158" lon="2.36763">
        <ele>93.3</ele>
        <time>2015-04-06T19:19:26.563Z</time>
      </trkpt>
      <trkpt lat="48.86155" lon="2.36765">
        <ele>93.3</ele>
        <time>2015-04-06T19:19:26.850Z</time>
      </trkpt>
      <trkpt lat="48.8615" lon="2.36769">
        <ele>93.4</ele>
        <time>2015-04-06T19:19:28.845Z</time>
      </trkpt>
      <trkpt lat="48.86147" lon="2.3677">
        <ele>93.4</ele>
        <time>2015-04-06T19:19:29.860Z</time>
      </trkpt>
      <trkpt lat="48.86139" lon="2.36772">
        <ele>93.5</ele>
        <time>2015-04-06T19:19:32.782Z</time>
      </trkpt>
      <trkpt lat="48.86136" lon="2.36774">
        <ele>93.5</ele>
        <time>2015-04-06T19:19:33.787Z</time>
      </trkpt>
      <trkpt lat="48.86129" lon="2.36778">
        <ele>93.6</ele>
        <time>2015-04-06T19:19:37.815Z</time>
      </trkpt>
      <trkpt lat="48.86127" lon="2.36779">
        <ele>93.6</ele>
        <time>2015-04-06T19:19:38.820Z</time>
      </trkpt>
      <trkpt lat="48.86124" lon="2.36787">
        <ele>93.8</ele>
        <time>2015-04-06T19:19:45.948Z</time>
      </trkpt>
      <trkpt lat="48.86125" lon="2.3681">
        <ele>93.4</ele>
        <time>2015-04-06T19:19:51.806Z</time>
      </trkpt>
      <trkpt lat="48.86126" lon="2.36822">
        <ele>92.6</ele>
        <time>2015-04-06T19:19:53.858Z</time>
      </trkpt>
      <trkpt lat="48.86126" lon="2.36827">
        <ele>92.5</ele>
        <time>2015-04-06T19:19:54.867Z</time>
      </trkpt>
      <trkpt lat="48.86129" lon="2.36838">
        <ele>92.2</ele>
        <time>2015-04-06T19:19:56.800Z</time>
      </trkpt>
      <trkpt lat="48.86132" lon="2.36842">
        <ele>92.1</ele>
        <time>2015-04-06T19:19:57.789Z</time>
      </trkpt>
      <trkpt lat="48.86138" lon="2.36852">
        <ele>91.8</ele>
        <time>2015-04-06T19:19:59.810Z</time>
      </trkpt>
      <trkpt lat="48.8614" lon="2.36856">
        <ele>91.7</ele>
        <time>2015-04-06T19:20:00.832Z</time>
      </trkpt>
      <trkpt lat="48.86145" lon="2.36864">
        <ele>91.6</ele>
        <time>2015-04-06T19:20:02.802Z</time>
      </trkpt>
      <trkpt lat="48.86146" lon="2.36869">
        <ele>91.6</ele>
        <time>2015-04-06T19:20:03.889Z</time>
      </trkpt>
      <trkpt lat="48.8615" lon="2.36878">
        <ele>91.6</ele>
        <time>2015-04-06T19:20:06.528Z</time>
      </trkpt>
      <trkpt lat="48.86153" lon="2.36883">
        <ele>91.6</ele>
        <time>2015-04-06T19:20:06.776Z</time>
      </trkpt>
      <trkpt lat="48.86158" lon="2.36892">
        <ele>91.7</ele>
        <time>2015-04-06T19:20:08.859Z</time>
      </trkpt>
      <trkpt lat="48.86158" lon="2.36897">
        <ele>91.8</ele>
        <time>2015-04-06T19:20:09.760Z</time>
      </trkpt>
      <trkpt lat="48.86162" lon="2.36904">
        <ele>91.7</ele>
        <time>2015-04-06T19:20:11.914Z</time>
      </trkpt>
      <trkpt lat="48.86165" lon="2.36907">
        <ele>91.7</ele>
        <time>2015-04-06T19:20:12.801Z</time>
      </trkpt>
      <trkpt lat="48.86167" lon="2.36918">
        <ele>91.6</ele>
        <time>2015-04-06T19:20:16.693Z</time>
      </trkpt>
      <trkpt lat="48.86168" lon="2.36924">
        <ele>91.6</ele>
        <time>2015-04-06T19:20:16.789Z</time>
      </trkpt>
      <trkpt lat="48.86169" lon="2.36929">
        <ele>91.5</ele>
        <time>2015-04-06T19:20:17.804Z</time>
      </trkpt>
      <trkpt lat="48.86178" lon="2.36962">
        <ele>91.5</ele>
        <time>2015-04-06T19:20:24.808Z</time>
      </trkpt>
      <trkpt lat="48.86181" lon="2.3697">
        <ele>91.5</ele>
        <time>2015-04-06T19:20:26.912Z</time>
      </trkpt>
      <trkpt lat="48.86182" lon="2.36975">
        <ele>91.5</ele>
        <time>2015-04-06T19:20:27.787Z</time>
      </trkpt>
      <trkpt lat="48.86185" lon="2.36984">
        <ele>91.5</ele>
        <time>2015-04-06T19:20:29.788Z</time>
      </trkpt>
      <trkpt lat="48.86186" lon="2.36988">
        <ele>91.6</ele>
        <time>2015-04-06T19:20:30.799Z</time>
      </trkpt>
      <trkpt lat="48.86188" lon="2.37">
        <ele>91.5</ele>
        <time>2015-04-06T19:20:33.871Z</time>
      </trkpt>
      <trkpt lat="48.86187" lon="2.37003">
        <ele>91.4</ele>
        <time>2015-04-06T19:20:34.885Z</time>
      </trkpt>
      <trkpt lat="48.86188" lon="2.37013">
        <ele>91.1</ele>
        <time>2015-04-06T19:20:37.076Z</time>
      </trkpt>
      <trkpt lat="48.8619" lon="2.37018">
        <ele>91</ele>
        <time>2015-04-06T19:20:37.863Z</time>
      </trkpt>
      <trkpt lat="48.86193" lon="2.3703">
        <ele>90.7</ele>
        <time>2015-04-06T19:20:39.847Z</time>
      </trkpt>
      <trkpt lat="48.86194" lon="2.37035">
        <ele>90.6</ele>
        <time>2015-04-06T19:20:40.809Z</time>
      </trkpt>
      <trkpt lat="48.86198" lon="2.37045">
        <ele>90.7</ele>
        <time>2015-04-06T19:20:42.847Z</time>
      </trkpt>
      <trkpt lat="48.86199" lon="2.3705">
        <ele>90.6</ele>
        <time>2015-04-06T19:20:43.857Z</time>
      </trkpt>
      <trkpt lat="48.86203" lon="2.37062">
        <ele>90.2</ele>
        <time>2015-04-06T19:20:46.795Z</time>
      </trkpt>
      <trkpt lat="48.86203" lon="2.37065">
        <ele>90.2</ele>
        <time>2015-04-06T19:20:47.780Z</time>
      </trkpt>
      <trkpt lat="48.86204" lon="2.37077">
        <ele>90.7</ele>
        <time>2015-04-06T19:20:50.960Z</time>
      </trkpt>
      <trkpt lat="48.86206" lon="2.37081">
        <ele>90.9</ele>
        <time>2015-04-06T19:20:51.868Z</time>
      </trkpt>
      <trkpt lat="48.86208" lon="2.37091">
        <ele>91.5</ele>
        <time>2015-04-06T19:20:53.849Z</time>
      </trkpt>
      <trkpt lat="48.86209" lon="2.37097">
        <ele>92</ele>
        <time>2015-04-06T19:20:54.797Z</time>
      </trkpt>
      <trkpt lat="48.8621" lon="2.37108">
        <ele>92</ele>
        <time>2015-04-06T19:20:56.860Z</time>
      </trkpt>
      <trkpt lat="48.8621" lon="2.37112">
        <ele>91.8</ele>
        <time>2015-04-06T19:20:57.790Z</time>
      </trkpt>
      <trkpt lat="48.86211" lon="2.37123">
        <ele>92.1</ele>
        <time>2015-04-06T19:20:59.860Z</time>
      </trkpt>
      <trkpt lat="48.86212" lon="2.37127">
        <ele>92.1</ele>
        <time>2015-04-06T19:21:00.792Z</time>
      </trkpt>
      <trkpt lat="48.86214" lon="2.37137">
        <ele>92.4</ele>
        <time>2015-04-06T19:21:02.853Z</time>
      </trkpt>
      <trkpt lat="48.86215" lon="2.37143">
        <ele>92.6</ele>
        <time>2015-04-06T19:21:03.882Z</time>
      </trkpt>
      <trkpt lat="48.86218" lon="2.37153">
        <ele>92.8</ele>
        <time>2015-04-06T19:21:06.215Z</time>
      </trkpt>
      <trkpt lat="48.86218" lon="2.37158">
        <ele>92.9</ele>
        <time>2015-04-06T19:21:06.813Z</time>
      </trkpt>
      <trkpt lat="48.86222" lon="2.37187">
        <ele>93.4</ele>
        <time>2015-04-06T19:21:13.864Z</time>
      </trkpt>
      <trkpt lat="48.86219" lon="2.37198">
        <ele>93.7</ele>
        <time>2015-04-06T19:21:17.895Z</time>
      </trkpt>
      <trkpt lat="48.86216" lon="2.372">
        <ele>94</ele>
        <time>2015-04-06T19:21:18.812Z</time>
      </trkpt>
      <trkpt lat="48.86208" lon="2.37205">
        <ele>95.5</ele>
        <time>2015-04-06T19:21:21.909Z</time>
      </trkpt>
      <trkpt lat="48.86205" lon="2.37206">
        <ele>95.8</ele>
        <time>2015-04-06T19:21:22.821Z</time>
      </trkpt>
      <trkpt lat="48.86197" lon="2.37212">
        <ele>96.6</ele>
        <time>2015-04-06T19:21:26.512Z</time>
      </trkpt>
      <trkpt lat="48.86195" lon="2.37214">
        <ele>96.9</ele>
        <time>2015-04-06T19:21:26.863Z</time>
      </trkpt>
      <trkpt lat="48.8619" lon="2.37221">
        <ele>97.9</ele>
        <time>2015-04-06T19:21:28.816Z</time>
      </trkpt>
      <trkpt lat="48.86188" lon="2.37224">
        <ele>98.3</ele>
        <time>2015-04-06T19:21:29.854Z</time>
      </trkpt>
      <trkpt lat="48.86187" lon="2.37237">
        <ele>100</ele>
        <time>2015-04-06T19:23:20.893Z</time>
      </trkpt>
      <trkpt lat="48.86218" lon="2.37269">
        <ele>104.1</ele>
        <time>2015-04-06T19:23:22.082Z</time>
      </trkpt>
      <trkpt lat="48.86223" lon="2.37263">
        <ele>104.4</ele>
        <time>2015-04-06T19:23:24.867Z</time>
      </trkpt>
      <trkpt lat="48.86226" lon="2.3726">
        <ele>104.5</ele>
        <time>2015-04-06T19:23:25.817Z</time>
      </trkpt>
      <trkpt lat="48.86233" lon="2.37256">
        <ele>104.7</ele>
        <time>2015-04-06T19:23:27.873Z</time>
      </trkpt>
      <trkpt lat="48.86236" lon="2.37254">
        <ele>104.6</ele>
        <time>2015-04-06T19:23:28.891Z</time>
      </trkpt>
      <trkpt lat="48.86243" lon="2.37249">
        <ele>104.8</ele>
        <time>2015-04-06T19:23:30.844Z</time>
      </trkpt>
      <trkpt lat="48.86247" lon="2.37247">
        <ele>104.9</ele>
        <time>2015-04-06T19:23:31.881Z</time>
      </trkpt>
      <trkpt lat="48.86253" lon="2.37242">
        <ele>105.2</ele>
        <time>2015-04-06T19:23:33.828Z</time>
      </trkpt>
      <trkpt lat="48.86257" lon="2.37239">
        <ele>105.1</ele>
        <time>2015-04-06T19:23:34.870Z</time>
      </trkpt>
      <trkpt lat="48.86263" lon="2.37232">
        <ele>104.5</ele>
        <time>2015-04-06T19:23:37.492Z</time>
      </trkpt>
      <trkpt lat="48.86267" lon="2.37231">
        <ele>104.2</ele>
        <time>2015-04-06T19:23:37.886Z</time>
      </trkpt>
      <trkpt lat="48.86275" lon="2.37226">
        <ele>103.2</ele>
        <time>2015-04-06T19:23:39.860Z</time>
      </trkpt>
      <trkpt lat="48.86279" lon="2.37224">
        <ele>102.9</ele>
        <time>2015-04-06T19:23:40.866Z</time>
      </trkpt>
      <trkpt lat="48.86286" lon="2.3722">
        <ele>102.2</ele>
        <time>2015-04-06T19:23:42.815Z</time>
      </trkpt>
      <trkpt lat="48.86289" lon="2.37218">
        <ele>101.8</ele>
        <time>2015-04-06T19:23:43.867Z</time>
      </trkpt>
      <trkpt lat="48.86297" lon="2.37213">
        <ele>101.8</ele>
        <time>2015-04-06T19:23:45.957Z</time>
      </trkpt>
      <trkpt lat="48.86302" lon="2.37209">
        <ele>101.6</ele>
        <time>2015-04-06T19:23:46.823Z</time>
      </trkpt>
      <trkpt lat="48.86308" lon="2.37205">
        <ele>101.3</ele>
        <time>2015-04-06T19:23:47.828Z</time>
      </trkpt>
      <trkpt lat="48.86314" lon="2.37201">
        <ele>101.2</ele>
        <time>2015-04-06T19:23:48.855Z</time>
      </trkpt>
      <trkpt lat="48.86318" lon="2.37198">
        <ele>101</ele>
        <time>2015-04-06T19:23:49.887Z</time>
      </trkpt>
      <trkpt lat="48.86323" lon="2.37194">
        <ele>100.9</ele>
        <time>2015-04-06T19:23:50.817Z</time>
      </trkpt>
      <trkpt lat="48.86328" lon="2.37192">
        <ele>100.6</ele>
        <time>2015-04-06T19:23:51.818Z</time>
      </trkpt>
      <trkpt lat="48.86333" lon="2.37187">
        <ele>100.4</ele>
        <time>2015-04-06T19:23:52.821Z</time>
      </trkpt>
      <trkpt lat="48.86337" lon="2.37182">
        <ele>100.5</ele>
        <time>2015-04-06T19:23:53.829Z</time>
      </trkpt>
      <trkpt lat="48.86342" lon="2.37178">
        <ele>100.2</ele>
        <time>2015-04-06T19:23:54.844Z</time>
      </trkpt>
      <trkpt lat="48.86346" lon="2.37173">
        <ele>99.9</ele>
        <time>2015-04-06T19:23:56.179Z</time>
      </trkpt>
      <trkpt lat="48.8635" lon="2.3717">
        <ele>99.5</ele>
        <time>2015-04-06T19:23:56.877Z</time>
      </trkpt>
      <trkpt lat="48.86357" lon="2.37163">
        <ele>98.9</ele>
        <time>2015-04-06T19:23:58.899Z</time>
      </trkpt>
      <trkpt lat="48.8636" lon="2.37159">
        <ele>98.8</ele>
        <time>2015-04-06T19:23:59.811Z</time>
      </trkpt>
      <trkpt lat="48.86368" lon="2.37152">
        <ele>98.4</ele>
        <time>2015-04-06T19:24:01.922Z</time>
      </trkpt>
      <trkpt lat="48.86373" lon="2.37149">
        <ele>98.4</ele>
        <time>2015-04-06T19:24:02.826Z</time>
      </trkpt>
      <trkpt lat="48.86377" lon="2.37146">
        <ele>98.5</ele>
        <time>2015-04-06T19:24:03.823Z</time>
      </trkpt>
      <trkpt lat="48.86382" lon="2.37142">
        <ele>98.6</ele>
        <time>2015-04-06T19:24:04.864Z</time>
      </trkpt>
      <trkpt lat="48.8639" lon="2.37136">
        <ele>99</ele>
        <time>2015-04-06T19:24:06.955Z</time>
      </trkpt>
      <trkpt lat="48.86394" lon="2.37132">
        <ele>99.4</ele>
        <time>2015-04-06T19:24:07.881Z</time>
      </trkpt>
      <trkpt lat="48.864" lon="2.37124">
        <ele>99.2</ele>
        <time>2015-04-06T19:24:09.811Z</time>
      </trkpt>
      <trkpt lat="48.86403" lon="2.3712">
        <ele>99</ele>
        <time>2015-04-06T19:24:10.799Z</time>
      </trkpt>
      <trkpt lat="48.8641" lon="2.37113">
        <ele>98.9</ele>
        <time>2015-04-06T19:24:12.856Z</time>
      </trkpt>
      <trkpt lat="48.86414" lon="2.37111">
        <ele>99.2</ele>
        <time>2015-04-06T19:24:13.882Z</time>
      </trkpt>
      <trkpt lat="48.86421" lon="2.37108">
        <ele>99.1</ele>
        <time>2015-04-06T19:24:16.329Z</time>
      </trkpt>
      <trkpt lat="48.86423" lon="2.37106">
        <ele>98.7</ele>
        <time>2015-04-06T19:24:16.824Z</time>
      </trkpt>
      <trkpt lat="48.86429" lon="2.37102">
        <ele>99.1</ele>
        <time>2015-04-06T19:24:18.845Z</time>
      </trkpt>
      <trkpt lat="48.86432" lon="2.371">
        <ele>99.2</ele>
        <time>2015-04-06T19:24:19.858Z</time>
      </trkpt>
      <trkpt lat="48.86438" lon="2.37096">
        <ele>98.9</ele>
        <time>2015-04-06T19:24:21.875Z</time>
      </trkpt>
      <trkpt lat="48.8644" lon="2.37093">
        <ele>98.8</ele>
        <time>2015-04-06T19:24:22.785Z</time>
      </trkpt>
      <trkpt lat="48.86445" lon="2.37091">
        <ele>98.5</ele>
        <time>2015-04-06T19:24:24.868Z</time>
      </trkpt>
      <trkpt lat="48.8645" lon="2.37087">
        <ele>95.5</ele>
        <time>2015-04-06T19:24:25.858Z</time>
      </trkpt>
      <trkpt lat="48.86455" lon="2.37083">
        <ele>95.4</ele>
        <time>2015-04-06T19:24:27.877Z</time>
      </trkpt>
      <trkpt lat="48.86458" lon="2.3708">
        <ele>95.5</ele>
        <time>2015-04-06T19:24:28.884Z</time>
      </trkpt>
      <trkpt lat="48.86464" lon="2.37073">
        <ele>93.5</ele>
        <time>2015-04-06T19:24:29.799Z</time>
      </trkpt>
      <trkpt lat="48.8647" lon="2.37069">
        <ele>92.1</ele>
        <time>2015-04-06T19:24:30.808Z</time>
      </trkpt>
      <trkpt lat="48.86475" lon="2.37065">
        <ele>91.3</ele>
        <time>2015-04-06T19:24:31.831Z</time>
      </trkpt>
      <trkpt lat="48.86479" lon="2.37061">
        <ele>91.1</ele>
        <time>2015-04-06T19:24:32.846Z</time>
      </trkpt>
      <trkpt lat="48.86485" lon="2.37056">
        <ele>91.9</ele>
        <time>2015-04-06T19:24:34.803Z</time>
      </trkpt>
      <trkpt lat="48.86488" lon="2.37053">
        <ele>92.2</ele>
        <time>2015-04-06T19:24:35.802Z</time>
      </trkpt>
      <trkpt lat="48.86495" lon="2.37046">
        <ele>92.6</ele>
        <time>2015-04-06T19:24:37.836Z</time>
      </trkpt>
      <trkpt lat="48.86498" lon="2.37044">
        <ele>92.9</ele>
        <time>2015-04-06T19:24:38.837Z</time>
      </trkpt>
      <trkpt lat="48.86505" lon="2.37038">
        <ele>93.6</ele>
        <time>2015-04-06T19:24:40.861Z</time>
      </trkpt>
      <trkpt lat="48.86509" lon="2.37038">
        <ele>94.1</ele>
        <time>2015-04-06T19:24:41.763Z</time>
      </trkpt>
      <trkpt lat="48.86516" lon="2.37034">
        <ele>94.3</ele>
        <time>2015-04-06T19:24:43.873Z</time>
      </trkpt>
      <trkpt lat="48.86521" lon="2.37031">
        <ele>94.3</ele>
        <time>2015-04-06T19:24:44.792Z</time>
      </trkpt>
      <trkpt lat="48.86529" lon="2.37028">
        <ele>94.7</ele>
        <time>2015-04-06T19:24:46.842Z</time>
      </trkpt>
      <trkpt lat="48.86533" lon="2.37025">
        <ele>94.7</ele>
        <time>2015-04-06T19:24:47.861Z</time>
      </trkpt>
      <trkpt lat="48.86537" lon="2.37022">
        <ele>94.7</ele>
        <time>2015-04-06T19:24:48.873Z</time>
      </trkpt>
      <trkpt lat="48.86541" lon="2.37018">
        <ele>94.8</ele>
        <time>2015-04-06T19:24:49.956Z</time>
      </trkpt>
      <trkpt lat="48.86547" lon="2.37012">
        <ele>94.8</ele>
        <time>2015-04-06T19:24:51.849Z</time>
      </trkpt>
      <trkpt lat="48.8655" lon="2.37009">
        <ele>94.9</ele>
        <time>2015-04-06T19:24:52.851Z</time>
      </trkpt>
      <trkpt lat="48.86556" lon="2.37004">
        <ele>95.5</ele>
        <time>2015-04-06T19:24:55.837Z</time>
      </trkpt>
      <trkpt lat="48.86558" lon="2.37003">
        <ele>95.8</ele>
        <time>2015-04-06T19:24:56.855Z</time>
      </trkpt>
      <trkpt lat="48.8656" lon="2.37003">
        <ele>96</ele>
        <time>2015-04-06T19:25:01.885Z</time>
      </trkpt>
      <trkpt lat="48.86568" lon="2.37007">
        <ele>96.3</ele>
        <time>2015-04-06T19:25:02.862Z</time>
      </trkpt>
      <trkpt lat="48.86571" lon="2.37017">
        <ele>95.7</ele>
        <time>2015-04-06T19:25:06.378Z</time>
      </trkpt>
      <trkpt lat="48.86572" lon="2.37021">
        <ele>95.8</ele>
        <time>2015-04-06T19:25:06.882Z</time>
      </trkpt>
      <trkpt lat="48.86579" lon="2.37029">
        <ele>96.8</ele>
        <time>2015-04-06T19:25:10.873Z</time>
      </trkpt>
      <trkpt lat="48.8658" lon="2.3703">
        <ele>97.2</ele>
        <time>2015-04-06T19:25:11.825Z</time>
      </trkpt>
      <trkpt lat="48.8658" lon="2.37031">
        <ele>97.8</ele>
        <time>2015-04-06T19:25:18.891Z</time>
      </trkpt>
      <trkpt lat="48.86585" lon="2.37044">
        <ele>93.9</ele>
        <time>2015-04-06T19:25:19.897Z</time>
      </trkpt>
      <trkpt lat="48.86586" lon="2.37058">
        <ele>93.7</ele>
        <time>2015-04-06T19:25:22.869Z</time>
      </trkpt>
      <trkpt lat="48.86587" lon="2.37061">
        <ele>93.8</ele>
        <time>2015-04-06T19:25:23.916Z</time>
      </trkpt>
      <trkpt lat="48.8659" lon="2.3707">
        <ele>94.7</ele>
        <time>2015-04-06T19:25:26.928Z</time>
      </trkpt>
      <trkpt lat="48.86591" lon="2.37074">
        <ele>94.8</ele>
        <time>2015-04-06T19:25:27.808Z</time>
      </trkpt>
      <trkpt lat="48.86594" lon="2.37084">
        <ele>94.5</ele>
        <time>2015-04-06T19:25:30.844Z</time>
      </trkpt>
      <trkpt lat="48.86595" lon="2.37088">
        <ele>94.5</ele>
        <time>2015-04-06T19:25:31.854Z</time>
      </trkpt>
      <trkpt lat="48.866" lon="2.37096">
        <ele>94.6</ele>
        <time>2015-04-06T19:25:35.892Z</time>
      </trkpt>
      <trkpt lat="48.86603" lon="2.37098">
        <ele>94.5</ele>
        <time>2015-04-06T19:25:36.818Z</time>
      </trkpt>
      <trkpt lat="48.86607" lon="2.37104">
        <ele>94.5</ele>
        <time>2015-04-06T19:25:38.863Z</time>
      </trkpt>
      <trkpt lat="48.8661" lon="2.37108">
        <ele>94.7</ele>
        <time>2015-04-06T19:25:39.887Z</time>
      </trkpt>
      <trkpt lat="48.86614" lon="2.37119">
        <ele>95.1</ele>
        <time>2015-04-06T19:25:41.987Z</time>
      </trkpt>
      <trkpt lat="48.86616" lon="2.37122">
        <ele>95.1</ele>
        <time>2015-04-06T19:25:43.899Z</time>
      </trkpt>
      <trkpt lat="48.86619" lon="2.37132">
        <ele>95.3</ele>
        <time>2015-04-06T19:25:45.967Z</time>
      </trkpt>
      <trkpt lat="48.86621" lon="2.37136">
        <ele>95.2</ele>
        <time>2015-04-06T19:25:46.903Z</time>
      </trkpt>
      <trkpt lat="48.86623" lon="2.37146">
        <ele>95.2</ele>
        <time>2015-04-06T19:25:48.812Z</time>
      </trkpt>
      <trkpt lat="48.86626" lon="2.37151">
        <ele>95.3</ele>
        <time>2015-04-06T19:25:49.846Z</time>
      </trkpt>
      <trkpt lat="48.86634" lon="2.37157">
        <ele>94.9</ele>
        <time>2015-04-06T19:25:51.847Z</time>
      </trkpt>
      <trkpt lat="48.86637" lon="2.37161">
        <ele>94.7</ele>
        <time>2015-04-06T19:25:52.859Z</time>
      </trkpt>
      <trkpt lat="48.86643" lon="2.37167">
        <ele>94.7</ele>
        <time>2015-04-06T19:25:54.882Z</time>
      </trkpt>
      <trkpt lat="48.86645" lon="2.37171">
        <ele>94.5</ele>
        <time>2015-04-06T19:25:55.924Z</time>
      </trkpt>
      <trkpt lat="48.86644" lon="2.37184">
        <ele>94.8</ele>
        <time>2015-04-06T19:25:58.825Z</time>
      </trkpt>
      <trkpt lat="48.86642" lon="2.3719">
        <ele>94.6</ele>
        <time>2015-04-06T19:25:59.834Z</time>
      </trkpt>
      <trkpt lat="48.86646" lon="2.37201">
        <ele>94.3</ele>
        <time>2015-04-06T19:26:07.863Z</time>
      </trkpt>
      <trkpt lat="48.86647" lon="2.37204">
        <ele>94.5</ele>
        <time>2015-04-06T19:26:08.881Z</time>
      </trkpt>
      <trkpt lat="48.86652" lon="2.37211">
        <ele>95.2</ele>
        <time>2015-04-06T19:26:11.816Z</time>
      </trkpt>
      <trkpt lat="48.86654" lon="2.37213">
        <ele>95.2</ele>
        <time>2015-04-06T19:26:12.831Z</time>
      </trkpt>
      <trkpt lat="48.86659" lon="2.37221">
        <ele>95.5</ele>
        <time>2015-04-06T19:26:14.853Z</time>
      </trkpt>
      <trkpt lat="48.86662" lon="2.37228">
        <ele>95.7</ele>
        <time>2015-04-06T19:26:15.861Z</time>
      </trkpt>
      <trkpt lat="48.86664" lon="2.37234">
        <ele>96.1</ele>
        <time>2015-04-06T19:26:16.764Z</time>
      </trkpt>
      <trkpt lat="48.86665" lon="2.37241">
        <ele>96.5</ele>
        <time>2015-04-06T19:26:17.792Z</time>
      </trkpt>
      <trkpt lat="48.86668" lon="2.37253">
        <ele>97.1</ele>
        <time>2015-04-06T19:26:19.869Z</time>
      </trkpt>
      <trkpt lat="48.86668" lon="2.37261">
        <ele>97.1</ele>
        <time>2015-04-06T19:26:20.830Z</time>
      </trkpt>
      <trkpt lat="48.86668" lon="2.37269">
        <ele>97.2</ele>
        <time>2015-04-06T19:26:21.857Z</time>
      </trkpt>
      <trkpt lat="48.8667" lon="2.37275">
        <ele>97.2</ele>
        <time>2015-04-06T19:26:22.865Z</time>
      </trkpt>
      <trkpt lat="48.86673" lon="2.37285">
        <ele>97.4</ele>
        <time>2015-04-06T19:26:24.782Z</time>
      </trkpt>
      <trkpt lat="48.86675" lon="2.37289">
        <ele>97.6</ele>
        <time>2015-04-06T19:26:25.857Z</time>
      </trkpt>
      <trkpt lat="48.86678" lon="2.37296">
        <ele>97.8</ele>
        <time>2015-04-06T19:26:27.812Z</time>
      </trkpt>
      <trkpt lat="48.86679" lon="2.37302">
        <ele>97.9</ele>
        <time>2015-04-06T19:26:28.823Z</time>
      </trkpt>
      <trkpt lat="48.86685" lon="2.37311">
        <ele>97.9</ele>
        <time>2015-04-06T19:26:31.873Z</time>
      </trkpt>
      <trkpt lat="48.86685" lon="2.37315">
        <ele>98.2</ele>
        <time>2015-04-06T19:26:32.817Z</time>
      </trkpt>
      <trkpt lat="48.86684" lon="2.37328">
        <ele>98.9</ele>
        <time>2015-04-06T19:26:36.850Z</time>
      </trkpt>
      <trkpt lat="48.86684" lon="2.37329">
        <ele>99</ele>
        <time>2015-04-06T19:26:37.881Z</time>
      </trkpt>
      <trkpt lat="48.86684" lon="2.3733">
        <ele>99.2</ele>
        <time>2015-04-06T19:26:52.878Z</time>
      </trkpt>
      <trkpt lat="48.86684" lon="2.37345">
        <ele>102</ele>
        <time>2015-04-06T19:26:53.791Z</time>
      </trkpt>
      <trkpt lat="48.86677" lon="2.37349">
        <ele>102.9</ele>
        <time>2015-04-06T19:26:55.859Z</time>
      </trkpt>
      <trkpt lat="48.86674" lon="2.37351">
        <ele>103.5</ele>
        <time>2015-04-06T19:26:56.860Z</time>
      </trkpt>
      <trkpt lat="48.86669" lon="2.37359">
        <ele>104.3</ele>
        <time>2015-04-06T19:26:58.804Z</time>
      </trkpt>
      <trkpt lat="48.86669" lon="2.37364">
        <ele>104.9</ele>
        <time>2015-04-06T19:26:59.834Z</time>
      </trkpt>
      <trkpt lat="48.86668" lon="2.37374">
        <ele>104.2</ele>
        <time>2015-04-06T19:27:02.828Z</time>
      </trkpt>
      <trkpt lat="48.86668" lon="2.37379">
        <ele>104</ele>
        <time>2015-04-06T19:27:03.886Z</time>
      </trkpt>
      <trkpt lat="48.8667" lon="2.3739">
        <ele>103.7</ele>
        <time>2015-04-06T19:27:06.821Z</time>
      </trkpt>
      <trkpt lat="48.8667" lon="2.37394">
        <ele>103.8</ele>
        <time>2015-04-06T19:27:07.858Z</time>
      </trkpt>
      <trkpt lat="48.86663" lon="2.374">
        <ele>105.4</ele>
        <time>2015-04-06T19:27:13.885Z</time>
      </trkpt>
      <trkpt lat="48.8666" lon="2.37401">
        <ele>105.7</ele>
        <time>2015-04-06T19:27:14.799Z</time>
      </trkpt>
      <trkpt lat="48.86652" lon="2.37407">
        <ele>106.3</ele>
        <time>2015-04-06T19:27:16.839Z</time>
      </trkpt>
      <trkpt lat="48.86649" lon="2.37409">
        <ele>106.6</ele>
        <time>2015-04-06T19:27:17.852Z</time>
      </trkpt>
      <trkpt lat="48.86643" lon="2.37413">
        <ele>107.1</ele>
        <time>2015-04-06T19:27:19.835Z</time>
      </trkpt>
      <trkpt lat="48.8664" lon="2.37416">
        <ele>106.9</ele>
        <time>2015-04-06T19:27:20.847Z</time>
      </trkpt>
      <trkpt lat="48.86633" lon="2.3742">
        <ele>106.2</ele>
        <time>2015-04-06T19:27:22.808Z</time>
      </trkpt>
      <trkpt lat="48.86629" lon="2.37424">
        <ele>106</ele>
        <time>2015-04-06T19:27:23.818Z</time>
      </trkpt>
      <trkpt lat="48.86621" lon="2.37427">
        <ele>105.4</ele>
        <time>2015-04-06T19:27:25.839Z</time>
      </trkpt>
      <trkpt lat="48.86618" lon="2.3743">
        <ele>105.2</ele>
        <time>2015-04-06T19:27:26.845Z</time>
      </trkpt>
      <trkpt lat="48.86612" lon="2.37435">
        <ele>104.8</ele>
        <time>2015-04-06T19:27:28.875Z</time>
      </trkpt>
      <trkpt lat="48.86608" lon="2.37437">
        <ele>104.7</ele>
        <time>2015-04-06T19:27:29.881Z</time>
      </trkpt>
      <trkpt lat="48.86604" lon="2.3744">
        <ele>104.4</ele>
        <time>2015-04-06T19:27:30.815Z</time>
      </trkpt>
      <trkpt lat="48.866" lon="2.37442">
        <ele>104.3</ele>
        <time>2015-04-06T19:27:31.818Z</time>
      </trkpt>
      <trkpt lat="48.86592" lon="2.37444">
        <ele>104</ele>
        <time>2015-04-06T19:27:32.823Z</time>
      </trkpt>
      <trkpt lat="48.86586" lon="2.37446">
        <ele>103.7</ele>
        <time>2015-04-06T19:27:33.829Z</time>
      </trkpt>
      <trkpt lat="48.86581" lon="2.37449">
        <ele>103.5</ele>
        <time>2015-04-06T19:27:34.847Z</time>
      </trkpt>
      <trkpt lat="48.86575" lon="2.37452">
        <ele>103.3</ele>
        <time>2015-04-06T19:27:35.851Z</time>
      </trkpt>
      <trkpt lat="48.86571" lon="2.37456">
        <ele>103.2</ele>
        <time>2015-04-06T19:27:36.859Z</time>
      </trkpt>
      <trkpt lat="48.86565" lon="2.3746">
        <ele>103</ele>
        <time>2015-04-06T19:27:37.867Z</time>
      </trkpt>
      <trkpt lat="48.86562" lon="2.37464">
        <ele>102.8</ele>
        <time>2015-04-06T19:27:38.769Z</time>
      </trkpt>
      <trkpt lat="48.86557" lon="2.37467">
        <ele>102.7</ele>
        <time>2015-04-06T19:27:39.772Z</time>
      </trkpt>
      <trkpt lat="48.8655" lon="2.37471">
        <ele>102.5</ele>
        <time>2015-04-06T19:27:41.796Z</time>
      </trkpt>
      <trkpt lat="48.86547" lon="2.3747">
        <ele>102.4</ele>
        <time>2015-04-06T19:27:42.814Z</time>
      </trkpt>
      <trkpt lat="48.86544" lon="2.3747">
        <ele>102.3</ele>
        <time>2015-04-06T19:27:43.851Z</time>
      </trkpt>
      <trkpt lat="48.8653" lon="2.37475">
        <ele>101.8</ele>
        <time>2015-04-06T19:27:49.841Z</time>
      </trkpt>
      <trkpt lat="48.86526" lon="2.37484">
        <ele>101.9</ele>
        <time>2015-04-06T19:28:16.807Z</time>
      </trkpt>
      <trkpt lat="48.86523" lon="2.37487">
        <ele>102.6</ele>
        <time>2015-04-06T19:28:17.824Z</time>
      </trkpt>
      <trkpt lat="48.86519" lon="2.37496">
        <ele>104.2</ele>
        <time>2015-04-06T19:28:19.856Z</time>
      </trkpt>
      <trkpt lat="48.86517" lon="2.375">
        <ele>104.9</ele>
        <time>2015-04-06T19:28:20.870Z</time>
      </trkpt>
      <trkpt lat="48.86514" lon="2.37509">
        <ele>105.4</ele>
        <time>2015-04-06T19:28:22.816Z</time>
      </trkpt>
      <trkpt lat="48.86514" lon="2.37515">
        <ele>104.3</ele>
        <time>2015-04-06T19:28:23.839Z</time>
      </trkpt>
      <trkpt lat="48.86514" lon="2.37525">
        <ele>104.9</ele>
        <time>2015-04-06T19:28:25.886Z</time>
      </trkpt>
      <trkpt lat="48.86514" lon="2.3753">
        <ele>104.9</ele>
        <time>2015-04-06T19:28:26.959Z</time>
      </trkpt>
      <trkpt lat="48.86515" lon="2.37543">
        <ele>105.8</ele>
        <time>2015-04-06T19:28:29.846Z</time>
      </trkpt>
      <trkpt lat="48.86516" lon="2.37548">
        <ele>105.9</ele>
        <time>2015-04-06T19:28:30.857Z</time>
      </trkpt>
      <trkpt lat="48.86518" lon="2.37558">
        <ele>105.8</ele>
        <time>2015-04-06T19:28:32.873Z</time>
      </trkpt>
      <trkpt lat="48.86519" lon="2.37562">
        <ele>105.7</ele>
        <time>2015-04-06T19:28:33.883Z</time>
      </trkpt>
      <trkpt lat="48.86523" lon="2.37571">
        <ele>105.2</ele>
        <time>2015-04-06T19:28:35.828Z</time>
      </trkpt>
      <trkpt lat="48.86525" lon="2.37575">
        <ele>104.5</ele>
        <time>2015-04-06T19:28:36.832Z</time>
      </trkpt>
      <trkpt lat="48.86528" lon="2.37585">
        <ele>104</ele>
        <time>2015-04-06T19:28:38.857Z</time>
      </trkpt>
      <trkpt lat="48.8653" lon="2.3759">
        <ele>103.8</ele>
        <time>2015-04-06T19:28:39.868Z</time>
      </trkpt>
      <trkpt lat="48.86533" lon="2.376">
        <ele>103.4</ele>
        <time>2015-04-06T19:28:41.887Z</time>
      </trkpt>
      <trkpt lat="48.86536" lon="2.37605">
        <ele>103.4</ele>
        <time>2015-04-06T19:28:42.818Z</time>
      </trkpt>
      <trkpt lat="48.8654" lon="2.37614">
        <ele>102.8</ele>
        <time>2015-04-06T19:28:44.853Z</time>
      </trkpt>
      <trkpt lat="48.86542" lon="2.37618">
        <ele>102.5</ele>
        <time>2015-04-06T19:28:45.868Z</time>
      </trkpt>
      <trkpt lat="48.86545" lon="2.37628">
        <ele>101.8</ele>
        <time>2015-04-06T19:28:47.801Z</time>
      </trkpt>
      <trkpt lat="48.86547" lon="2.37633">
        <ele>101.4</ele>
        <time>2015-04-06T19:28:48.830Z</time>
      </trkpt>
      <trkpt lat="48.8655" lon="2.37642">
        <ele>100.7</ele>
        <time>2015-04-06T19:28:50.867Z</time>
      </trkpt>
      <trkpt lat="48.86552" lon="2.37647">
        <ele>100.4</ele>
        <time>2015-04-06T19:28:51.895Z</time>
      </trkpt>
      <trkpt lat="48.86557" lon="2.37658">
        <ele>99.8</ele>
        <time>2015-04-06T19:28:53.807Z</time>
      </trkpt>
      <trkpt lat="48.86558" lon="2.37663">
        <ele>99.7</ele>
        <time>2015-04-06T19:28:54.822Z</time>
      </trkpt>
      <trkpt lat="48.8656" lon="2.37674">
        <ele>99.4</ele>
        <time>2015-04-06T19:28:56.796Z</time>
      </trkpt>
      <trkpt lat="48.86563" lon="2.37679">
        <ele>99.2</ele>
        <time>2015-04-06T19:28:57.827Z</time>
      </trkpt>
      <trkpt lat="48.86567" lon="2.37689">
        <ele>99</ele>
        <time>2015-04-06T19:28:59.805Z</time>
      </trkpt>
      <trkpt lat="48.86568" lon="2.37695">
        <ele>99</ele>
        <time>2015-04-06T19:29:00.783Z</time>
      </trkpt>
      <trkpt lat="48.86571" lon="2.37704">
        <ele>98.8</ele>
        <time>2015-04-06T19:29:02.819Z</time>
      </trkpt>
      <trkpt lat="48.86573" lon="2.37709">
        <ele>98.7</ele>
        <time>2015-04-06T19:29:03.834Z</time>
      </trkpt>
      <trkpt lat="48.86573" lon="2.3772">
        <ele>98.5</ele>
        <time>2015-04-06T19:29:05.880Z</time>
      </trkpt>
      <trkpt lat="48.86571" lon="2.37727">
        <ele>98.8</ele>
        <time>2015-04-06T19:29:06.814Z</time>
      </trkpt>
      <trkpt lat="48.86574" lon="2.37737">
        <ele>98.3</ele>
        <time>2015-04-06T19:29:08.862Z</time>
      </trkpt>
      <trkpt lat="48.86574" lon="2.37742">
        <ele>98.2</ele>
        <time>2015-04-06T19:29:09.880Z</time>
      </trkpt>
      <trkpt lat="48.86578" lon="2.37753">
        <ele>99</ele>
        <time>2015-04-06T19:29:11.832Z</time>
      </trkpt>
      <trkpt lat="48.86579" lon="2.37759">
        <ele>99.3</ele>
        <time>2015-04-06T19:29:12.835Z</time>
      </trkpt>
      <trkpt lat="48.86582" lon="2.37767">
        <ele>99.2</ele>
        <time>2015-04-06T19:29:14.907Z</time>
      </trkpt>
      <trkpt lat="48.86585" lon="2.37772">
        <ele>99.2</ele>
        <time>2015-04-06T19:29:15.871Z</time>
      </trkpt>
      <trkpt lat="48.86588" lon="2.37777">
        <ele>99.2</ele>
        <time>2015-04-06T19:29:16.824Z</time>
      </trkpt>
      <trkpt lat="48.8659" lon="2.37785">
        <ele>99.3</ele>
        <time>2015-04-06T19:29:17.825Z</time>
      </trkpt>
      <trkpt lat="48.86592" lon="2.37797">
        <ele>99.1</ele>
        <time>2015-04-06T19:29:19.951Z</time>
      </trkpt>
      <trkpt lat="48.86593" lon="2.37802">
        <ele>99.2</ele>
        <time>2015-04-06T19:29:20.818Z</time>
      </trkpt>
      <trkpt lat="48.86599" lon="2.37812">
        <ele>98.8</ele>
        <time>2015-04-06T19:29:22.818Z</time>
      </trkpt>
      <trkpt lat="48.866" lon="2.37817">
        <ele>99.1</ele>
        <time>2015-04-06T19:29:23.816Z</time>
      </trkpt>
      <trkpt lat="48.86601" lon="2.37829">
        <ele>99.6</ele>
        <time>2015-04-06T19:29:25.847Z</time>
      </trkpt>
      <trkpt lat="48.86602" lon="2.37835">
        <ele>99.6</ele>
        <time>2015-04-06T19:29:26.864Z</time>
      </trkpt>
      <trkpt lat="48.86606" lon="2.37848">
        <ele>99.4</ele>
        <time>2015-04-06T19:29:28.800Z</time>
      </trkpt>
      <trkpt lat="48.86608" lon="2.37853">
        <ele>98.9</ele>
        <time>2015-04-06T19:29:29.822Z</time>
      </trkpt>
      <trkpt lat="48.8661" lon="2.37866">
        <ele>99</ele>
        <time>2015-04-06T19:29:31.871Z</time>
      </trkpt>
      <trkpt lat="48.86611" lon="2.37873">
        <ele>98.9</ele>
        <time>2015-04-06T19:29:32.883Z</time>
      </trkpt>
      <trkpt lat="48.86613" lon="2.37879">
        <ele>98.8</ele>
        <time>2015-04-06T19:29:33.781Z</time>
      </trkpt>
      <trkpt lat="48.86615" lon="2.37886">
        <ele>98.6</ele>
        <time>2015-04-06T19:29:34.804Z</time>
      </trkpt>
      <trkpt lat="48.86616" lon="2.37893">
        <ele>98.6</ele>
        <time>2015-04-06T19:29:35.828Z</time>
      </trkpt>
      <trkpt lat="48.86617" lon="2.379">
        <ele>98.7</ele>
        <time>2015-04-06T19:29:36.836Z</time>
      </trkpt>
      <trkpt lat="48.86618" lon="2.37907">
        <ele>99</ele>
        <time>2015-04-06T19:29:37.846Z</time>
      </trkpt>
      <trkpt lat="48.8662" lon="2.37913">
        <ele>98.8</ele>
        <time>2015-04-06T19:29:38.852Z</time>
      </trkpt>
      <trkpt lat="48.86622" lon="2.37924">
        <ele>98.1</ele>
        <time>2015-04-06T19:29:40.773Z</time>
      </trkpt>
      <trkpt lat="48.86623" lon="2.37931">
        <ele>98.2</ele>
        <time>2015-04-06T19:29:41.802Z</time>
      </trkpt>
      <trkpt lat="48.86625" lon="2.37944">
        <ele>98.1</ele>
        <time>2015-04-06T19:29:43.841Z</time>
      </trkpt>
      <trkpt lat="48.86626" lon="2.37951">
        <ele>98.1</ele>
        <time>2015-04-06T19:29:44.872Z</time>
      </trkpt>
      <trkpt lat="48.86628" lon="2.37957">
        <ele>98.1</ele>
        <time>2015-04-06T19:29:45.803Z</time>
      </trkpt>
      <trkpt lat="48.86631" lon="2.37963">
        <ele>97.8</ele>
        <time>2015-04-06T19:29:46.774Z</time>
      </trkpt>
      <trkpt lat="48.86633" lon="2.37969">
        <ele>97.4</ele>
        <time>2015-04-06T19:29:47.794Z</time>
      </trkpt>
      <trkpt lat="48.86635" lon="2.37975">
        <ele>97.2</ele>
        <time>2015-04-06T19:29:48.795Z</time>
      </trkpt>
      <trkpt lat="48.86639" lon="2.37986">
        <ele>96.9</ele>
        <time>2015-04-06T19:29:50.840Z</time>
      </trkpt>
      <trkpt lat="48.86641" lon="2.37992">
        <ele>96.5</ele>
        <time>2015-04-06T19:29:51.794Z</time>
      </trkpt>
      <trkpt lat="48.86645" lon="2.38003">
        <ele>96</ele>
        <time>2015-04-06T19:29:53.826Z</time>
      </trkpt>
      <trkpt lat="48.86647" lon="2.38009">
        <ele>96</ele>
        <time>2015-04-06T19:29:54.854Z</time>
      </trkpt>
      <trkpt lat="48.86647" lon="2.38017">
        <ele>96.3</ele>
        <time>2015-04-06T19:29:55.873Z</time>
      </trkpt>
      <trkpt lat="48.86647" lon="2.38025">
        <ele>96.7</ele>
        <time>2015-04-06T19:29:56.777Z</time>
      </trkpt>
      <trkpt lat="48.86649" lon="2.38032">
        <ele>97</ele>
        <time>2015-04-06T19:29:57.772Z</time>
      </trkpt>
      <trkpt lat="48.86651" lon="2.38038">
        <ele>96.9</ele>
        <time>2015-04-06T19:29:58.781Z</time>
      </trkpt>
      <trkpt lat="48.86654" lon="2.38049">
        <ele>96.2</ele>
        <time>2015-04-06T19:30:00.830Z</time>
      </trkpt>
      <trkpt lat="48.86655" lon="2.38055">
        <ele>96</ele>
        <time>2015-04-06T19:30:01.860Z</time>
      </trkpt>
      <trkpt lat="48.86657" lon="2.38067">
        <ele>95.6</ele>
        <time>2015-04-06T19:30:03.783Z</time>
      </trkpt>
      <trkpt lat="48.8666" lon="2.38073">
        <ele>96</ele>
        <time>2015-04-06T19:30:04.799Z</time>
      </trkpt>
      <trkpt lat="48.86665" lon="2.38083">
        <ele>95.7</ele>
        <time>2015-04-06T19:30:06.786Z</time>
      </trkpt>
      <trkpt lat="48.86668" lon="2.38089">
        <ele>95.7</ele>
        <time>2015-04-06T19:30:07.835Z</time>
      </trkpt>
      <trkpt lat="48.86669" lon="2.38095">
        <ele>96</ele>
        <time>2015-04-06T19:30:08.850Z</time>
      </trkpt>
      <trkpt lat="48.86669" lon="2.38102">
        <ele>96.3</ele>
        <time>2015-04-06T19:30:09.867Z</time>
      </trkpt>
      <trkpt lat="48.86671" lon="2.38109">
        <ele>96.4</ele>
        <time>2015-04-06T19:30:10.778Z</time>
      </trkpt>
      <trkpt lat="48.86673" lon="2.38115">
        <ele>96</ele>
        <time>2015-04-06T19:30:11.795Z</time>
      </trkpt>
      <trkpt lat="48.86675" lon="2.38127">
        <ele>95.8</ele>
        <time>2015-04-06T19:30:13.835Z</time>
      </trkpt>
      <trkpt lat="48.86677" lon="2.38133">
        <ele>96</ele>
        <time>2015-04-06T19:30:14.889Z</time>
      </trkpt>
      <trkpt lat="48.8668" lon="2.38146">
        <ele>96.3</ele>
        <time>2015-04-06T19:30:16.781Z</time>
      </trkpt>
      <trkpt lat="48.8668" lon="2.38153">
        <ele>97.2</ele>
        <time>2015-04-06T19:30:17.798Z</time>
      </trkpt>
      <trkpt lat="48.86682" lon="2.3816">
        <ele>97.7</ele>
        <time>2015-04-06T19:30:18.820Z</time>
      </trkpt>
      <trkpt lat="48.86683" lon="2.38166">
        <ele>98.2</ele>
        <time>2015-04-06T19:30:19.828Z</time>
      </trkpt>
      <trkpt lat="48.86685" lon="2.38177">
        <ele>98.3</ele>
        <time>2015-04-06T19:30:21.845Z</time>
      </trkpt>
      <trkpt lat="48.86686" lon="2.38183">
        <ele>98.3</ele>
        <time>2015-04-06T19:30:22.859Z</time>
      </trkpt>
      <trkpt lat="48.86688" lon="2.38194">
        <ele>98.3</ele>
        <time>2015-04-06T19:30:24.783Z</time>
      </trkpt>
      <trkpt lat="48.86689" lon="2.38199">
        <ele>98.2</ele>
        <time>2015-04-06T19:30:25.878Z</time>
      </trkpt>
      <trkpt lat="48.86692" lon="2.38208">
        <ele>98.1</ele>
        <time>2015-04-06T19:30:27.802Z</time>
      </trkpt>
      <trkpt lat="48.86694" lon="2.38213">
        <ele>98.6</ele>
        <time>2015-04-06T19:30:28.812Z</time>
      </trkpt>
      <trkpt lat="48.86698" lon="2.38223">
        <ele>99.1</ele>
        <time>2015-04-06T19:30:30.852Z</time>
      </trkpt>
      <trkpt lat="48.86699" lon="2.38228">
        <ele>99.3</ele>
        <time>2015-04-06T19:30:31.863Z</time>
      </trkpt>
      <trkpt lat="48.86701" lon="2.38239">
        <ele>100.1</ele>
        <time>2015-04-06T19:30:33.802Z</time>
      </trkpt>
      <trkpt lat="48.86702" lon="2.38244">
        <ele>100.8</ele>
        <time>2015-04-06T19:30:34.807Z</time>
      </trkpt>
      <trkpt lat="48.86706" lon="2.38253">
        <ele>101.6</ele>
        <time>2015-04-06T19:30:36.835Z</time>
      </trkpt>
      <trkpt lat="48.86708" lon="2.38256">
        <ele>101.6</ele>
        <time>2015-04-06T19:30:37.939Z</time>
      </trkpt>
      <trkpt lat="48.8671" lon="2.38268">
        <ele>102.4</ele>
        <time>2015-04-06T19:30:40.826Z</time>
      </trkpt>
      <trkpt lat="48.86711" lon="2.38272">
        <ele>102.7</ele>
        <time>2015-04-06T19:30:41.847Z</time>
      </trkpt>
      <trkpt lat="48.86709" lon="2.38283">
        <ele>103.6</ele>
        <time>2015-04-06T19:31:33.822Z</time>
      </trkpt>
      <trkpt lat="48.86744" lon="2.38286">
        <ele>108.4</ele>
        <time>2015-04-06T19:31:34.839Z</time>
      </trkpt>
      <trkpt lat="48.86749" lon="2.38281">
        <ele>107.4</ele>
        <time>2015-04-06T19:31:36.800Z</time>
      </trkpt>
      <trkpt lat="48.86752" lon="2.38279">
        <ele>107.1</ele>
        <time>2015-04-06T19:31:37.914Z</time>
      </trkpt>
      <trkpt lat="48.86754" lon="2.38269">
        <ele>107.9</ele>
        <time>2015-04-06T19:31:40.814Z</time>
      </trkpt>
      <trkpt lat="48.86755" lon="2.38265">
        <ele>108.4</ele>
        <time>2015-04-06T19:31:41.836Z</time>
      </trkpt>
      <trkpt lat="48.86759" lon="2.38254">
        <ele>109.3</ele>
        <time>2015-04-06T19:31:45.826Z</time>
      </trkpt>
      <trkpt lat="48.86761" lon="2.38253">
        <ele>109.3</ele>
        <time>2015-04-06T19:31:46.830Z</time>
      </trkpt>
      <trkpt lat="48.86766" lon="2.38243">
        <ele>108.8</ele>
        <time>2015-04-06T19:31:51.801Z</time>
      </trkpt>
      <trkpt lat="48.86769" lon="2.38241">
        <ele>108.7</ele>
        <time>2015-04-06T19:31:52.819Z</time>
      </trkpt>
      <trkpt lat="48.86775" lon="2.38236">
        <ele>108.8</ele>
        <time>2015-04-06T19:31:54.862Z</time>
      </trkpt>
      <trkpt lat="48.86778" lon="2.38232">
        <ele>108.9</ele>
        <time>2015-04-06T19:31:55.877Z</time>
      </trkpt>
      <trkpt lat="48.86784" lon="2.38225">
        <ele>109.4</ele>
        <time>2015-04-06T19:31:57.808Z</time>
      </trkpt>
      <trkpt lat="48.86787" lon="2.3822">
        <ele>109.7</ele>
        <time>2015-04-06T19:31:58.847Z</time>
      </trkpt>
      <trkpt lat="48.86791" lon="2.38213">
        <ele>110</ele>
        <time>2015-04-06T19:32:00.800Z</time>
      </trkpt>
      <trkpt lat="48.86795" lon="2.38209">
        <ele>110.1</ele>
        <time>2015-04-06T19:32:01.900Z</time>
      </trkpt>
      <trkpt lat="48.86801" lon="2.382">
        <ele>109.9</ele>
        <time>2015-04-06T19:32:03.821Z</time>
      </trkpt>
      <trkpt lat="48.86804" lon="2.38197">
        <ele>110</ele>
        <time>2015-04-06T19:32:04.848Z</time>
      </trkpt>
      <trkpt lat="48.8681" lon="2.38189">
        <ele>109.6</ele>
        <time>2015-04-06T19:32:06.793Z</time>
      </trkpt>
      <trkpt lat="48.86814" lon="2.38186">
        <ele>109.4</ele>
        <time>2015-04-06T19:32:07.898Z</time>
      </trkpt>
      <trkpt lat="48.86818" lon="2.38182">
        <ele>109.1</ele>
        <time>2015-04-06T19:32:08.789Z</time>
      </trkpt>
      <trkpt lat="48.86822" lon="2.3818">
        <ele>109.2</ele>
        <time>2015-04-06T19:32:09.821Z</time>
      </trkpt>
      <trkpt lat="48.86828" lon="2.38172">
        <ele>109.5</ele>
        <time>2015-04-06T19:32:11.866Z</time>
      </trkpt>
      <trkpt lat="48.86831" lon="2.38168">
        <ele>109.9</ele>
        <time>2015-04-06T19:32:12.876Z</time>
      </trkpt>
      <trkpt lat="48.86833" lon="2.38162">
        <ele>110</ele>
        <time>2015-04-06T19:32:13.898Z</time>
      </trkpt>
      <trkpt lat="48.86839" lon="2.38158">
        <ele>108.5</ele>
        <time>2015-04-06T19:32:14.866Z</time>
      </trkpt>
      <trkpt lat="48.86844" lon="2.38151">
        <ele>107.3</ele>
        <time>2015-04-06T19:32:15.801Z</time>
      </trkpt>
      <trkpt lat="48.86848" lon="2.38147">
        <ele>107.5</ele>
        <time>2015-04-06T19:32:16.795Z</time>
      </trkpt>
      <trkpt lat="48.86854" lon="2.38137">
        <ele>108.1</ele>
        <time>2015-04-06T19:32:18.742Z</time>
      </trkpt>
      <trkpt lat="48.86857" lon="2.38131">
        <ele>108.5</ele>
        <time>2015-04-06T19:32:19.836Z</time>
      </trkpt>
      <trkpt lat="48.8686" lon="2.38124">
        <ele>108.8</ele>
        <time>2015-04-06T19:32:20.849Z</time>
      </trkpt>
      <trkpt lat="48.86866" lon="2.38117">
        <ele>107.7</ele>
        <time>2015-04-06T19:32:21.909Z</time>
      </trkpt>
      <trkpt lat="48.86871" lon="2.3811">
        <ele>107.2</ele>
        <time>2015-04-06T19:32:22.815Z</time>
      </trkpt>
      <trkpt lat="48.86874" lon="2.38105">
        <ele>107.4</ele>
        <time>2015-04-06T19:32:23.834Z</time>
      </trkpt>
      <trkpt lat="48.86879" lon="2.38096">
        <ele>108.1</ele>
        <time>2015-04-06T19:32:25.857Z</time>
      </trkpt>
      <trkpt lat="48.86882" lon="2.38092">
        <ele>108.5</ele>
        <time>2015-04-06T19:32:26.869Z</time>
      </trkpt>
      <trkpt lat="48.86886" lon="2.38084">
        <ele>109.9</ele>
        <time>2015-04-06T19:32:28.901Z</time>
      </trkpt>
      <trkpt lat="48.86891" lon="2.38078">
        <ele>108.9</ele>
        <time>2015-04-06T19:32:29.821Z</time>
      </trkpt>
      <trkpt lat="48.86896" lon="2.38074">
        <ele>107.9</ele>
        <time>2015-04-06T19:32:30.819Z</time>
      </trkpt>
      <trkpt lat="48.86901" lon="2.38068">
        <ele>107.4</ele>
        <time>2015-04-06T19:32:31.906Z</time>
      </trkpt>
      <trkpt lat="48.86908" lon="2.3806">
        <ele>106.6</ele>
        <time>2015-04-06T19:32:33.831Z</time>
      </trkpt>
      <trkpt lat="48.86911" lon="2.38056">
        <ele>106.6</ele>
        <time>2015-04-06T19:32:34.851Z</time>
      </trkpt>
      <trkpt lat="48.86915" lon="2.38052">
        <ele>106.5</ele>
        <time>2015-04-06T19:32:35.760Z</time>
      </trkpt>
      <trkpt lat="48.86919" lon="2.38049">
        <ele>105.9</ele>
        <time>2015-04-06T19:32:36.792Z</time>
      </trkpt>
      <trkpt lat="48.86923" lon="2.38045">
        <ele>105.3</ele>
        <time>2015-04-06T19:32:37.839Z</time>
      </trkpt>
      <trkpt lat="48.86927" lon="2.38041">
        <ele>105.2</ele>
        <time>2015-04-06T19:32:38.827Z</time>
      </trkpt>
      <trkpt lat="48.86932" lon="2.38038">
        <ele>104.8</ele>
        <time>2015-04-06T19:32:39.839Z</time>
      </trkpt>
      <trkpt lat="48.86936" lon="2.38034">
        <ele>104.4</ele>
        <time>2015-04-06T19:32:40.841Z</time>
      </trkpt>
      <trkpt lat="48.86939" lon="2.3803">
        <ele>104.1</ele>
        <time>2015-04-06T19:32:42.389Z</time>
      </trkpt>
      <trkpt lat="48.86944" lon="2.38025">
        <ele>104.1</ele>
        <time>2015-04-06T19:32:42.859Z</time>
      </trkpt>
      <trkpt lat="48.86948" lon="2.38021">
        <ele>104.2</ele>
        <time>2015-04-06T19:32:43.866Z</time>
      </trkpt>
      <trkpt lat="48.86952" lon="2.38016">
        <ele>104.5</ele>
        <time>2015-04-06T19:32:44.874Z</time>
      </trkpt>
      <trkpt lat="48.86956" lon="2.3801">
        <ele>104.2</ele>
        <time>2015-04-06T19:32:45.801Z</time>
      </trkpt>
      <trkpt lat="48.8696" lon="2.38003">
        <ele>104.1</ele>
        <time>2015-04-06T19:32:46.813Z</time>
      </trkpt>
      <trkpt lat="48.86964" lon="2.37997">
        <ele>104.4</ele>
        <time>2015-04-06T19:32:47.836Z</time>
      </trkpt>
      <trkpt lat="48.86968" lon="2.37991">
        <ele>104.5</ele>
        <time>2015-04-06T19:32:48.872Z</time>
      </trkpt>
      <trkpt lat="48.86972" lon="2.37985">
        <ele>104.3</ele>
        <time>2015-04-06T19:32:49.915Z</time>
      </trkpt>
      <trkpt lat="48.86976" lon="2.3798">
        <ele>104.2</ele>
        <time>2015-04-06T19:32:50.822Z</time>
      </trkpt>
      <trkpt lat="48.8698" lon="2.37976">
        <ele>104.3</ele>
        <time>2015-04-06T19:32:51.827Z</time>
      </trkpt>
      <trkpt lat="48.86984" lon="2.3797">
        <ele>104.2</ele>
        <time>2015-04-06T19:32:52.839Z</time>
      </trkpt>
      <trkpt lat="48.86988" lon="2.37965">
        <ele>104.3</ele>
        <time>2015-04-06T19:32:53.848Z</time>
      </trkpt>
      <trkpt lat="48.86992" lon="2.3796">
        <ele>104.2</ele>
        <time>2015-04-06T19:32:54.863Z</time>
      </trkpt>
      <trkpt lat="48.86996" lon="2.37955">
        <ele>104.2</ele>
        <time>2015-04-06T19:32:55.866Z</time>
      </trkpt>
      <trkpt lat="48.87" lon="2.37951">
        <ele>104</ele>
        <time>2015-04-06T19:32:56.876Z</time>
      </trkpt>
      <trkpt lat="48.87006" lon="2.37943">
        <ele>103.8</ele>
        <time>2015-04-06T19:32:58.853Z</time>
      </trkpt>
      <trkpt lat="48.8701" lon="2.37942">
        <ele>104.1</ele>
        <time>2015-04-06T19:32:59.871Z</time>
      </trkpt>
      <trkpt lat="48.87015" lon="2.37949">
        <ele>104.7</ele>
        <time>2015-04-06T19:33:01.875Z</time>
      </trkpt>
      <trkpt lat="48.87016" lon="2.37953">
        <ele>105.2</ele>
        <time>2015-04-06T19:33:02.788Z</time>
      </trkpt>
      <trkpt lat="48.87021" lon="2.37964">
        <ele>106.7</ele>
        <time>2015-04-06T19:33:06.820Z</time>
      </trkpt>
      <trkpt lat="48.87022" lon="2.37964">
        <ele>106.7</ele>
        <time>2015-04-06T19:33:07.863Z</time>
      </trkpt>
      <trkpt lat="48.87022" lon="2.37964">
        <ele>106.7</ele>
        <time>2015-04-06T19:33:26.812Z</time>
      </trkpt>
      <trkpt lat="48.87017" lon="2.37943">
        <ele>114.6</ele>
        <time>2015-04-06T19:33:27.829Z</time>
      </trkpt>
      <trkpt lat="48.87012" lon="2.37934">
        <ele>115.9</ele>
        <time>2015-04-06T19:33:31.856Z</time>
      </trkpt>
      <trkpt lat="48.87012" lon="2.3793">
        <ele>116.4</ele>
        <time>2015-04-06T19:33:32.858Z</time>
      </trkpt>
      <trkpt lat="48.87012" lon="2.37918">
        <ele>117.3</ele>
        <time>2015-04-06T19:33:36.830Z</time>
      </trkpt>
      <trkpt lat="48.87013" lon="2.37915">
        <ele>117.6</ele>
        <time>2015-04-06T19:33:37.854Z</time>
      </trkpt>
      <trkpt lat="48.87017" lon="2.37911">
        <ele>114.8</ele>
        <time>2015-04-06T19:33:38.788Z</time>
      </trkpt>
      <trkpt lat="48.87021" lon="2.37908">
        <ele>112.9</ele>
        <time>2015-04-06T19:33:39.796Z</time>
      </trkpt>
      <trkpt lat="48.87027" lon="2.37901">
        <ele>110.6</ele>
        <time>2015-04-06T19:33:41.842Z</time>
      </trkpt>
      <trkpt lat="48.87031" lon="2.37896">
        <ele>109.6</ele>
        <time>2015-04-06T19:33:42.860Z</time>
      </trkpt>
      <trkpt lat="48.87037" lon="2.3789">
        <ele>108.3</ele>
        <time>2015-04-06T19:33:44.784Z</time>
      </trkpt>
      <trkpt lat="48.8704" lon="2.37887">
        <ele>108.6</ele>
        <time>2015-04-06T19:33:45.811Z</time>
      </trkpt>
      <trkpt lat="48.87047" lon="2.37879">
        <ele>109.5</ele>
        <time>2015-04-06T19:33:48.844Z</time>
      </trkpt>
      <trkpt lat="48.87049" lon="2.37877">
        <ele>109.7</ele>
        <time>2015-04-06T19:33:49.895Z</time>
      </trkpt>
      <trkpt lat="48.87055" lon="2.37871">
        <ele>109.9</ele>
        <time>2015-04-06T19:33:52.821Z</time>
      </trkpt>
      <trkpt lat="48.87057" lon="2.37868">
        <ele>110.1</ele>
        <time>2015-04-06T19:33:53.832Z</time>
      </trkpt>
      <trkpt lat="48.87062" lon="2.37858">
        <ele>109.8</ele>
        <time>2015-04-06T19:33:56.884Z</time>
      </trkpt>
      <trkpt lat="48.87065" lon="2.37855">
        <ele>109.9</ele>
        <time>2015-04-06T19:33:57.807Z</time>
      </trkpt>
      <trkpt lat="48.8707" lon="2.37848">
        <ele>110.4</ele>
        <time>2015-04-06T19:34:00.842Z</time>
      </trkpt>
      <trkpt lat="48.87072" lon="2.37847">
        <ele>110.7</ele>
        <time>2015-04-06T19:34:01.851Z</time>
      </trkpt>
      <trkpt lat="48.87076" lon="2.37852">
        <ele>111.8</ele>
        <time>2015-04-06T19:34:17.834Z</time>
      </trkpt>
      <trkpt lat="48.87088" lon="2.37872">
        <ele>114.2</ele>
        <time>2015-04-06T19:34:18.861Z</time>
      </trkpt>
      <trkpt lat="48.87091" lon="2.37883">
        <ele>112.1</ele>
        <time>2015-04-06T19:34:20.786Z</time>
      </trkpt>
      <trkpt lat="48.87092" lon="2.37887">
        <ele>111.9</ele>
        <time>2015-04-06T19:34:21.822Z</time>
      </trkpt>
      <trkpt lat="48.87098" lon="2.37897">
        <ele>110.5</ele>
        <time>2015-04-06T19:34:25.885Z</time>
      </trkpt>
      <trkpt lat="48.87099" lon="2.37897">
        <ele>110.3</ele>
        <time>2015-04-06T19:34:26.793Z</time>
      </trkpt>
      <trkpt lat="48.87106" lon="2.37891">
        <ele>109.4</ele>
        <time>2015-04-06T19:34:31.847Z</time>
      </trkpt>
      <trkpt lat="48.87109" lon="2.37889">
        <ele>109.4</ele>
        <time>2015-04-06T19:34:32.862Z</time>
      </trkpt>
      <trkpt lat="48.87117" lon="2.37883">
        <ele>109.3</ele>
        <time>2015-04-06T19:34:35.810Z</time>
      </trkpt>
      <trkpt lat="48.87119" lon="2.37881">
        <ele>109.3</ele>
        <time>2015-04-06T19:34:36.830Z</time>
      </trkpt>
      <trkpt lat="48.87126" lon="2.37877">
        <ele>109.2</ele>
        <time>2015-04-06T19:34:40.835Z</time>
      </trkpt>
      <trkpt lat="48.87129" lon="2.37874">
        <ele>109.4</ele>
        <time>2015-04-06T19:34:41.855Z</time>
      </trkpt>
      <trkpt lat="48.87136" lon="2.37868">
        <ele>109.7</ele>
        <time>2015-04-06T19:34:46.848Z</time>
      </trkpt>
      <trkpt lat="48.87138" lon="2.37867">
        <ele>109.7</ele>
        <time>2015-04-06T19:34:47.874Z</time>
      </trkpt>
      <trkpt lat="48.87145" lon="2.37862">
        <ele>110</ele>
        <time>2015-04-06T19:34:51.789Z</time>
      </trkpt>
      <trkpt lat="48.87147" lon="2.3786">
        <ele>110</ele>
        <time>2015-04-06T19:34:52.778Z</time>
      </trkpt>
      <trkpt lat="48.87155" lon="2.37857">
        <ele>110</ele>
        <time>2015-04-06T19:34:55.821Z</time>
      </trkpt>
      <trkpt lat="48.87157" lon="2.37855">
        <ele>110</ele>
        <time>2015-04-06T19:34:56.839Z</time>
      </trkpt>
      <trkpt lat="48.87165" lon="2.37852">
        <ele>110.1</ele>
        <time>2015-04-06T19:35:00.808Z</time>
      </trkpt>
      <trkpt lat="48.87166" lon="2.3785">
        <ele>110</ele>
        <time>2015-04-06T19:35:01.846Z</time>
      </trkpt>
      <trkpt lat="48.87174" lon="2.37854">
        <ele>109.9</ele>
        <time>2015-04-06T19:35:12.806Z</time>
      </trkpt>
      <trkpt lat="48.87176" lon="2.37844">
        <ele>110</ele>
        <time>2015-04-06T19:35:13.828Z</time>
      </trkpt>
      <trkpt lat="48.87178" lon="2.37841">
        <ele>109.9</ele>
        <time>2015-04-06T19:35:37.822Z</time>
      </trkpt>
      <trkpt lat="48.87183" lon="2.37831">
        <ele>110.4</ele>
        <time>2015-04-06T19:35:38.843Z</time>
      </trkpt>
      <trkpt lat="48.87184" lon="2.3783">
        <ele>110.5</ele>
        <time>2015-04-06T19:36:17.768Z</time>
      </trkpt>
      <trkpt lat="48.87204" lon="2.37835">
        <ele>110.4</ele>
        <time>2015-04-06T19:36:18.782Z</time>
      </trkpt>
      <trkpt lat="48.87209" lon="2.37833">
        <ele>110.3</ele>
        <time>2015-04-06T19:36:19.819Z</time>
      </trkpt>
      <trkpt lat="48.87213" lon="2.37831">
        <ele>110.3</ele>
        <time>2015-04-06T19:36:20.828Z</time>
      </trkpt>
      <trkpt lat="48.8722" lon="2.37823">
        <ele>110.3</ele>
        <time>2015-04-06T19:36:24.798Z</time>
      </trkpt>
      <trkpt lat="48.87222" lon="2.37822">
        <ele>110.3</ele>
        <time>2015-04-06T19:36:25.857Z</time>
      </trkpt>
      <trkpt lat="48.87226" lon="2.37823">
        <ele>110.5</ele>
        <time>2015-04-06T19:38:29.868Z</time>
      </trkpt>
      <trkpt lat="48.87247" lon="2.37817">
        <ele>106.1</ele>
        <time>2015-04-06T19:40:36.861Z</time>
      </trkpt>
      <trkpt lat="48.87252" lon="2.37823">
        <ele>105.8</ele>
        <time>2015-04-06T19:40:38.771Z</time>
      </trkpt>
      <trkpt lat="48.87255" lon="2.37826">
        <ele>105.7</ele>
        <time>2015-04-06T19:40:39.791Z</time>
      </trkpt>
      <trkpt lat="48.87258" lon="2.37837">
        <ele>104.7</ele>
        <time>2015-04-06T19:40:41.762Z</time>
      </trkpt>
      <trkpt lat="48.87261" lon="2.37842">
        <ele>104.8</ele>
        <time>2015-04-06T19:40:42.785Z</time>
      </trkpt>
      <trkpt lat="48.87262" lon="2.37851">
        <ele>105.2</ele>
        <time>2015-04-06T19:40:44.755Z</time>
      </trkpt>
      <trkpt lat="48.87262" lon="2.37856">
        <ele>105.3</ele>
        <time>2015-04-06T19:40:45.764Z</time>
      </trkpt>
      <trkpt lat="48.87269" lon="2.37863">
        <ele>104.9</ele>
        <time>2015-04-06T19:40:48.846Z</time>
      </trkpt>
      <trkpt lat="48.87271" lon="2.37866">
        <ele>104.8</ele>
        <time>2015-04-06T19:40:49.875Z</time>
      </trkpt>
      <trkpt lat="48.87275" lon="2.37875">
        <ele>104.7</ele>
        <time>2015-04-06T19:40:52.849Z</time>
      </trkpt>
      <trkpt lat="48.87276" lon="2.37878">
        <ele>104.8</ele>
        <time>2015-04-06T19:40:53.797Z</time>
      </trkpt>
      <trkpt lat="48.8728" lon="2.37887">
        <ele>105</ele>
        <time>2015-04-06T19:40:56.850Z</time>
      </trkpt>
      <trkpt lat="48.87281" lon="2.37891">
        <ele>105.3</ele>
        <time>2015-04-06T19:40:57.850Z</time>
      </trkpt>
      <trkpt lat="48.87282" lon="2.37901">
        <ele>106</ele>
        <time>2015-04-06T19:40:59.771Z</time>
      </trkpt>
      <trkpt lat="48.87284" lon="2.37906">
        <ele>106.2</ele>
        <time>2015-04-06T19:41:00.773Z</time>
      </trkpt>
      <trkpt lat="48.87289" lon="2.37914">
        <ele>106.6</ele>
        <time>2015-04-06T19:41:02.950Z</time>
      </trkpt>
      <trkpt lat="48.87291" lon="2.37919">
        <ele>106.8</ele>
        <time>2015-04-06T19:41:03.851Z</time>
      </trkpt>
      <trkpt lat="48.87293" lon="2.3793">
        <ele>106.9</ele>
        <time>2015-04-06T19:41:05.763Z</time>
      </trkpt>
      <trkpt lat="48.87293" lon="2.37935">
        <ele>107</ele>
        <time>2015-04-06T19:41:06.777Z</time>
      </trkpt>
      <trkpt lat="48.87297" lon="2.37945">
        <ele>107.1</ele>
        <time>2015-04-06T19:41:09.774Z</time>
      </trkpt>
      <trkpt lat="48.87296" lon="2.3795">
        <ele>107.2</ele>
        <time>2015-04-06T19:41:10.789Z</time>
      </trkpt>
      <trkpt lat="48.87295" lon="2.37963">
        <ele>107.4</ele>
        <time>2015-04-06T19:41:13.843Z</time>
      </trkpt>
      <trkpt lat="48.87293" lon="2.37966">
        <ele>107.4</ele>
        <time>2015-04-06T19:41:14.769Z</time>
      </trkpt>
      <trkpt lat="48.87293" lon="2.37966">
        <ele>107.4</ele>
        <time>2015-04-06T19:41:17.865Z</time>
      </trkpt>
      <trkpt lat="48.87296" lon="2.38">
        <ele>111.5</ele>
        <time>2015-04-06T19:41:41.780Z</time>
      </trkpt>
      <trkpt lat="48.87301" lon="2.38007">
        <ele>111.3</ele>
        <time>2015-04-06T19:41:44.857Z</time>
      </trkpt>
      <trkpt lat="48.87302" lon="2.38012">
        <ele>110.9</ele>
        <time>2015-04-06T19:41:45.786Z</time>
      </trkpt>
      <trkpt lat="48.87303" lon="2.38018">
        <ele>110.8</ele>
        <time>2015-04-06T19:41:46.772Z</time>
      </trkpt>
      <trkpt lat="48.87304" lon="2.38026">
        <ele>111</ele>
        <time>2015-04-06T19:41:47.793Z</time>
      </trkpt>
      <trkpt lat="48.87308" lon="2.38038">
        <ele>111.4</ele>
        <time>2015-04-06T19:41:49.812Z</time>
      </trkpt>
      <trkpt lat="48.87309" lon="2.38043">
        <ele>111.5</ele>
        <time>2015-04-06T19:41:50.838Z</time>
      </trkpt>
      <trkpt lat="48.87312" lon="2.38056">
        <ele>111.5</ele>
        <time>2015-04-06T19:41:52.776Z</time>
      </trkpt>
      <trkpt lat="48.87314" lon="2.38061">
        <ele>111.9</ele>
        <time>2015-04-06T19:41:53.841Z</time>
      </trkpt>
      <trkpt lat="48.87316" lon="2.38067">
        <ele>111.9</ele>
        <time>2015-04-06T19:41:54.761Z</time>
      </trkpt>
      <trkpt lat="48.87319" lon="2.38075">
        <ele>111.9</ele>
        <time>2015-04-06T19:41:55.800Z</time>
      </trkpt>
      <trkpt lat="48.87321" lon="2.38081">
        <ele>111.9</ele>
        <time>2015-04-06T19:41:56.795Z</time>
      </trkpt>
      <trkpt lat="48.87322" lon="2.38089">
        <ele>112.3</ele>
        <time>2015-04-06T19:41:57.809Z</time>
      </trkpt>
      <trkpt lat="48.87324" lon="2.38101">
        <ele>112.8</ele>
        <time>2015-04-06T19:41:59.831Z</time>
      </trkpt>
      <trkpt lat="48.87324" lon="2.38109">
        <ele>113.6</ele>
        <time>2015-04-06T19:42:00.846Z</time>
      </trkpt>
      <trkpt lat="48.87326" lon="2.3812">
        <ele>113.5</ele>
        <time>2015-04-06T19:42:02.792Z</time>
      </trkpt>
      <trkpt lat="48.87326" lon="2.38127">
        <ele>113.7</ele>
        <time>2015-04-06T19:42:03.813Z</time>
      </trkpt>
      <trkpt lat="48.87326" lon="2.38134">
        <ele>113.9</ele>
        <time>2015-04-06T19:42:04.855Z</time>
      </trkpt>
      <trkpt lat="48.87328" lon="2.38141">
        <ele>114</ele>
        <time>2015-04-06T19:42:05.744Z</time>
      </trkpt>
      <trkpt lat="48.8733" lon="2.38153">
        <ele>113.9</ele>
        <time>2015-04-06T19:42:07.844Z</time>
      </trkpt>
      <trkpt lat="48.87331" lon="2.3816">
        <ele>114.1</ele>
        <time>2015-04-06T19:42:08.759Z</time>
      </trkpt>
      <trkpt lat="48.87334" lon="2.38171">
        <ele>114</ele>
        <time>2015-04-06T19:42:11.371Z</time>
      </trkpt>
      <trkpt lat="48.87336" lon="2.38176">
        <ele>114.2</ele>
        <time>2015-04-06T19:42:11.810Z</time>
      </trkpt>
      <trkpt lat="48.87342" lon="2.38184">
        <ele>114.6</ele>
        <time>2015-04-06T19:42:13.836Z</time>
      </trkpt>
      <trkpt lat="48.87344" lon="2.38188">
        <ele>114.9</ele>
        <time>2015-04-06T19:42:14.776Z</time>
      </trkpt>
      <trkpt lat="48.87347" lon="2.38198">
        <ele>115.3</ele>
        <time>2015-04-06T19:42:16.774Z</time>
      </trkpt>
      <trkpt lat="48.87348" lon="2.38204">
        <ele>115.5</ele>
        <time>2015-04-06T19:42:17.782Z</time>
      </trkpt>
      <trkpt lat="48.8735" lon="2.38215">
        <ele>116</ele>
        <time>2015-04-06T19:42:19.831Z</time>
      </trkpt>
      <trkpt lat="48.87351" lon="2.38221">
        <ele>116.2</ele>
        <time>2015-04-06T19:42:20.847Z</time>
      </trkpt>
      <trkpt lat="48.87352" lon="2.3823">
        <ele>116.7</ele>
        <time>2015-04-06T19:42:22.762Z</time>
      </trkpt>
      <trkpt lat="48.87352" lon="2.38235">
        <ele>116.9</ele>
        <time>2015-04-06T19:42:23.879Z</time>
      </trkpt>
      <trkpt lat="48.87353" lon="2.38246">
        <ele>117.2</ele>
        <time>2015-04-06T19:42:26.807Z</time>
      </trkpt>
      <trkpt lat="48.87353" lon="2.3825">
        <ele>117.3</ele>
        <time>2015-04-06T19:42:27.817Z</time>
      </trkpt>
      <trkpt lat="48.87354" lon="2.38259">
        <ele>117.8</ele>
        <time>2015-04-06T19:42:29.771Z</time>
      </trkpt>
      <trkpt lat="48.87355" lon="2.38264">
        <ele>118.1</ele>
        <time>2015-04-06T19:42:30.823Z</time>
      </trkpt>
      <trkpt lat="48.87359" lon="2.38274">
        <ele>118.5</ele>
        <time>2015-04-06T19:42:33.816Z</time>
      </trkpt>
      <trkpt lat="48.87358" lon="2.38279">
        <ele>118.3</ele>
        <time>2015-04-06T19:42:34.832Z</time>
      </trkpt>
      <trkpt lat="48.87359" lon="2.38292">
        <ele>118.7</ele>
        <time>2015-04-06T19:42:38.762Z</time>
      </trkpt>
      <trkpt lat="48.87359" lon="2.38294">
        <ele>118.7</ele>
        <time>2015-04-06T19:42:39.828Z</time>
      </trkpt>
      <trkpt lat="48.87359" lon="2.38294">
        <ele>118.7</ele>
        <time>2015-04-06T19:43:25.791Z</time>
      </trkpt>
      <trkpt lat="48.87345" lon="2.38342">
        <ele>133.4</ele>
        <time>2015-04-06T19:44:17.822Z</time>
      </trkpt>
      <trkpt lat="48.87345" lon="2.38342">
        <ele>133.4</ele>
        <time>2015-04-06T19:44:27.851Z</time>
      </trkpt>
      <trkpt lat="48.87341" lon="2.38329">
        <ele>135.7</ele>
        <time>2015-04-06T19:44:28.770Z</time>
      </trkpt>
      <trkpt lat="48.87336" lon="2.38336">
        <ele>135.9</ele>
        <time>2015-04-06T19:44:30.773Z</time>
      </trkpt>
      <trkpt lat="48.87333" lon="2.3834">
        <ele>136.1</ele>
        <time>2015-04-06T19:44:31.847Z</time>
      </trkpt>
      <trkpt lat="48.87328" lon="2.38346">
        <ele>136.3</ele>
        <time>2015-04-06T19:44:33.766Z</time>
      </trkpt>
      <trkpt lat="48.87326" lon="2.38349">
        <ele>136.5</ele>
        <time>2015-04-06T19:44:34.777Z</time>
      </trkpt>
      <trkpt lat="48.87319" lon="2.38357">
        <ele>137.6</ele>
        <time>2015-04-06T19:44:39.828Z</time>
      </trkpt>
      <trkpt lat="48.87317" lon="2.3836">
        <ele>137.7</ele>
        <time>2015-04-06T19:44:40.839Z</time>
      </trkpt>
      <trkpt lat="48.87311" lon="2.38368">
        <ele>137.7</ele>
        <time>2015-04-06T19:44:42.779Z</time>
      </trkpt>
      <trkpt lat="48.87308" lon="2.38374">
        <ele>138.3</ele>
        <time>2015-04-06T19:44:43.801Z</time>
      </trkpt>
      <trkpt lat="48.87301" lon="2.38383">
        <ele>139.1</ele>
        <time>2015-04-06T19:44:46.806Z</time>
      </trkpt>
      <trkpt lat="48.873" lon="2.38385">
        <ele>139.1</ele>
        <time>2015-04-06T19:44:47.815Z</time>
      </trkpt>
      <trkpt lat="48.87292" lon="2.38392">
        <ele>139.2</ele>
        <time>2015-04-06T19:44:50.988Z</time>
      </trkpt>
      <trkpt lat="48.8729" lon="2.38394">
        <ele>138.7</ele>
        <time>2015-04-06T19:44:51.877Z</time>
      </trkpt>
      <trkpt lat="48.87284" lon="2.38401">
        <ele>139</ele>
        <time>2015-04-06T19:44:54.789Z</time>
      </trkpt>
      <trkpt lat="48.87283" lon="2.38403">
        <ele>138.8</ele>
        <time>2015-04-06T19:44:55.813Z</time>
      </trkpt>
      <trkpt lat="48.87278" lon="2.3841">
        <ele>139.1</ele>
        <time>2015-04-06T19:44:58.782Z</time>
      </trkpt>
      <trkpt lat="48.87276" lon="2.38413">
        <ele>139.3</ele>
        <time>2015-04-06T19:44:59.929Z</time>
      </trkpt>
      <trkpt lat="48.87272" lon="2.38423">
        <ele>139.9</ele>
        <time>2015-04-06T19:45:02.768Z</time>
      </trkpt>
      <trkpt lat="48.8727" lon="2.38425">
        <ele>139.8</ele>
        <time>2015-04-06T19:45:03.763Z</time>
      </trkpt>
      <trkpt lat="48.87263" lon="2.38433">
        <ele>139.7</ele>
        <time>2015-04-06T19:45:06.805Z</time>
      </trkpt>
      <trkpt lat="48.87261" lon="2.38435">
        <ele>139.6</ele>
        <time>2015-04-06T19:45:07.856Z</time>
      </trkpt>
      <trkpt lat="48.87255" lon="2.38442">
        <ele>140.1</ele>
        <time>2015-04-06T19:45:11.244Z</time>
      </trkpt>
      <trkpt lat="48.87251" lon="2.38445">
        <ele>140</ele>
        <time>2015-04-06T19:45:11.810Z</time>
      </trkpt>
      <trkpt lat="48.87245" lon="2.3845">
        <ele>140.4</ele>
        <time>2015-04-06T19:45:13.837Z</time>
      </trkpt>
      <trkpt lat="48.87243" lon="2.38453">
        <ele>140.5</ele>
        <time>2015-04-06T19:45:14.850Z</time>
      </trkpt>
      <trkpt lat="48.87238" lon="2.38462">
        <ele>140.5</ele>
        <time>2015-04-06T19:45:17.787Z</time>
      </trkpt>
      <trkpt lat="48.87236" lon="2.38463">
        <ele>141.2</ele>
        <time>2015-04-06T19:45:18.793Z</time>
      </trkpt>
      <trkpt lat="48.87231" lon="2.38466">
        <ele>141.5</ele>
        <time>2015-04-06T19:45:20.843Z</time>
      </trkpt>
      <trkpt lat="48.87225" lon="2.38468">
        <ele>140.9</ele>
        <time>2015-04-06T19:45:21.860Z</time>
      </trkpt>
      <trkpt lat="48.87218" lon="2.38472">
        <ele>140.9</ele>
        <time>2015-04-06T19:45:23.781Z</time>
      </trkpt>
      <trkpt lat="48.87215" lon="2.38474">
        <ele>141.1</ele>
        <time>2015-04-06T19:45:24.844Z</time>
      </trkpt>
      <trkpt lat="48.8721" lon="2.3848">
        <ele>140.4</ele>
        <time>2015-04-06T19:45:26.772Z</time>
      </trkpt>
      <trkpt lat="48.87207" lon="2.38482">
        <ele>140.1</ele>
        <time>2015-04-06T19:45:27.774Z</time>
      </trkpt>
      <trkpt lat="48.87202" lon="2.38487">
        <ele>139.9</ele>
        <time>2015-04-06T19:45:28.749Z</time>
      </trkpt>
      <trkpt lat="48.87199" lon="2.38489">
        <ele>139.7</ele>
        <time>2015-04-06T19:45:30.821Z</time>
      </trkpt>
      <trkpt lat="48.87191" lon="2.38496">
        <ele>139.6</ele>
        <time>2015-04-06T19:45:33.768Z</time>
      </trkpt>
      <trkpt lat="48.87189" lon="2.38497">
        <ele>139.6</ele>
        <time>2015-04-06T19:45:34.776Z</time>
      </trkpt>
      <trkpt lat="48.87183" lon="2.38505">
        <ele>139.9</ele>
        <time>2015-04-06T19:45:38.863Z</time>
      </trkpt>
      <trkpt lat="48.87181" lon="2.38506">
        <ele>140</ele>
        <time>2015-04-06T19:45:39.771Z</time>
      </trkpt>
      <trkpt lat="48.87172" lon="2.38509">
        <ele>139.9</ele>
        <time>2015-04-06T19:45:43.831Z</time>
      </trkpt>
      <trkpt lat="48.8717" lon="2.38511">
        <ele>139.8</ele>
        <time>2015-04-06T19:45:44.836Z</time>
      </trkpt>
      <trkpt lat="48.87163" lon="2.38515">
        <ele>139.7</ele>
        <time>2015-04-06T19:45:48.825Z</time>
      </trkpt>
      <trkpt lat="48.87161" lon="2.38518">
        <ele>139.6</ele>
        <time>2015-04-06T19:45:49.834Z</time>
      </trkpt>
      <trkpt lat="48.87157" lon="2.38511">
        <ele>149.2</ele>
        <time>2015-04-06T19:50:19.879Z</time>
      </trkpt>
      <trkpt lat="48.87159" lon="2.38554">
        <ele>147.1</ele>
        <time>2015-04-06T19:50:20.771Z</time>
      </trkpt>
      <trkpt lat="48.87155" lon="2.38564">
        <ele>147.1</ele>
        <time>2015-04-06T19:50:23.809Z</time>
      </trkpt>
      <trkpt lat="48.87153" lon="2.38567">
        <ele>147.3</ele>
        <time>2015-04-06T19:50:24.825Z</time>
      </trkpt>
      <trkpt lat="48.87151" lon="2.38577">
        <ele>147.7</ele>
        <time>2015-04-06T19:50:26.755Z</time>
      </trkpt>
      <trkpt lat="48.8715" lon="2.38582">
        <ele>147.5</ele>
        <time>2015-04-06T19:50:27.780Z</time>
      </trkpt>
      <trkpt lat="48.87148" lon="2.38594">
        <ele>147.1</ele>
        <time>2015-04-06T19:50:30.830Z</time>
      </trkpt>
      <trkpt lat="48.87148" lon="2.38598">
        <ele>147.1</ele>
        <time>2015-04-06T19:50:31.837Z</time>
      </trkpt>
      <trkpt lat="48.87146" lon="2.38611">
        <ele>146.9</ele>
        <time>2015-04-06T19:50:35.770Z</time>
      </trkpt>
      <trkpt lat="48.87146" lon="2.38615">
        <ele>146.7</ele>
        <time>2015-04-06T19:50:36.779Z</time>
      </trkpt>
      <trkpt lat="48.87149" lon="2.38628">
        <ele>146.9</ele>
        <time>2015-04-06T19:50:40.724Z</time>
      </trkpt>
      <trkpt lat="48.8715" lon="2.3863">
        <ele>147.1</ele>
        <time>2015-04-06T19:50:41.754Z</time>
      </trkpt>
      <trkpt lat="48.87153" lon="2.38641">
        <ele>147.8</ele>
        <time>2015-04-06T19:50:43.788Z</time>
      </trkpt>
      <trkpt lat="48.87154" lon="2.38645">
        <ele>147.8</ele>
        <time>2015-04-06T19:50:44.806Z</time>
      </trkpt>
      <trkpt lat="48.87156" lon="2.38655">
        <ele>148</ele>
        <time>2015-04-06T19:50:46.826Z</time>
      </trkpt>
      <trkpt lat="48.87156" lon="2.38659">
        <ele>147.9</ele>
        <time>2015-04-06T19:50:47.757Z</time>
      </trkpt>
      <trkpt lat="48.87157" lon="2.3867">
        <ele>148</ele>
        <time>2015-04-06T19:50:54.838Z</time>
      </trkpt>
      <trkpt lat="48.87158" lon="2.38681">
        <ele>148.4</ele>
        <time>2015-04-06T19:50:55.843Z</time>
      </trkpt>
      <trkpt lat="48.87158" lon="2.38695">
        <ele>148</ele>
        <time>2015-04-06T19:50:58.338Z</time>
      </trkpt>
      <trkpt lat="48.87159" lon="2.387">
        <ele>148.1</ele>
        <time>2015-04-06T19:50:59.781Z</time>
      </trkpt>
      <trkpt lat="48.8716" lon="2.38711">
        <ele>148.3</ele>
        <time>2015-04-06T19:51:01.865Z</time>
      </trkpt>
      <trkpt lat="48.8716" lon="2.38715">
        <ele>148.4</ele>
        <time>2015-04-06T19:51:02.711Z</time>
      </trkpt>
      <trkpt lat="48.87161" lon="2.38728">
        <ele>148.3</ele>
        <time>2015-04-06T19:51:06.541Z</time>
      </trkpt>
      <trkpt lat="48.87161" lon="2.38733">
        <ele>148.3</ele>
        <time>2015-04-06T19:51:06.804Z</time>
      </trkpt>
      <trkpt lat="48.87162" lon="2.38746">
        <ele>148.1</ele>
        <time>2015-04-06T19:51:09.766Z</time>
      </trkpt>
      <trkpt lat="48.87163" lon="2.38748">
        <ele>147.9</ele>
        <time>2015-04-06T19:51:10.787Z</time>
      </trkpt>
      <trkpt lat="48.87165" lon="2.38758">
        <ele>147.3</ele>
        <time>2015-04-06T19:51:14.916Z</time>
      </trkpt>
      <trkpt lat="48.87165" lon="2.38764">
        <ele>147.8</ele>
        <time>2015-04-06T19:51:15.738Z</time>
      </trkpt>
      <trkpt lat="48.87165" lon="2.38775">
        <ele>148.2</ele>
        <time>2015-04-06T19:51:17.771Z</time>
      </trkpt>
      <trkpt lat="48.87165" lon="2.38781">
        <ele>148.2</ele>
        <time>2015-04-06T19:51:18.823Z</time>
      </trkpt>
      <trkpt lat="48.87165" lon="2.38792">
        <ele>147.9</ele>
        <time>2015-04-06T19:51:20.748Z</time>
      </trkpt>
      <trkpt lat="48.87166" lon="2.38797">
        <ele>147.7</ele>
        <time>2015-04-06T19:51:21.791Z</time>
      </trkpt>
      <trkpt lat="48.87169" lon="2.38805">
        <ele>147.1</ele>
        <time>2015-04-06T19:51:23.841Z</time>
      </trkpt>
      <trkpt lat="48.87171" lon="2.38809">
        <ele>146.6</ele>
        <time>2015-04-06T19:51:24.767Z</time>
      </trkpt>
      <trkpt lat="48.87175" lon="2.38816">
        <ele>145.6</ele>
        <time>2015-04-06T19:51:26.811Z</time>
      </trkpt>
      <trkpt lat="48.87178" lon="2.3882">
        <ele>145.5</ele>
        <time>2015-04-06T19:51:27.837Z</time>
      </trkpt>
      <trkpt lat="48.87183" lon="2.38827">
        <ele>145</ele>
        <time>2015-04-06T19:51:29.755Z</time>
      </trkpt>
      <trkpt lat="48.87185" lon="2.3883">
        <ele>144.8</ele>
        <time>2015-04-06T19:51:30.767Z</time>
      </trkpt>
      <trkpt lat="48.87191" lon="2.3884">
        <ele>143.7</ele>
        <time>2015-04-06T19:51:33.810Z</time>
      </trkpt>
      <trkpt lat="48.87193" lon="2.38844">
        <ele>143.2</ele>
        <time>2015-04-06T19:51:34.835Z</time>
      </trkpt>
      <trkpt lat="48.87196" lon="2.38851">
        <ele>141.9</ele>
        <time>2015-04-06T19:51:36.766Z</time>
      </trkpt>
      <trkpt lat="48.87199" lon="2.38855">
        <ele>141.5</ele>
        <time>2015-04-06T19:51:37.809Z</time>
      </trkpt>
      <trkpt lat="48.87202" lon="2.38867">
        <ele>140.4</ele>
        <time>2015-04-06T19:51:39.751Z</time>
      </trkpt>
      <trkpt lat="48.87201" lon="2.38876">
        <ele>140.4</ele>
        <time>2015-04-06T19:51:40.781Z</time>
      </trkpt>
      <trkpt lat="48.87198" lon="2.38887">
        <ele>140.5</ele>
        <time>2015-04-06T19:51:41.844Z</time>
      </trkpt>
      <trkpt lat="48.87196" lon="2.38894">
        <ele>140.7</ele>
        <time>2015-04-06T19:51:42.732Z</time>
      </trkpt>
      <trkpt lat="48.87194" lon="2.389">
        <ele>141</ele>
        <time>2015-04-06T19:51:43.821Z</time>
      </trkpt>
      <trkpt lat="48.87192" lon="2.38907">
        <ele>141.1</ele>
        <time>2015-04-06T19:51:44.862Z</time>
      </trkpt>
      <trkpt lat="48.87191" lon="2.38918">
        <ele>141.3</ele>
        <time>2015-04-06T19:51:47.785Z</time>
      </trkpt>
      <trkpt lat="48.87188" lon="2.38925">
        <ele>141.5</ele>
        <time>2015-04-06T19:51:48.803Z</time>
      </trkpt>
      <trkpt lat="48.87188" lon="2.38925">
        <ele>141.5</ele>
        <time>2015-04-06T19:52:33.745Z</time>
      </trkpt>
      <trkpt lat="48.87177" lon="2.38924">
        <ele>156.5</ele>
        <time>2015-04-06T19:53:02.799Z</time>
      </trkpt>
      <trkpt lat="48.87183" lon="2.38925">
        <ele>157.4</ele>
        <time>2015-04-06T19:53:04.755Z</time>
      </trkpt>
      <trkpt lat="48.87187" lon="2.38927">
        <ele>157.9</ele>
        <time>2015-04-06T19:53:05.771Z</time>
      </trkpt>
      <trkpt lat="48.87191" lon="2.38929">
        <ele>158.3</ele>
        <time>2015-04-06T19:53:06.766Z</time>
      </trkpt>
      <trkpt lat="48.87196" lon="2.3893">
        <ele>158.7</ele>
        <time>2015-04-06T19:53:07.779Z</time>
      </trkpt>
      <trkpt lat="48.87204" lon="2.38928">
        <ele>158.8</ele>
        <time>2015-04-06T19:53:08.791Z</time>
      </trkpt>
      <trkpt lat="48.87211" lon="2.38927">
        <ele>158.9</ele>
        <time>2015-04-06T19:53:09.804Z</time>
      </trkpt>
      <trkpt lat="48.8722" lon="2.3893">
        <ele>159.8</ele>
        <time>2015-04-06T19:53:12.840Z</time>
      </trkpt>
      <trkpt lat="48.87223" lon="2.38932">
        <ele>160.2</ele>
        <time>2015-04-06T19:53:13.870Z</time>
      </trkpt>
      <trkpt lat="48.87231" lon="2.38931">
        <ele>160.2</ele>
        <time>2015-04-06T19:53:15.760Z</time>
      </trkpt>
      <trkpt lat="48.87236" lon="2.3893">
        <ele>160</ele>
        <time>2015-04-06T19:53:16.761Z</time>
      </trkpt>
      <trkpt lat="48.8724" lon="2.38929">
        <ele>159.9</ele>
        <time>2015-04-06T19:53:17.789Z</time>
      </trkpt>
      <trkpt lat="48.87246" lon="2.38927">
        <ele>159.7</ele>
        <time>2015-04-06T19:53:18.800Z</time>
      </trkpt>
      <trkpt lat="48.87251" lon="2.38924">
        <ele>159.7</ele>
        <time>2015-04-06T19:53:20.109Z</time>
      </trkpt>
      <trkpt lat="48.87256" lon="2.38923">
        <ele>159.4</ele>
        <time>2015-04-06T19:53:20.820Z</time>
      </trkpt>
      <trkpt lat="48.87265" lon="2.38924">
        <ele>158.5</ele>
        <time>2015-04-06T19:53:23.766Z</time>
      </trkpt>
      <trkpt lat="48.87268" lon="2.38924">
        <ele>158.4</ele>
        <time>2015-04-06T19:53:24.780Z</time>
      </trkpt>
      <trkpt lat="48.87272" lon="2.38925">
        <ele>158.5</ele>
        <time>2015-04-06T19:53:26.799Z</time>
      </trkpt>
      <trkpt lat="48.87273" lon="2.38925">
        <ele>158.8</ele>
        <time>2015-04-06T19:53:27.840Z</time>
      </trkpt>
      <trkpt lat="48.87274" lon="2.38925">
        <ele>159</ele>
        <time>2015-04-06T19:53:51.760Z</time>
      </trkpt>
      <trkpt lat="48.8729" lon="2.38957">
        <ele>152.9</ele>
        <time>2015-04-06T19:53:52.780Z</time>
      </trkpt>
      <trkpt lat="48.87294" lon="2.3897">
        <ele>153.4</ele>
        <time>2015-04-06T19:53:56.236Z</time>
      </trkpt>
      <trkpt lat="48.87295" lon="2.38974">
        <ele>153.5</ele>
        <time>2015-04-06T19:53:56.816Z</time>
      </trkpt>
      <trkpt lat="48.87298" lon="2.38978">
        <ele>153.3</ele>
        <time>2015-04-06T19:53:58.843Z</time>
      </trkpt>
      <trkpt lat="48.87311" lon="2.38984">
        <ele>153.7</ele>
        <time>2015-04-06T19:54:05.716Z</time>
      </trkpt>
      <trkpt lat="48.87311" lon="2.38984">
        <ele>153.7</ele>
        <time>2015-04-06T19:56:12.859Z</time>
      </trkpt>
      <trkpt lat="48.87339" lon="2.39017">
        <ele>147</ele>
        <time>2015-04-06T19:56:26.816Z</time>
      </trkpt>
      <trkpt lat="48.87331" lon="2.39022">
        <ele>148.2</ele>
        <time>2015-04-06T19:56:42.922Z</time>
      </trkpt>
      <trkpt lat="48.87329" lon="2.39024">
        <ele>148.4</ele>
        <time>2015-04-06T19:56:43.800Z</time>
      </trkpt>
      <trkpt lat="48.87322" lon="2.39032">
        <ele>149.4</ele>
        <time>2015-04-06T19:56:46.819Z</time>
      </trkpt>
      <trkpt lat="48.87318" lon="2.39035">
        <ele>149.4</ele>
        <time>2015-04-06T19:56:47.712Z</time>
      </trkpt>
      <trkpt lat="48.87316" lon="2.39038">
        <ele>149.4</ele>
        <time>2015-04-06T19:56:48.758Z</time>
      </trkpt>
      <trkpt lat="48.87311" lon="2.39044">
        <ele>149.4</ele>
        <time>2015-04-06T19:56:49.795Z</time>
      </trkpt>
      <trkpt lat="48.87306" lon="2.3905">
        <ele>149.6</ele>
        <time>2015-04-06T19:56:50.793Z</time>
      </trkpt>
      <trkpt lat="48.87302" lon="2.39056">
        <ele>149.7</ele>
        <time>2015-04-06T19:56:51.808Z</time>
      </trkpt>
      <trkpt lat="48.87298" lon="2.39062">
        <ele>149.8</ele>
        <time>2015-04-06T19:56:52.831Z</time>
      </trkpt>
      <trkpt lat="48.87293" lon="2.39069">
        <ele>149.8</ele>
        <time>2015-04-06T19:56:53.750Z</time>
      </trkpt>
      <trkpt lat="48.87288" lon="2.39075">
        <ele>150</ele>
        <time>2015-04-06T19:56:54.741Z</time>
      </trkpt>
      <trkpt lat="48.87284" lon="2.39079">
        <ele>150.1</ele>
        <time>2015-04-06T19:56:55.769Z</time>
      </trkpt>
      <trkpt lat="48.87276" lon="2.39087">
        <ele>150.4</ele>
        <time>2015-04-06T19:56:57.725Z</time>
      </trkpt>
      <trkpt lat="48.87271" lon="2.39088">
        <ele>150.7</ele>
        <time>2015-04-06T19:56:58.736Z</time>
      </trkpt>
      <trkpt lat="48.87265" lon="2.39097">
        <ele>151</ele>
        <time>2015-04-06T19:57:01.374Z</time>
      </trkpt>
      <trkpt lat="48.87261" lon="2.39103">
        <ele>151.2</ele>
        <time>2015-04-06T19:57:01.812Z</time>
      </trkpt>
      <trkpt lat="48.87256" lon="2.39114">
        <ele>151.9</ele>
        <time>2015-04-06T19:57:02.821Z</time>
      </trkpt>
      <trkpt lat="48.8725" lon="2.39123">
        <ele>152.4</ele>
        <time>2015-04-06T19:57:03.769Z</time>
      </trkpt>
      <trkpt lat="48.87244" lon="2.39132">
        <ele>152.4</ele>
        <time>2015-04-06T19:57:04.813Z</time>
      </trkpt>
      <trkpt lat="48.87239" lon="2.3914">
        <ele>152.3</ele>
        <time>2015-04-06T19:57:05.729Z</time>
      </trkpt>
      <trkpt lat="48.87234" lon="2.39148">
        <ele>152</ele>
        <time>2015-04-06T19:57:06.730Z</time>
      </trkpt>
      <trkpt lat="48.87228" lon="2.39154">
        <ele>152.3</ele>
        <time>2015-04-06T19:57:07.791Z</time>
      </trkpt>
      <trkpt lat="48.87222" lon="2.39162">
        <ele>152.4</ele>
        <time>2015-04-06T19:57:08.817Z</time>
      </trkpt>
      <trkpt lat="48.87216" lon="2.39169">
        <ele>152.2</ele>
        <time>2015-04-06T19:57:09.852Z</time>
      </trkpt>
      <trkpt lat="48.87212" lon="2.39176">
        <ele>152</ele>
        <time>2015-04-06T19:57:10.751Z</time>
      </trkpt>
      <trkpt lat="48.87207" lon="2.39184">
        <ele>152.1</ele>
        <time>2015-04-06T19:57:11.783Z</time>
      </trkpt>
      <trkpt lat="48.87202" lon="2.39192">
        <ele>152.3</ele>
        <time>2015-04-06T19:57:12.804Z</time>
      </trkpt>
      <trkpt lat="48.87198" lon="2.39199">
        <ele>152.1</ele>
        <time>2015-04-06T19:57:13.818Z</time>
      </trkpt>
      <trkpt lat="48.87192" lon="2.39207">
        <ele>152.6</ele>
        <time>2015-04-06T19:57:14.833Z</time>
      </trkpt>
      <trkpt lat="48.87186" lon="2.39213">
        <ele>153.2</ele>
        <time>2015-04-06T19:57:15.747Z</time>
      </trkpt>
      <trkpt lat="48.87182" lon="2.39219">
        <ele>153.6</ele>
        <time>2015-04-06T19:57:16.755Z</time>
      </trkpt>
      <trkpt lat="48.87176" lon="2.39226">
        <ele>154.2</ele>
        <time>2015-04-06T19:57:17.750Z</time>
      </trkpt>
      <trkpt lat="48.87169" lon="2.39231">
        <ele>154.8</ele>
        <time>2015-04-06T19:57:18.779Z</time>
      </trkpt>
      <trkpt lat="48.87164" lon="2.39238">
        <ele>155.4</ele>
        <time>2015-04-06T19:57:19.808Z</time>
      </trkpt>
      <trkpt lat="48.87159" lon="2.39244">
        <ele>155.9</ele>
        <time>2015-04-06T19:57:20.844Z</time>
      </trkpt>
      <trkpt lat="48.87154" lon="2.39248">
        <ele>156.8</ele>
        <time>2015-04-06T19:57:21.857Z</time>
      </trkpt>
      <trkpt lat="48.87149" lon="2.39253">
        <ele>157.8</ele>
        <time>2015-04-06T19:57:22.765Z</time>
      </trkpt>
      <trkpt lat="48.87145" lon="2.3926">
        <ele>158.5</ele>
        <time>2015-04-06T19:57:23.762Z</time>
      </trkpt>
      <trkpt lat="48.87141" lon="2.39267">
        <ele>159.2</ele>
        <time>2015-04-06T19:57:24.766Z</time>
      </trkpt>
      <trkpt lat="48.87137" lon="2.39273">
        <ele>159.7</ele>
        <time>2015-04-06T19:57:25.801Z</time>
      </trkpt>
      <trkpt lat="48.87133" lon="2.39281">
        <ele>161.5</ele>
        <time>2015-04-06T19:57:26.807Z</time>
      </trkpt>
      <trkpt lat="48.87129" lon="2.39287">
        <ele>162.9</ele>
        <time>2015-04-06T19:57:27.862Z</time>
      </trkpt>
      <trkpt lat="48.87125" lon="2.39293">
        <ele>164.1</ele>
        <time>2015-04-06T19:57:28.757Z</time>
      </trkpt>
      <trkpt lat="48.87121" lon="2.39298">
        <ele>164.9</ele>
        <time>2015-04-06T19:57:29.765Z</time>
      </trkpt>
      <trkpt lat="48.87117" lon="2.39305">
        <ele>165.4</ele>
        <time>2015-04-06T19:57:30.761Z</time>
      </trkpt>
      <trkpt lat="48.87114" lon="2.39312">
        <ele>165.7</ele>
        <time>2015-04-06T19:57:31.822Z</time>
      </trkpt>
      <trkpt lat="48.8711" lon="2.39319">
        <ele>166.3</ele>
        <time>2015-04-06T19:57:32.818Z</time>
      </trkpt>
      <trkpt lat="48.87106" lon="2.39324">
        <ele>166.5</ele>
        <time>2015-04-06T19:57:33.841Z</time>
      </trkpt>
      <trkpt lat="48.87102" lon="2.39328">
        <ele>166.6</ele>
        <time>2015-04-06T19:57:34.811Z</time>
      </trkpt>
      <trkpt lat="48.87098" lon="2.39333">
        <ele>166.6</ele>
        <time>2015-04-06T19:57:35.767Z</time>
      </trkpt>
      <trkpt lat="48.87095" lon="2.39337">
        <ele>166.7</ele>
        <time>2015-04-06T19:57:36.784Z</time>
      </trkpt>
      <trkpt lat="48.87091" lon="2.39342">
        <ele>166.5</ele>
        <time>2015-04-06T19:57:37.782Z</time>
      </trkpt>
      <trkpt lat="48.87086" lon="2.39348">
        <ele>166.5</ele>
        <time>2015-04-06T19:57:38.796Z</time>
      </trkpt>
      <trkpt lat="48.87083" lon="2.39353">
        <ele>166.3</ele>
        <time>2015-04-06T19:57:39.805Z</time>
      </trkpt>
      <trkpt lat="48.87077" lon="2.39361">
        <ele>166</ele>
        <time>2015-04-06T19:57:41.504Z</time>
      </trkpt>
      <trkpt lat="48.87074" lon="2.39366">
        <ele>166.1</ele>
        <time>2015-04-06T19:57:42.778Z</time>
      </trkpt>
      <trkpt lat="48.87069" lon="2.39369">
        <ele>166.2</ele>
        <time>2015-04-06T19:57:43.991Z</time>
      </trkpt>
      <trkpt lat="48.87065" lon="2.39374">
        <ele>166.3</ele>
        <time>2015-04-06T19:57:44.803Z</time>
      </trkpt>
      <trkpt lat="48.87061" lon="2.39379">
        <ele>166.5</ele>
        <time>2015-04-06T19:57:45.839Z</time>
      </trkpt>
      <trkpt lat="48.87056" lon="2.39384">
        <ele>166.4</ele>
        <time>2015-04-06T19:57:46.850Z</time>
      </trkpt>
      <trkpt lat="48.87052" lon="2.39389">
        <ele>166.4</ele>
        <time>2015-04-06T19:57:47.775Z</time>
      </trkpt>
      <trkpt lat="48.87048" lon="2.39394">
        <ele>166.3</ele>
        <time>2015-04-06T19:57:48.773Z</time>
      </trkpt>
      <trkpt lat="48.87045" lon="2.39399">
        <ele>166.8</ele>
        <time>2015-04-06T19:57:49.814Z</time>
      </trkpt>
      <trkpt lat="48.87041" lon="2.39403">
        <ele>166.9</ele>
        <time>2015-04-06T19:57:50.822Z</time>
      </trkpt>
      <trkpt lat="48.87038" lon="2.39408">
        <ele>167</ele>
        <time>2015-04-06T19:57:51.843Z</time>
      </trkpt>
      <trkpt lat="48.87034" lon="2.39413">
        <ele>167.2</ele>
        <time>2015-04-06T19:57:52.738Z</time>
      </trkpt>
      <trkpt lat="48.8703" lon="2.3942">
        <ele>167.3</ele>
        <time>2015-04-06T19:57:54.207Z</time>
      </trkpt>
      <trkpt lat="48.87027" lon="2.39425">
        <ele>167.5</ele>
        <time>2015-04-06T19:57:54.775Z</time>
      </trkpt>
      <trkpt lat="48.87022" lon="2.39432">
        <ele>167.5</ele>
        <time>2015-04-06T19:57:55.820Z</time>
      </trkpt>
      <trkpt lat="48.87017" lon="2.39439">
        <ele>167.6</ele>
        <time>2015-04-06T19:57:56.825Z</time>
      </trkpt>
      <trkpt lat="48.87012" lon="2.39445">
        <ele>167.8</ele>
        <time>2015-04-06T19:57:57.740Z</time>
      </trkpt>
      <trkpt lat="48.87009" lon="2.3945">
        <ele>168</ele>
        <time>2015-04-06T19:57:58.852Z</time>
      </trkpt>
      <trkpt lat="48.87004" lon="2.39458">
        <ele>168.5</ele>
        <time>2015-04-06T19:58:01.010Z</time>
      </trkpt>
      <trkpt lat="48.87002" lon="2.3946">
        <ele>168.7</ele>
        <time>2015-04-06T19:58:01.799Z</time>
      </trkpt>
      <trkpt lat="48.86997" lon="2.39455">
        <ele>168.3</ele>
        <time>2015-04-06T19:59:23.798Z</time>
      </trkpt>
      <trkpt lat="48.86985" lon="2.39455">
        <ele>174.4</ele>
        <time>2015-04-06T19:59:24.782Z</time>
      </trkpt>
      <trkpt lat="48.86981" lon="2.39464">
        <ele>175.6</ele>
        <time>2015-04-06T19:59:27.819Z</time>
      </trkpt>
      <trkpt lat="48.8698" lon="2.39467">
        <ele>176</ele>
        <time>2015-04-06T19:59:28.850Z</time>
      </trkpt>
      <trkpt lat="48.86973" lon="2.39475">
        <ele>175.7</ele>
        <time>2015-04-06T19:59:34.852Z</time>
      </trkpt>
      <trkpt lat="48.8697" lon="2.39477">
        <ele>175.8</ele>
        <time>2015-04-06T19:59:35.776Z</time>
      </trkpt>
      <trkpt lat="48.86963" lon="2.39485">
        <ele>176.2</ele>
        <time>2015-04-06T19:59:37.783Z</time>
      </trkpt>
      <trkpt lat="48.86959" lon="2.39489">
        <ele>176.5</ele>
        <time>2015-04-06T19:59:38.790Z</time>
      </trkpt>
      <trkpt lat="48.86952" lon="2.39491">
        <ele>176.2</ele>
        <time>2015-04-06T19:59:40.770Z</time>
      </trkpt>
      <trkpt lat="48.86949" lon="2.39493">
        <ele>176.1</ele>
        <time>2015-04-06T19:59:41.740Z</time>
      </trkpt>
      <trkpt lat="48.86943" lon="2.39497">
        <ele>175.7</ele>
        <time>2015-04-06T19:59:43.808Z</time>
      </trkpt>
      <trkpt lat="48.8694" lon="2.395">
        <ele>175.3</ele>
        <time>2015-04-06T19:59:44.804Z</time>
      </trkpt>
      <trkpt lat="48.86933" lon="2.39503">
        <ele>175.1</ele>
        <time>2015-04-06T19:59:46.824Z</time>
      </trkpt>
      <trkpt lat="48.8693" lon="2.39506">
        <ele>174.9</ele>
        <time>2015-04-06T19:59:47.842Z</time>
      </trkpt>
      <trkpt lat="48.86926" lon="2.3951">
        <ele>174.6</ele>
        <time>2015-04-06T19:59:48.767Z</time>
      </trkpt>
      <trkpt lat="48.86922" lon="2.39514">
        <ele>174.7</ele>
        <time>2015-04-06T19:59:49.791Z</time>
      </trkpt>
      <trkpt lat="48.86914" lon="2.39518">
        <ele>174.3</ele>
        <time>2015-04-06T19:59:51.800Z</time>
      </trkpt>
      <trkpt lat="48.8691" lon="2.39521">
        <ele>174.1</ele>
        <time>2015-04-06T19:59:52.822Z</time>
      </trkpt>
      <trkpt lat="48.86906" lon="2.39525">
        <ele>173.9</ele>
        <time>2015-04-06T19:59:53.757Z</time>
      </trkpt>
      <trkpt lat="48.86901" lon="2.39527">
        <ele>173.7</ele>
        <time>2015-04-06T19:59:54.764Z</time>
      </trkpt>
      <trkpt lat="48.86896" lon="2.39531">
        <ele>173.5</ele>
        <time>2015-04-06T19:59:55.818Z</time>
      </trkpt>
      <trkpt lat="48.86892" lon="2.39535">
        <ele>173.5</ele>
        <time>2015-04-06T19:59:56.829Z</time>
      </trkpt>
      <trkpt lat="48.86888" lon="2.3954">
        <ele>173.3</ele>
        <time>2015-04-06T19:59:57.838Z</time>
      </trkpt>
      <trkpt lat="48.86883" lon="2.39544">
        <ele>173.2</ele>
        <time>2015-04-06T19:59:58.759Z</time>
      </trkpt>
      <trkpt lat="48.86877" lon="2.39547">
        <ele>173.2</ele>
        <time>2015-04-06T19:59:59.761Z</time>
      </trkpt>
      <trkpt lat="48.86872" lon="2.3955">
        <ele>173.6</ele>
        <time>2015-04-06T20:00:00.763Z</time>
      </trkpt>
      <trkpt lat="48.86866" lon="2.39555">
        <ele>174</ele>
        <time>2015-04-06T20:00:01.830Z</time>
      </trkpt>
      <trkpt lat="48.86861" lon="2.39558">
        <ele>174.3</ele>
        <time>2015-04-06T20:00:02.720Z</time>
      </trkpt>
      <trkpt lat="48.86856" lon="2.39562">
        <ele>174.7</ele>
        <time>2015-04-06T20:00:03.741Z</time>
      </trkpt>
      <trkpt lat="48.86851" lon="2.39565">
        <ele>175.2</ele>
        <time>2015-04-06T20:00:04.746Z</time>
      </trkpt>
      <trkpt lat="48.86847" lon="2.39567">
        <ele>175.5</ele>
        <time>2015-04-06T20:00:05.749Z</time>
      </trkpt>
      <trkpt lat="48.86843" lon="2.39571">
        <ele>175.6</ele>
        <time>2015-04-06T20:00:06.762Z</time>
      </trkpt>
      <trkpt lat="48.86837" lon="2.39576">
        <ele>175.7</ele>
        <time>2015-04-06T20:00:07.780Z</time>
      </trkpt>
      <trkpt lat="48.86832" lon="2.39581">
        <ele>175.8</ele>
        <time>2015-04-06T20:00:08.791Z</time>
      </trkpt>
      <trkpt lat="48.86828" lon="2.39585">
        <ele>175.8</ele>
        <time>2015-04-06T20:00:09.727Z</time>
      </trkpt>
      <trkpt lat="48.86823" lon="2.39587">
        <ele>176.1</ele>
        <time>2015-04-06T20:00:10.739Z</time>
      </trkpt>
      <trkpt lat="48.86818" lon="2.39592">
        <ele>176.3</ele>
        <time>2015-04-06T20:00:11.740Z</time>
      </trkpt>
      <trkpt lat="48.86813" lon="2.39599">
        <ele>176.5</ele>
        <time>2015-04-06T20:00:12.750Z</time>
      </trkpt>
      <trkpt lat="48.86808" lon="2.39606">
        <ele>176.5</ele>
        <time>2015-04-06T20:00:13.815Z</time>
      </trkpt>
      <trkpt lat="48.86802" lon="2.39612">
        <ele>176.6</ele>
        <time>2015-04-06T20:00:14.814Z</time>
      </trkpt>
      <trkpt lat="48.86796" lon="2.39618">
        <ele>176.8</ele>
        <time>2015-04-06T20:00:15.724Z</time>
      </trkpt>
      <trkpt lat="48.86791" lon="2.39625">
        <ele>177</ele>
        <time>2015-04-06T20:00:16.849Z</time>
      </trkpt>
      <trkpt lat="48.86786" lon="2.3963">
        <ele>177.2</ele>
        <time>2015-04-06T20:00:17.739Z</time>
      </trkpt>
      <trkpt lat="48.8678" lon="2.39632">
        <ele>177</ele>
        <time>2015-04-06T20:00:18.739Z</time>
      </trkpt>
      <trkpt lat="48.86776" lon="2.39634">
        <ele>177</ele>
        <time>2015-04-06T20:00:19.777Z</time>
      </trkpt>
      <trkpt lat="48.86772" lon="2.3964">
        <ele>177.1</ele>
        <time>2015-04-06T20:00:20.781Z</time>
      </trkpt>
      <trkpt lat="48.86766" lon="2.39651">
        <ele>177</ele>
        <time>2015-04-06T20:00:21.787Z</time>
      </trkpt>
      <trkpt lat="48.8676" lon="2.39657">
        <ele>177.1</ele>
        <time>2015-04-06T20:00:22.807Z</time>
      </trkpt>
      <trkpt lat="48.86755" lon="2.39662">
        <ele>177</ele>
        <time>2015-04-06T20:00:23.811Z</time>
      </trkpt>
      <trkpt lat="48.86749" lon="2.39666">
        <ele>177.2</ele>
        <time>2015-04-06T20:00:24.742Z</time>
      </trkpt>
      <trkpt lat="48.86745" lon="2.3967">
        <ele>177</ele>
        <time>2015-04-06T20:00:25.770Z</time>
      </trkpt>
      <trkpt lat="48.8674" lon="2.39673">
        <ele>177.1</ele>
        <time>2015-04-06T20:00:26.787Z</time>
      </trkpt>
      <trkpt lat="48.86735" lon="2.39675">
        <ele>177.6</ele>
        <time>2015-04-06T20:00:27.797Z</time>
      </trkpt>
      <trkpt lat="48.8673" lon="2.39679">
        <ele>177.8</ele>
        <time>2015-04-06T20:00:28.808Z</time>
      </trkpt>
      <trkpt lat="48.86724" lon="2.39682">
        <ele>178</ele>
        <time>2015-04-06T20:00:29.816Z</time>
      </trkpt>
      <trkpt lat="48.86719" lon="2.39686">
        <ele>178.3</ele>
        <time>2015-04-06T20:00:30.824Z</time>
      </trkpt>
      <trkpt lat="48.86713" lon="2.3969">
        <ele>178.4</ele>
        <time>2015-04-06T20:00:31.834Z</time>
      </trkpt>
      <trkpt lat="48.86707" lon="2.39695">
        <ele>179.2</ele>
        <time>2015-04-06T20:00:32.732Z</time>
      </trkpt>
      <trkpt lat="48.86702" lon="2.397">
        <ele>179.7</ele>
        <time>2015-04-06T20:00:33.737Z</time>
      </trkpt>
      <trkpt lat="48.86696" lon="2.39705">
        <ele>179.9</ele>
        <time>2015-04-06T20:00:34.739Z</time>
      </trkpt>
      <trkpt lat="48.86692" lon="2.3971">
        <ele>179.9</ele>
        <time>2015-04-06T20:00:35.746Z</time>
      </trkpt>
      <trkpt lat="48.86686" lon="2.39714">
        <ele>180.3</ele>
        <time>2015-04-06T20:00:36.753Z</time>
      </trkpt>
      <trkpt lat="48.86681" lon="2.39717">
        <ele>180.5</ele>
        <time>2015-04-06T20:00:37.771Z</time>
      </trkpt>
      <trkpt lat="48.86676" lon="2.39723">
        <ele>181</ele>
        <time>2015-04-06T20:00:38.776Z</time>
      </trkpt>
      <trkpt lat="48.86671" lon="2.39728">
        <ele>181.2</ele>
        <time>2015-04-06T20:00:39.788Z</time>
      </trkpt>
      <trkpt lat="48.86665" lon="2.39729">
        <ele>180.5</ele>
        <time>2015-04-06T20:00:40.794Z</time>
      </trkpt>
      <trkpt lat="48.86661" lon="2.39732">
        <ele>180.1</ele>
        <time>2015-04-06T20:00:41.808Z</time>
      </trkpt>
      <trkpt lat="48.86654" lon="2.39735">
        <ele>179.4</ele>
        <time>2015-04-06T20:00:43.819Z</time>
      </trkpt>
      <trkpt lat="48.86649" lon="2.39737">
        <ele>179.7</ele>
        <time>2015-04-06T20:00:44.831Z</time>
      </trkpt>
      <trkpt lat="48.86645" lon="2.3974">
        <ele>180</ele>
        <time>2015-04-06T20:00:45.740Z</time>
      </trkpt>
      <trkpt lat="48.86639" lon="2.39743">
        <ele>180.1</ele>
        <time>2015-04-06T20:00:46.743Z</time>
      </trkpt>
      <trkpt lat="48.86633" lon="2.39745">
        <ele>179.6</ele>
        <time>2015-04-06T20:00:47.757Z</time>
      </trkpt>
      <trkpt lat="48.86627" lon="2.39749">
        <ele>179.7</ele>
        <time>2015-04-06T20:00:48.767Z</time>
      </trkpt>
      <trkpt lat="48.86621" lon="2.39755">
        <ele>180</ele>
        <time>2015-04-06T20:00:49.770Z</time>
      </trkpt>
      <trkpt lat="48.86616" lon="2.39761">
        <ele>180.3</ele>
        <time>2015-04-06T20:00:50.772Z</time>
      </trkpt>
      <trkpt lat="48.8661" lon="2.39766">
        <ele>180.3</ele>
        <time>2015-04-06T20:00:51.793Z</time>
      </trkpt>
      <trkpt lat="48.86603" lon="2.39772">
        <ele>179.9</ele>
        <time>2015-04-06T20:00:52.812Z</time>
      </trkpt>
      <trkpt lat="48.86596" lon="2.39779">
        <ele>180.3</ele>
        <time>2015-04-06T20:00:53.741Z</time>
      </trkpt>
      <trkpt lat="48.86591" lon="2.39784">
        <ele>180.5</ele>
        <time>2015-04-06T20:00:54.741Z</time>
      </trkpt>
      <trkpt lat="48.86585" lon="2.3979">
        <ele>180.7</ele>
        <time>2015-04-06T20:00:55.787Z</time>
      </trkpt>
      <trkpt lat="48.86579" lon="2.39795">
        <ele>181.1</ele>
        <time>2015-04-06T20:00:56.789Z</time>
      </trkpt>
      <trkpt lat="48.86573" lon="2.398">
        <ele>180.8</ele>
        <time>2015-04-06T20:00:57.804Z</time>
      </trkpt>
      <trkpt lat="48.86567" lon="2.39805">
        <ele>180.6</ele>
        <time>2015-04-06T20:00:58.820Z</time>
      </trkpt>
      <trkpt lat="48.86561" lon="2.39814">
        <ele>180.7</ele>
        <time>2015-04-06T20:01:00.751Z</time>
      </trkpt>
      <trkpt lat="48.86558" lon="2.39817">
        <ele>181.1</ele>
        <time>2015-04-06T20:01:01.849Z</time>
      </trkpt>
      <trkpt lat="48.86551" lon="2.39823">
        <ele>181.8</ele>
        <time>2015-04-06T20:01:03.752Z</time>
      </trkpt>
      <trkpt lat="48.86545" lon="2.39827">
        <ele>182.1</ele>
        <time>2015-04-06T20:01:04.773Z</time>
      </trkpt>
      <trkpt lat="48.8654" lon="2.39831">
        <ele>182.2</ele>
        <time>2015-04-06T20:01:05.827Z</time>
      </trkpt>
      <trkpt lat="48.86536" lon="2.39833">
        <ele>182.2</ele>
        <time>2015-04-06T20:01:06.750Z</time>
      </trkpt>
      <trkpt lat="48.86533" lon="2.39837">
        <ele>182.3</ele>
        <time>2015-04-06T20:01:07.841Z</time>
      </trkpt>
      <trkpt lat="48.86528" lon="2.39841">
        <ele>182.2</ele>
        <time>2015-04-06T20:01:08.742Z</time>
      </trkpt>
      <trkpt lat="48.86524" lon="2.39845">
        <ele>182.2</ele>
        <time>2015-04-06T20:01:09.772Z</time>
      </trkpt>
      <trkpt lat="48.8652" lon="2.39849">
        <ele>182</ele>
        <time>2015-04-06T20:01:10.839Z</time>
      </trkpt>
      <trkpt lat="48.86512" lon="2.39856">
        <ele>181.6</ele>
        <time>2015-04-06T20:01:12.771Z</time>
      </trkpt>
      <trkpt lat="48.86508" lon="2.39856">
        <ele>181.3</ele>
        <time>2015-04-06T20:01:13.795Z</time>
      </trkpt>
      <trkpt lat="48.865" lon="2.39852">
        <ele>177.5</ele>
        <time>2015-04-06T20:01:16.740Z</time>
      </trkpt>
      <trkpt lat="48.86499" lon="2.39849">
        <ele>176</ele>
        <time>2015-04-06T20:01:17.757Z</time>
      </trkpt>
      <trkpt lat="48.86492" lon="2.39841">
        <ele>150.2</ele>
        <time>2015-04-06T20:02:11.761Z</time>
      </trkpt>
      <trkpt lat="48.8649" lon="2.39841">
        <ele>149.9</ele>
        <time>2015-04-06T20:02:12.783Z</time>
      </trkpt>
      <trkpt lat="48.8649" lon="2.39841">
        <ele>149.9</ele>
        <time>2015-04-06T20:02:51.848Z</time>
      </trkpt>
      <trkpt lat="48.86477" lon="2.39849">
        <ele>153.7</ele>
        <time>2015-04-06T20:02:52.780Z</time>
      </trkpt>
      <trkpt lat="48.86471" lon="2.39858">
        <ele>154.7</ele>
        <time>2015-04-06T20:02:56.834Z</time>
      </trkpt>
      <trkpt lat="48.8647" lon="2.3986">
        <ele>154.9</ele>
        <time>2015-04-06T20:02:57.741Z</time>
      </trkpt>
      <trkpt lat="48.86466" lon="2.39868">
        <ele>154.7</ele>
        <time>2015-04-06T20:03:00.803Z</time>
      </trkpt>
      <trkpt lat="48.86464" lon="2.39871">
        <ele>154.1</ele>
        <time>2015-04-06T20:03:01.807Z</time>
      </trkpt>
      <trkpt lat="48.86459" lon="2.39877">
        <ele>153.7</ele>
        <time>2015-04-06T20:03:03.827Z</time>
      </trkpt>
      <trkpt lat="48.86456" lon="2.39879">
        <ele>153.8</ele>
        <time>2015-04-06T20:03:04.850Z</time>
      </trkpt>
      <trkpt lat="48.86451" lon="2.39884">
        <ele>154.2</ele>
        <time>2015-04-06T20:03:06.751Z</time>
      </trkpt>
      <trkpt lat="48.86448" lon="2.39887">
        <ele>154.5</ele>
        <time>2015-04-06T20:03:07.817Z</time>
      </trkpt>
      <trkpt lat="48.86443" lon="2.39892">
        <ele>155.2</ele>
        <time>2015-04-06T20:03:09.750Z</time>
      </trkpt>
      <trkpt lat="48.86439" lon="2.39894">
        <ele>155.2</ele>
        <time>2015-04-06T20:03:10.775Z</time>
      </trkpt>
      <trkpt lat="48.86432" lon="2.399">
        <ele>155.4</ele>
        <time>2015-04-06T20:03:12.807Z</time>
      </trkpt>
      <trkpt lat="48.86428" lon="2.39905">
        <ele>155.7</ele>
        <time>2015-04-06T20:03:13.844Z</time>
      </trkpt>
      <trkpt lat="48.86421" lon="2.39912">
        <ele>156</ele>
        <time>2015-04-06T20:03:15.755Z</time>
      </trkpt>
      <trkpt lat="48.86417" lon="2.39916">
        <ele>156.2</ele>
        <time>2015-04-06T20:03:16.759Z</time>
      </trkpt>
      <trkpt lat="48.86409" lon="2.39921">
        <ele>156.5</ele>
        <time>2015-04-06T20:03:18.777Z</time>
      </trkpt>
      <trkpt lat="48.86405" lon="2.39924">
        <ele>156.5</ele>
        <time>2015-04-06T20:03:19.800Z</time>
      </trkpt>
      <trkpt lat="48.86398" lon="2.39928">
        <ele>157</ele>
        <time>2015-04-06T20:03:21.816Z</time>
      </trkpt>
      <trkpt lat="48.86394" lon="2.3993">
        <ele>157.2</ele>
        <time>2015-04-06T20:03:22.833Z</time>
      </trkpt>
      <trkpt lat="48.86389" lon="2.39932">
        <ele>157.6</ele>
        <time>2015-04-06T20:03:23.750Z</time>
      </trkpt>
      <trkpt lat="48.86384" lon="2.39937">
        <ele>158.2</ele>
        <time>2015-04-06T20:03:24.755Z</time>
      </trkpt>
      <trkpt lat="48.86378" lon="2.3994">
        <ele>158.6</ele>
        <time>2015-04-06T20:03:25.796Z</time>
      </trkpt>
      <trkpt lat="48.86372" lon="2.39944">
        <ele>159.2</ele>
        <time>2015-04-06T20:03:26.796Z</time>
      </trkpt>
      <trkpt lat="48.86365" lon="2.39949">
        <ele>160</ele>
        <time>2015-04-06T20:03:27.787Z</time>
      </trkpt>
      <trkpt lat="48.86358" lon="2.39955">
        <ele>160.7</ele>
        <time>2015-04-06T20:03:28.795Z</time>
      </trkpt>
      <trkpt lat="48.8635" lon="2.3996">
        <ele>161</ele>
        <time>2015-04-06T20:03:29.808Z</time>
      </trkpt>
      <trkpt lat="48.86343" lon="2.39966">
        <ele>161.4</ele>
        <time>2015-04-06T20:03:30.804Z</time>
      </trkpt>
      <trkpt lat="48.86338" lon="2.39976">
        <ele>161.9</ele>
        <time>2015-04-06T20:03:31.818Z</time>
      </trkpt>
      <trkpt lat="48.86332" lon="2.39985">
        <ele>162.5</ele>
        <time>2015-04-06T20:03:32.821Z</time>
      </trkpt>
      <trkpt lat="48.86326" lon="2.39994">
        <ele>163.2</ele>
        <time>2015-04-06T20:03:33.834Z</time>
      </trkpt>
      <trkpt lat="48.8632" lon="2.40003">
        <ele>164.3</ele>
        <time>2015-04-06T20:03:34.746Z</time>
      </trkpt>
      <trkpt lat="48.86314" lon="2.40007">
        <ele>164.9</ele>
        <time>2015-04-06T20:03:35.760Z</time>
      </trkpt>
      <trkpt lat="48.86307" lon="2.40013">
        <ele>165.8</ele>
        <time>2015-04-06T20:03:36.775Z</time>
      </trkpt>
      <trkpt lat="48.863" lon="2.40016">
        <ele>166.2</ele>
        <time>2015-04-06T20:03:37.801Z</time>
      </trkpt>
      <trkpt lat="48.86294" lon="2.4002">
        <ele>166.9</ele>
        <time>2015-04-06T20:03:38.792Z</time>
      </trkpt>
      <trkpt lat="48.86287" lon="2.40023">
        <ele>167.5</ele>
        <time>2015-04-06T20:03:39.803Z</time>
      </trkpt>
      <trkpt lat="48.86281" lon="2.40026">
        <ele>168</ele>
        <time>2015-04-06T20:03:40.808Z</time>
      </trkpt>
      <trkpt lat="48.86274" lon="2.40027">
        <ele>168.6</ele>
        <time>2015-04-06T20:03:41.818Z</time>
      </trkpt>
      <trkpt lat="48.86267" lon="2.40029">
        <ele>168.9</ele>
        <time>2015-04-06T20:03:42.736Z</time>
      </trkpt>
      <trkpt lat="48.86261" lon="2.40031">
        <ele>169.2</ele>
        <time>2015-04-06T20:03:43.853Z</time>
      </trkpt>
      <trkpt lat="48.86254" lon="2.40032">
        <ele>169.1</ele>
        <time>2015-04-06T20:03:44.736Z</time>
      </trkpt>
      <trkpt lat="48.86247" lon="2.40033">
        <ele>169.2</ele>
        <time>2015-04-06T20:03:45.747Z</time>
      </trkpt>
      <trkpt lat="48.86241" lon="2.40035">
        <ele>169.2</ele>
        <time>2015-04-06T20:03:46.757Z</time>
      </trkpt>
      <trkpt lat="48.86234" lon="2.40037">
        <ele>169.1</ele>
        <time>2015-04-06T20:03:47.759Z</time>
      </trkpt>
      <trkpt lat="48.86227" lon="2.40034">
        <ele>167.8</ele>
        <time>2015-04-06T20:03:48.759Z</time>
      </trkpt>
      <trkpt lat="48.8622" lon="2.40034">
        <ele>167.4</ele>
        <time>2015-04-06T20:03:49.824Z</time>
      </trkpt>
      <trkpt lat="48.86212" lon="2.40035">
        <ele>166.6</ele>
        <time>2015-04-06T20:03:50.761Z</time>
      </trkpt>
      <trkpt lat="48.86206" lon="2.40035">
        <ele>165.9</ele>
        <time>2015-04-06T20:03:51.745Z</time>
      </trkpt>
      <trkpt lat="48.86199" lon="2.40037">
        <ele>166.6</ele>
        <time>2015-04-06T20:03:52.740Z</time>
      </trkpt>
      <trkpt lat="48.86193" lon="2.40037">
        <ele>166.1</ele>
        <time>2015-04-06T20:03:53.760Z</time>
      </trkpt>
      <trkpt lat="48.86187" lon="2.40038">
        <ele>165.5</ele>
        <time>2015-04-06T20:03:54.767Z</time>
      </trkpt>
      <trkpt lat="48.85918" lon="2.40225">
        <ele>163.9</ele>
        <time>2015-04-06T20:04:38.813Z</time>
      </trkpt>
      <trkpt lat="48.85912" lon="2.40234">
        <ele>159.5</ele>
        <time>2015-04-06T20:04:40.746Z</time>
      </trkpt>
      <trkpt lat="48.85908" lon="2.40238">
        <ele>157.8</ele>
        <time>2015-04-06T20:04:41.757Z</time>
      </trkpt>
      <trkpt lat="48.859" lon="2.40243">
        <ele>157.3</ele>
        <time>2015-04-06T20:04:43.818Z</time>
      </trkpt>
      <trkpt lat="48.85896" lon="2.40248">
        <ele>157.6</ele>
        <time>2015-04-06T20:04:44.844Z</time>
      </trkpt>
      <trkpt lat="48.85892" lon="2.40253">
        <ele>157.8</ele>
        <time>2015-04-06T20:04:45.766Z</time>
      </trkpt>
      <trkpt lat="48.85888" lon="2.40258">
        <ele>157.9</ele>
        <time>2015-04-06T20:04:46.781Z</time>
      </trkpt>
      <trkpt lat="48.85884" lon="2.40263">
        <ele>158.1</ele>
        <time>2015-04-06T20:04:47.787Z</time>
      </trkpt>
      <trkpt lat="48.85879" lon="2.40269">
        <ele>158.5</ele>
        <time>2015-04-06T20:04:48.792Z</time>
      </trkpt>
      <trkpt lat="48.85875" lon="2.40275">
        <ele>158.9</ele>
        <time>2015-04-06T20:04:49.804Z</time>
      </trkpt>
      <trkpt lat="48.85869" lon="2.4028">
        <ele>159.2</ele>
        <time>2015-04-06T20:04:50.827Z</time>
      </trkpt>
      <trkpt lat="48.85862" lon="2.4029">
        <ele>158.6</ele>
        <time>2015-04-06T20:04:51.735Z</time>
      </trkpt>
      <trkpt lat="48.85856" lon="2.403">
        <ele>158.4</ele>
        <time>2015-04-06T20:04:52.734Z</time>
      </trkpt>
      <trkpt lat="48.85851" lon="2.40309">
        <ele>157.8</ele>
        <time>2015-04-06T20:04:53.734Z</time>
      </trkpt>
      <trkpt lat="48.85846" lon="2.40317">
        <ele>157.2</ele>
        <time>2015-04-06T20:04:54.748Z</time>
      </trkpt>
      <trkpt lat="48.85839" lon="2.40324">
        <ele>156.7</ele>
        <time>2015-04-06T20:04:55.853Z</time>
      </trkpt>
      <trkpt lat="48.85831" lon="2.4033">
        <ele>156.3</ele>
        <time>2015-04-06T20:04:56.825Z</time>
      </trkpt>
      <trkpt lat="48.85825" lon="2.40336">
        <ele>155.9</ele>
        <time>2015-04-06T20:04:57.831Z</time>
      </trkpt>
      <trkpt lat="48.8582" lon="2.4034">
        <ele>156</ele>
        <time>2015-04-06T20:04:58.759Z</time>
      </trkpt>
      <trkpt lat="48.85816" lon="2.40344">
        <ele>154.6</ele>
        <time>2015-04-06T20:04:59.740Z</time>
      </trkpt>
      <trkpt lat="48.85811" lon="2.4035">
        <ele>152.3</ele>
        <time>2015-04-06T20:05:00.749Z</time>
      </trkpt>
      <trkpt lat="48.85807" lon="2.40355">
        <ele>150.1</ele>
        <time>2015-04-06T20:05:01.778Z</time>
      </trkpt>
      <trkpt lat="48.85802" lon="2.4036">
        <ele>147.4</ele>
        <time>2015-04-06T20:05:02.775Z</time>
      </trkpt>
      <trkpt lat="48.85797" lon="2.40367">
        <ele>145.2</ele>
        <time>2015-04-06T20:05:03.787Z</time>
      </trkpt>
      <trkpt lat="48.85783" lon="2.40385">
        <ele>145.1</ele>
        <time>2015-04-06T20:05:05.829Z</time>
      </trkpt>
      <trkpt lat="48.85765" lon="2.40409">
        <ele>145</ele>
        <time>2015-04-06T20:05:08.782Z</time>
      </trkpt>
      <trkpt lat="48.85759" lon="2.40416">
        <ele>144.7</ele>
        <time>2015-04-06T20:05:09.819Z</time>
      </trkpt>
      <trkpt lat="48.85753" lon="2.4042">
        <ele>144.4</ele>
        <time>2015-04-06T20:05:10.836Z</time>
      </trkpt>
      <trkpt lat="48.85746" lon="2.40426">
        <ele>144</ele>
        <time>2015-04-06T20:05:11.759Z</time>
      </trkpt>
      <trkpt lat="48.85741" lon="2.40433">
        <ele>144.1</ele>
        <time>2015-04-06T20:05:12.779Z</time>
      </trkpt>
      <trkpt lat="48.85734" lon="2.40439">
        <ele>144.4</ele>
        <time>2015-04-06T20:05:13.864Z</time>
      </trkpt>
      <trkpt lat="48.85727" lon="2.40444">
        <ele>144.8</ele>
        <time>2015-04-06T20:05:14.760Z</time>
      </trkpt>
      <trkpt lat="48.85721" lon="2.40449">
        <ele>145.2</ele>
        <time>2015-04-06T20:05:15.783Z</time>
      </trkpt>
      <trkpt lat="48.85715" lon="2.40455">
        <ele>145.6</ele>
        <time>2015-04-06T20:05:16.791Z</time>
      </trkpt>
      <trkpt lat="48.8571" lon="2.4046">
        <ele>145.8</ele>
        <time>2015-04-06T20:05:17.822Z</time>
      </trkpt>
      <trkpt lat="48.85705" lon="2.40466">
        <ele>146.1</ele>
        <time>2015-04-06T20:05:18.831Z</time>
      </trkpt>
      <trkpt lat="48.85699" lon="2.40472">
        <ele>146.9</ele>
        <time>2015-04-06T20:05:19.871Z</time>
      </trkpt>
      <trkpt lat="48.85693" lon="2.40478">
        <ele>147.3</ele>
        <time>2015-04-06T20:05:20.735Z</time>
      </trkpt>
      <trkpt lat="48.85687" lon="2.40482">
        <ele>148.3</ele>
        <time>2015-04-06T20:05:21.753Z</time>
      </trkpt>
      <trkpt lat="48.85681" lon="2.40486">
        <ele>148.3</ele>
        <time>2015-04-06T20:05:22.757Z</time>
      </trkpt>
      <trkpt lat="48.85676" lon="2.4049">
        <ele>148.5</ele>
        <time>2015-04-06T20:05:23.781Z</time>
      </trkpt>
      <trkpt lat="48.8567" lon="2.40492">
        <ele>148.2</ele>
        <time>2015-04-06T20:05:24.787Z</time>
      </trkpt>
      <trkpt lat="48.85652" lon="2.40502">
        <ele>147.6</ele>
        <time>2015-04-06T20:05:27.841Z</time>
      </trkpt>
      <trkpt lat="48.85647" lon="2.40505">
        <ele>147.9</ele>
        <time>2015-04-06T20:05:28.738Z</time>
      </trkpt>
      <trkpt lat="48.85642" lon="2.40506">
        <ele>147.9</ele>
        <time>2015-04-06T20:05:29.736Z</time>
      </trkpt>
      <trkpt lat="48.85637" lon="2.40508">
        <ele>147.8</ele>
        <time>2015-04-06T20:05:30.758Z</time>
      </trkpt>
      <trkpt lat="48.85631" lon="2.4051">
        <ele>147.4</ele>
        <time>2015-04-06T20:05:31.793Z</time>
      </trkpt>
      <trkpt lat="48.85625" lon="2.4051">
        <ele>147</ele>
        <time>2015-04-06T20:05:32.803Z</time>
      </trkpt>
      <trkpt lat="48.8562" lon="2.40512">
        <ele>146.6</ele>
        <time>2015-04-06T20:05:33.808Z</time>
      </trkpt>
      <trkpt lat="48.85616" lon="2.40515">
        <ele>146.6</ele>
        <time>2015-04-06T20:05:34.809Z</time>
      </trkpt>
      <trkpt lat="48.85611" lon="2.4052">
        <ele>146.4</ele>
        <time>2015-04-06T20:05:35.837Z</time>
      </trkpt>
      <trkpt lat="48.85606" lon="2.40526">
        <ele>146.3</ele>
        <time>2015-04-06T20:05:36.739Z</time>
      </trkpt>
      <trkpt lat="48.85595" lon="2.40534">
        <ele>146</ele>
        <time>2015-04-06T20:05:38.775Z</time>
      </trkpt>
      <trkpt lat="48.85591" lon="2.40537">
        <ele>145.7</ele>
        <time>2015-04-06T20:05:39.788Z</time>
      </trkpt>
      <trkpt lat="48.85577" lon="2.40541">
        <ele>145.2</ele>
        <time>2015-04-06T20:05:42.761Z</time>
      </trkpt>
      <trkpt lat="48.85302" lon="2.40611">
        <ele>153.4</ele>
        <time>2015-04-06T20:06:20.812Z</time>
      </trkpt>
      <trkpt lat="48.85295" lon="2.40612">
        <ele>153.9</ele>
        <time>2015-04-06T20:06:21.738Z</time>
      </trkpt>
      <trkpt lat="48.85288" lon="2.40614">
        <ele>154.5</ele>
        <time>2015-04-06T20:06:22.737Z</time>
      </trkpt>
      <trkpt lat="48.85282" lon="2.40615">
        <ele>155</ele>
        <time>2015-04-06T20:06:24.774Z</time>
      </trkpt>
      <trkpt lat="48.85277" lon="2.40617">
        <ele>154.6</ele>
        <time>2015-04-06T20:06:25.795Z</time>
      </trkpt>
      <trkpt lat="48.85269" lon="2.40621">
        <ele>152.8</ele>
        <time>2015-04-06T20:06:27.736Z</time>
      </trkpt>
      <trkpt lat="48.85267" lon="2.40621">
        <ele>152.6</ele>
        <time>2015-04-06T20:06:28.758Z</time>
      </trkpt>
      <trkpt lat="48.85259" lon="2.40621">
        <ele>151.3</ele>
        <time>2015-04-06T20:06:30.755Z</time>
      </trkpt>
      <trkpt lat="48.85255" lon="2.40621">
        <ele>151.1</ele>
        <time>2015-04-06T20:06:31.795Z</time>
      </trkpt>
      <trkpt lat="48.85247" lon="2.40622">
        <ele>151.2</ele>
        <time>2015-04-06T20:06:33.738Z</time>
      </trkpt>
      <trkpt lat="48.85241" lon="2.40623">
        <ele>151.2</ele>
        <time>2015-04-06T20:06:34.780Z</time>
      </trkpt>
      <trkpt lat="48.85232" lon="2.40627">
        <ele>151.7</ele>
        <time>2015-04-06T20:06:36.809Z</time>
      </trkpt>
      <trkpt lat="48.85224" lon="2.40629">
        <ele>151.9</ele>
        <time>2015-04-06T20:06:37.833Z</time>
      </trkpt>
      <trkpt lat="48.85218" lon="2.4063">
        <ele>151.6</ele>
        <time>2015-04-06T20:06:38.759Z</time>
      </trkpt>
      <trkpt lat="48.85214" lon="2.4063">
        <ele>151</ele>
        <time>2015-04-06T20:06:39.751Z</time>
      </trkpt>
      <trkpt lat="48.85208" lon="2.40632">
        <ele>150.5</ele>
        <time>2015-04-06T20:06:40.761Z</time>
      </trkpt>
      <trkpt lat="48.85203" lon="2.40634">
        <ele>150.1</ele>
        <time>2015-04-06T20:06:41.780Z</time>
      </trkpt>
      <trkpt lat="48.85198" lon="2.40636">
        <ele>149.8</ele>
        <time>2015-04-06T20:06:42.797Z</time>
      </trkpt>
      <trkpt lat="48.85193" lon="2.40641">
        <ele>149.6</ele>
        <time>2015-04-06T20:06:43.792Z</time>
      </trkpt>
      <trkpt lat="48.85188" lon="2.40645">
        <ele>149.6</ele>
        <time>2015-04-06T20:06:44.789Z</time>
      </trkpt>
      <trkpt lat="48.85183" lon="2.40648">
        <ele>149.4</ele>
        <time>2015-04-06T20:06:45.813Z</time>
      </trkpt>
      <trkpt lat="48.85176" lon="2.40649">
        <ele>149.5</ele>
        <time>2015-04-06T20:06:46.771Z</time>
      </trkpt>
      <trkpt lat="48.85169" lon="2.40648">
        <ele>149.2</ele>
        <time>2015-04-06T20:06:47.728Z</time>
      </trkpt>
      <trkpt lat="48.85161" lon="2.40647">
        <ele>148.7</ele>
        <time>2015-04-06T20:06:48.728Z</time>
      </trkpt>
      <trkpt lat="48.85155" lon="2.40646">
        <ele>148.1</ele>
        <time>2015-04-06T20:06:49.829Z</time>
      </trkpt>
      <trkpt lat="48.85149" lon="2.40644">
        <ele>147.2</ele>
        <time>2015-04-06T20:06:50.744Z</time>
      </trkpt>
      <trkpt lat="48.84893" lon="2.40658">
        <ele>153.4</ele>
        <time>2015-04-06T20:07:41.785Z</time>
      </trkpt>
      <trkpt lat="48.84887" lon="2.4066">
        <ele>154.2</ele>
        <time>2015-04-06T20:07:43.794Z</time>
      </trkpt>
      <trkpt lat="48.84883" lon="2.4066">
        <ele>154.5</ele>
        <time>2015-04-06T20:07:44.813Z</time>
      </trkpt>
      <trkpt lat="48.84876" lon="2.40659">
        <ele>155.1</ele>
        <time>2015-04-06T20:07:46.760Z</time>
      </trkpt>
      <trkpt lat="48.84873" lon="2.40658">
        <ele>155.3</ele>
        <time>2015-04-06T20:07:47.736Z</time>
      </trkpt>
      <trkpt lat="48.84866" lon="2.40652">
        <ele>155.8</ele>
        <time>2015-04-06T20:07:49.810Z</time>
      </trkpt>
      <trkpt lat="48.84863" lon="2.40649">
        <ele>156.1</ele>
        <time>2015-04-06T20:07:50.831Z</time>
      </trkpt>
      <trkpt lat="48.84855" lon="2.40645">
        <ele>156.1</ele>
        <time>2015-04-06T20:07:52.746Z</time>
      </trkpt>
      <trkpt lat="48.8485" lon="2.40644">
        <ele>156.3</ele>
        <time>2015-04-06T20:07:53.754Z</time>
      </trkpt>
      <trkpt lat="48.84842" lon="2.40641">
        <ele>157</ele>
        <time>2015-04-06T20:07:55.787Z</time>
      </trkpt>
      <trkpt lat="48.84805" lon="2.40631">
        <ele>159.1</ele>
        <time>2015-04-06T20:08:07.813Z</time>
      </trkpt>
      <trkpt lat="48.84796" lon="2.4063">
        <ele>159.6</ele>
        <time>2015-04-06T20:08:12.530Z</time>
      </trkpt>
      <trkpt lat="48.84794" lon="2.40632">
        <ele>158.2</ele>
        <time>2015-04-06T20:08:12.793Z</time>
      </trkpt>
      <trkpt lat="48.84788" lon="2.40636">
        <ele>154.8</ele>
        <time>2015-04-06T20:08:14.737Z</time>
      </trkpt>
      <trkpt lat="48.84785" lon="2.40639">
        <ele>152.6</ele>
        <time>2015-04-06T20:08:15.779Z</time>
      </trkpt>
      <trkpt lat="48.84784" lon="2.40637">
        <ele>172.7</ele>
        <time>2015-04-06T20:10:06.775Z</time>
      </trkpt>
      <trkpt lat="48.84766" lon="2.40655">
        <ele>169.8</ele>
        <time>2015-04-06T20:10:07.816Z</time>
      </trkpt>
      <trkpt lat="48.8476" lon="2.40654">
        <ele>168.9</ele>
        <time>2015-04-06T20:10:10.821Z</time>
      </trkpt>
      <trkpt lat="48.84757" lon="2.40654">
        <ele>168</ele>
        <time>2015-04-06T20:10:11.851Z</time>
      </trkpt>
      <trkpt lat="48.84748" lon="2.40651">
        <ele>167.3</ele>
        <time>2015-04-06T20:10:15.819Z</time>
      </trkpt>
      <trkpt lat="48.84747" lon="2.4065">
        <ele>166.6</ele>
        <time>2015-04-06T20:10:16.836Z</time>
      </trkpt>
      <trkpt lat="48.84743" lon="2.4064">
        <ele>154.3</ele>
        <time>2015-04-06T20:10:29.752Z</time>
      </trkpt>
      <trkpt lat="48.84741" lon="2.40638">
        <ele>153.1</ele>
        <time>2015-04-06T20:10:30.794Z</time>
      </trkpt>
      <trkpt lat="48.84734" lon="2.40636">
        <ele>149.5</ele>
        <time>2015-04-06T20:10:33.826Z</time>
      </trkpt>
      <trkpt lat="48.8473" lon="2.40636">
        <ele>149</ele>
        <time>2015-04-06T20:10:34.766Z</time>
      </trkpt>
      <trkpt lat="48.84723" lon="2.40636">
        <ele>147.5</ele>
        <time>2015-04-06T20:10:36.774Z</time>
      </trkpt>
      <trkpt lat="48.8472" lon="2.40636">
        <ele>147</ele>
        <time>2015-04-06T20:10:37.890Z</time>
      </trkpt>
      <trkpt lat="48.84711" lon="2.40634">
        <ele>145.3</ele>
        <time>2015-04-06T20:10:40.775Z</time>
      </trkpt>
      <trkpt lat="48.84707" lon="2.40632">
        <ele>144.9</ele>
        <time>2015-04-06T20:10:41.796Z</time>
      </trkpt>
      <trkpt lat="48.84701" lon="2.40632">
        <ele>144.3</ele>
        <time>2015-04-06T20:10:42.824Z</time>
      </trkpt>
      <trkpt lat="48.84696" lon="2.40631">
        <ele>144.1</ele>
        <time>2015-04-06T20:10:43.846Z</time>
      </trkpt>
      <trkpt lat="48.84693" lon="2.40628">
        <ele>143.8</ele>
        <time>2015-04-06T20:10:44.771Z</time>
      </trkpt>
      <trkpt lat="48.84687" lon="2.40626">
        <ele>143.5</ele>
        <time>2015-04-06T20:10:45.776Z</time>
      </trkpt>
      <trkpt lat="48.84683" lon="2.40624">
        <ele>143.3</ele>
        <time>2015-04-06T20:10:46.794Z</time>
      </trkpt>
      <trkpt lat="48.84677" lon="2.40622">
        <ele>143.2</ele>
        <time>2015-04-06T20:10:47.847Z</time>
      </trkpt>
      <trkpt lat="48.84672" lon="2.40621">
        <ele>143.2</ele>
        <time>2015-04-06T20:10:48.748Z</time>
      </trkpt>
      <trkpt lat="48.84667" lon="2.40619">
        <ele>143.2</ele>
        <time>2015-04-06T20:10:49.846Z</time>
      </trkpt>
      <trkpt lat="48.84661" lon="2.40616">
        <ele>143.3</ele>
        <time>2015-04-06T20:10:50.828Z</time>
      </trkpt>
      <trkpt lat="48.84653" lon="2.40613">
        <ele>143.3</ele>
        <time>2015-04-06T20:10:51.831Z</time>
      </trkpt>
      <trkpt lat="48.84462" lon="2.40574">
        <ele>135</ele>
        <time>2015-04-06T20:11:18.813Z</time>
      </trkpt>
      <trkpt lat="48.84458" lon="2.40565">
        <ele>133.1</ele>
        <time>2015-04-06T20:11:26.751Z</time>
      </trkpt>
      <trkpt lat="48.84456" lon="2.40563">
        <ele>133.4</ele>
        <time>2015-04-06T20:11:27.753Z</time>
      </trkpt>
      <trkpt lat="48.84448" lon="2.40559">
        <ele>133.8</ele>
        <time>2015-04-06T20:11:29.798Z</time>
      </trkpt>
      <trkpt lat="48.84443" lon="2.40558">
        <ele>133.8</ele>
        <time>2015-04-06T20:11:30.817Z</time>
      </trkpt>
      <trkpt lat="48.84438" lon="2.40557">
        <ele>133.9</ele>
        <time>2015-04-06T20:11:31.846Z</time>
      </trkpt>
      <trkpt lat="48.84433" lon="2.40557">
        <ele>134</ele>
        <time>2015-04-06T20:11:32.728Z</time>
      </trkpt>
      <trkpt lat="48.84429" lon="2.40555">
        <ele>133.7</ele>
        <time>2015-04-06T20:11:33.752Z</time>
      </trkpt>
      <trkpt lat="48.84423" lon="2.40555">
        <ele>133.2</ele>
        <time>2015-04-06T20:11:34.789Z</time>
      </trkpt>
      <trkpt lat="48.84415" lon="2.40556">
        <ele>131.9</ele>
        <time>2015-04-06T20:11:35.807Z</time>
      </trkpt>
      <trkpt lat="48.84408" lon="2.40555">
        <ele>131.1</ele>
        <time>2015-04-06T20:11:36.817Z</time>
      </trkpt>
      <trkpt lat="48.844" lon="2.40555">
        <ele>130.4</ele>
        <time>2015-04-06T20:11:37.839Z</time>
      </trkpt>
      <trkpt lat="48.84392" lon="2.40552">
        <ele>130.4</ele>
        <time>2015-04-06T20:11:38.754Z</time>
      </trkpt>
      <trkpt lat="48.84384" lon="2.4055">
        <ele>130.5</ele>
        <time>2015-04-06T20:11:39.801Z</time>
      </trkpt>
      <trkpt lat="48.84378" lon="2.40548">
        <ele>131</ele>
        <time>2015-04-06T20:11:40.817Z</time>
      </trkpt>
      <trkpt lat="48.84371" lon="2.40545">
        <ele>131.2</ele>
        <time>2015-04-06T20:11:41.730Z</time>
      </trkpt>
      <trkpt lat="48.84366" lon="2.40541">
        <ele>131.8</ele>
        <time>2015-04-06T20:11:42.720Z</time>
      </trkpt>
      <trkpt lat="48.84358" lon="2.40541">
        <ele>131.6</ele>
        <time>2015-04-06T20:11:43.790Z</time>
      </trkpt>
      <trkpt lat="48.84352" lon="2.4054">
        <ele>131.6</ele>
        <time>2015-04-06T20:11:44.811Z</time>
      </trkpt>
      <trkpt lat="48.84346" lon="2.4054">
        <ele>130.8</ele>
        <time>2015-04-06T20:11:45.719Z</time>
      </trkpt>
      <trkpt lat="48.84339" lon="2.4054">
        <ele>129.9</ele>
        <time>2015-04-06T20:11:46.728Z</time>
      </trkpt>
      <trkpt lat="48.84333" lon="2.40538">
        <ele>128.9</ele>
        <time>2015-04-06T20:11:47.740Z</time>
      </trkpt>
      <trkpt lat="48.8433" lon="2.40535">
        <ele>128.5</ele>
        <time>2015-04-06T20:11:48.745Z</time>
      </trkpt>
      <trkpt lat="48.84326" lon="2.40532">
        <ele>128.3</ele>
        <time>2015-04-06T20:11:49.806Z</time>
      </trkpt>
      <trkpt lat="48.84321" lon="2.40532">
        <ele>128.5</ele>
        <time>2015-04-06T20:11:50.722Z</time>
      </trkpt>
      <trkpt lat="48.84316" lon="2.40531">
        <ele>128.3</ele>
        <time>2015-04-06T20:11:51.729Z</time>
      </trkpt>
      <trkpt lat="48.8431" lon="2.4053">
        <ele>128.2</ele>
        <time>2015-04-06T20:11:52.742Z</time>
      </trkpt>
      <trkpt lat="48.84302" lon="2.40532">
        <ele>127.2</ele>
        <time>2015-04-06T20:11:53.722Z</time>
      </trkpt>
      <trkpt lat="48.84297" lon="2.40529">
        <ele>126.8</ele>
        <time>2015-04-06T20:11:54.726Z</time>
      </trkpt>
      <trkpt lat="48.84292" lon="2.40527">
        <ele>126.7</ele>
        <time>2015-04-06T20:11:55.777Z</time>
      </trkpt>
      <trkpt lat="48.84288" lon="2.40524">
        <ele>126.7</ele>
        <time>2015-04-06T20:11:56.785Z</time>
      </trkpt>
      <trkpt lat="48.84282" lon="2.40522">
        <ele>126.5</ele>
        <time>2015-04-06T20:11:57.811Z</time>
      </trkpt>
      <trkpt lat="48.84276" lon="2.4052">
        <ele>126.4</ele>
        <time>2015-04-06T20:11:58.704Z</time>
      </trkpt>
      <trkpt lat="48.84269" lon="2.40518">
        <ele>126.2</ele>
        <time>2015-04-06T20:11:59.753Z</time>
      </trkpt>
      <trkpt lat="48.84263" lon="2.40517">
        <ele>125.7</ele>
        <time>2015-04-06T20:12:00.776Z</time>
      </trkpt>
      <trkpt lat="48.84257" lon="2.40516">
        <ele>125.6</ele>
        <time>2015-04-06T20:12:01.792Z</time>
      </trkpt>
      <trkpt lat="48.8425" lon="2.40513">
        <ele>125.4</ele>
        <time>2015-04-06T20:12:02.808Z</time>
      </trkpt>
      <trkpt lat="48.84243" lon="2.40514">
        <ele>125</ele>
        <time>2015-04-06T20:12:03.725Z</time>
      </trkpt>
      <trkpt lat="48.84235" lon="2.40514">
        <ele>124</ele>
        <time>2015-04-06T20:12:04.727Z</time>
      </trkpt>
      <trkpt lat="48.84229" lon="2.40514">
        <ele>124</ele>
        <time>2015-04-06T20:12:05.744Z</time>
      </trkpt>
      <trkpt lat="48.84223" lon="2.40514">
        <ele>124.2</ele>
        <time>2015-04-06T20:12:06.764Z</time>
      </trkpt>
      <trkpt lat="48.84217" lon="2.4051">
        <ele>123.9</ele>
        <time>2015-04-06T20:12:07.792Z</time>
      </trkpt>
      <trkpt lat="48.8421" lon="2.40508">
        <ele>123.7</ele>
        <time>2015-04-06T20:12:08.796Z</time>
      </trkpt>
      <trkpt lat="48.84205" lon="2.40505">
        <ele>123.5</ele>
        <time>2015-04-06T20:12:09.811Z</time>
      </trkpt>
      <trkpt lat="48.84199" lon="2.40503">
        <ele>123.4</ele>
        <time>2015-04-06T20:12:10.743Z</time>
      </trkpt>
      <trkpt lat="48.84193" lon="2.40499">
        <ele>123.2</ele>
        <time>2015-04-06T20:12:11.732Z</time>
      </trkpt>
      <trkpt lat="48.84187" lon="2.40495">
        <ele>122.9</ele>
        <time>2015-04-06T20:12:12.743Z</time>
      </trkpt>
      <trkpt lat="48.84183" lon="2.40491">
        <ele>122.6</ele>
        <time>2015-04-06T20:12:13.761Z</time>
      </trkpt>
      <trkpt lat="48.84178" lon="2.40488">
        <ele>122.4</ele>
        <time>2015-04-06T20:12:14.768Z</time>
      </trkpt>
      <trkpt lat="48.84174" lon="2.40486">
        <ele>122.5</ele>
        <time>2015-04-06T20:12:15.774Z</time>
      </trkpt>
      <trkpt lat="48.84169" lon="2.40486">
        <ele>122.9</ele>
        <time>2015-04-06T20:12:16.781Z</time>
      </trkpt>
      <trkpt lat="48.84163" lon="2.40486">
        <ele>123.4</ele>
        <time>2015-04-06T20:12:17.787Z</time>
      </trkpt>
      <trkpt lat="48.84158" lon="2.40484">
        <ele>123.7</ele>
        <time>2015-04-06T20:12:18.792Z</time>
      </trkpt>
      <trkpt lat="48.8415" lon="2.40477">
        <ele>122.9</ele>
        <time>2015-04-06T20:12:20.726Z</time>
      </trkpt>
      <trkpt lat="48.84145" lon="2.40474">
        <ele>123</ele>
        <time>2015-04-06T20:12:21.754Z</time>
      </trkpt>
      <trkpt lat="48.8414" lon="2.40471">
        <ele>122.9</ele>
        <time>2015-04-06T20:12:22.761Z</time>
      </trkpt>
      <trkpt lat="48.84134" lon="2.40471">
        <ele>122.5</ele>
        <time>2015-04-06T20:12:23.778Z</time>
      </trkpt>
      <trkpt lat="48.84126" lon="2.4047">
        <ele>121.6</ele>
        <time>2015-04-06T20:12:24.783Z</time>
      </trkpt>
      <trkpt lat="48.84107" lon="2.40465">
        <ele>121.2</ele>
        <time>2015-04-06T20:12:26.728Z</time>
      </trkpt>
      <trkpt lat="48.84092" lon="2.40463">
        <ele>120.7</ele>
        <time>2015-04-06T20:12:27.755Z</time>
      </trkpt>
      <trkpt lat="48.84078" lon="2.40463">
        <ele>120.3</ele>
        <time>2015-04-06T20:12:28.797Z</time>
      </trkpt>
      <trkpt lat="48.84063" lon="2.40461">
        <ele>120</ele>
        <time>2015-04-06T20:12:30.729Z</time>
      </trkpt>
      <trkpt lat="48.84058" lon="2.40459">
        <ele>119.9</ele>
        <time>2015-04-06T20:12:31.827Z</time>
      </trkpt>
      <trkpt lat="48.8405" lon="2.40458">
        <ele>119.8</ele>
        <time>2015-04-06T20:12:32.752Z</time>
      </trkpt>
      <trkpt lat="48.84045" lon="2.40456">
        <ele>119.5</ele>
        <time>2015-04-06T20:12:33.724Z</time>
      </trkpt>
      <trkpt lat="48.84039" lon="2.40455">
        <ele>119.1</ele>
        <time>2015-04-06T20:12:34.729Z</time>
      </trkpt>
      <trkpt lat="48.8403" lon="2.40455">
        <ele>118</ele>
        <time>2015-04-06T20:12:35.742Z</time>
      </trkpt>
      <trkpt lat="48.84023" lon="2.40454">
        <ele>117.4</ele>
        <time>2015-04-06T20:12:36.745Z</time>
      </trkpt>
      <trkpt lat="48.84016" lon="2.40453">
        <ele>116.7</ele>
        <time>2015-04-06T20:12:37.769Z</time>
      </trkpt>
      <trkpt lat="48.84009" lon="2.40451">
        <ele>116.4</ele>
        <time>2015-04-06T20:12:38.779Z</time>
      </trkpt>
      <trkpt lat="48.84003" lon="2.4045">
        <ele>116.4</ele>
        <time>2015-04-06T20:12:39.787Z</time>
      </trkpt>
      <trkpt lat="48.83997" lon="2.40448">
        <ele>115.7</ele>
        <time>2015-04-06T20:12:40.791Z</time>
      </trkpt>
      <trkpt lat="48.83761" lon="2.40367">
        <ele>118.7</ele>
        <time>2015-04-06T20:13:16.816Z</time>
      </trkpt>
      <trkpt lat="48.83755" lon="2.40365">
        <ele>118.5</ele>
        <time>2015-04-06T20:13:17.723Z</time>
      </trkpt>
      <trkpt lat="48.83749" lon="2.40363">
        <ele>118.3</ele>
        <time>2015-04-06T20:13:18.718Z</time>
      </trkpt>
      <trkpt lat="48.83742" lon="2.40359">
        <ele>117.8</ele>
        <time>2015-04-06T20:13:20.800Z</time>
      </trkpt>
      <trkpt lat="48.83739" lon="2.40356">
        <ele>117.7</ele>
        <time>2015-04-06T20:13:21.738Z</time>
      </trkpt>
      <trkpt lat="48.83731" lon="2.40349">
        <ele>117.4</ele>
        <time>2015-04-06T20:13:24.751Z</time>
      </trkpt>
      <trkpt lat="48.83727" lon="2.40347">
        <ele>117.2</ele>
        <time>2015-04-06T20:13:25.785Z</time>
      </trkpt>
      <trkpt lat="48.83721" lon="2.40344">
        <ele>116.7</ele>
        <time>2015-04-06T20:13:27.763Z</time>
      </trkpt>
      <trkpt lat="48.83714" lon="2.40343">
        <ele>116.9</ele>
        <time>2015-04-06T20:13:28.775Z</time>
      </trkpt>
      <trkpt lat="48.83707" lon="2.40343">
        <ele>116.8</ele>
        <time>2015-04-06T20:13:29.810Z</time>
      </trkpt>
      <trkpt lat="48.83703" lon="2.40347">
        <ele>114.6</ele>
        <time>2015-04-06T20:13:30.726Z</time>
      </trkpt>
      <trkpt lat="48.83697" lon="2.40345">
        <ele>111.7</ele>
        <time>2015-04-06T20:13:33.749Z</time>
      </trkpt>
      <trkpt lat="48.83689" lon="2.40346">
        <ele>110</ele>
        <time>2015-04-06T20:13:34.774Z</time>
      </trkpt>
      <trkpt lat="48.83683" lon="2.40348">
        <ele>108.9</ele>
        <time>2015-04-06T20:14:15.731Z</time>
      </trkpt>
      <trkpt lat="48.8368" lon="2.40354">
        <ele>112.7</ele>
        <time>2015-04-06T20:14:16.725Z</time>
      </trkpt>
      <trkpt lat="48.83682" lon="2.40354">
        <ele>114.4</ele>
        <time>2015-04-06T20:15:26.807Z</time>
      </trkpt>
      <trkpt lat="48.8367" lon="2.40346">
        <ele>107.5</ele>
        <time>2015-04-06T20:15:27.828Z</time>
      </trkpt>
      <trkpt lat="48.83662" lon="2.40342">
        <ele>106.6</ele>
        <time>2015-04-06T20:15:29.735Z</time>
      </trkpt>
      <trkpt lat="48.83659" lon="2.40339">
        <ele>106.5</ele>
        <time>2015-04-06T20:15:30.811Z</time>
      </trkpt>
      <trkpt lat="48.83652" lon="2.40331">
        <ele>107.1</ele>
        <time>2015-04-06T20:15:32.711Z</time>
      </trkpt>
      <trkpt lat="48.83649" lon="2.40327">
        <ele>107.5</ele>
        <time>2015-04-06T20:15:33.765Z</time>
      </trkpt>
      <trkpt lat="48.83642" lon="2.4032">
        <ele>107.6</ele>
        <time>2015-04-06T20:15:35.818Z</time>
      </trkpt>
      <trkpt lat="48.83641" lon="2.40316">
        <ele>107.8</ele>
        <time>2015-04-06T20:15:36.746Z</time>
      </trkpt>
      <trkpt lat="48.83638" lon="2.40306">
        <ele>108.3</ele>
        <time>2015-04-06T20:15:38.751Z</time>
      </trkpt>
      <trkpt lat="48.8363" lon="2.40302">
        <ele>109.8</ele>
        <time>2015-04-06T20:15:39.764Z</time>
      </trkpt>
      <trkpt lat="48.83629" lon="2.40291">
        <ele>110</ele>
        <time>2015-04-06T20:15:41.752Z</time>
      </trkpt>
      <trkpt lat="48.83627" lon="2.40285">
        <ele>109.8</ele>
        <time>2015-04-06T20:15:42.752Z</time>
      </trkpt>
      <trkpt lat="48.8362" lon="2.40278">
        <ele>109.6</ele>
        <time>2015-04-06T20:15:44.791Z</time>
      </trkpt>
      <trkpt lat="48.83617" lon="2.40274">
        <ele>109.4</ele>
        <time>2015-04-06T20:15:45.810Z</time>
      </trkpt>
      <trkpt lat="48.83615" lon="2.40268">
        <ele>109.1</ele>
        <time>2015-04-06T20:15:46.730Z</time>
      </trkpt>
      <trkpt lat="48.83612" lon="2.40261">
        <ele>108.7</ele>
        <time>2015-04-06T20:15:47.734Z</time>
      </trkpt>
      <trkpt lat="48.83609" lon="2.40253">
        <ele>108.3</ele>
        <time>2015-04-06T20:15:48.751Z</time>
      </trkpt>
      <trkpt lat="48.83605" lon="2.40246">
        <ele>107.8</ele>
        <time>2015-04-06T20:15:49.792Z</time>
      </trkpt>
      <trkpt lat="48.83601" lon="2.4024">
        <ele>107.7</ele>
        <time>2015-04-06T20:15:50.805Z</time>
      </trkpt>
      <trkpt lat="48.836" lon="2.40234">
        <ele>107.6</ele>
        <time>2015-04-06T20:15:51.851Z</time>
      </trkpt>
      <trkpt lat="48.83598" lon="2.40226">
        <ele>107</ele>
        <time>2015-04-06T20:15:52.713Z</time>
      </trkpt>
      <trkpt lat="48.83594" lon="2.40221">
        <ele>106.7</ele>
        <time>2015-04-06T20:15:53.731Z</time>
      </trkpt>
      <trkpt lat="48.83591" lon="2.40215">
        <ele>106.7</ele>
        <time>2015-04-06T20:15:54.750Z</time>
      </trkpt>
      <trkpt lat="48.83589" lon="2.40209">
        <ele>106.6</ele>
        <time>2015-04-06T20:15:55.770Z</time>
      </trkpt>
      <trkpt lat="48.83586" lon="2.40203">
        <ele>106.5</ele>
        <time>2015-04-06T20:15:56.782Z</time>
      </trkpt>
      <trkpt lat="48.83582" lon="2.40197">
        <ele>106.6</ele>
        <time>2015-04-06T20:15:57.711Z</time>
      </trkpt>
      <trkpt lat="48.83578" lon="2.4019">
        <ele>106.5</ele>
        <time>2015-04-06T20:15:58.747Z</time>
      </trkpt>
      <trkpt lat="48.83574" lon="2.40184">
        <ele>106.6</ele>
        <time>2015-04-06T20:15:59.754Z</time>
      </trkpt>
      <trkpt lat="48.8357" lon="2.4018">
        <ele>106.6</ele>
        <time>2015-04-06T20:16:00.773Z</time>
      </trkpt>
      <trkpt lat="48.83566" lon="2.40175">
        <ele>106.6</ele>
        <time>2015-04-06T20:16:01.789Z</time>
      </trkpt>
      <trkpt lat="48.8356" lon="2.40167">
        <ele>106.6</ele>
        <time>2015-04-06T20:16:03.730Z</time>
      </trkpt>
      <trkpt lat="48.83556" lon="2.40163">
        <ele>106.6</ele>
        <time>2015-04-06T20:16:04.761Z</time>
      </trkpt>
      <trkpt lat="48.83551" lon="2.40159">
        <ele>106.5</ele>
        <time>2015-04-06T20:16:05.792Z</time>
      </trkpt>
      <trkpt lat="48.83547" lon="2.40154">
        <ele>106.5</ele>
        <time>2015-04-06T20:16:06.810Z</time>
      </trkpt>
      <trkpt lat="48.83543" lon="2.4015">
        <ele>106.4</ele>
        <time>2015-04-06T20:16:07.833Z</time>
      </trkpt>
      <trkpt lat="48.8354" lon="2.40145">
        <ele>106.5</ele>
        <time>2015-04-06T20:16:08.726Z</time>
      </trkpt>
      <trkpt lat="48.83538" lon="2.40136">
        <ele>105.7</ele>
        <time>2015-04-06T20:16:09.723Z</time>
      </trkpt>
      <trkpt lat="48.83533" lon="2.40129">
        <ele>105.2</ele>
        <time>2015-04-06T20:16:10.744Z</time>
      </trkpt>
      <trkpt lat="48.83528" lon="2.40121">
        <ele>104.3</ele>
        <time>2015-04-06T20:16:11.806Z</time>
      </trkpt>
      <trkpt lat="48.83523" lon="2.40114">
        <ele>103.8</ele>
        <time>2015-04-06T20:16:12.725Z</time>
      </trkpt>
      <trkpt lat="48.83518" lon="2.40109">
        <ele>103.5</ele>
        <time>2015-04-06T20:16:13.761Z</time>
      </trkpt>
      <trkpt lat="48.83513" lon="2.40105">
        <ele>103.3</ele>
        <time>2015-04-06T20:16:14.752Z</time>
      </trkpt>
      <trkpt lat="48.83508" lon="2.401">
        <ele>103.2</ele>
        <time>2015-04-06T20:16:15.780Z</time>
      </trkpt>
      <trkpt lat="48.83503" lon="2.40096">
        <ele>103.4</ele>
        <time>2015-04-06T20:16:16.793Z</time>
      </trkpt>
      <trkpt lat="48.83496" lon="2.40093">
        <ele>103.4</ele>
        <time>2015-04-06T20:16:17.808Z</time>
      </trkpt>
      <trkpt lat="48.83489" lon="2.40089">
        <ele>102.5</ele>
        <time>2015-04-06T20:16:18.724Z</time>
      </trkpt>
      <trkpt lat="48.83483" lon="2.40086">
        <ele>102.4</ele>
        <time>2015-04-06T20:16:19.835Z</time>
      </trkpt>
      <trkpt lat="48.83477" lon="2.40082">
        <ele>102.2</ele>
        <time>2015-04-06T20:16:20.756Z</time>
      </trkpt>
      <trkpt lat="48.83472" lon="2.40078">
        <ele>102.2</ele>
        <time>2015-04-06T20:16:21.767Z</time>
      </trkpt>
      <trkpt lat="48.83466" lon="2.40073">
        <ele>102.1</ele>
        <time>2015-04-06T20:16:22.775Z</time>
      </trkpt>
      <trkpt lat="48.83464" lon="2.40061">
        <ele>102.6</ele>
        <time>2015-04-06T20:16:26.874Z</time>
      </trkpt>
      <trkpt lat="48.83467" lon="2.40058">
        <ele>102.5</ele>
        <time>2015-04-06T20:16:27.744Z</time>
      </trkpt>
      <trkpt lat="48.83472" lon="2.40048">
        <ele>102.4</ele>
        <time>2015-04-06T20:16:30.784Z</time>
      </trkpt>
      <trkpt lat="48.83474" lon="2.40044">
        <ele>102.9</ele>
        <time>2015-04-06T20:16:31.795Z</time>
      </trkpt>
      <trkpt lat="48.83477" lon="2.40035">
        <ele>102.8</ele>
        <time>2015-04-06T20:16:33.732Z</time>
      </trkpt>
      <trkpt lat="48.83478" lon="2.4003">
        <ele>102.8</ele>
        <time>2015-04-06T20:16:34.760Z</time>
      </trkpt>
      <trkpt lat="48.83482" lon="2.40022">
        <ele>103</ele>
        <time>2015-04-06T20:16:36.787Z</time>
      </trkpt>
      <trkpt lat="48.83483" lon="2.40018">
        <ele>103</ele>
        <time>2015-04-06T20:16:37.849Z</time>
      </trkpt>
      <trkpt lat="48.83485" lon="2.40008">
        <ele>103.2</ele>
        <time>2015-04-06T20:16:40.759Z</time>
      </trkpt>
      <trkpt lat="48.83486" lon="2.40004">
        <ele>103.1</ele>
        <time>2015-04-06T20:16:41.794Z</time>
      </trkpt>
      <trkpt lat="48.8349" lon="2.39993">
        <ele>103</ele>
        <time>2015-04-06T20:16:43.834Z</time>
      </trkpt>
      <trkpt lat="48.83491" lon="2.39988">
        <ele>103</ele>
        <time>2015-04-06T20:16:44.760Z</time>
      </trkpt>
      <trkpt lat="48.83493" lon="2.39975">
        <ele>103.3</ele>
        <time>2015-04-06T20:16:48.781Z</time>
      </trkpt>
      <trkpt lat="48.83492" lon="2.39971">
        <ele>103.5</ele>
        <time>2015-04-06T20:16:49.802Z</time>
      </trkpt>
      <trkpt lat="48.83487" lon="2.3996">
        <ele>105.4</ele>
        <time>2015-04-06T20:16:52.755Z</time>
      </trkpt>
      <trkpt lat="48.83489" lon="2.39954">
        <ele>106.3</ele>
        <time>2015-04-06T20:16:53.765Z</time>
      </trkpt>
      <trkpt lat="48.83494" lon="2.39946">
        <ele>106.5</ele>
        <time>2015-04-06T20:16:54.786Z</time>
      </trkpt>
      <trkpt lat="48.835" lon="2.39932">
        <ele>106.6</ele>
        <time>2015-04-06T20:16:55.792Z</time>
      </trkpt>
      <trkpt lat="48.83505" lon="2.39922">
        <ele>106.4</ele>
        <time>2015-04-06T20:16:56.798Z</time>
      </trkpt>
      <trkpt lat="48.83511" lon="2.39912">
        <ele>106.6</ele>
        <time>2015-04-06T20:16:57.808Z</time>
      </trkpt>
      <trkpt lat="48.83517" lon="2.39903">
        <ele>106.6</ele>
        <time>2015-04-06T20:16:58.827Z</time>
      </trkpt>
      <trkpt lat="48.83522" lon="2.39892">
        <ele>106.8</ele>
        <time>2015-04-06T20:16:59.766Z</time>
      </trkpt>
      <trkpt lat="48.83526" lon="2.39881">
        <ele>106.9</ele>
        <time>2015-04-06T20:17:00.737Z</time>
      </trkpt>
      <trkpt lat="48.83528" lon="2.3987">
        <ele>106.8</ele>
        <time>2015-04-06T20:17:01.781Z</time>
      </trkpt>
      <trkpt lat="48.83529" lon="2.39856">
        <ele>106.7</ele>
        <time>2015-04-06T20:17:02.793Z</time>
      </trkpt>
      <trkpt lat="48.8353" lon="2.39843">
        <ele>106.4</ele>
        <time>2015-04-06T20:17:03.804Z</time>
      </trkpt>
      <trkpt lat="48.83531" lon="2.39834">
        <ele>106.3</ele>
        <time>2015-04-06T20:17:04.817Z</time>
      </trkpt>
      <trkpt lat="48.83533" lon="2.39826">
        <ele>106.2</ele>
        <time>2015-04-06T20:17:05.823Z</time>
      </trkpt>
      <trkpt lat="48.83536" lon="2.3982">
        <ele>106.1</ele>
        <time>2015-04-06T20:17:06.722Z</time>
      </trkpt>
      <trkpt lat="48.83536" lon="2.3981">
        <ele>105.4</ele>
        <time>2015-04-06T20:17:07.762Z</time>
      </trkpt>
      <trkpt lat="48.83534" lon="2.39799">
        <ele>104.8</ele>
        <time>2015-04-06T20:17:08.774Z</time>
      </trkpt>
      <trkpt lat="48.83535" lon="2.39789">
        <ele>104.4</ele>
        <time>2015-04-06T20:17:09.792Z</time>
      </trkpt>
      <trkpt lat="48.83538" lon="2.39782">
        <ele>104.2</ele>
        <time>2015-04-06T20:17:10.729Z</time>
      </trkpt>
      <trkpt lat="48.83541" lon="2.39775">
        <ele>104.5</ele>
        <time>2015-04-06T20:17:11.727Z</time>
      </trkpt>
      <trkpt lat="48.83546" lon="2.39766">
        <ele>104.8</ele>
        <time>2015-04-06T20:17:12.752Z</time>
      </trkpt>
      <trkpt lat="48.8355" lon="2.39756">
        <ele>105.5</ele>
        <time>2015-04-06T20:17:13.815Z</time>
      </trkpt>
      <trkpt lat="48.83558" lon="2.39734">
        <ele>107.2</ele>
        <time>2015-04-06T20:17:15.735Z</time>
      </trkpt>
      <trkpt lat="48.8356" lon="2.39727">
        <ele>107.4</ele>
        <time>2015-04-06T20:17:16.848Z</time>
      </trkpt>
      <trkpt lat="48.83561" lon="2.3972">
        <ele>107.5</ele>
        <time>2015-04-06T20:17:17.735Z</time>
      </trkpt>
      <trkpt lat="48.83565" lon="2.39709">
        <ele>107.1</ele>
        <time>2015-04-06T20:17:19.791Z</time>
      </trkpt>
      <trkpt lat="48.83567" lon="2.39705">
        <ele>106.7</ele>
        <time>2015-04-06T20:17:20.803Z</time>
      </trkpt>
      <trkpt lat="48.83573" lon="2.39696">
        <ele>105.7</ele>
        <time>2015-04-06T20:17:23.738Z</time>
      </trkpt>
      <trkpt lat="48.83574" lon="2.39691">
        <ele>105.5</ele>
        <time>2015-04-06T20:17:24.731Z</time>
      </trkpt>
      <trkpt lat="48.83578" lon="2.39681">
        <ele>105.1</ele>
        <time>2015-04-06T20:17:26.778Z</time>
      </trkpt>
      <trkpt lat="48.8358" lon="2.39674">
        <ele>104.8</ele>
        <time>2015-04-06T20:17:27.812Z</time>
      </trkpt>
      <trkpt lat="48.83582" lon="2.39666">
        <ele>104.6</ele>
        <time>2015-04-06T20:17:28.725Z</time>
      </trkpt>
      <trkpt lat="48.83583" lon="2.39657">
        <ele>104.4</ele>
        <time>2015-04-06T20:17:29.754Z</time>
      </trkpt>
      <trkpt lat="48.83585" lon="2.3965">
        <ele>104.2</ele>
        <time>2015-04-06T20:17:30.786Z</time>
      </trkpt>
      <trkpt lat="48.83587" lon="2.39644">
        <ele>104.1</ele>
        <time>2015-04-06T20:17:31.802Z</time>
      </trkpt>
      <trkpt lat="48.83589" lon="2.39638">
        <ele>104</ele>
        <time>2015-04-06T20:17:32.810Z</time>
      </trkpt>
      <trkpt lat="48.83592" lon="2.39632">
        <ele>104.1</ele>
        <time>2015-04-06T20:17:33.821Z</time>
      </trkpt>
      <trkpt lat="48.83596" lon="2.39624">
        <ele>104.7</ele>
        <time>2015-04-06T20:17:34.731Z</time>
      </trkpt>
      <trkpt lat="48.836" lon="2.39616">
        <ele>104.6</ele>
        <time>2015-04-06T20:17:35.731Z</time>
      </trkpt>
      <trkpt lat="48.83605" lon="2.39606">
        <ele>104.6</ele>
        <time>2015-04-06T20:17:36.486Z</time>
      </trkpt>
      <trkpt lat="48.8361" lon="2.39597">
        <ele>104.3</ele>
        <time>2015-04-06T20:17:37.770Z</time>
      </trkpt>
      <trkpt lat="48.83614" lon="2.39588">
        <ele>103.8</ele>
        <time>2015-04-06T20:17:38.770Z</time>
      </trkpt>
      <trkpt lat="48.8362" lon="2.39576">
        <ele>103.5</ele>
        <time>2015-04-06T20:17:39.781Z</time>
      </trkpt>
      <trkpt lat="48.8362" lon="2.39576">
        <ele>103.5</ele>
        <time>2015-04-06T20:17:40.280Z</time>
      </trkpt>
      <trkpt lat="48.83628" lon="2.39562">
        <ele>103.1</ele>
        <time>2015-04-06T20:17:40.789Z</time>
      </trkpt>
      <trkpt lat="48.83634" lon="2.39548">
        <ele>102.9</ele>
        <time>2015-04-06T20:17:41.731Z</time>
      </trkpt>
      <trkpt lat="48.8364" lon="2.39533">
        <ele>102.8</ele>
        <time>2015-04-06T20:17:42.732Z</time>
      </trkpt>
      <trkpt lat="48.83647" lon="2.39517">
        <ele>102.8</ele>
        <time>2015-04-06T20:17:43.806Z</time>
      </trkpt>
      <trkpt lat="48.83653" lon="2.395">
        <ele>103.1</ele>
        <time>2015-04-06T20:17:44.819Z</time>
      </trkpt>
      <trkpt lat="48.8366" lon="2.39484">
        <ele>103.3</ele>
        <time>2015-04-06T20:17:45.722Z</time>
      </trkpt>
      <trkpt lat="48.83667" lon="2.39469">
        <ele>103.3</ele>
        <time>2015-04-06T20:17:46.721Z</time>
      </trkpt>
      <trkpt lat="48.83673" lon="2.39453">
        <ele>103.2</ele>
        <time>2015-04-06T20:17:47.734Z</time>
      </trkpt>
      <trkpt lat="48.83678" lon="2.39439">
        <ele>103.6</ele>
        <time>2015-04-06T20:17:48.771Z</time>
      </trkpt>
      <trkpt lat="48.83748" lon="2.39304">
        <ele>101.6</ele>
        <time>2015-04-06T20:17:58.828Z</time>
      </trkpt>
      <trkpt lat="48.83752" lon="2.39294">
        <ele>101.7</ele>
        <time>2015-04-06T20:18:00.727Z</time>
      </trkpt>
      <trkpt lat="48.83756" lon="2.39288">
        <ele>101.5</ele>
        <time>2015-04-06T20:18:01.760Z</time>
      </trkpt>
      <trkpt lat="48.83758" lon="2.39282">
        <ele>101</ele>
        <time>2015-04-06T20:18:02.767Z</time>
      </trkpt>
      <trkpt lat="48.83762" lon="2.39275">
        <ele>101</ele>
        <time>2015-04-06T20:18:03.776Z</time>
      </trkpt>
      <trkpt lat="48.83771" lon="2.39261">
        <ele>100.9</ele>
        <time>2015-04-06T20:18:06.759Z</time>
      </trkpt>
      <trkpt lat="48.83765" lon="2.39255">
        <ele>100.2</ele>
        <time>2015-04-06T20:18:08.781Z</time>
      </trkpt>
      <trkpt lat="48.8376" lon="2.39256">
        <ele>100.8</ele>
        <time>2015-04-06T20:18:09.792Z</time>
      </trkpt>
      <trkpt lat="48.83754" lon="2.39254">
        <ele>101.6</ele>
        <time>2015-04-06T20:18:11.816Z</time>
      </trkpt>
      <trkpt lat="48.8375" lon="2.39253">
        <ele>102.3</ele>
        <time>2015-04-06T20:18:12.823Z</time>
      </trkpt>
      <trkpt lat="48.83742" lon="2.39246">
        <ele>102.2</ele>
        <time>2015-04-06T20:18:14.740Z</time>
      </trkpt>
      <trkpt lat="48.8374" lon="2.3924">
        <ele>101.6</ele>
        <time>2015-04-06T20:18:15.756Z</time>
      </trkpt>
      <trkpt lat="48.83739" lon="2.39233">
        <ele>100.7</ele>
        <time>2015-04-06T20:18:16.810Z</time>
      </trkpt>
      <trkpt lat="48.83736" lon="2.39217">
        <ele>100</ele>
        <time>2015-04-06T20:18:18.757Z</time>
      </trkpt>
      <trkpt lat="48.83733" lon="2.39208">
        <ele>100.1</ele>
        <time>2015-04-06T20:18:19.772Z</time>
      </trkpt>
      <trkpt lat="48.83733" lon="2.392">
        <ele>100.4</ele>
        <time>2015-04-06T20:18:20.772Z</time>
      </trkpt>
      <trkpt lat="48.83735" lon="2.39192">
        <ele>100.6</ele>
        <time>2015-04-06T20:18:21.798Z</time>
      </trkpt>
      <trkpt lat="48.83739" lon="2.39183">
        <ele>100.7</ele>
        <time>2015-04-06T20:18:22.810Z</time>
      </trkpt>
      <trkpt lat="48.83743" lon="2.39176">
        <ele>101</ele>
        <time>2015-04-06T20:18:23.743Z</time>
      </trkpt>
      <trkpt lat="48.83746" lon="2.3917">
        <ele>101</ele>
        <time>2015-04-06T20:18:24.745Z</time>
      </trkpt>
      <trkpt lat="48.83749" lon="2.39164">
        <ele>101.3</ele>
        <time>2015-04-06T20:18:25.799Z</time>
      </trkpt>
      <trkpt lat="48.83752" lon="2.39158">
        <ele>101.2</ele>
        <time>2015-04-06T20:18:26.802Z</time>
      </trkpt>
      <trkpt lat="48.83756" lon="2.39151">
        <ele>101.2</ele>
        <time>2015-04-06T20:18:27.737Z</time>
      </trkpt>
      <trkpt lat="48.83757" lon="2.39146">
        <ele>101</ele>
        <time>2015-04-06T20:18:28.737Z</time>
      </trkpt>
      <trkpt lat="48.83759" lon="2.39135">
        <ele>99.3</ele>
        <time>2015-04-06T20:18:31.797Z</time>
      </trkpt>
      <trkpt lat="48.83758" lon="2.3913">
        <ele>98.1</ele>
        <time>2015-04-06T20:18:32.802Z</time>
      </trkpt>
      <trkpt lat="48.83751" lon="2.39128">
        <ele>93.3</ele>
        <time>2015-04-06T20:18:38.840Z</time>
      </trkpt>
      <trkpt lat="48.83749" lon="2.39129">
        <ele>92.6</ele>
        <time>2015-04-06T20:18:39.768Z</time>
      </trkpt>
      <trkpt lat="48.83749" lon="2.39129">
        <ele>92.6</ele>
        <time>2015-04-06T20:19:05.760Z</time>
      </trkpt>
      <trkpt lat="48.83714" lon="2.39132">
        <ele>85.9</ele>
        <time>2015-04-06T20:19:06.781Z</time>
      </trkpt>
      <trkpt lat="48.83712" lon="2.39131">
        <ele>86.8</ele>
        <time>2015-04-06T20:19:38.809Z</time>
      </trkpt>
      <trkpt lat="48.83719" lon="2.39115">
        <ele>93.3</ele>
        <time>2015-04-06T20:19:39.857Z</time>
      </trkpt>
      <trkpt lat="48.83725" lon="2.39106">
        <ele>92.9</ele>
        <time>2015-04-06T20:19:46.786Z</time>
      </trkpt>
      <trkpt lat="48.83726" lon="2.39104">
        <ele>92.9</ele>
        <time>2015-04-06T20:19:47.803Z</time>
      </trkpt>
      <trkpt lat="48.83722" lon="2.39092">
        <ele>93</ele>
        <time>2015-04-06T20:19:53.790Z</time>
      </trkpt>
      <trkpt lat="48.83723" lon="2.39087">
        <ele>93.2</ele>
        <time>2015-04-06T20:19:54.804Z</time>
      </trkpt>
      <trkpt lat="48.83723" lon="2.39076">
        <ele>92.6</ele>
        <time>2015-04-06T20:19:56.825Z</time>
      </trkpt>
      <trkpt lat="48.83723" lon="2.39071">
        <ele>92.9</ele>
        <time>2015-04-06T20:19:57.863Z</time>
      </trkpt>
      <trkpt lat="48.83722" lon="2.39059">
        <ele>93.5</ele>
        <time>2015-04-06T20:19:59.753Z</time>
      </trkpt>
      <trkpt lat="48.83721" lon="2.39054">
        <ele>93.5</ele>
        <time>2015-04-06T20:20:00.771Z</time>
      </trkpt>
      <trkpt lat="48.83719" lon="2.39043">
        <ele>94.3</ele>
        <time>2015-04-06T20:20:02.817Z</time>
      </trkpt>
      <trkpt lat="48.83718" lon="2.39037">
        <ele>94.9</ele>
        <time>2015-04-06T20:20:03.834Z</time>
      </trkpt>
      <trkpt lat="48.83715" lon="2.39025">
        <ele>96.2</ele>
        <time>2015-04-06T20:20:05.739Z</time>
      </trkpt>
      <trkpt lat="48.83712" lon="2.39019">
        <ele>96.9</ele>
        <time>2015-04-06T20:20:06.836Z</time>
      </trkpt>
      <trkpt lat="48.83708" lon="2.39007">
        <ele>98.5</ele>
        <time>2015-04-06T20:20:08.819Z</time>
      </trkpt>
      <trkpt lat="48.83706" lon="2.39002">
        <ele>98.8</ele>
        <time>2015-04-06T20:20:09.837Z</time>
      </trkpt>
      <trkpt lat="48.83704" lon="2.38991">
        <ele>99.4</ele>
        <time>2015-04-06T20:20:11.737Z</time>
      </trkpt>
      <trkpt lat="48.83703" lon="2.38988">
        <ele>99.4</ele>
        <time>2015-04-06T20:20:12.777Z</time>
      </trkpt>
      <trkpt lat="48.83705" lon="2.38902">
        <ele>98.1</ele>
        <time>2015-04-06T20:20:31.803Z</time>
      </trkpt>
      <trkpt lat="48.83704" lon="2.38898">
        <ele>98.1</ele>
        <time>2015-04-06T20:20:32.801Z</time>
      </trkpt>
      <trkpt lat="48.83706" lon="2.38885">
        <ele>97.3</ele>
        <time>2015-04-06T20:20:33.879Z</time>
      </trkpt>
      <trkpt lat="48.83708" lon="2.38874">
        <ele>96.8</ele>
        <time>2015-04-06T20:20:34.715Z</time>
      </trkpt>
      <trkpt lat="48.83707" lon="2.38871">
        <ele>96</ele>
        <time>2015-04-06T20:20:35.758Z</time>
      </trkpt>
      <trkpt lat="48.83704" lon="2.38866">
        <ele>95.2</ele>
        <time>2015-04-06T20:20:36.896Z</time>
      </trkpt>
      <trkpt lat="48.83709" lon="2.38809">
        <ele>90.9</ele>
        <time>2015-04-06T20:20:42.772Z</time>
      </trkpt>
      <trkpt lat="48.8372" lon="2.38787">
        <ele>93.4</ele>
        <time>2015-04-06T20:20:43.823Z</time>
      </trkpt>
      <trkpt lat="48.83731" lon="2.38765">
        <ele>94.2</ele>
        <time>2015-04-06T20:20:44.829Z</time>
      </trkpt>
      <trkpt lat="48.83734" lon="2.38753">
        <ele>92.5</ele>
        <time>2015-04-06T20:20:49.810Z</time>
      </trkpt>
      <trkpt lat="48.83731" lon="2.38754">
        <ele>92.1</ele>
        <time>2015-04-06T20:20:50.845Z</time>
      </trkpt>
      <trkpt lat="48.83728" lon="2.38755">
        <ele>92.7</ele>
        <time>2015-04-06T20:21:02.825Z</time>
      </trkpt>
      <trkpt lat="48.83692" lon="2.38754">
        <ele>100.3</ele>
        <time>2015-04-06T20:21:03.841Z</time>
      </trkpt>
      <trkpt lat="48.83684" lon="2.38755">
        <ele>99.7</ele>
        <time>2015-04-06T20:21:05.746Z</time>
      </trkpt>
      <trkpt lat="48.83679" lon="2.38756">
        <ele>98.5</ele>
        <time>2015-04-06T20:21:06.732Z</time>
      </trkpt>
      <trkpt lat="48.83679" lon="2.38756">
        <ele>98.5</ele>
        <time>2015-04-06T20:21:19.849Z</time>
      </trkpt>
      <trkpt lat="48.83654" lon="2.38748">
        <ele>99.4</ele>
        <time>2015-04-06T20:21:20.777Z</time>
      </trkpt>
      <trkpt lat="48.8365" lon="2.38736">
        <ele>100.3</ele>
        <time>2015-04-06T20:21:23.787Z</time>
      </trkpt>
      <trkpt lat="48.83648" lon="2.38731">
        <ele>100.8</ele>
        <time>2015-04-06T20:21:24.800Z</time>
      </trkpt>
      <trkpt lat="48.83643" lon="2.38721">
        <ele>100.1</ele>
        <time>2015-04-06T20:21:27.811Z</time>
      </trkpt>
      <trkpt lat="48.83642" lon="2.38718">
        <ele>99.7</ele>
        <time>2015-04-06T20:21:28.829Z</time>
      </trkpt>
      <trkpt lat="48.83639" lon="2.38712">
        <ele>99.5</ele>
        <time>2015-04-06T20:21:30.772Z</time>
      </trkpt>
      <trkpt lat="48.83636" lon="2.38707">
        <ele>99.4</ele>
        <time>2015-04-06T20:21:31.827Z</time>
      </trkpt>
      <trkpt lat="48.83631" lon="2.38701">
        <ele>98.9</ele>
        <time>2015-04-06T20:21:32.751Z</time>
      </trkpt>
      <trkpt lat="48.83627" lon="2.38697">
        <ele>98.7</ele>
        <time>2015-04-06T20:21:33.763Z</time>
      </trkpt>
      <trkpt lat="48.83621" lon="2.3869">
        <ele>96.9</ele>
        <time>2015-04-06T20:21:34.782Z</time>
      </trkpt>
      <trkpt lat="48.83617" lon="2.38686">
        <ele>97.5</ele>
        <time>2015-04-06T20:21:35.788Z</time>
      </trkpt>
      <trkpt lat="48.83613" lon="2.38683">
        <ele>98.2</ele>
        <time>2015-04-06T20:21:36.811Z</time>
      </trkpt>
      <trkpt lat="48.83608" lon="2.3868">
        <ele>98.7</ele>
        <time>2015-04-06T20:21:37.826Z</time>
      </trkpt>
      <trkpt lat="48.83603" lon="2.38677">
        <ele>98.8</ele>
        <time>2015-04-06T20:21:38.748Z</time>
      </trkpt>
      <trkpt lat="48.83598" lon="2.38675">
        <ele>98.6</ele>
        <time>2015-04-06T20:21:39.752Z</time>
      </trkpt>
      <trkpt lat="48.83593" lon="2.38672">
        <ele>98.2</ele>
        <time>2015-04-06T20:21:40.777Z</time>
      </trkpt>
      <trkpt lat="48.83588" lon="2.3867">
        <ele>98.2</ele>
        <time>2015-04-06T20:21:41.785Z</time>
      </trkpt>
      <trkpt lat="48.83582" lon="2.38667">
        <ele>98.3</ele>
        <time>2015-04-06T20:21:42.789Z</time>
      </trkpt>
      <trkpt lat="48.83577" lon="2.38665">
        <ele>98.3</ele>
        <time>2015-04-06T20:21:43.840Z</time>
      </trkpt>
      <trkpt lat="48.83569" lon="2.38659">
        <ele>98.8</ele>
        <time>2015-04-06T20:21:46.112Z</time>
      </trkpt>
      <trkpt lat="48.83565" lon="2.38656">
        <ele>98.6</ele>
        <time>2015-04-06T20:21:46.745Z</time>
      </trkpt>
      <trkpt lat="48.83564" lon="2.38649">
        <ele>99.4</ele>
        <time>2015-04-06T20:21:47.749Z</time>
      </trkpt>
      <trkpt lat="48.83564" lon="2.3864">
        <ele>100.2</ele>
        <time>2015-04-06T20:21:48.761Z</time>
      </trkpt>
      <trkpt lat="48.83564" lon="2.38632">
        <ele>100.6</ele>
        <time>2015-04-06T20:21:49.777Z</time>
      </trkpt>
      <trkpt lat="48.83564" lon="2.38624">
        <ele>99.7</ele>
        <time>2015-04-06T20:21:50.779Z</time>
      </trkpt>
      <trkpt lat="48.83563" lon="2.38616">
        <ele>99.6</ele>
        <time>2015-04-06T20:21:51.798Z</time>
      </trkpt>
      <trkpt lat="48.83563" lon="2.38608">
        <ele>100.1</ele>
        <time>2015-04-06T20:21:52.813Z</time>
      </trkpt>
      <trkpt lat="48.83561" lon="2.38601">
        <ele>99.6</ele>
        <time>2015-04-06T20:21:53.831Z</time>
      </trkpt>
      <trkpt lat="48.8356" lon="2.38595">
        <ele>99.5</ele>
        <time>2015-04-06T20:21:54.897Z</time>
      </trkpt>
      <trkpt lat="48.83557" lon="2.38585">
        <ele>99.2</ele>
        <time>2015-04-06T20:21:54.919Z</time>
      </trkpt>
      <trkpt lat="48.83545" lon="2.38547">
        <ele>98.1</ele>
        <time>2015-04-06T20:22:02.713Z</time>
      </trkpt>
      <trkpt lat="48.83542" lon="2.38541">
        <ele>97.8</ele>
        <time>2015-04-06T20:22:03.749Z</time>
      </trkpt>
      <trkpt lat="48.83537" lon="2.38538">
        <ele>97.3</ele>
        <time>2015-04-06T20:22:04.741Z</time>
      </trkpt>
      <trkpt lat="48.83534" lon="2.38532">
        <ele>96.8</ele>
        <time>2015-04-06T20:22:05.748Z</time>
      </trkpt>
      <trkpt lat="48.83533" lon="2.38523">
        <ele>96.8</ele>
        <time>2015-04-06T20:22:06.756Z</time>
      </trkpt>
      <trkpt lat="48.83528" lon="2.38519">
        <ele>97.2</ele>
        <time>2015-04-06T20:22:07.776Z</time>
      </trkpt>
      <trkpt lat="48.83523" lon="2.38513">
        <ele>97.2</ele>
        <time>2015-04-06T20:22:08.774Z</time>
      </trkpt>
      <trkpt lat="48.83517" lon="2.38507">
        <ele>97.1</ele>
        <time>2015-04-06T20:22:09.779Z</time>
      </trkpt>
      <trkpt lat="48.83513" lon="2.385">
        <ele>97.1</ele>
        <time>2015-04-06T20:22:10.784Z</time>
      </trkpt>
      <trkpt lat="48.83507" lon="2.38492">
        <ele>97.1</ele>
        <time>2015-04-06T20:22:11.804Z</time>
      </trkpt>
      <trkpt lat="48.83501" lon="2.38485">
        <ele>97.2</ele>
        <time>2015-04-06T20:22:12.814Z</time>
      </trkpt>
      <trkpt lat="48.83494" lon="2.38477">
        <ele>97.1</ele>
        <time>2015-04-06T20:22:13.753Z</time>
      </trkpt>
      <trkpt lat="48.83489" lon="2.3847">
        <ele>97.4</ele>
        <time>2015-04-06T20:22:14.736Z</time>
      </trkpt>
      <trkpt lat="48.83483" lon="2.38462">
        <ele>97.5</ele>
        <time>2015-04-06T20:22:15.759Z</time>
      </trkpt>
      <trkpt lat="48.83479" lon="2.38453">
        <ele>97.7</ele>
        <time>2015-04-06T20:22:16.791Z</time>
      </trkpt>
      <trkpt lat="48.83474" lon="2.38446">
        <ele>96.7</ele>
        <time>2015-04-06T20:22:17.737Z</time>
      </trkpt>
      <trkpt lat="48.83468" lon="2.3844">
        <ele>96</ele>
        <time>2015-04-06T20:22:18.734Z</time>
      </trkpt>
      <trkpt lat="48.83464" lon="2.38434">
        <ele>94.9</ele>
        <time>2015-04-06T20:22:19.771Z</time>
      </trkpt>
      <trkpt lat="48.83462" lon="2.38425">
        <ele>94.6</ele>
        <time>2015-04-06T20:22:20.780Z</time>
      </trkpt>
      <trkpt lat="48.83458" lon="2.38419">
        <ele>94.4</ele>
        <time>2015-04-06T20:22:21.794Z</time>
      </trkpt>
      <trkpt lat="48.83455" lon="2.38414">
        <ele>94.4</ele>
        <time>2015-04-06T20:22:22.801Z</time>
      </trkpt>
      <trkpt lat="48.83452" lon="2.38407">
        <ele>93.9</ele>
        <time>2015-04-06T20:22:23.824Z</time>
      </trkpt>
      <trkpt lat="48.83448" lon="2.38399">
        <ele>93.2</ele>
        <time>2015-04-06T20:22:24.757Z</time>
      </trkpt>
      <trkpt lat="48.83444" lon="2.38391">
        <ele>92.8</ele>
        <time>2015-04-06T20:22:25.789Z</time>
      </trkpt>
      <trkpt lat="48.83437" lon="2.38385">
        <ele>92.4</ele>
        <time>2015-04-06T20:22:26.760Z</time>
      </trkpt>
      <trkpt lat="48.83429" lon="2.38382">
        <ele>92.4</ele>
        <time>2015-04-06T20:22:27.768Z</time>
      </trkpt>
      <trkpt lat="48.83421" lon="2.38378">
        <ele>92.4</ele>
        <time>2015-04-06T20:22:28.772Z</time>
      </trkpt>
      <trkpt lat="48.83414" lon="2.38372">
        <ele>92.3</ele>
        <time>2015-04-06T20:22:29.785Z</time>
      </trkpt>
      <trkpt lat="48.83409" lon="2.38364">
        <ele>92.3</ele>
        <time>2015-04-06T20:22:30.787Z</time>
      </trkpt>
      <trkpt lat="48.83406" lon="2.38356">
        <ele>92.2</ele>
        <time>2015-04-06T20:22:31.828Z</time>
      </trkpt>
      <trkpt lat="48.83404" lon="2.38348">
        <ele>92.5</ele>
        <time>2015-04-06T20:22:32.729Z</time>
      </trkpt>
      <trkpt lat="48.83401" lon="2.38339">
        <ele>92.8</ele>
        <time>2015-04-06T20:22:33.724Z</time>
      </trkpt>
      <trkpt lat="48.83397" lon="2.38332">
        <ele>92.9</ele>
        <time>2015-04-06T20:22:34.738Z</time>
      </trkpt>
      <trkpt lat="48.83392" lon="2.38322">
        <ele>92.5</ele>
        <time>2015-04-06T20:22:35.747Z</time>
      </trkpt>
      <trkpt lat="48.83388" lon="2.38312">
        <ele>92.3</ele>
        <time>2015-04-06T20:22:36.764Z</time>
      </trkpt>
      <trkpt lat="48.83383" lon="2.38304">
        <ele>92</ele>
        <time>2015-04-06T20:22:37.776Z</time>
      </trkpt>
      <trkpt lat="48.83375" lon="2.38297">
        <ele>91.8</ele>
        <time>2015-04-06T20:22:38.794Z</time>
      </trkpt>
      <trkpt lat="48.83366" lon="2.38293">
        <ele>92</ele>
        <time>2015-04-06T20:22:39.733Z</time>
      </trkpt>
      <trkpt lat="48.83363" lon="2.38287">
        <ele>92.5</ele>
        <time>2015-04-06T20:22:40.728Z</time>
      </trkpt>
      <trkpt lat="48.83369" lon="2.38278">
        <ele>92.9</ele>
        <time>2015-04-06T20:22:41.749Z</time>
      </trkpt>
      <trkpt lat="48.8337" lon="2.38268">
        <ele>92.8</ele>
        <time>2015-04-06T20:22:42.815Z</time>
      </trkpt>
      <trkpt lat="48.83368" lon="2.38262">
        <ele>92.7</ele>
        <time>2015-04-06T20:22:43.814Z</time>
      </trkpt>
      <trkpt lat="48.83367" lon="2.38254">
        <ele>92.7</ele>
        <time>2015-04-06T20:22:44.734Z</time>
      </trkpt>
      <trkpt lat="48.83365" lon="2.38248">
        <ele>92.5</ele>
        <time>2015-04-06T20:22:45.734Z</time>
      </trkpt>
      <trkpt lat="48.83362" lon="2.38242">
        <ele>92.3</ele>
        <time>2015-04-06T20:22:46.747Z</time>
      </trkpt>
      <trkpt lat="48.83356" lon="2.38239">
        <ele>93</ele>
        <time>2015-04-06T20:22:47.750Z</time>
      </trkpt>
      <trkpt lat="48.83351" lon="2.38229">
        <ele>93.5</ele>
        <time>2015-04-06T20:22:49.786Z</time>
      </trkpt>
      <trkpt lat="48.83349" lon="2.38223">
        <ele>93.8</ele>
        <time>2015-04-06T20:22:50.798Z</time>
      </trkpt>
      <trkpt lat="48.83346" lon="2.38213">
        <ele>94</ele>
        <time>2015-04-06T20:22:52.845Z</time>
      </trkpt>
      <trkpt lat="48.83344" lon="2.38208">
        <ele>94.2</ele>
        <time>2015-04-06T20:22:53.766Z</time>
      </trkpt>
      <trkpt lat="48.83341" lon="2.38202">
        <ele>94.1</ele>
        <time>2015-04-06T20:22:54.746Z</time>
      </trkpt>
      <trkpt lat="48.83338" lon="2.38197">
        <ele>93.7</ele>
        <time>2015-04-06T20:22:55.784Z</time>
      </trkpt>
      <trkpt lat="48.83335" lon="2.38191">
        <ele>93.6</ele>
        <time>2015-04-06T20:22:56.794Z</time>
      </trkpt>
      <trkpt lat="48.83331" lon="2.38185">
        <ele>93.5</ele>
        <time>2015-04-06T20:22:57.810Z</time>
      </trkpt>
      <trkpt lat="48.83328" lon="2.3818">
        <ele>93.3</ele>
        <time>2015-04-06T20:22:58.803Z</time>
      </trkpt>
      <trkpt lat="48.83325" lon="2.38175">
        <ele>93</ele>
        <time>2015-04-06T20:22:59.810Z</time>
      </trkpt>
      <trkpt lat="48.83323" lon="2.38169">
        <ele>92.6</ele>
        <time>2015-04-06T20:23:00.717Z</time>
      </trkpt>
      <trkpt lat="48.8332" lon="2.38163">
        <ele>92.5</ele>
        <time>2015-04-06T20:23:01.837Z</time>
      </trkpt>
      <trkpt lat="48.83314" lon="2.38153">
        <ele>92.3</ele>
        <time>2015-04-06T20:23:03.742Z</time>
      </trkpt>
      <trkpt lat="48.83312" lon="2.38148">
        <ele>92.3</ele>
        <time>2015-04-06T20:23:04.770Z</time>
      </trkpt>
      <trkpt lat="48.83307" lon="2.38138">
        <ele>92.5</ele>
        <time>2015-04-06T20:23:06.802Z</time>
      </trkpt>
      <trkpt lat="48.83304" lon="2.38133">
        <ele>92.3</ele>
        <time>2015-04-06T20:23:07.835Z</time>
      </trkpt>
      <trkpt lat="48.83299" lon="2.38122">
        <ele>92.3</ele>
        <time>2015-04-06T20:23:09.744Z</time>
      </trkpt>
      <trkpt lat="48.83297" lon="2.38116">
        <ele>92.1</ele>
        <time>2015-04-06T20:23:10.766Z</time>
      </trkpt>
      <trkpt lat="48.83292" lon="2.38107">
        <ele>92.2</ele>
        <time>2015-04-06T20:23:12.799Z</time>
      </trkpt>
      <trkpt lat="48.83289" lon="2.38102">
        <ele>92.2</ele>
        <time>2015-04-06T20:23:13.837Z</time>
      </trkpt>
      <trkpt lat="48.83284" lon="2.38091">
        <ele>91.8</ele>
        <time>2015-04-06T20:23:15.759Z</time>
      </trkpt>
      <trkpt lat="48.83282" lon="2.38084">
        <ele>91</ele>
        <time>2015-04-06T20:23:16.762Z</time>
      </trkpt>
      <trkpt lat="48.83277" lon="2.38073">
        <ele>90.8</ele>
        <time>2015-04-06T20:23:18.733Z</time>
      </trkpt>
      <trkpt lat="48.83275" lon="2.38066">
        <ele>90.6</ele>
        <time>2015-04-06T20:23:19.801Z</time>
      </trkpt>
      <trkpt lat="48.8327" lon="2.38056">
        <ele>90.1</ele>
        <time>2015-04-06T20:23:21.347Z</time>
      </trkpt>
      <trkpt lat="48.83267" lon="2.3805">
        <ele>89.8</ele>
        <time>2015-04-06T20:23:22.764Z</time>
      </trkpt>
      <trkpt lat="48.83264" lon="2.38044">
        <ele>89.7</ele>
        <time>2015-04-06T20:23:23.774Z</time>
      </trkpt>
      <trkpt lat="48.83261" lon="2.38038">
        <ele>89.5</ele>
        <time>2015-04-06T20:23:24.791Z</time>
      </trkpt>
      <trkpt lat="48.83259" lon="2.38031">
        <ele>89.4</ele>
        <time>2015-04-06T20:23:25.806Z</time>
      </trkpt>
      <trkpt lat="48.83256" lon="2.38025">
        <ele>89.1</ele>
        <time>2015-04-06T20:23:26.804Z</time>
      </trkpt>
      <trkpt lat="48.83253" lon="2.3802">
        <ele>88.7</ele>
        <time>2015-04-06T20:23:27.811Z</time>
      </trkpt>
      <trkpt lat="48.83251" lon="2.38014">
        <ele>88.3</ele>
        <time>2015-04-06T20:23:28.913Z</time>
      </trkpt>
      <trkpt lat="48.83248" lon="2.38008">
        <ele>87.7</ele>
        <time>2015-04-06T20:23:29.743Z</time>
      </trkpt>
      <trkpt lat="48.83245" lon="2.38002">
        <ele>87.7</ele>
        <time>2015-04-06T20:23:30.760Z</time>
      </trkpt>
      <trkpt lat="48.83239" lon="2.37992">
        <ele>87.9</ele>
        <time>2015-04-06T20:23:32.765Z</time>
      </trkpt>
      <trkpt lat="48.83237" lon="2.37987">
        <ele>87.8</ele>
        <time>2015-04-06T20:23:33.770Z</time>
      </trkpt>
      <trkpt lat="48.83232" lon="2.37976">
        <ele>87.5</ele>
        <time>2015-04-06T20:24:38.822Z</time>
      </trkpt>
      <trkpt lat="48.8323" lon="2.37973">
        <ele>87.4</ele>
        <time>2015-04-06T20:24:39.904Z</time>
      </trkpt>
      <trkpt lat="48.83226" lon="2.37964">
        <ele>87.2</ele>
        <time>2015-04-06T20:24:41.776Z</time>
      </trkpt>
      <trkpt lat="48.83223" lon="2.3796">
        <ele>87.1</ele>
        <time>2015-04-06T20:24:42.795Z</time>
      </trkpt>
      <trkpt lat="48.83218" lon="2.37951">
        <ele>87</ele>
        <time>2015-04-06T20:24:44.771Z</time>
      </trkpt>
      <trkpt lat="48.83215" lon="2.37948">
        <ele>86.6</ele>
        <time>2015-04-06T20:24:45.773Z</time>
      </trkpt>
      <trkpt lat="48.83208" lon="2.37941">
        <ele>86</ele>
        <time>2015-04-06T20:24:47.827Z</time>
      </trkpt>
      <trkpt lat="48.83204" lon="2.37938">
        <ele>86.1</ele>
        <time>2015-04-06T20:24:48.844Z</time>
      </trkpt>
      <trkpt lat="48.83198" lon="2.37936">
        <ele>86.5</ele>
        <time>2015-04-06T20:24:50.744Z</time>
      </trkpt>
      <trkpt lat="48.83194" lon="2.37935">
        <ele>86.5</ele>
        <time>2015-04-06T20:24:51.770Z</time>
      </trkpt>
      <trkpt lat="48.83188" lon="2.3793">
        <ele>86</ele>
        <time>2015-04-06T20:24:53.805Z</time>
      </trkpt>
      <trkpt lat="48.83184" lon="2.37928">
        <ele>85.9</ele>
        <time>2015-04-06T20:24:54.827Z</time>
      </trkpt>
      <trkpt lat="48.83178" lon="2.37921">
        <ele>85.1</ele>
        <time>2015-04-06T20:24:57.822Z</time>
      </trkpt>
      <trkpt lat="48.83176" lon="2.37917">
        <ele>85</ele>
        <time>2015-04-06T20:24:58.833Z</time>
      </trkpt>
      <trkpt lat="48.83175" lon="2.3791">
        <ele>84.7</ele>
        <time>2015-04-06T20:24:59.753Z</time>
      </trkpt>
      <trkpt lat="48.83174" lon="2.37903">
        <ele>84.5</ele>
        <time>2015-04-06T20:25:00.754Z</time>
      </trkpt>
      <trkpt lat="48.83175" lon="2.37896">
        <ele>84.6</ele>
        <time>2015-04-06T20:25:01.789Z</time>
      </trkpt>
      <trkpt lat="48.83174" lon="2.37889">
        <ele>84.6</ele>
        <time>2015-04-06T20:25:02.772Z</time>
      </trkpt>
      <trkpt lat="48.83175" lon="2.37877">
        <ele>85.8</ele>
        <time>2015-04-06T20:25:04.815Z</time>
      </trkpt>
      <trkpt lat="48.83174" lon="2.37872">
        <ele>85.8</ele>
        <time>2015-04-06T20:25:05.759Z</time>
      </trkpt>
      <trkpt lat="48.8317" lon="2.37862">
        <ele>86</ele>
        <time>2015-04-06T20:25:07.783Z</time>
      </trkpt>
      <trkpt lat="48.83167" lon="2.37858">
        <ele>86.4</ele>
        <time>2015-04-06T20:25:08.783Z</time>
      </trkpt>
      <trkpt lat="48.83164" lon="2.37853">
        <ele>86.3</ele>
        <time>2015-04-06T20:25:09.800Z</time>
      </trkpt>
      <trkpt lat="48.8316" lon="2.37847">
        <ele>86.3</ele>
        <time>2015-04-06T20:25:10.813Z</time>
      </trkpt>
      <trkpt lat="48.83157" lon="2.37842">
        <ele>86.6</ele>
        <time>2015-04-06T20:25:11.747Z</time>
      </trkpt>
      <trkpt lat="48.83153" lon="2.37838">
        <ele>86.9</ele>
        <time>2015-04-06T20:25:12.750Z</time>
      </trkpt>
      <trkpt lat="48.83148" lon="2.37829">
        <ele>87.8</ele>
        <time>2015-04-06T20:25:14.772Z</time>
      </trkpt>
      <trkpt lat="48.83144" lon="2.37826">
        <ele>88.5</ele>
        <time>2015-04-06T20:25:15.771Z</time>
      </trkpt>
      <trkpt lat="48.8314" lon="2.37822">
        <ele>89</ele>
        <time>2015-04-06T20:25:16.781Z</time>
      </trkpt>
      <trkpt lat="48.83137" lon="2.37818">
        <ele>89.3</ele>
        <time>2015-04-06T20:25:17.785Z</time>
      </trkpt>
      <trkpt lat="48.83132" lon="2.37814">
        <ele>89.4</ele>
        <time>2015-04-06T20:25:19.184Z</time>
      </trkpt>
      <trkpt lat="48.83128" lon="2.3781">
        <ele>89.5</ele>
        <time>2015-04-06T20:25:19.852Z</time>
      </trkpt>
      <trkpt lat="48.83122" lon="2.37801">
        <ele>90.4</ele>
        <time>2015-04-06T20:25:21.714Z</time>
      </trkpt>
      <trkpt lat="48.83118" lon="2.37798">
        <ele>90.5</ele>
        <time>2015-04-06T20:25:22.737Z</time>
      </trkpt>
      <trkpt lat="48.83111" lon="2.37792">
        <ele>91.4</ele>
        <time>2015-04-06T20:25:24.822Z</time>
      </trkpt>
      <trkpt lat="48.83108" lon="2.37787">
        <ele>91.8</ele>
        <time>2015-04-06T20:25:25.830Z</time>
      </trkpt>
      <trkpt lat="48.83104" lon="2.37779">
        <ele>92.2</ele>
        <time>2015-04-06T20:25:27.746Z</time>
      </trkpt>
      <trkpt lat="48.83103" lon="2.37775">
        <ele>92.1</ele>
        <time>2015-04-06T20:25:28.769Z</time>
      </trkpt>
      <trkpt lat="48.83103" lon="2.37766">
        <ele>91.5</ele>
        <time>2015-04-06T20:25:30.746Z</time>
      </trkpt>
      <trkpt lat="48.83104" lon="2.37761">
        <ele>92.1</ele>
        <time>2015-04-06T20:25:31.781Z</time>
      </trkpt>
      <trkpt lat="48.83102" lon="2.37772">
        <ele>100.9</ele>
        <time>2015-04-06T20:27:23.743Z</time>
      </trkpt>
      <trkpt lat="48.83108" lon="2.37744">
        <ele>134.4</ele>
        <time>2015-04-06T20:27:24.757Z</time>
      </trkpt>
      <trkpt lat="48.83108" lon="2.37745">
        <ele>134.9</ele>
        <time>2015-04-06T20:27:25.797Z</time>
      </trkpt>
      <trkpt lat="48.83106" lon="2.37736">
        <ele>179.2</ele>
        <time>2015-04-06T20:29:40.717Z</time>
      </trkpt>
      <trkpt lat="48.83133" lon="2.3777">
        <ele>164.3</ele>
        <time>2015-04-06T20:29:41.729Z</time>
      </trkpt>
      <trkpt lat="48.83133" lon="2.3777">
        <ele>164.3</ele>
        <time>2015-04-06T20:29:42.266Z</time>
      </trkpt>
      <trkpt lat="48.83134" lon="2.3777">
        <ele>163.3</ele>
        <time>2015-04-06T20:29:42.744Z</time>
      </trkpt>
      <trkpt lat="48.83135" lon="2.37771">
        <ele>162.7</ele>
        <time>2015-04-06T20:29:43.747Z</time>
      </trkpt>
      <trkpt lat="48.83136" lon="2.37771">
        <ele>161.8</ele>
        <time>2015-04-06T20:32:48.761Z</time>
      </trkpt>
      <trkpt lat="48.83116" lon="2.37787">
        <ele>130.2</ele>
        <time>2015-04-06T20:32:49.786Z</time>
      </trkpt>
      <trkpt lat="48.83115" lon="2.37788">
        <ele>129.5</ele>
        <time>2015-04-06T20:32:51.250Z</time>
      </trkpt>
      <trkpt lat="48.83114" lon="2.37787">
        <ele>129.1</ele>
        <time>2015-04-06T20:32:51.744Z</time>
      </trkpt>
      <trkpt lat="48.83112" lon="2.37786">
        <ele>128.7</ele>
        <time>2015-04-06T20:32:59.761Z</time>
      </trkpt>
      <trkpt lat="48.83106" lon="2.37777">
        <ele>128.2</ele>
        <time>2015-04-06T20:33:00.776Z</time>
      </trkpt>
      <trkpt lat="48.83098" lon="2.37774">
        <ele>127.6</ele>
        <time>2015-04-06T20:33:03.829Z</time>
      </trkpt>
      <trkpt lat="48.83094" lon="2.37774">
        <ele>127.3</ele>
        <time>2015-04-06T20:33:04.744Z</time>
      </trkpt>
      <trkpt lat="48.83086" lon="2.3777">
        <ele>126.6</ele>
        <time>2015-04-06T20:33:06.701Z</time>
      </trkpt>
      <trkpt lat="48.83082" lon="2.37769">
        <ele>126.3</ele>
        <time>2015-04-06T20:33:07.785Z</time>
      </trkpt>
      <trkpt lat="48.83077" lon="2.37769">
        <ele>126.1</ele>
        <time>2015-04-06T20:33:36.886Z</time>
      </trkpt>
      <trkpt lat="48.83061" lon="2.3772">
        <ele>127.2</ele>
        <time>2015-04-06T20:33:37.832Z</time>
      </trkpt>
      <trkpt lat="48.8306" lon="2.37718">
        <ele>127.3</ele>
        <time>2015-04-06T20:33:38.784Z</time>
      </trkpt>
      <trkpt lat="48.83059" lon="2.37716">
        <ele>126.6</ele>
        <time>2015-04-06T20:33:39.790Z</time>
      </trkpt>
      <trkpt lat="48.83059" lon="2.37715">
        <ele>125.9</ele>
        <time>2015-04-06T20:34:03.733Z</time>
      </trkpt>
      <trkpt lat="48.83041" lon="2.37683">
        <ele>123.1</ele>
        <time>2015-04-06T20:34:04.746Z</time>
      </trkpt>
      <trkpt lat="48.83035" lon="2.37678">
        <ele>122.3</ele>
        <time>2015-04-06T20:34:08.834Z</time>
      </trkpt>
      <trkpt lat="48.83033" lon="2.37672">
        <ele>121.8</ele>
        <time>2015-04-06T20:34:09.740Z</time>
      </trkpt>
      <trkpt lat="48.83028" lon="2.37661">
        <ele>121.5</ele>
        <time>2015-04-06T20:34:13.785Z</time>
      </trkpt>
      <trkpt lat="48.83027" lon="2.37658">
        <ele>121.3</ele>
        <time>2015-04-06T20:34:14.775Z</time>
      </trkpt>
      <trkpt lat="48.83027" lon="2.37658">
        <ele>121.3</ele>
        <time>2015-04-06T20:34:18.805Z</time>
      </trkpt>
      <trkpt lat="48.83029" lon="2.37641">
        <ele>120.8</ele>
        <time>2015-04-06T20:34:19.816Z</time>
      </trkpt>
      <trkpt lat="48.83027" lon="2.3763">
        <ele>120.4</ele>
        <time>2015-04-06T20:34:22.798Z</time>
      </trkpt>
      <trkpt lat="48.83026" lon="2.37625">
        <ele>120.4</ele>
        <time>2015-04-06T20:34:23.818Z</time>
      </trkpt>
      <trkpt lat="48.8302" lon="2.37618">
        <ele>119.8</ele>
        <time>2015-04-06T20:34:25.784Z</time>
      </trkpt>
      <trkpt lat="48.83015" lon="2.37617">
        <ele>119.3</ele>
        <time>2015-04-06T20:34:26.796Z</time>
      </trkpt>
      <trkpt lat="48.83007" lon="2.37612">
        <ele>118.2</ele>
        <time>2015-04-06T20:34:28.724Z</time>
      </trkpt>
      <trkpt lat="48.83003" lon="2.37608">
        <ele>116.8</ele>
        <time>2015-04-06T20:34:29.749Z</time>
      </trkpt>
      <trkpt lat="48.83" lon="2.376">
        <ele>115.5</ele>
        <time>2015-04-06T20:34:30.767Z</time>
      </trkpt>
      <trkpt lat="48.82997" lon="2.37592">
        <ele>114.2</ele>
        <time>2015-04-06T20:34:31.792Z</time>
      </trkpt>
      <trkpt lat="48.82994" lon="2.37586">
        <ele>113.6</ele>
        <time>2015-04-06T20:34:32.706Z</time>
      </trkpt>
      <trkpt lat="48.8299" lon="2.37576">
        <ele>112.8</ele>
        <time>2015-04-06T20:34:33.715Z</time>
      </trkpt>
      <trkpt lat="48.82987" lon="2.37567">
        <ele>112.3</ele>
        <time>2015-04-06T20:34:34.739Z</time>
      </trkpt>
      <trkpt lat="48.82983" lon="2.37558">
        <ele>111.8</ele>
        <time>2015-04-06T20:34:35.761Z</time>
      </trkpt>
      <trkpt lat="48.82979" lon="2.37552">
        <ele>112.2</ele>
        <time>2015-04-06T20:34:36.785Z</time>
      </trkpt>
      <trkpt lat="48.82975" lon="2.37546">
        <ele>112.2</ele>
        <time>2015-04-06T20:34:37.807Z</time>
      </trkpt>
      <trkpt lat="48.82971" lon="2.3754">
        <ele>112.1</ele>
        <time>2015-04-06T20:34:38.706Z</time>
      </trkpt>
      <trkpt lat="48.82966" lon="2.37535">
        <ele>112.3</ele>
        <time>2015-04-06T20:34:39.716Z</time>
      </trkpt>
      <trkpt lat="48.82962" lon="2.3753">
        <ele>112.2</ele>
        <time>2015-04-06T20:34:40.739Z</time>
      </trkpt>
      <trkpt lat="48.82958" lon="2.37528">
        <ele>112.4</ele>
        <time>2015-04-06T20:34:41.754Z</time>
      </trkpt>
      <trkpt lat="48.82953" lon="2.37519">
        <ele>113.5</ele>
        <time>2015-04-06T20:34:45.766Z</time>
      </trkpt>
      <trkpt lat="48.82953" lon="2.37515">
        <ele>113.8</ele>
        <time>2015-04-06T20:34:46.790Z</time>
      </trkpt>
      <trkpt lat="48.82947" lon="2.37506">
        <ele>114.1</ele>
        <time>2015-04-06T20:34:50.788Z</time>
      </trkpt>
      <trkpt lat="48.82946" lon="2.37504">
        <ele>114.2</ele>
        <time>2015-04-06T20:34:51.805Z</time>
      </trkpt>
      <trkpt lat="48.82944" lon="2.37494">
        <ele>114.4</ele>
        <time>2015-04-06T20:34:57.711Z</time>
      </trkpt>
      <trkpt lat="48.82944" lon="2.3749">
        <ele>114.3</ele>
        <time>2015-04-06T20:34:58.736Z</time>
      </trkpt>
      <trkpt lat="48.82944" lon="2.3749">
        <ele>114.3</ele>
        <time>2015-04-06T20:35:10.822Z</time>
      </trkpt>
      <trkpt lat="48.82924" lon="2.37457">
        <ele>115</ele>
        <time>2015-04-06T20:35:11.738Z</time>
      </trkpt>
      <trkpt lat="48.82919" lon="2.37458">
        <ele>114.9</ele>
        <time>2015-04-06T20:35:15.711Z</time>
      </trkpt>
      <trkpt lat="48.82915" lon="2.37456">
        <ele>114.6</ele>
        <time>2015-04-06T20:35:17.793Z</time>
      </trkpt>
      <trkpt lat="48.82911" lon="2.37449">
        <ele>115.1</ele>
        <time>2015-04-06T20:35:19.799Z</time>
      </trkpt>
      <trkpt lat="48.8291" lon="2.37442">
        <ele>114.9</ele>
        <time>2015-04-06T20:35:20.709Z</time>
      </trkpt>
      <trkpt lat="48.82906" lon="2.3743">
        <ele>114.2</ele>
        <time>2015-04-06T20:35:22.731Z</time>
      </trkpt>
      <trkpt lat="48.82903" lon="2.37424">
        <ele>114.3</ele>
        <time>2015-04-06T20:35:23.739Z</time>
      </trkpt>
      <trkpt lat="48.82902" lon="2.37419">
        <ele>114.5</ele>
        <time>2015-04-06T20:35:24.750Z</time>
      </trkpt>
      <trkpt lat="48.82899" lon="2.37411">
        <ele>115.3</ele>
        <time>2015-04-06T20:35:25.758Z</time>
      </trkpt>
      <trkpt lat="48.82898" lon="2.374">
        <ele>115.6</ele>
        <time>2015-04-06T20:35:27.129Z</time>
      </trkpt>
      <trkpt lat="48.82895" lon="2.37393">
        <ele>115.7</ele>
        <time>2015-04-06T20:35:27.776Z</time>
      </trkpt>
      <trkpt lat="48.82887" lon="2.37389">
        <ele>114.8</ele>
        <time>2015-04-06T20:35:28.709Z</time>
      </trkpt>
      <trkpt lat="48.82881" lon="2.37384">
        <ele>114.1</ele>
        <time>2015-04-06T20:35:29.725Z</time>
      </trkpt>
      <trkpt lat="48.82876" lon="2.37374">
        <ele>115.4</ele>
        <time>2015-04-06T20:35:32.705Z</time>
      </trkpt>
      <trkpt lat="48.82875" lon="2.37371">
        <ele>115.7</ele>
        <time>2015-04-06T20:35:33.708Z</time>
      </trkpt>
      <trkpt lat="48.82871" lon="2.3736">
        <ele>116.5</ele>
        <time>2015-04-06T20:35:37.730Z</time>
      </trkpt>
      <trkpt lat="48.82869" lon="2.37357">
        <ele>116.5</ele>
        <time>2015-04-06T20:35:38.742Z</time>
      </trkpt>
      <trkpt lat="48.82863" lon="2.37348">
        <ele>116.2</ele>
        <time>2015-04-06T20:35:43.831Z</time>
      </trkpt>
      <trkpt lat="48.82861" lon="2.37345">
        <ele>116</ele>
        <time>2015-04-06T20:35:44.712Z</time>
      </trkpt>
      <trkpt lat="48.82859" lon="2.37336">
        <ele>115.6</ele>
        <time>2015-04-06T20:35:54.788Z</time>
      </trkpt>
      <trkpt lat="48.82849" lon="2.37313">
        <ele>117.5</ele>
        <time>2015-04-06T20:35:55.840Z</time>
      </trkpt>
      <trkpt lat="48.82843" lon="2.37304">
        <ele>116.4</ele>
        <time>2015-04-06T20:35:57.712Z</time>
      </trkpt>
      <trkpt lat="48.82841" lon="2.37298">
        <ele>115.6</ele>
        <time>2015-04-06T20:35:58.717Z</time>
      </trkpt>
      <trkpt lat="48.82835" lon="2.37288">
        <ele>114.8</ele>
        <time>2015-04-06T20:36:01.319Z</time>
      </trkpt>
      <trkpt lat="48.8283" lon="2.37283">
        <ele>114.1</ele>
        <time>2015-04-06T20:36:01.767Z</time>
      </trkpt>
      <trkpt lat="48.82823" lon="2.37276">
        <ele>113</ele>
        <time>2015-04-06T20:36:03.795Z</time>
      </trkpt>
      <trkpt lat="48.82821" lon="2.37271">
        <ele>112.4</ele>
        <time>2015-04-06T20:36:04.766Z</time>
      </trkpt>
      <trkpt lat="48.82818" lon="2.3726">
        <ele>111.6</ele>
        <time>2015-04-06T20:36:06.709Z</time>
      </trkpt>
      <trkpt lat="48.82815" lon="2.37254">
        <ele>111.5</ele>
        <time>2015-04-06T20:36:07.809Z</time>
      </trkpt>
      <trkpt lat="48.82811" lon="2.37244">
        <ele>111.1</ele>
        <time>2015-04-06T20:36:09.719Z</time>
      </trkpt>
      <trkpt lat="48.82809" lon="2.37239">
        <ele>110.8</ele>
        <time>2015-04-06T20:36:10.735Z</time>
      </trkpt>
      <trkpt lat="48.82804" lon="2.37231">
        <ele>110.4</ele>
        <time>2015-04-06T20:36:12.771Z</time>
      </trkpt>
      <trkpt lat="48.828" lon="2.37228">
        <ele>110</ele>
        <time>2015-04-06T20:36:13.775Z</time>
      </trkpt>
      <trkpt lat="48.82794" lon="2.37222">
        <ele>108.7</ele>
        <time>2015-04-06T20:36:16.433Z</time>
      </trkpt>
      <trkpt lat="48.82792" lon="2.37216">
        <ele>108.1</ele>
        <time>2015-04-06T20:36:16.706Z</time>
      </trkpt>
      <trkpt lat="48.82787" lon="2.37207">
        <ele>107.1</ele>
        <time>2015-04-06T20:36:18.764Z</time>
      </trkpt>
      <trkpt lat="48.82785" lon="2.37202">
        <ele>107</ele>
        <time>2015-04-06T20:36:19.780Z</time>
      </trkpt>
      <trkpt lat="48.82781" lon="2.37197">
        <ele>107.1</ele>
        <time>2015-04-06T20:36:20.789Z</time>
      </trkpt>
      <trkpt lat="48.82778" lon="2.37191">
        <ele>107.2</ele>
        <time>2015-04-06T20:36:21.710Z</time>
      </trkpt>
      <trkpt lat="48.82776" lon="2.37185">
        <ele>107.1</ele>
        <time>2015-04-06T20:36:23.131Z</time>
      </trkpt>
      <trkpt lat="48.82773" lon="2.37178">
        <ele>107.6</ele>
        <time>2015-04-06T20:36:23.681Z</time>
      </trkpt>
      <trkpt lat="48.8277" lon="2.37171">
        <ele>107.9</ele>
        <time>2015-04-06T20:36:24.711Z</time>
      </trkpt>
      <trkpt lat="48.82767" lon="2.37164">
        <ele>108.1</ele>
        <time>2015-04-06T20:36:25.746Z</time>
      </trkpt>
      <trkpt lat="48.82765" lon="2.37152">
        <ele>109.1</ele>
        <time>2015-04-06T20:36:27.753Z</time>
      </trkpt>
      <trkpt lat="48.82765" lon="2.37146">
        <ele>109.6</ele>
        <time>2015-04-06T20:36:28.759Z</time>
      </trkpt>
      <trkpt lat="48.82766" lon="2.37135">
        <ele>110.5</ele>
        <time>2015-04-06T20:36:31.646Z</time>
      </trkpt>
      <trkpt lat="48.82768" lon="2.3713">
        <ele>111.1</ele>
        <time>2015-04-06T20:36:31.715Z</time>
      </trkpt>
      <trkpt lat="48.82773" lon="2.37123">
        <ele>111.6</ele>
        <time>2015-04-06T20:36:33.797Z</time>
      </trkpt>
      <trkpt lat="48.82775" lon="2.3712">
        <ele>111.9</ele>
        <time>2015-04-06T20:36:34.808Z</time>
      </trkpt>
      <trkpt lat="48.82782" lon="2.37112">
        <ele>112.9</ele>
        <time>2015-04-06T20:36:37.775Z</time>
      </trkpt>
      <trkpt lat="48.82783" lon="2.37109">
        <ele>113.3</ele>
        <time>2015-04-06T20:36:38.762Z</time>
      </trkpt>
      <trkpt lat="48.82781" lon="2.37104">
        <ele>113.2</ele>
        <time>2015-04-06T20:36:40.773Z</time>
      </trkpt>
      <trkpt lat="48.82776" lon="2.37097">
        <ele>111.7</ele>
        <time>2015-04-06T20:36:41.842Z</time>
      </trkpt>
      <trkpt lat="48.82771" lon="2.3709">
        <ele>110.7</ele>
        <time>2015-04-06T20:36:42.729Z</time>
      </trkpt>
      <trkpt lat="48.82766" lon="2.37079">
        <ele>110.3</ele>
        <time>2015-04-06T20:36:43.760Z</time>
      </trkpt>
      <trkpt lat="48.8276" lon="2.37068">
        <ele>110</ele>
        <time>2015-04-06T20:36:44.753Z</time>
      </trkpt>
      <trkpt lat="48.82757" lon="2.37059">
        <ele>110.7</ele>
        <time>2015-04-06T20:36:45.762Z</time>
      </trkpt>
      <trkpt lat="48.82755" lon="2.37051">
        <ele>111.1</ele>
        <time>2015-04-06T20:36:46.774Z</time>
      </trkpt>
      <trkpt lat="48.82754" lon="2.37043">
        <ele>111.5</ele>
        <time>2015-04-06T20:36:47.779Z</time>
      </trkpt>
      <trkpt lat="48.82753" lon="2.37036">
        <ele>112.2</ele>
        <time>2015-04-06T20:36:48.788Z</time>
      </trkpt>
      <trkpt lat="48.82752" lon="2.37029">
        <ele>112.7</ele>
        <time>2015-04-06T20:36:49.794Z</time>
      </trkpt>
      <trkpt lat="48.82752" lon="2.37022">
        <ele>113.2</ele>
        <time>2015-04-06T20:36:51.181Z</time>
      </trkpt>
      <trkpt lat="48.82751" lon="2.37013">
        <ele>113.6</ele>
        <time>2015-04-06T20:36:51.713Z</time>
      </trkpt>
      <trkpt lat="48.82749" lon="2.37002">
        <ele>113.5</ele>
        <time>2015-04-06T20:36:52.740Z</time>
      </trkpt>
      <trkpt lat="48.82747" lon="2.36992">
        <ele>113.9</ele>
        <time>2015-04-06T20:36:53.774Z</time>
      </trkpt>
      <trkpt lat="48.82745" lon="2.36984">
        <ele>114.2</ele>
        <time>2015-04-06T20:36:54.795Z</time>
      </trkpt>
      <trkpt lat="48.82744" lon="2.36975">
        <ele>114.6</ele>
        <time>2015-04-06T20:36:55.822Z</time>
      </trkpt>
      <trkpt lat="48.82742" lon="2.36966">
        <ele>115.3</ele>
        <time>2015-04-06T20:36:56.741Z</time>
      </trkpt>
      <trkpt lat="48.82741" lon="2.36957">
        <ele>115.6</ele>
        <time>2015-04-06T20:36:57.760Z</time>
      </trkpt>
      <trkpt lat="48.8274" lon="2.36949">
        <ele>116.1</ele>
        <time>2015-04-06T20:36:58.785Z</time>
      </trkpt>
      <trkpt lat="48.82726" lon="2.36906">
        <ele>116.4</ele>
        <time>2015-04-06T20:37:03.778Z</time>
      </trkpt>
      <trkpt lat="48.82724" lon="2.36899">
        <ele>115.9</ele>
        <time>2015-04-06T20:37:04.699Z</time>
      </trkpt>
      <trkpt lat="48.82722" lon="2.36893">
        <ele>115.7</ele>
        <time>2015-04-06T20:37:05.706Z</time>
      </trkpt>
      <trkpt lat="48.82717" lon="2.36882">
        <ele>115.8</ele>
        <time>2015-04-06T20:37:07.753Z</time>
      </trkpt>
      <trkpt lat="48.82716" lon="2.36874">
        <ele>116.7</ele>
        <time>2015-04-06T20:37:08.770Z</time>
      </trkpt>
      <trkpt lat="48.82716" lon="2.36862">
        <ele>117.6</ele>
        <time>2015-04-06T20:37:09.805Z</time>
      </trkpt>
      <trkpt lat="48.82715" lon="2.36852">
        <ele>118.3</ele>
        <time>2015-04-06T20:37:10.710Z</time>
      </trkpt>
      <trkpt lat="48.82714" lon="2.36845">
        <ele>119</ele>
        <time>2015-04-06T20:37:11.715Z</time>
      </trkpt>
      <trkpt lat="48.82713" lon="2.36837">
        <ele>120.1</ele>
        <time>2015-04-06T20:37:12.713Z</time>
      </trkpt>
      <trkpt lat="48.82713" lon="2.36829">
        <ele>120.8</ele>
        <time>2015-04-06T20:37:13.755Z</time>
      </trkpt>
      <trkpt lat="48.82712" lon="2.36821">
        <ele>121.8</ele>
        <time>2015-04-06T20:37:14.756Z</time>
      </trkpt>
      <trkpt lat="48.82711" lon="2.36813">
        <ele>122.7</ele>
        <time>2015-04-06T20:37:15.763Z</time>
      </trkpt>
      <trkpt lat="48.82711" lon="2.36806">
        <ele>122.9</ele>
        <time>2015-04-06T20:37:16.767Z</time>
      </trkpt>
      <trkpt lat="48.82712" lon="2.36799">
        <ele>123.3</ele>
        <time>2015-04-06T20:37:17.772Z</time>
      </trkpt>
      <trkpt lat="48.82712" lon="2.36791">
        <ele>123.6</ele>
        <time>2015-04-06T20:37:18.781Z</time>
      </trkpt>
      <trkpt lat="48.82711" lon="2.36784">
        <ele>124.3</ele>
        <time>2015-04-06T20:37:19.794Z</time>
      </trkpt>
      <trkpt lat="48.82711" lon="2.36776">
        <ele>124.6</ele>
        <time>2015-04-06T20:37:20.715Z</time>
      </trkpt>
      <trkpt lat="48.8271" lon="2.36769">
        <ele>124.8</ele>
        <time>2015-04-06T20:37:21.718Z</time>
      </trkpt>
      <trkpt lat="48.82709" lon="2.36761">
        <ele>124.9</ele>
        <time>2015-04-06T20:37:22.727Z</time>
      </trkpt>
      <trkpt lat="48.82707" lon="2.36753">
        <ele>125.1</ele>
        <time>2015-04-06T20:37:23.732Z</time>
      </trkpt>
      <trkpt lat="48.82706" lon="2.36745">
        <ele>125.1</ele>
        <time>2015-04-06T20:37:24.737Z</time>
      </trkpt>
      <trkpt lat="48.82703" lon="2.36732">
        <ele>121.9</ele>
        <time>2015-04-06T20:37:25.780Z</time>
      </trkpt>
      <trkpt lat="48.82701" lon="2.36722">
        <ele>121.7</ele>
        <time>2015-04-06T20:37:26.770Z</time>
      </trkpt>
      <trkpt lat="48.827" lon="2.36712">
        <ele>121.6</ele>
        <time>2015-04-06T20:37:27.797Z</time>
      </trkpt>
      <trkpt lat="48.82698" lon="2.36704">
        <ele>120.9</ele>
        <time>2015-04-06T20:37:28.719Z</time>
      </trkpt>
      <trkpt lat="48.82697" lon="2.36696">
        <ele>119.8</ele>
        <time>2015-04-06T20:37:29.717Z</time>
      </trkpt>
      <trkpt lat="48.82696" lon="2.36688">
        <ele>119.8</ele>
        <time>2015-04-06T20:37:30.742Z</time>
      </trkpt>
      <trkpt lat="48.82695" lon="2.36681">
        <ele>119</ele>
        <time>2015-04-06T20:37:31.776Z</time>
      </trkpt>
      <trkpt lat="48.82693" lon="2.36674">
        <ele>117.8</ele>
        <time>2015-04-06T20:37:32.797Z</time>
      </trkpt>
      <trkpt lat="48.82692" lon="2.36668">
        <ele>117</ele>
        <time>2015-04-06T20:37:33.804Z</time>
      </trkpt>
      <trkpt lat="48.82693" lon="2.36658">
        <ele>116</ele>
        <time>2015-04-06T20:37:35.825Z</time>
      </trkpt>
      <trkpt lat="48.82693" lon="2.36653">
        <ele>116.3</ele>
        <time>2015-04-06T20:37:36.937Z</time>
      </trkpt>
      <trkpt lat="48.82693" lon="2.36644">
        <ele>117.3</ele>
        <time>2015-04-06T20:37:38.711Z</time>
      </trkpt>
      <trkpt lat="48.82694" lon="2.36638">
        <ele>117.6</ele>
        <time>2015-04-06T20:37:39.717Z</time>
      </trkpt>
      <trkpt lat="48.82692" lon="2.36629">
        <ele>117.1</ele>
        <time>2015-04-06T20:37:41.759Z</time>
      </trkpt>
      <trkpt lat="48.82691" lon="2.36623">
        <ele>117</ele>
        <time>2015-04-06T20:37:42.792Z</time>
      </trkpt>
      <trkpt lat="48.82689" lon="2.36616">
        <ele>116.6</ele>
        <time>2015-04-06T20:37:43.813Z</time>
      </trkpt>
      <trkpt lat="48.82686" lon="2.3661">
        <ele>116.3</ele>
        <time>2015-04-06T20:37:44.716Z</time>
      </trkpt>
      <trkpt lat="48.82684" lon="2.36603">
        <ele>116</ele>
        <time>2015-04-06T20:37:45.731Z</time>
      </trkpt>
      <trkpt lat="48.8268" lon="2.36595">
        <ele>115.8</ele>
        <time>2015-04-06T20:37:46.737Z</time>
      </trkpt>
      <trkpt lat="48.82676" lon="2.36587">
        <ele>115.5</ele>
        <time>2015-04-06T20:37:47.743Z</time>
      </trkpt>
      <trkpt lat="48.82673" lon="2.36578">
        <ele>115.7</ele>
        <time>2015-04-06T20:37:48.758Z</time>
      </trkpt>
      <trkpt lat="48.82669" lon="2.36569">
        <ele>115.9</ele>
        <time>2015-04-06T20:37:49.769Z</time>
      </trkpt>
      <trkpt lat="48.82666" lon="2.3656">
        <ele>116.2</ele>
        <time>2015-04-06T20:37:50.776Z</time>
      </trkpt>
      <trkpt lat="48.82664" lon="2.36549">
        <ele>117</ele>
        <time>2015-04-06T20:37:51.795Z</time>
      </trkpt>
      <trkpt lat="48.82661" lon="2.36539">
        <ele>116.7</ele>
        <time>2015-04-06T20:37:52.707Z</time>
      </trkpt>
      <trkpt lat="48.82657" lon="2.36529">
        <ele>116.8</ele>
        <time>2015-04-06T20:37:53.711Z</time>
      </trkpt>
      <trkpt lat="48.82652" lon="2.36519">
        <ele>116.9</ele>
        <time>2015-04-06T20:37:54.720Z</time>
      </trkpt>
      <trkpt lat="48.82648" lon="2.36508">
        <ele>116.4</ele>
        <time>2015-04-06T20:37:55.756Z</time>
      </trkpt>
      <trkpt lat="48.82643" lon="2.36497">
        <ele>116.1</ele>
        <time>2015-04-06T20:37:56.755Z</time>
      </trkpt>
      <trkpt lat="48.8264" lon="2.36487">
        <ele>116.2</ele>
        <time>2015-04-06T20:37:57.760Z</time>
      </trkpt>
      <trkpt lat="48.82636" lon="2.36477">
        <ele>116</ele>
        <time>2015-04-06T20:37:58.771Z</time>
      </trkpt>
      <trkpt lat="48.82634" lon="2.36468">
        <ele>115.5</ele>
        <time>2015-04-06T20:37:59.796Z</time>
      </trkpt>
      <trkpt lat="48.82636" lon="2.36458">
        <ele>115.2</ele>
        <time>2015-04-06T20:38:00.718Z</time>
      </trkpt>
      <trkpt lat="48.82639" lon="2.36449">
        <ele>116.5</ele>
        <time>2015-04-06T20:38:01.768Z</time>
      </trkpt>
      <trkpt lat="48.82641" lon="2.3644">
        <ele>116.9</ele>
        <time>2015-04-06T20:38:02.761Z</time>
      </trkpt>
      <trkpt lat="48.82644" lon="2.36433">
        <ele>117.6</ele>
        <time>2015-04-06T20:38:03.779Z</time>
      </trkpt>
      <trkpt lat="48.82646" lon="2.36424">
        <ele>117.6</ele>
        <time>2015-04-06T20:38:04.791Z</time>
      </trkpt>
      <trkpt lat="48.82645" lon="2.36415">
        <ele>117.4</ele>
        <time>2015-04-06T20:38:05.806Z</time>
      </trkpt>
      <trkpt lat="48.82645" lon="2.36405">
        <ele>117.3</ele>
        <time>2015-04-06T20:38:06.712Z</time>
      </trkpt>
      <trkpt lat="48.82646" lon="2.36396">
        <ele>117.3</ele>
        <time>2015-04-06T20:38:07.763Z</time>
      </trkpt>
      <trkpt lat="48.82645" lon="2.36386">
        <ele>117.3</ele>
        <time>2015-04-06T20:38:08.760Z</time>
      </trkpt>
      <trkpt lat="48.82647" lon="2.36376">
        <ele>116.7</ele>
        <time>2015-04-06T20:38:09.764Z</time>
      </trkpt>
      <trkpt lat="48.82646" lon="2.36367">
        <ele>116.2</ele>
        <time>2015-04-06T20:38:10.778Z</time>
      </trkpt>
      <trkpt lat="48.82648" lon="2.36358">
        <ele>116</ele>
        <time>2015-04-06T20:38:11.788Z</time>
      </trkpt>
      <trkpt lat="48.8265" lon="2.3635">
        <ele>116.3</ele>
        <time>2015-04-06T20:38:12.802Z</time>
      </trkpt>
      <trkpt lat="48.82651" lon="2.36336">
        <ele>115.8</ele>
        <time>2015-04-06T20:38:14.722Z</time>
      </trkpt>
      <trkpt lat="48.82651" lon="2.36329">
        <ele>115.7</ele>
        <time>2015-04-06T20:38:15.758Z</time>
      </trkpt>
      <trkpt lat="48.82651" lon="2.36323">
        <ele>115.5</ele>
        <time>2015-04-06T20:38:16.733Z</time>
      </trkpt>
      <trkpt lat="48.8265" lon="2.36315">
        <ele>115.2</ele>
        <time>2015-04-06T20:38:17.744Z</time>
      </trkpt>
      <trkpt lat="48.8265" lon="2.36307">
        <ele>114.9</ele>
        <time>2015-04-06T20:38:18.749Z</time>
      </trkpt>
      <trkpt lat="48.82649" lon="2.36299">
        <ele>114.7</ele>
        <time>2015-04-06T20:38:19.766Z</time>
      </trkpt>
      <trkpt lat="48.82649" lon="2.3629">
        <ele>115.3</ele>
        <time>2015-04-06T20:38:20.777Z</time>
      </trkpt>
      <trkpt lat="48.82649" lon="2.36282">
        <ele>115.6</ele>
        <time>2015-04-06T20:38:21.778Z</time>
      </trkpt>
      <trkpt lat="48.82649" lon="2.36269">
        <ele>116.2</ele>
        <time>2015-04-06T20:38:23.711Z</time>
      </trkpt>
      <trkpt lat="48.82648" lon="2.3626">
        <ele>116</ele>
        <time>2015-04-06T20:38:24.740Z</time>
      </trkpt>
      <trkpt lat="48.82647" lon="2.3625">
        <ele>116.2</ele>
        <time>2015-04-06T20:38:25.810Z</time>
      </trkpt>
      <trkpt lat="48.82645" lon="2.36241">
        <ele>116.5</ele>
        <time>2015-04-06T20:38:26.705Z</time>
      </trkpt>
      <trkpt lat="48.82644" lon="2.36233">
        <ele>116.8</ele>
        <time>2015-04-06T20:38:27.745Z</time>
      </trkpt>
      <trkpt lat="48.82644" lon="2.36225">
        <ele>117.1</ele>
        <time>2015-04-06T20:38:28.763Z</time>
      </trkpt>
      <trkpt lat="48.82643" lon="2.36217">
        <ele>117.1</ele>
        <time>2015-04-06T20:38:29.698Z</time>
      </trkpt>
      <trkpt lat="48.82642" lon="2.36209">
        <ele>117.2</ele>
        <time>2015-04-06T20:38:30.708Z</time>
      </trkpt>
      <trkpt lat="48.8264" lon="2.362">
        <ele>117.5</ele>
        <time>2015-04-06T20:38:31.735Z</time>
      </trkpt>
      <trkpt lat="48.82639" lon="2.36193">
        <ele>117.9</ele>
        <time>2015-04-06T20:38:32.738Z</time>
      </trkpt>
      <trkpt lat="48.82638" lon="2.3618">
        <ele>117.9</ele>
        <time>2015-04-06T20:38:34.793Z</time>
      </trkpt>
      <trkpt lat="48.82638" lon="2.36175">
        <ele>117.8</ele>
        <time>2015-04-06T20:38:35.826Z</time>
      </trkpt>
      <trkpt lat="48.82636" lon="2.36163">
        <ele>117.7</ele>
        <time>2015-04-06T20:38:37.750Z</time>
      </trkpt>
      <trkpt lat="48.82633" lon="2.36155">
        <ele>117.7</ele>
        <time>2015-04-06T20:38:38.752Z</time>
      </trkpt>
      <trkpt lat="48.82631" lon="2.36147">
        <ele>117.6</ele>
        <time>2015-04-06T20:38:39.789Z</time>
      </trkpt>
      <trkpt lat="48.82629" lon="2.3614">
        <ele>117.5</ele>
        <time>2015-04-06T20:38:40.798Z</time>
      </trkpt>
      <trkpt lat="48.82627" lon="2.3613">
        <ele>116.6</ele>
        <time>2015-04-06T20:38:41.732Z</time>
      </trkpt>
      <trkpt lat="48.82625" lon="2.36122">
        <ele>115.8</ele>
        <time>2015-04-06T20:38:42.719Z</time>
      </trkpt>
      <trkpt lat="48.82624" lon="2.36115">
        <ele>115.1</ele>
        <time>2015-04-06T20:38:43.750Z</time>
      </trkpt>
      <trkpt lat="48.82622" lon="2.36108">
        <ele>114.6</ele>
        <time>2015-04-06T20:38:44.759Z</time>
      </trkpt>
      <trkpt lat="48.8262" lon="2.361">
        <ele>114.2</ele>
        <time>2015-04-06T20:38:45.779Z</time>
      </trkpt>
      <trkpt lat="48.82617" lon="2.36092">
        <ele>113.9</ele>
        <time>2015-04-06T20:38:46.789Z</time>
      </trkpt>
      <trkpt lat="48.82615" lon="2.36083">
        <ele>113.6</ele>
        <time>2015-04-06T20:38:47.731Z</time>
      </trkpt>
      <trkpt lat="48.82613" lon="2.36075">
        <ele>113.4</ele>
        <time>2015-04-06T20:38:48.738Z</time>
      </trkpt>
      <trkpt lat="48.82611" lon="2.36066">
        <ele>113.1</ele>
        <time>2015-04-06T20:38:49.794Z</time>
      </trkpt>
      <trkpt lat="48.82609" lon="2.36058">
        <ele>112.8</ele>
        <time>2015-04-06T20:38:50.802Z</time>
      </trkpt>
      <trkpt lat="48.82608" lon="2.36049">
        <ele>112.6</ele>
        <time>2015-04-06T20:38:51.715Z</time>
      </trkpt>
      <trkpt lat="48.82607" lon="2.3604">
        <ele>112.5</ele>
        <time>2015-04-06T20:38:52.716Z</time>
      </trkpt>
      <trkpt lat="48.82606" lon="2.3603">
        <ele>112.5</ele>
        <time>2015-04-06T20:38:53.721Z</time>
      </trkpt>
      <trkpt lat="48.82605" lon="2.3602">
        <ele>112.6</ele>
        <time>2015-04-06T20:38:54.724Z</time>
      </trkpt>
      <trkpt lat="48.82606" lon="2.36012">
        <ele>112.9</ele>
        <time>2015-04-06T20:38:55.767Z</time>
      </trkpt>
      <trkpt lat="48.82607" lon="2.36004">
        <ele>113.4</ele>
        <time>2015-04-06T20:38:56.809Z</time>
      </trkpt>
      <trkpt lat="48.82607" lon="2.35993">
        <ele>113.7</ele>
        <time>2015-04-06T20:38:58.726Z</time>
      </trkpt>
      <trkpt lat="48.82607" lon="2.35989">
        <ele>113.7</ele>
        <time>2015-04-06T20:38:59.739Z</time>
      </trkpt>
      <trkpt lat="48.8261" lon="2.35986">
        <ele>112.7</ele>
        <time>2015-04-06T20:40:08.726Z</time>
      </trkpt>
      <trkpt lat="48.82634" lon="2.3599">
        <ele>112.3</ele>
        <time>2015-04-06T20:40:09.753Z</time>
      </trkpt>
      <trkpt lat="48.82638" lon="2.35979">
        <ele>109.9</ele>
        <time>2015-04-06T20:40:12.783Z</time>
      </trkpt>
      <trkpt lat="48.8264" lon="2.35973">
        <ele>108.5</ele>
        <time>2015-04-06T20:40:13.806Z</time>
      </trkpt>
      <trkpt lat="48.82641" lon="2.35964">
        <ele>107.8</ele>
        <time>2015-04-06T20:40:14.684Z</time>
      </trkpt>
      <trkpt lat="48.82642" lon="2.35955">
        <ele>107.3</ele>
        <time>2015-04-06T20:40:15.745Z</time>
      </trkpt>
      <trkpt lat="48.82641" lon="2.35945">
        <ele>106.5</ele>
        <time>2015-04-06T20:40:16.722Z</time>
      </trkpt>
      <trkpt lat="48.82639" lon="2.35936">
        <ele>106</ele>
        <time>2015-04-06T20:40:17.742Z</time>
      </trkpt>
      <trkpt lat="48.82638" lon="2.35928">
        <ele>106</ele>
        <time>2015-04-06T20:40:18.762Z</time>
      </trkpt>
      <trkpt lat="48.82637" lon="2.3592">
        <ele>105.8</ele>
        <time>2015-04-06T20:40:19.822Z</time>
      </trkpt>
      <trkpt lat="48.82633" lon="2.35914">
        <ele>105.2</ele>
        <time>2015-04-06T20:40:20.773Z</time>
      </trkpt>
      <trkpt lat="48.82628" lon="2.35907">
        <ele>104.9</ele>
        <time>2015-04-06T20:40:21.781Z</time>
      </trkpt>
      <trkpt lat="48.82625" lon="2.359">
        <ele>104.6</ele>
        <time>2015-04-06T20:40:22.703Z</time>
      </trkpt>
      <trkpt lat="48.82619" lon="2.3589">
        <ele>104</ele>
        <time>2015-04-06T20:40:23.710Z</time>
      </trkpt>
      <trkpt lat="48.82616" lon="2.3588">
        <ele>103.7</ele>
        <time>2015-04-06T20:40:24.715Z</time>
      </trkpt>
      <trkpt lat="48.82614" lon="2.35871">
        <ele>103.7</ele>
        <time>2015-04-06T20:40:25.745Z</time>
      </trkpt>
      <trkpt lat="48.82612" lon="2.35862">
        <ele>103.8</ele>
        <time>2015-04-06T20:40:26.755Z</time>
      </trkpt>
      <trkpt lat="48.82611" lon="2.35852">
        <ele>104</ele>
        <time>2015-04-06T20:40:27.762Z</time>
      </trkpt>
      <trkpt lat="48.82611" lon="2.35841">
        <ele>104.2</ele>
        <time>2015-04-06T20:40:28.777Z</time>
      </trkpt>
      <trkpt lat="48.82611" lon="2.3583">
        <ele>104.4</ele>
        <time>2015-04-06T20:40:29.787Z</time>
      </trkpt>
      <trkpt lat="48.82611" lon="2.35819">
        <ele>104.5</ele>
        <time>2015-04-06T20:40:30.685Z</time>
      </trkpt>
      <trkpt lat="48.82611" lon="2.35809">
        <ele>104.6</ele>
        <time>2015-04-06T20:40:31.756Z</time>
      </trkpt>
      <trkpt lat="48.82608" lon="2.358">
        <ele>104.5</ele>
        <time>2015-04-06T20:40:32.752Z</time>
      </trkpt>
      <trkpt lat="48.82606" lon="2.35793">
        <ele>104.4</ele>
        <time>2015-04-06T20:40:33.756Z</time>
      </trkpt>
      <trkpt lat="48.82605" lon="2.35785">
        <ele>104.6</ele>
        <time>2015-04-06T20:40:34.762Z</time>
      </trkpt>
      <trkpt lat="48.82609" lon="2.35776">
        <ele>104.4</ele>
        <time>2015-04-06T20:40:35.776Z</time>
      </trkpt>
      <trkpt lat="48.82609" lon="2.35768">
        <ele>104.3</ele>
        <time>2015-04-06T20:40:36.794Z</time>
      </trkpt>
      <trkpt lat="48.82608" lon="2.35762">
        <ele>104.4</ele>
        <time>2015-04-06T20:40:37.799Z</time>
      </trkpt>
      <trkpt lat="48.82608" lon="2.35753">
        <ele>105.1</ele>
        <time>2015-04-06T20:40:39.714Z</time>
      </trkpt>
      <trkpt lat="48.82609" lon="2.35748">
        <ele>106.1</ele>
        <time>2015-04-06T20:40:40.729Z</time>
      </trkpt>
      <trkpt lat="48.82614" lon="2.35743">
        <ele>107.2</ele>
        <time>2015-04-06T20:41:18.794Z</time>
      </trkpt>
      <trkpt lat="48.8262" lon="2.35734">
        <ele>112.3</ele>
        <time>2015-04-06T20:41:19.800Z</time>
      </trkpt>
      <trkpt lat="48.82619" lon="2.35722">
        <ele>112.3</ele>
        <time>2015-04-06T20:41:21.711Z</time>
      </trkpt>
      <trkpt lat="48.8262" lon="2.35717">
        <ele>112.4</ele>
        <time>2015-04-06T20:41:22.735Z</time>
      </trkpt>
      <trkpt lat="48.82619" lon="2.35705">
        <ele>112.6</ele>
        <time>2015-04-06T20:41:24.791Z</time>
      </trkpt>
      <trkpt lat="48.82619" lon="2.357">
        <ele>112.4</ele>
        <time>2015-04-06T20:41:25.819Z</time>
      </trkpt>
      <trkpt lat="48.82619" lon="2.35689">
        <ele>111.9</ele>
        <time>2015-04-06T20:41:27.721Z</time>
      </trkpt>
      <trkpt lat="48.82618" lon="2.35684">
        <ele>111.5</ele>
        <time>2015-04-06T20:41:28.733Z</time>
      </trkpt>
      <trkpt lat="48.82617" lon="2.35673">
        <ele>111.8</ele>
        <time>2015-04-06T20:41:30.744Z</time>
      </trkpt>
      <trkpt lat="48.82617" lon="2.35667">
        <ele>111.6</ele>
        <time>2015-04-06T20:41:31.774Z</time>
      </trkpt>
      <trkpt lat="48.82616" lon="2.35655">
        <ele>111.6</ele>
        <time>2015-04-06T20:41:33.707Z</time>
      </trkpt>
      <trkpt lat="48.82616" lon="2.35649">
        <ele>111.8</ele>
        <time>2015-04-06T20:41:34.733Z</time>
      </trkpt>
      <trkpt lat="48.82616" lon="2.35637">
        <ele>112.3</ele>
        <time>2015-04-06T20:41:36.752Z</time>
      </trkpt>
      <trkpt lat="48.82616" lon="2.3563">
        <ele>112.4</ele>
        <time>2015-04-06T20:41:37.780Z</time>
      </trkpt>
      <trkpt lat="48.82617" lon="2.35622">
        <ele>112.2</ele>
        <time>2015-04-06T20:41:38.714Z</time>
      </trkpt>
      <trkpt lat="48.82618" lon="2.35615">
        <ele>112.2</ele>
        <time>2015-04-06T20:41:39.710Z</time>
      </trkpt>
      <trkpt lat="48.82618" lon="2.35607">
        <ele>112</ele>
        <time>2015-04-06T20:41:40.713Z</time>
      </trkpt>
      <trkpt lat="48.82619" lon="2.35598">
        <ele>111.8</ele>
        <time>2015-04-06T20:41:41.717Z</time>
      </trkpt>
      <trkpt lat="48.82618" lon="2.3559">
        <ele>111.6</ele>
        <time>2015-04-06T20:41:42.728Z</time>
      </trkpt>
      <trkpt lat="48.82617" lon="2.35581">
        <ele>111.3</ele>
        <time>2015-04-06T20:41:43.741Z</time>
      </trkpt>
      <trkpt lat="48.82617" lon="2.35573">
        <ele>110.8</ele>
        <time>2015-04-06T20:41:44.739Z</time>
      </trkpt>
      <trkpt lat="48.82618" lon="2.35564">
        <ele>110.4</ele>
        <time>2015-04-06T20:41:45.748Z</time>
      </trkpt>
      <trkpt lat="48.82615" lon="2.35556">
        <ele>109.7</ele>
        <time>2015-04-06T20:41:46.755Z</time>
      </trkpt>
      <trkpt lat="48.82614" lon="2.35547">
        <ele>109.2</ele>
        <time>2015-04-06T20:41:47.763Z</time>
      </trkpt>
      <trkpt lat="48.82611" lon="2.35539">
        <ele>109</ele>
        <time>2015-04-06T20:41:48.797Z</time>
      </trkpt>
      <trkpt lat="48.82609" lon="2.35531">
        <ele>108.6</ele>
        <time>2015-04-06T20:41:49.807Z</time>
      </trkpt>
      <trkpt lat="48.82608" lon="2.35523">
        <ele>108.2</ele>
        <time>2015-04-06T20:41:50.729Z</time>
      </trkpt>
      <trkpt lat="48.82605" lon="2.35515">
        <ele>107.5</ele>
        <time>2015-04-06T20:41:51.740Z</time>
      </trkpt>
      <trkpt lat="48.82602" lon="2.35508">
        <ele>107.2</ele>
        <time>2015-04-06T20:41:52.798Z</time>
      </trkpt>
      <trkpt lat="48.82599" lon="2.35501">
        <ele>106.7</ele>
        <time>2015-04-06T20:41:53.727Z</time>
      </trkpt>
      <trkpt lat="48.82598" lon="2.35494">
        <ele>106.5</ele>
        <time>2015-04-06T20:41:54.731Z</time>
      </trkpt>
      <trkpt lat="48.82597" lon="2.35487">
        <ele>106.4</ele>
        <time>2015-04-06T20:41:55.737Z</time>
      </trkpt>
      <trkpt lat="48.82597" lon="2.3548">
        <ele>106.3</ele>
        <time>2015-04-06T20:41:56.755Z</time>
      </trkpt>
      <trkpt lat="48.82597" lon="2.35473">
        <ele>106.5</ele>
        <time>2015-04-06T20:41:57.768Z</time>
      </trkpt>
      <trkpt lat="48.82595" lon="2.35461">
        <ele>106.4</ele>
        <time>2015-04-06T20:41:59.782Z</time>
      </trkpt>
      <trkpt lat="48.82594" lon="2.35455">
        <ele>106.5</ele>
        <time>2015-04-06T20:42:00.732Z</time>
      </trkpt>
      <trkpt lat="48.82591" lon="2.35445">
        <ele>106.2</ele>
        <time>2015-04-06T20:42:02.736Z</time>
      </trkpt>
      <trkpt lat="48.82589" lon="2.35439">
        <ele>106.1</ele>
        <time>2015-04-06T20:42:03.750Z</time>
      </trkpt>
      <trkpt lat="48.82588" lon="2.35433">
        <ele>106</ele>
        <time>2015-04-06T20:42:04.777Z</time>
      </trkpt>
      <trkpt lat="48.82588" lon="2.35425">
        <ele>105.7</ele>
        <time>2015-04-06T20:42:05.711Z</time>
      </trkpt>
      <trkpt lat="48.82588" lon="2.35418">
        <ele>105.7</ele>
        <time>2015-04-06T20:42:06.725Z</time>
      </trkpt>
      <trkpt lat="48.82589" lon="2.35409">
        <ele>105.8</ele>
        <time>2015-04-06T20:42:07.741Z</time>
      </trkpt>
      <trkpt lat="48.82591" lon="2.35398">
        <ele>107</ele>
        <time>2015-04-06T20:42:09.751Z</time>
      </trkpt>
      <trkpt lat="48.82592" lon="2.35392">
        <ele>106.9</ele>
        <time>2015-04-06T20:42:10.770Z</time>
      </trkpt>
      <trkpt lat="48.82595" lon="2.3538">
        <ele>107.7</ele>
        <time>2015-04-06T20:42:12.705Z</time>
      </trkpt>
      <trkpt lat="48.82595" lon="2.35373">
        <ele>108.2</ele>
        <time>2015-04-06T20:42:13.755Z</time>
      </trkpt>
      <trkpt lat="48.82593" lon="2.3536">
        <ele>108.6</ele>
        <time>2015-04-06T20:42:15.708Z</time>
      </trkpt>
      <trkpt lat="48.82591" lon="2.35353">
        <ele>109.3</ele>
        <time>2015-04-06T20:42:16.740Z</time>
      </trkpt>
      <trkpt lat="48.82588" lon="2.35341">
        <ele>108.9</ele>
        <time>2015-04-06T20:42:18.777Z</time>
      </trkpt>
      <trkpt lat="48.82586" lon="2.35335">
        <ele>109.1</ele>
        <time>2015-04-06T20:42:19.785Z</time>
      </trkpt>
      <trkpt lat="48.82584" lon="2.35324">
        <ele>107.6</ele>
        <time>2015-04-06T20:42:21.704Z</time>
      </trkpt>
      <trkpt lat="48.82583" lon="2.35318">
        <ele>107.6</ele>
        <time>2015-04-06T20:42:22.720Z</time>
      </trkpt>
      <trkpt lat="48.82585" lon="2.35305">
        <ele>107.6</ele>
        <time>2015-04-06T20:42:24.761Z</time>
      </trkpt>
      <trkpt lat="48.82585" lon="2.35299">
        <ele>107.4</ele>
        <time>2015-04-06T20:42:25.780Z</time>
      </trkpt>
      <trkpt lat="48.82585" lon="2.35285">
        <ele>106.5</ele>
        <time>2015-04-06T20:42:27.713Z</time>
      </trkpt>
      <trkpt lat="48.82587" lon="2.35279">
        <ele>106.3</ele>
        <time>2015-04-06T20:42:28.728Z</time>
      </trkpt>
      <trkpt lat="48.8259" lon="2.35268">
        <ele>105.7</ele>
        <time>2015-04-06T20:42:30.795Z</time>
      </trkpt>
      <trkpt lat="48.82591" lon="2.35263">
        <ele>105.2</ele>
        <time>2015-04-06T20:42:31.808Z</time>
      </trkpt>
      <trkpt lat="48.82592" lon="2.35251">
        <ele>104</ele>
        <time>2015-04-06T20:42:33.717Z</time>
      </trkpt>
      <trkpt lat="48.8259" lon="2.35246">
        <ele>103.6</ele>
        <time>2015-04-06T20:42:34.736Z</time>
      </trkpt>
      <trkpt lat="48.82589" lon="2.35234">
        <ele>102.6</ele>
        <time>2015-04-06T20:42:36.752Z</time>
      </trkpt>
      <trkpt lat="48.82589" lon="2.35228">
        <ele>102.9</ele>
        <time>2015-04-06T20:42:37.833Z</time>
      </trkpt>
      <trkpt lat="48.82589" lon="2.35215">
        <ele>103.1</ele>
        <time>2015-04-06T20:42:39.697Z</time>
      </trkpt>
      <trkpt lat="48.82589" lon="2.35209">
        <ele>103.3</ele>
        <time>2015-04-06T20:42:40.723Z</time>
      </trkpt>
      <trkpt lat="48.82588" lon="2.35196">
        <ele>103.3</ele>
        <time>2015-04-06T20:42:42.705Z</time>
      </trkpt>
      <trkpt lat="48.82587" lon="2.35188">
        <ele>103.2</ele>
        <time>2015-04-06T20:42:43.866Z</time>
      </trkpt>
      <trkpt lat="48.82586" lon="2.35176">
        <ele>103</ele>
        <time>2015-04-06T20:42:45.744Z</time>
      </trkpt>
      <trkpt lat="48.82587" lon="2.35169">
        <ele>102.8</ele>
        <time>2015-04-06T20:42:46.758Z</time>
      </trkpt>
      <trkpt lat="48.82588" lon="2.35161">
        <ele>102.7</ele>
        <time>2015-04-06T20:42:47.783Z</time>
      </trkpt>
      <trkpt lat="48.82588" lon="2.35155">
        <ele>103.1</ele>
        <time>2015-04-06T20:42:48.693Z</time>
      </trkpt>
      <trkpt lat="48.82588" lon="2.35148">
        <ele>103.3</ele>
        <time>2015-04-06T20:42:49.750Z</time>
      </trkpt>
      <trkpt lat="48.82588" lon="2.3514">
        <ele>103.6</ele>
        <time>2015-04-06T20:42:50.755Z</time>
      </trkpt>
      <trkpt lat="48.82586" lon="2.35133">
        <ele>104.1</ele>
        <time>2015-04-06T20:42:51.765Z</time>
      </trkpt>
      <trkpt lat="48.82585" lon="2.35126">
        <ele>104.3</ele>
        <time>2015-04-06T20:42:52.770Z</time>
      </trkpt>
      <trkpt lat="48.82583" lon="2.35113">
        <ele>103.6</ele>
        <time>2015-04-06T20:42:54.730Z</time>
      </trkpt>
      <trkpt lat="48.82582" lon="2.35106">
        <ele>103.5</ele>
        <time>2015-04-06T20:42:55.766Z</time>
      </trkpt>
      <trkpt lat="48.8258" lon="2.351">
        <ele>103.2</ele>
        <time>2015-04-06T20:42:56.728Z</time>
      </trkpt>
      <trkpt lat="48.82578" lon="2.35093">
        <ele>102.9</ele>
        <time>2015-04-06T20:42:57.702Z</time>
      </trkpt>
      <trkpt lat="48.82575" lon="2.3508">
        <ele>102.4</ele>
        <time>2015-04-06T20:42:59.714Z</time>
      </trkpt>
      <trkpt lat="48.82574" lon="2.35074">
        <ele>102.1</ele>
        <time>2015-04-06T20:43:00.741Z</time>
      </trkpt>
      <trkpt lat="48.82572" lon="2.35066">
        <ele>101.9</ele>
        <time>2015-04-06T20:43:01.783Z</time>
      </trkpt>
      <trkpt lat="48.82571" lon="2.35059">
        <ele>102</ele>
        <time>2015-04-06T20:43:02.954Z</time>
      </trkpt>
      <trkpt lat="48.82569" lon="2.35046">
        <ele>102</ele>
        <time>2015-04-06T20:43:04.711Z</time>
      </trkpt>
      <trkpt lat="48.82569" lon="2.3504">
        <ele>102</ele>
        <time>2015-04-06T20:43:05.715Z</time>
      </trkpt>
      <trkpt lat="48.82567" lon="2.35029">
        <ele>102.8</ele>
        <time>2015-04-06T20:43:07.740Z</time>
      </trkpt>
      <trkpt lat="48.82565" lon="2.35025">
        <ele>103.1</ele>
        <time>2015-04-06T20:43:08.757Z</time>
      </trkpt>
      <trkpt lat="48.82558" lon="2.35018">
        <ele>100.2</ele>
        <time>2015-04-06T20:43:13.771Z</time>
      </trkpt>
      <trkpt lat="48.82555" lon="2.35016">
        <ele>100.2</ele>
        <time>2015-04-06T20:43:14.843Z</time>
      </trkpt>
      <trkpt lat="48.82549" lon="2.35012">
        <ele>100.2</ele>
        <time>2015-04-06T20:43:16.703Z</time>
      </trkpt>
      <trkpt lat="48.82545" lon="2.3501">
        <ele>99.9</ele>
        <time>2015-04-06T20:43:17.723Z</time>
      </trkpt>
      <trkpt lat="48.82538" lon="2.35004">
        <ele>99.8</ele>
        <time>2015-04-06T20:43:19.762Z</time>
      </trkpt>
      <trkpt lat="48.82534" lon="2.35001">
        <ele>100</ele>
        <time>2015-04-06T20:43:20.812Z</time>
      </trkpt>
      <trkpt lat="48.82531" lon="2.34998">
        <ele>100.1</ele>
        <time>2015-04-06T20:43:21.750Z</time>
      </trkpt>
      <trkpt lat="48.82526" lon="2.34994">
        <ele>100.2</ele>
        <time>2015-04-06T20:43:22.716Z</time>
      </trkpt>
      <trkpt lat="48.82522" lon="2.34991">
        <ele>100.4</ele>
        <time>2015-04-06T20:43:23.723Z</time>
      </trkpt>
      <trkpt lat="48.82517" lon="2.34988">
        <ele>101</ele>
        <time>2015-04-06T20:43:24.735Z</time>
      </trkpt>
      <trkpt lat="48.82513" lon="2.34983">
        <ele>101.3</ele>
        <time>2015-04-06T20:43:25.741Z</time>
      </trkpt>
      <trkpt lat="48.82508" lon="2.34978">
        <ele>101.6</ele>
        <time>2015-04-06T20:43:26.745Z</time>
      </trkpt>
      <trkpt lat="48.82504" lon="2.34973">
        <ele>102.1</ele>
        <time>2015-04-06T20:43:27.759Z</time>
      </trkpt>
      <trkpt lat="48.825" lon="2.34969">
        <ele>102.3</ele>
        <time>2015-04-06T20:43:28.764Z</time>
      </trkpt>
      <trkpt lat="48.82494" lon="2.34964">
        <ele>102.4</ele>
        <time>2015-04-06T20:43:29.779Z</time>
      </trkpt>
      <trkpt lat="48.82489" lon="2.3496">
        <ele>102.7</ele>
        <time>2015-04-06T20:43:30.789Z</time>
      </trkpt>
      <trkpt lat="48.82484" lon="2.34955">
        <ele>102.9</ele>
        <time>2015-04-06T20:43:31.802Z</time>
      </trkpt>
      <trkpt lat="48.82479" lon="2.3495">
        <ele>103.2</ele>
        <time>2015-04-06T20:43:32.682Z</time>
      </trkpt>
      <trkpt lat="48.82474" lon="2.34944">
        <ele>103.4</ele>
        <time>2015-04-06T20:43:33.707Z</time>
      </trkpt>
      <trkpt lat="48.82469" lon="2.34937">
        <ele>103.6</ele>
        <time>2015-04-06T20:43:34.829Z</time>
      </trkpt>
      <trkpt lat="48.82465" lon="2.3493">
        <ele>103.9</ele>
        <time>2015-04-06T20:43:35.667Z</time>
      </trkpt>
      <trkpt lat="48.8246" lon="2.34925">
        <ele>103.8</ele>
        <time>2015-04-06T20:43:36.691Z</time>
      </trkpt>
      <trkpt lat="48.82456" lon="2.34922">
        <ele>102.9</ele>
        <time>2015-04-06T20:43:37.734Z</time>
      </trkpt>
      <trkpt lat="48.8245" lon="2.34917">
        <ele>102.5</ele>
        <time>2015-04-06T20:43:38.733Z</time>
      </trkpt>
      <trkpt lat="48.82445" lon="2.34912">
        <ele>102.4</ele>
        <time>2015-04-06T20:43:39.749Z</time>
      </trkpt>
      <trkpt lat="48.82429" lon="2.34894">
        <ele>102.2</ele>
        <time>2015-04-06T20:43:42.705Z</time>
      </trkpt>
      <trkpt lat="48.82404" lon="2.34871">
        <ele>102.1</ele>
        <time>2015-04-06T20:43:47.700Z</time>
      </trkpt>
      <trkpt lat="48.82399" lon="2.34867">
        <ele>102.1</ele>
        <time>2015-04-06T20:43:48.740Z</time>
      </trkpt>
      <trkpt lat="48.82394" lon="2.34863">
        <ele>102.1</ele>
        <time>2015-04-06T20:43:49.757Z</time>
      </trkpt>
      <trkpt lat="48.82391" lon="2.34859">
        <ele>102</ele>
        <time>2015-04-06T20:43:50.687Z</time>
      </trkpt>
      <trkpt lat="48.82387" lon="2.34854">
        <ele>102</ele>
        <time>2015-04-06T20:43:51.684Z</time>
      </trkpt>
      <trkpt lat="48.82383" lon="2.3485">
        <ele>101.8</ele>
        <time>2015-04-06T20:43:52.705Z</time>
      </trkpt>
      <trkpt lat="48.82379" lon="2.34847">
        <ele>101.3</ele>
        <time>2015-04-06T20:43:53.729Z</time>
      </trkpt>
      <trkpt lat="48.82373" lon="2.34843">
        <ele>101.1</ele>
        <time>2015-04-06T20:43:54.779Z</time>
      </trkpt>
      <trkpt lat="48.82368" lon="2.34838">
        <ele>101.2</ele>
        <time>2015-04-06T20:43:55.793Z</time>
      </trkpt>
      <trkpt lat="48.82364" lon="2.34833">
        <ele>101.1</ele>
        <time>2015-04-06T20:43:56.695Z</time>
      </trkpt>
      <trkpt lat="48.8236" lon="2.34828">
        <ele>101.2</ele>
        <time>2015-04-06T20:43:57.697Z</time>
      </trkpt>
      <trkpt lat="48.82355" lon="2.34823">
        <ele>101.4</ele>
        <time>2015-04-06T20:43:58.753Z</time>
      </trkpt>
      <trkpt lat="48.82351" lon="2.34818">
        <ele>101.4</ele>
        <time>2015-04-06T20:43:59.762Z</time>
      </trkpt>
      <trkpt lat="48.82347" lon="2.34811">
        <ele>101.4</ele>
        <time>2015-04-06T20:44:00.667Z</time>
      </trkpt>
      <trkpt lat="48.82336" lon="2.348">
        <ele>101</ele>
        <time>2015-04-06T20:44:02.743Z</time>
      </trkpt>
      <trkpt lat="48.8233" lon="2.34796">
        <ele>100.7</ele>
        <time>2015-04-06T20:44:03.715Z</time>
      </trkpt>
      <trkpt lat="48.82325" lon="2.34792">
        <ele>100.5</ele>
        <time>2015-04-06T20:44:04.716Z</time>
      </trkpt>
      <trkpt lat="48.8232" lon="2.34788">
        <ele>100.6</ele>
        <time>2015-04-06T20:44:05.766Z</time>
      </trkpt>
      <trkpt lat="48.82301" lon="2.34763">
        <ele>101</ele>
        <time>2015-04-06T20:44:09.739Z</time>
      </trkpt>
      <trkpt lat="48.82296" lon="2.34759">
        <ele>100.9</ele>
        <time>2015-04-06T20:44:10.767Z</time>
      </trkpt>
      <trkpt lat="48.82289" lon="2.34754">
        <ele>101.5</ele>
        <time>2015-04-06T20:44:11.799Z</time>
      </trkpt>
      <trkpt lat="48.82281" lon="2.34752">
        <ele>101.3</ele>
        <time>2015-04-06T20:44:12.690Z</time>
      </trkpt>
      <trkpt lat="48.82271" lon="2.34752">
        <ele>101</ele>
        <time>2015-04-06T20:44:13.726Z</time>
      </trkpt>
      <trkpt lat="48.82265" lon="2.34752">
        <ele>100.2</ele>
        <time>2015-04-06T20:44:14.729Z</time>
      </trkpt>
      <trkpt lat="48.82256" lon="2.34751">
        <ele>100.3</ele>
        <time>2015-04-06T20:44:15.744Z</time>
      </trkpt>
      <trkpt lat="48.8225" lon="2.34749">
        <ele>100.3</ele>
        <time>2015-04-06T20:44:16.764Z</time>
      </trkpt>
      <trkpt lat="48.82245" lon="2.34744">
        <ele>100.2</ele>
        <time>2015-04-06T20:44:17.714Z</time>
      </trkpt>
      <trkpt lat="48.82242" lon="2.34739">
        <ele>99.1</ele>
        <time>2015-04-06T20:44:18.705Z</time>
      </trkpt>
      <trkpt lat="48.8224" lon="2.3473">
        <ele>98.3</ele>
        <time>2015-04-06T20:44:19.748Z</time>
      </trkpt>
      <trkpt lat="48.82238" lon="2.34722">
        <ele>98.4</ele>
        <time>2015-04-06T20:44:20.744Z</time>
      </trkpt>
      <trkpt lat="48.82237" lon="2.34715">
        <ele>98.4</ele>
        <time>2015-04-06T20:44:21.750Z</time>
      </trkpt>
      <trkpt lat="48.82234" lon="2.34703">
        <ele>98.1</ele>
        <time>2015-04-06T20:44:23.767Z</time>
      </trkpt>
      <trkpt lat="48.82234" lon="2.34698">
        <ele>98.6</ele>
        <time>2015-04-06T20:44:24.770Z</time>
      </trkpt>
      <trkpt lat="48.82232" lon="2.34688">
        <ele>99.3</ele>
        <time>2015-04-06T20:44:26.798Z</time>
      </trkpt>
      <trkpt lat="48.82234" lon="2.34679">
        <ele>99.6</ele>
        <time>2015-04-06T20:44:27.714Z</time>
      </trkpt>
      <trkpt lat="48.82236" lon="2.34668">
        <ele>100.3</ele>
        <time>2015-04-06T20:44:28.733Z</time>
      </trkpt>
      <trkpt lat="48.82236" lon="2.34662">
        <ele>100.1</ele>
        <time>2015-04-06T20:44:29.742Z</time>
      </trkpt>
      <trkpt lat="48.82233" lon="2.34654">
        <ele>100</ele>
        <time>2015-04-06T20:44:31.774Z</time>
      </trkpt>
      <trkpt lat="48.82231" lon="2.3465">
        <ele>99.8</ele>
        <time>2015-04-06T20:44:32.793Z</time>
      </trkpt>
      <trkpt lat="48.82226" lon="2.3464">
        <ele>99.3</ele>
        <time>2015-04-06T20:44:35.741Z</time>
      </trkpt>
      <trkpt lat="48.82225" lon="2.34638">
        <ele>99.3</ele>
        <time>2015-04-06T20:44:36.761Z</time>
      </trkpt>
      <trkpt lat="48.82218" lon="2.34635">
        <ele>101</ele>
        <time>2015-04-06T20:44:40.774Z</time>
      </trkpt>
      <trkpt lat="48.82216" lon="2.34636">
        <ele>102.2</ele>
        <time>2015-04-06T20:44:41.787Z</time>
      </trkpt>
      <trkpt lat="48.82215" lon="2.34637">
        <ele>102.7</ele>
        <time>2015-04-06T20:45:01.799Z</time>
      </trkpt>
      <trkpt lat="48.82222" lon="2.34652">
        <ele>99.1</ele>
        <time>2015-04-06T20:45:02.833Z</time>
      </trkpt>
      <trkpt lat="48.82222" lon="2.34664">
        <ele>98.6</ele>
        <time>2015-04-06T20:45:05.906Z</time>
      </trkpt>
      <trkpt lat="48.82221" lon="2.34667">
        <ele>98.7</ele>
        <time>2015-04-06T20:45:06.919Z</time>
      </trkpt>
      <trkpt lat="48.82221" lon="2.34678">
        <ele>99.5</ele>
        <time>2015-04-06T20:45:09.848Z</time>
      </trkpt>
      <trkpt lat="48.82221" lon="2.34682">
        <ele>99.8</ele>
        <time>2015-04-06T20:45:10.860Z</time>
      </trkpt>
      <trkpt lat="48.82222" lon="2.34694">
        <ele>102.1</ele>
        <time>2015-04-06T20:45:12.898Z</time>
      </trkpt>
      <trkpt lat="48.82222" lon="2.34698">
        <ele>102.7</ele>
        <time>2015-04-06T20:45:13.734Z</time>
      </trkpt>
      <trkpt lat="48.82224" lon="2.3471">
        <ele>103.2</ele>
        <time>2015-04-06T20:45:16.730Z</time>
      </trkpt>
      <trkpt lat="48.82224" lon="2.34715">
        <ele>103.8</ele>
        <time>2015-04-06T20:45:17.752Z</time>
      </trkpt>
      <trkpt lat="48.82223" lon="2.34727">
        <ele>104</ele>
        <time>2015-04-06T20:45:19.770Z</time>
      </trkpt>
      <trkpt lat="48.82225" lon="2.34735">
        <ele>104.8</ele>
        <time>2015-04-06T20:45:20.787Z</time>
      </trkpt>
      <trkpt lat="48.82225" lon="2.34747">
        <ele>104.8</ele>
        <time>2015-04-06T20:45:22.718Z</time>
      </trkpt>
      <trkpt lat="48.82223" lon="2.3475">
        <ele>104.3</ele>
        <time>2015-04-06T20:45:23.737Z</time>
      </trkpt>
      <trkpt lat="48.8222" lon="2.3476">
        <ele>104</ele>
        <time>2015-04-06T20:45:26.686Z</time>
      </trkpt>
      <trkpt lat="48.82219" lon="2.34764">
        <ele>104</ele>
        <time>2015-04-06T20:45:27.720Z</time>
      </trkpt>
      <trkpt lat="48.82219" lon="2.34776">
        <ele>103.9</ele>
        <time>2015-04-06T20:45:29.742Z</time>
      </trkpt>
      <trkpt lat="48.8222" lon="2.34781">
        <ele>104</ele>
        <time>2015-04-06T20:45:30.763Z</time>
      </trkpt>
      <trkpt lat="48.82222" lon="2.34788">
        <ele>104.3</ele>
        <time>2015-04-06T20:45:32.823Z</time>
      </trkpt>
      <trkpt lat="48.82224" lon="2.34794">
        <ele>104.5</ele>
        <time>2015-04-06T20:45:33.815Z</time>
      </trkpt>
      <trkpt lat="48.82222" lon="2.34802">
        <ele>105.6</ele>
        <time>2015-04-06T20:45:36.798Z</time>
      </trkpt>
      <trkpt lat="48.82219" lon="2.34807">
        <ele>105.7</ele>
        <time>2015-04-06T20:45:37.817Z</time>
      </trkpt>
      <trkpt lat="48.82215" lon="2.3481">
        <ele>106.2</ele>
        <time>2015-04-06T20:48:58.862Z</time>
      </trkpt>
      <trkpt lat="48.82208" lon="2.34792">
        <ele>109.1</ele>
        <time>2015-04-06T20:48:59.900Z</time>
      </trkpt>
      <trkpt lat="48.82208" lon="2.34779">
        <ele>110.8</ele>
        <time>2015-04-06T20:49:03.735Z</time>
      </trkpt>
      <trkpt lat="48.82208" lon="2.34777">
        <ele>111.1</ele>
        <time>2015-04-06T20:49:04.762Z</time>
      </trkpt>
      <trkpt lat="48.82207" lon="2.34774">
        <ele>111.7</ele>
        <time>2015-04-06T20:50:44.753Z</time>
      </trkpt>
      <trkpt lat="48.82214" lon="2.34761">
        <ele>108.7</ele>
        <time>2015-04-06T20:50:45.711Z</time>
      </trkpt>
      <trkpt lat="48.82218" lon="2.34751">
        <ele>108.6</ele>
        <time>2015-04-06T20:50:47.798Z</time>
      </trkpt>
      <trkpt lat="48.82218" lon="2.34747">
        <ele>108.3</ele>
        <time>2015-04-06T20:50:48.861Z</time>
      </trkpt>
      <trkpt lat="48.82217" lon="2.34734">
        <ele>108.3</ele>
        <time>2015-04-06T20:50:51.906Z</time>
      </trkpt>
      <trkpt lat="48.82217" lon="2.34728">
        <ele>108.3</ele>
        <time>2015-04-06T20:50:52.811Z</time>
      </trkpt>
      <trkpt lat="48.82216" lon="2.34717">
        <ele>108.7</ele>
        <time>2015-04-06T20:50:54.718Z</time>
      </trkpt>
      <trkpt lat="48.82217" lon="2.34711">
        <ele>108.6</ele>
        <time>2015-04-06T20:50:55.759Z</time>
      </trkpt>
      <trkpt lat="48.82217" lon="2.347">
        <ele>108.6</ele>
        <time>2015-04-06T20:50:57.761Z</time>
      </trkpt>
      <trkpt lat="48.82217" lon="2.34694">
        <ele>108.4</ele>
        <time>2015-04-06T20:50:58.771Z</time>
      </trkpt>
      <trkpt lat="48.82217" lon="2.34684">
        <ele>108.4</ele>
        <time>2015-04-06T20:51:00.855Z</time>
      </trkpt>
      <trkpt lat="48.82218" lon="2.34679">
        <ele>108.4</ele>
        <time>2015-04-06T20:51:01.722Z</time>
      </trkpt>
      <trkpt lat="48.82221" lon="2.34669">
        <ele>109</ele>
        <time>2015-04-06T20:51:04.870Z</time>
      </trkpt>
      <trkpt lat="48.8222" lon="2.34666">
        <ele>108.9</ele>
        <time>2015-04-06T20:51:05.888Z</time>
      </trkpt>
      <trkpt lat="48.8222" lon="2.34655">
        <ele>107.6</ele>
        <time>2015-04-06T20:51:09.842Z</time>
      </trkpt>
      <trkpt lat="48.8222" lon="2.34651">
        <ele>107.5</ele>
        <time>2015-04-06T20:51:10.705Z</time>
      </trkpt>
      <trkpt lat="48.82218" lon="2.34638">
        <ele>106.5</ele>
        <time>2015-04-06T20:51:14.753Z</time>
      </trkpt>
      <trkpt lat="48.82216" lon="2.34636">
        <ele>106.4</ele>
        <time>2015-04-06T20:51:15.844Z</time>
      </trkpt>
      <trkpt lat="48.82214" lon="2.34625">
        <ele>105.9</ele>
        <time>2015-04-06T20:51:18.847Z</time>
      </trkpt>
      <trkpt lat="48.82213" lon="2.3462">
        <ele>105.8</ele>
        <time>2015-04-06T20:51:19.874Z</time>
      </trkpt>
      <trkpt lat="48.8221" lon="2.34611">
        <ele>104.7</ele>
        <time>2015-04-06T20:51:21.807Z</time>
      </trkpt>
      <trkpt lat="48.82208" lon="2.34607">
        <ele>104.4</ele>
        <time>2015-04-06T20:51:22.828Z</time>
      </trkpt>
      <trkpt lat="48.82205" lon="2.34598">
        <ele>103.5</ele>
        <time>2015-04-06T20:51:24.687Z</time>
      </trkpt>
      <trkpt lat="48.82204" lon="2.34593">
        <ele>103.1</ele>
        <time>2015-04-06T20:51:25.742Z</time>
      </trkpt>
      <trkpt lat="48.82204" lon="2.34581">
        <ele>102.5</ele>
        <time>2015-04-06T20:51:27.688Z</time>
      </trkpt>
      <trkpt lat="48.82203" lon="2.34575">
        <ele>102.4</ele>
        <time>2015-04-06T20:51:28.708Z</time>
      </trkpt>
      <trkpt lat="48.82201" lon="2.34563">
        <ele>101</ele>
        <time>2015-04-06T20:51:30.734Z</time>
      </trkpt>
      <trkpt lat="48.82199" lon="2.34558">
        <ele>100.6</ele>
        <time>2015-04-06T20:51:31.930Z</time>
      </trkpt>
      <trkpt lat="48.82196" lon="2.34547">
        <ele>100.1</ele>
        <time>2015-04-06T20:51:33.866Z</time>
      </trkpt>
      <trkpt lat="48.82193" lon="2.34541">
        <ele>100.1</ele>
        <time>2015-04-06T20:51:34.893Z</time>
      </trkpt>
      <trkpt lat="48.82193" lon="2.34534">
        <ele>100.5</ele>
        <time>2015-04-06T20:51:35.795Z</time>
      </trkpt>
      <trkpt lat="48.82191" lon="2.34528">
        <ele>100.8</ele>
        <time>2015-04-06T20:51:36.691Z</time>
      </trkpt>
      <trkpt lat="48.8219" lon="2.34521">
        <ele>101.3</ele>
        <time>2015-04-06T20:51:37.744Z</time>
      </trkpt>
      <trkpt lat="48.82188" lon="2.34514">
        <ele>101.4</ele>
        <time>2015-04-06T20:51:38.768Z</time>
      </trkpt>
      <trkpt lat="48.82187" lon="2.34506">
        <ele>101.8</ele>
        <time>2015-04-06T20:51:39.806Z</time>
      </trkpt>
      <trkpt lat="48.82186" lon="2.345">
        <ele>102</ele>
        <time>2015-04-06T20:51:40.689Z</time>
      </trkpt>
      <trkpt lat="48.82184" lon="2.34488">
        <ele>101.6</ele>
        <time>2015-04-06T20:51:42.705Z</time>
      </trkpt>
      <trkpt lat="48.82184" lon="2.34482">
        <ele>101.7</ele>
        <time>2015-04-06T20:51:43.819Z</time>
      </trkpt>
      <trkpt lat="48.82185" lon="2.34471">
        <ele>102</ele>
        <time>2015-04-06T20:51:45.684Z</time>
      </trkpt>
      <trkpt lat="48.82185" lon="2.34465">
        <ele>102.2</ele>
        <time>2015-04-06T20:51:46.791Z</time>
      </trkpt>
      <trkpt lat="48.82184" lon="2.34454">
        <ele>102.5</ele>
        <time>2015-04-06T20:51:48.864Z</time>
      </trkpt>
      <trkpt lat="48.82183" lon="2.34446">
        <ele>102.4</ele>
        <time>2015-04-06T20:51:49.719Z</time>
      </trkpt>
      <trkpt lat="48.82182" lon="2.34439">
        <ele>102.2</ele>
        <time>2015-04-06T20:51:50.738Z</time>
      </trkpt>
      <trkpt lat="48.8218" lon="2.34431">
        <ele>101.9</ele>
        <time>2015-04-06T20:51:51.834Z</time>
      </trkpt>
      <trkpt lat="48.82178" lon="2.34423">
        <ele>101.5</ele>
        <time>2015-04-06T20:51:52.757Z</time>
      </trkpt>
      <trkpt lat="48.82177" lon="2.34415">
        <ele>100.7</ele>
        <time>2015-04-06T20:51:53.764Z</time>
      </trkpt>
      <trkpt lat="48.82175" lon="2.34408">
        <ele>100.1</ele>
        <time>2015-04-06T20:51:54.689Z</time>
      </trkpt>
      <trkpt lat="48.82173" lon="2.34401">
        <ele>99.8</ele>
        <time>2015-04-06T20:51:55.724Z</time>
      </trkpt>
      <trkpt lat="48.82169" lon="2.34394">
        <ele>99.7</ele>
        <time>2015-04-06T20:51:56.737Z</time>
      </trkpt>
      <trkpt lat="48.82166" lon="2.34387">
        <ele>99.6</ele>
        <time>2015-04-06T20:51:57.755Z</time>
      </trkpt>
      <trkpt lat="48.82164" lon="2.34379">
        <ele>99.6</ele>
        <time>2015-04-06T20:51:58.789Z</time>
      </trkpt>
      <trkpt lat="48.82162" lon="2.34372">
        <ele>99.9</ele>
        <time>2015-04-06T20:51:59.812Z</time>
      </trkpt>
      <trkpt lat="48.8216" lon="2.34365">
        <ele>100.3</ele>
        <time>2015-04-06T20:52:00.689Z</time>
      </trkpt>
      <trkpt lat="48.82159" lon="2.34358">
        <ele>100.7</ele>
        <time>2015-04-06T20:52:01.891Z</time>
      </trkpt>
      <trkpt lat="48.82158" lon="2.34346">
        <ele>101.3</ele>
        <time>2015-04-06T20:52:03.850Z</time>
      </trkpt>
      <trkpt lat="48.82155" lon="2.3434">
        <ele>101.5</ele>
        <time>2015-04-06T20:52:04.817Z</time>
      </trkpt>
      <trkpt lat="48.82152" lon="2.34334">
        <ele>101.5</ele>
        <time>2015-04-06T20:52:05.718Z</time>
      </trkpt>
      <trkpt lat="48.82151" lon="2.34328">
        <ele>101.4</ele>
        <time>2015-04-06T20:52:06.732Z</time>
      </trkpt>
      <trkpt lat="48.82151" lon="2.34315">
        <ele>101.1</ele>
        <time>2015-04-06T20:52:09.122Z</time>
      </trkpt>
      <trkpt lat="48.82151" lon="2.34312">
        <ele>101</ele>
        <time>2015-04-06T20:52:09.839Z</time>
      </trkpt>
      <trkpt lat="48.82153" lon="2.34303">
        <ele>100.8</ele>
        <time>2015-04-06T20:52:11.813Z</time>
      </trkpt>
      <trkpt lat="48.82153" lon="2.34298">
        <ele>100.8</ele>
        <time>2015-04-06T20:52:12.863Z</time>
      </trkpt>
      <trkpt lat="48.82148" lon="2.34287">
        <ele>100.5</ele>
        <time>2015-04-06T20:52:15.806Z</time>
      </trkpt>
      <trkpt lat="48.82146" lon="2.34282">
        <ele>100.5</ele>
        <time>2015-04-06T20:52:16.816Z</time>
      </trkpt>
      <trkpt lat="48.82139" lon="2.34277">
        <ele>101.4</ele>
        <time>2015-04-06T20:52:19.747Z</time>
      </trkpt>
      <trkpt lat="48.82137" lon="2.34275">
        <ele>102.1</ele>
        <time>2015-04-06T20:52:20.740Z</time>
      </trkpt>
      <trkpt lat="48.82139" lon="2.34268">
        <ele>105.6</ele>
        <time>2015-04-06T20:53:09.842Z</time>
      </trkpt>
      <trkpt lat="48.82139" lon="2.34262">
        <ele>111.5</ele>
        <time>2015-04-06T20:53:10.912Z</time>
      </trkpt>
      <trkpt lat="48.82133" lon="2.34269">
        <ele>112.4</ele>
        <time>2015-04-06T20:53:14.818Z</time>
      </trkpt>
      <trkpt lat="48.8213" lon="2.34269">
        <ele>112.8</ele>
        <time>2015-04-06T20:53:15.815Z</time>
      </trkpt>
      <trkpt lat="48.82123" lon="2.34267">
        <ele>115.8</ele>
        <time>2015-04-06T20:53:19.756Z</time>
      </trkpt>
      <trkpt lat="48.82121" lon="2.34267">
        <ele>116.6</ele>
        <time>2015-04-06T20:53:20.807Z</time>
      </trkpt>
      <trkpt lat="48.82116" lon="2.34263">
        <ele>118.2</ele>
        <time>2015-04-06T20:53:22.741Z</time>
      </trkpt>
      <trkpt lat="48.82113" lon="2.34262">
        <ele>119</ele>
        <time>2015-04-06T20:53:23.852Z</time>
      </trkpt>
      <trkpt lat="48.82107" lon="2.34261">
        <ele>119.9</ele>
        <time>2015-04-06T20:53:24.862Z</time>
      </trkpt>
      <trkpt lat="48.82101" lon="2.34259">
        <ele>120.5</ele>
        <time>2015-04-06T20:53:25.867Z</time>
      </trkpt>
      <trkpt lat="48.82094" lon="2.34257">
        <ele>121</ele>
        <time>2015-04-06T20:53:26.876Z</time>
      </trkpt>
      <trkpt lat="48.82087" lon="2.34256">
        <ele>121.2</ele>
        <time>2015-04-06T20:53:27.876Z</time>
      </trkpt>
      <trkpt lat="48.82082" lon="2.34254">
        <ele>121.5</ele>
        <time>2015-04-06T20:53:28.951Z</time>
      </trkpt>
      <trkpt lat="48.82079" lon="2.34252">
        <ele>121.7</ele>
        <time>2015-04-06T20:53:29.711Z</time>
      </trkpt>
      <trkpt lat="48.82054" lon="2.3425">
        <ele>121.4</ele>
        <time>2015-04-06T20:53:36.821Z</time>
      </trkpt>
      <trkpt lat="48.82047" lon="2.34248">
        <ele>121.9</ele>
        <time>2015-04-06T20:53:40.549Z</time>
      </trkpt>
      <trkpt lat="48.82045" lon="2.34248">
        <ele>122.4</ele>
        <time>2015-04-06T20:53:40.718Z</time>
      </trkpt>
      <trkpt lat="48.82041" lon="2.34246">
        <ele>122.7</ele>
        <time>2015-04-06T20:53:41.811Z</time>
      </trkpt>
      <trkpt lat="48.82035" lon="2.34245">
        <ele>122.7</ele>
        <time>2015-04-06T20:53:42.907Z</time>
      </trkpt>
      <trkpt lat="48.82027" lon="2.34239">
        <ele>122.1</ele>
        <time>2015-04-06T20:53:45.636Z</time>
      </trkpt>
      <trkpt lat="48.82022" lon="2.34238">
        <ele>121.8</ele>
        <time>2015-04-06T20:53:45.835Z</time>
      </trkpt>
      <trkpt lat="48.82017" lon="2.34237">
        <ele>121.5</ele>
        <time>2015-04-06T20:53:46.713Z</time>
      </trkpt>
      <trkpt lat="48.82011" lon="2.34237">
        <ele>121.3</ele>
        <time>2015-04-06T20:53:47.744Z</time>
      </trkpt>
      <trkpt lat="48.82006" lon="2.34239">
        <ele>121.5</ele>
        <time>2015-04-06T20:53:48.761Z</time>
      </trkpt>
      <trkpt lat="48.82" lon="2.34242">
        <ele>121.3</ele>
        <time>2015-04-06T20:53:49.771Z</time>
      </trkpt>
      <trkpt lat="48.81995" lon="2.3425">
        <ele>121.7</ele>
        <time>2015-04-06T20:54:58.863Z</time>
      </trkpt>
      <trkpt lat="48.81965" lon="2.34271">
        <ele>140.5</ele>
        <time>2015-04-06T20:54:59.862Z</time>
      </trkpt>
      <trkpt lat="48.81959" lon="2.34262">
        <ele>142.9</ele>
        <time>2015-04-06T20:55:13.873Z</time>
      </trkpt>
      <trkpt lat="48.8196" lon="2.34258">
        <ele>142.9</ele>
        <time>2015-04-06T20:55:14.880Z</time>
      </trkpt>
      <trkpt lat="48.81963" lon="2.34247">
        <ele>143.1</ele>
        <time>2015-04-06T20:55:16.920Z</time>
      </trkpt>
      <trkpt lat="48.81963" lon="2.3424">
        <ele>143.1</ele>
        <time>2015-04-06T20:55:17.856Z</time>
      </trkpt>
      <trkpt lat="48.81964" lon="2.34233">
        <ele>143.2</ele>
        <time>2015-04-06T20:55:18.920Z</time>
      </trkpt>
      <trkpt lat="48.81965" lon="2.34226">
        <ele>143.3</ele>
        <time>2015-04-06T20:55:19.811Z</time>
      </trkpt>
      <trkpt lat="48.81966" lon="2.34219">
        <ele>143.4</ele>
        <time>2015-04-06T20:55:20.832Z</time>
      </trkpt>
      <trkpt lat="48.81967" lon="2.34212">
        <ele>143.4</ele>
        <time>2015-04-06T20:55:21.846Z</time>
      </trkpt>
      <trkpt lat="48.81968" lon="2.34205">
        <ele>143.5</ele>
        <time>2015-04-06T20:55:22.853Z</time>
      </trkpt>
      <trkpt lat="48.81969" lon="2.34198">
        <ele>143.6</ele>
        <time>2015-04-06T20:55:23.854Z</time>
      </trkpt>
      <trkpt lat="48.81972" lon="2.34188">
        <ele>143.5</ele>
        <time>2015-04-06T20:55:25.879Z</time>
      </trkpt>
      <trkpt lat="48.81974" lon="2.34184">
        <ele>143.5</ele>
        <time>2015-04-06T20:55:26.889Z</time>
      </trkpt>
      <trkpt lat="48.81974" lon="2.34173">
        <ele>143.3</ele>
        <time>2015-04-06T20:55:28.817Z</time>
      </trkpt>
      <trkpt lat="48.81975" lon="2.34168">
        <ele>143.4</ele>
        <time>2015-04-06T20:55:29.824Z</time>
      </trkpt>
      <trkpt lat="48.81977" lon="2.34156">
        <ele>143.3</ele>
        <time>2015-04-06T20:55:32.895Z</time>
      </trkpt>
      <trkpt lat="48.81979" lon="2.34153">
        <ele>143.7</ele>
        <time>2015-04-06T20:55:33.802Z</time>
      </trkpt>
      <trkpt lat="48.81982" lon="2.34141">
        <ele>144.2</ele>
        <time>2015-04-06T20:55:36.828Z</time>
      </trkpt>
      <trkpt lat="48.81982" lon="2.34138">
        <ele>144.4</ele>
        <time>2015-04-06T20:55:37.850Z</time>
      </trkpt>
      <trkpt lat="48.81986" lon="2.34136">
        <ele>144.5</ele>
        <time>2015-04-06T20:55:51.225Z</time>
      </trkpt>
      <trkpt lat="48.81993" lon="2.34146">
        <ele>147.4</ele>
        <time>2015-04-06T20:55:51.828Z</time>
      </trkpt>
      <trkpt lat="48.82001" lon="2.34147">
        <ele>146.7</ele>
        <time>2015-04-06T20:55:54.929Z</time>
      </trkpt>
      <trkpt lat="48.82004" lon="2.34146">
        <ele>147</ele>
        <time>2015-04-06T20:55:55.816Z</time>
      </trkpt>
      <trkpt lat="48.8201" lon="2.34143">
        <ele>147.2</ele>
        <time>2015-04-06T20:55:57.813Z</time>
      </trkpt>
      <trkpt lat="48.82013" lon="2.3414">
        <ele>147.4</ele>
        <time>2015-04-06T20:55:58.814Z</time>
      </trkpt>
      <trkpt lat="48.8202" lon="2.34137">
        <ele>147.2</ele>
        <time>2015-04-06T20:56:01.266Z</time>
      </trkpt>
      <trkpt lat="48.82024" lon="2.34137">
        <ele>147</ele>
        <time>2015-04-06T20:56:01.858Z</time>
      </trkpt>
      <trkpt lat="48.82033" lon="2.34139">
        <ele>146.3</ele>
        <time>2015-04-06T20:56:04.913Z</time>
      </trkpt>
      <trkpt lat="48.82036" lon="2.34138">
        <ele>146.2</ele>
        <time>2015-04-06T20:56:05.841Z</time>
      </trkpt>
      <trkpt lat="48.82043" lon="2.34136">
        <ele>146.2</ele>
        <time>2015-04-06T20:56:07.845Z</time>
      </trkpt>
      <trkpt lat="48.82046" lon="2.34134">
        <ele>146.2</ele>
        <time>2015-04-06T20:56:08.881Z</time>
      </trkpt>
      <trkpt lat="48.82053" lon="2.34129">
        <ele>146.1</ele>
        <time>2015-04-06T20:56:11.431Z</time>
      </trkpt>
      <trkpt lat="48.82056" lon="2.34129">
        <ele>146</ele>
        <time>2015-04-06T20:56:11.784Z</time>
      </trkpt>
      <trkpt lat="48.82063" lon="2.34129">
        <ele>145.7</ele>
        <time>2015-04-06T20:56:12.860Z</time>
      </trkpt>
      <trkpt lat="48.82069" lon="2.34128">
        <ele>145.6</ele>
        <time>2015-04-06T20:56:13.864Z</time>
      </trkpt>
      <trkpt lat="48.82074" lon="2.34127">
        <ele>145</ele>
        <time>2015-04-06T20:56:14.781Z</time>
      </trkpt>
      <trkpt lat="48.8208" lon="2.34126">
        <ele>144.6</ele>
        <time>2015-04-06T20:56:15.809Z</time>
      </trkpt>
      <trkpt lat="48.82086" lon="2.34126">
        <ele>144.2</ele>
        <time>2015-04-06T20:56:16.809Z</time>
      </trkpt>
      <trkpt lat="48.82092" lon="2.34124">
        <ele>144</ele>
        <time>2015-04-06T20:56:17.809Z</time>
      </trkpt>
      <trkpt lat="48.82097" lon="2.34122">
        <ele>143.9</ele>
        <time>2015-04-06T20:56:18.942Z</time>
      </trkpt>
      <trkpt lat="48.82101" lon="2.34119">
        <ele>143.7</ele>
        <time>2015-04-06T20:56:19.829Z</time>
      </trkpt>
      <trkpt lat="48.82109" lon="2.34114">
        <ele>143.6</ele>
        <time>2015-04-06T20:56:21.817Z</time>
      </trkpt>
      <trkpt lat="48.82113" lon="2.34111">
        <ele>143.7</ele>
        <time>2015-04-06T20:56:22.831Z</time>
      </trkpt>
      <trkpt lat="48.82118" lon="2.34109">
        <ele>143.6</ele>
        <time>2015-04-06T20:56:23.824Z</time>
      </trkpt>
      <trkpt lat="48.82124" lon="2.34108">
        <ele>143.8</ele>
        <time>2015-04-06T20:56:24.851Z</time>
      </trkpt>
      <trkpt lat="48.82132" lon="2.34108">
        <ele>143.9</ele>
        <time>2015-04-06T20:56:25.801Z</time>
      </trkpt>
      <trkpt lat="48.82139" lon="2.34106">
        <ele>144.1</ele>
        <time>2015-04-06T20:56:26.828Z</time>
      </trkpt>
      <trkpt lat="48.82145" lon="2.34103">
        <ele>144.1</ele>
        <time>2015-04-06T20:56:27.844Z</time>
      </trkpt>
      <trkpt lat="48.82151" lon="2.34099">
        <ele>143.8</ele>
        <time>2015-04-06T20:56:28.843Z</time>
      </trkpt>
      <trkpt lat="48.82159" lon="2.34095">
        <ele>143.8</ele>
        <time>2015-04-06T20:56:29.854Z</time>
      </trkpt>
      <trkpt lat="48.82167" lon="2.34091">
        <ele>143.6</ele>
        <time>2015-04-06T20:56:30.871Z</time>
      </trkpt>
      <trkpt lat="48.82176" lon="2.34089">
        <ele>143.5</ele>
        <time>2015-04-06T20:56:31.902Z</time>
      </trkpt>
      <trkpt lat="48.82183" lon="2.34085">
        <ele>143</ele>
        <time>2015-04-06T20:56:32.789Z</time>
      </trkpt>
      <trkpt lat="48.82191" lon="2.34081">
        <ele>142.4</ele>
        <time>2015-04-06T20:56:33.799Z</time>
      </trkpt>
      <trkpt lat="48.82198" lon="2.34077">
        <ele>141.9</ele>
        <time>2015-04-06T20:56:34.808Z</time>
      </trkpt>
      <trkpt lat="48.82206" lon="2.34073">
        <ele>141.4</ele>
        <time>2015-04-06T20:56:35.827Z</time>
      </trkpt>
      <trkpt lat="48.82362" lon="2.34009">
        <ele>139.2</ele>
        <time>2015-04-06T20:57:04.844Z</time>
      </trkpt>
      <trkpt lat="48.8237" lon="2.34006">
        <ele>139.1</ele>
        <time>2015-04-06T20:57:06.806Z</time>
      </trkpt>
      <trkpt lat="48.82374" lon="2.34003">
        <ele>139.3</ele>
        <time>2015-04-06T20:57:07.806Z</time>
      </trkpt>
      <trkpt lat="48.82379" lon="2.33999">
        <ele>139.5</ele>
        <time>2015-04-06T20:57:09.165Z</time>
      </trkpt>
      <trkpt lat="48.82384" lon="2.33995">
        <ele>139.7</ele>
        <time>2015-04-06T20:57:09.851Z</time>
      </trkpt>
      <trkpt lat="48.82389" lon="2.33993">
        <ele>139.9</ele>
        <time>2015-04-06T20:57:10.792Z</time>
      </trkpt>
      <trkpt lat="48.82394" lon="2.33994">
        <ele>139.8</ele>
        <time>2015-04-06T20:57:11.800Z</time>
      </trkpt>
      <trkpt lat="48.82399" lon="2.33993">
        <ele>139.7</ele>
        <time>2015-04-06T20:57:12.855Z</time>
      </trkpt>
      <trkpt lat="48.82403" lon="2.33992">
        <ele>139.5</ele>
        <time>2015-04-06T20:57:13.807Z</time>
      </trkpt>
      <trkpt lat="48.82412" lon="2.33989">
        <ele>139.2</ele>
        <time>2015-04-06T20:57:15.816Z</time>
      </trkpt>
      <trkpt lat="48.82416" lon="2.33988">
        <ele>138.7</ele>
        <time>2015-04-06T20:57:16.828Z</time>
      </trkpt>
      <trkpt lat="48.82421" lon="2.33986">
        <ele>138.7</ele>
        <time>2015-04-06T20:57:17.834Z</time>
      </trkpt>
      <trkpt lat="48.82425" lon="2.33986">
        <ele>138.2</ele>
        <time>2015-04-06T20:57:18.862Z</time>
      </trkpt>
      <trkpt lat="48.8243" lon="2.33986">
        <ele>138</ele>
        <time>2015-04-06T20:57:19.878Z</time>
      </trkpt>
      <trkpt lat="48.82434" lon="2.33985">
        <ele>138.1</ele>
        <time>2015-04-06T20:57:20.798Z</time>
      </trkpt>
      <trkpt lat="48.8244" lon="2.33984">
        <ele>137.6</ele>
        <time>2015-04-06T20:57:22.804Z</time>
      </trkpt>
      <trkpt lat="48.82445" lon="2.33985">
        <ele>136.7</ele>
        <time>2015-04-06T20:57:23.842Z</time>
      </trkpt>
      <trkpt lat="48.82445" lon="2.33985">
        <ele>136.7</ele>
        <time>2015-04-06T20:57:49.806Z</time>
      </trkpt>
      <trkpt lat="48.82462" lon="2.33978">
        <ele>131</ele>
        <time>2015-04-06T20:57:50.856Z</time>
      </trkpt>
      <trkpt lat="48.82458" lon="2.33967">
        <ele>127.4</ele>
        <time>2015-04-06T20:57:58.869Z</time>
      </trkpt>
      <trkpt lat="48.82459" lon="2.33958">
        <ele>125.1</ele>
        <time>2015-04-06T20:57:59.883Z</time>
      </trkpt>
      <trkpt lat="48.8246" lon="2.33948">
        <ele>124</ele>
        <time>2015-04-06T20:58:02.923Z</time>
      </trkpt>
      <trkpt lat="48.8246" lon="2.33944">
        <ele>123.8</ele>
        <time>2015-04-06T20:58:03.787Z</time>
      </trkpt>
      <trkpt lat="48.82461" lon="2.33931">
        <ele>123</ele>
        <time>2015-04-06T20:58:06.874Z</time>
      </trkpt>
      <trkpt lat="48.82461" lon="2.33926">
        <ele>122.8</ele>
        <time>2015-04-06T20:58:07.885Z</time>
      </trkpt>
      <trkpt lat="48.8246" lon="2.33916">
        <ele>122.2</ele>
        <time>2015-04-06T20:58:09.863Z</time>
      </trkpt>
      <trkpt lat="48.8246" lon="2.33909">
        <ele>121.4</ele>
        <time>2015-04-06T20:58:10.855Z</time>
      </trkpt>
      <trkpt lat="48.82459" lon="2.339">
        <ele>120.4</ele>
        <time>2015-04-06T20:58:11.861Z</time>
      </trkpt>
      <trkpt lat="48.82458" lon="2.33891">
        <ele>119.7</ele>
        <time>2015-04-06T20:58:12.874Z</time>
      </trkpt>
      <trkpt lat="48.82457" lon="2.33882">
        <ele>119.2</ele>
        <time>2015-04-06T20:58:13.798Z</time>
      </trkpt>
      <trkpt lat="48.82456" lon="2.33872">
        <ele>118.5</ele>
        <time>2015-04-06T20:58:14.891Z</time>
      </trkpt>
      <trkpt lat="48.82454" lon="2.33862">
        <ele>118</ele>
        <time>2015-04-06T20:58:15.852Z</time>
      </trkpt>
      <trkpt lat="48.82453" lon="2.33851">
        <ele>117.8</ele>
        <time>2015-04-06T20:58:16.867Z</time>
      </trkpt>
      <trkpt lat="48.82451" lon="2.33841">
        <ele>117.6</ele>
        <time>2015-04-06T20:58:17.874Z</time>
      </trkpt>
      <trkpt lat="48.82449" lon="2.33831">
        <ele>117.3</ele>
        <time>2015-04-06T20:58:18.882Z</time>
      </trkpt>
      <trkpt lat="48.82448" lon="2.33822">
        <ele>117.4</ele>
        <time>2015-04-06T20:58:19.804Z</time>
      </trkpt>
      <trkpt lat="48.82446" lon="2.33813">
        <ele>117.4</ele>
        <time>2015-04-06T20:58:20.798Z</time>
      </trkpt>
      <trkpt lat="48.82444" lon="2.33802">
        <ele>117.6</ele>
        <time>2015-04-06T20:58:21.831Z</time>
      </trkpt>
      <trkpt lat="48.82443" lon="2.33791">
        <ele>117.7</ele>
        <time>2015-04-06T20:58:22.854Z</time>
      </trkpt>
      <trkpt lat="48.82441" lon="2.3378">
        <ele>118</ele>
        <time>2015-04-06T20:58:23.803Z</time>
      </trkpt>
      <trkpt lat="48.82439" lon="2.3377">
        <ele>117.8</ele>
        <time>2015-04-06T20:58:24.844Z</time>
      </trkpt>
      <trkpt lat="48.82436" lon="2.3376">
        <ele>117.5</ele>
        <time>2015-04-06T20:58:25.851Z</time>
      </trkpt>
      <trkpt lat="48.82421" lon="2.33706">
        <ele>117.6</ele>
        <time>2015-04-06T20:58:26.868Z</time>
      </trkpt>
      <trkpt lat="48.82421" lon="2.33697">
        <ele>117.7</ele>
        <time>2015-04-06T20:58:27.796Z</time>
      </trkpt>
      <trkpt lat="48.82421" lon="2.33689">
        <ele>117.7</ele>
        <time>2015-04-06T20:58:28.797Z</time>
      </trkpt>
      <trkpt lat="48.82421" lon="2.33675">
        <ele>118.9</ele>
        <time>2015-04-06T20:58:30.865Z</time>
      </trkpt>
      <trkpt lat="48.82421" lon="2.33669">
        <ele>119.5</ele>
        <time>2015-04-06T20:58:31.888Z</time>
      </trkpt>
      <trkpt lat="48.82422" lon="2.33659">
        <ele>119.9</ele>
        <time>2015-04-06T20:58:33.870Z</time>
      </trkpt>
      <trkpt lat="48.82422" lon="2.33655">
        <ele>119.6</ele>
        <time>2015-04-06T20:58:34.825Z</time>
      </trkpt>
      <trkpt lat="48.82425" lon="2.33643">
        <ele>119.8</ele>
        <time>2015-04-06T20:58:37.809Z</time>
      </trkpt>
      <trkpt lat="48.82425" lon="2.3364">
        <ele>119.8</ele>
        <time>2015-04-06T20:58:38.807Z</time>
      </trkpt>
      <trkpt lat="48.82426" lon="2.3363">
        <ele>120.1</ele>
        <time>2015-04-06T20:58:41.812Z</time>
      </trkpt>
      <trkpt lat="48.82426" lon="2.33626">
        <ele>120.5</ele>
        <time>2015-04-06T20:58:42.850Z</time>
      </trkpt>
      <trkpt lat="48.82429" lon="2.33614">
        <ele>121.5</ele>
        <time>2015-04-06T20:59:12.835Z</time>
      </trkpt>
      <trkpt lat="48.82423" lon="2.33597">
        <ele>124.1</ele>
        <time>2015-04-06T20:59:39.864Z</time>
      </trkpt>
      <trkpt lat="48.82423" lon="2.33597">
        <ele>124.1</ele>
        <time>2015-04-06T20:59:47.805Z</time>
      </trkpt>
      <trkpt lat="48.82439" lon="2.3362">
        <ele>124.1</ele>
        <time>2015-04-06T20:59:48.926Z</time>
      </trkpt>
      <trkpt lat="48.82446" lon="2.33616">
        <ele>126.7</ele>
        <time>2015-04-06T20:59:52.867Z</time>
      </trkpt>
      <trkpt lat="48.82448" lon="2.33614">
        <ele>127.5</ele>
        <time>2015-04-06T20:59:53.847Z</time>
      </trkpt>
      <trkpt lat="48.82453" lon="2.33612">
        <ele>129.8</ele>
        <time>2015-04-06T20:59:59.835Z</time>
      </trkpt>
      <trkpt lat="48.82461" lon="2.33608">
        <ele>129.5</ele>
        <time>2015-04-06T21:00:00.927Z</time>
      </trkpt>
      <trkpt lat="48.82468" lon="2.33605">
        <ele>130.2</ele>
        <time>2015-04-06T21:00:03.940Z</time>
      </trkpt>
      <trkpt lat="48.82471" lon="2.33604">
        <ele>130.5</ele>
        <time>2015-04-06T21:00:04.863Z</time>
      </trkpt>
      <trkpt lat="48.82478" lon="2.336">
        <ele>130.3</ele>
        <time>2015-04-06T21:00:07.901Z</time>
      </trkpt>
      <trkpt lat="48.8248" lon="2.336">
        <ele>130.8</ele>
        <time>2015-04-06T21:00:08.805Z</time>
      </trkpt>
      <trkpt lat="48.82488" lon="2.33597">
        <ele>131.9</ele>
        <time>2015-04-06T21:00:11.862Z</time>
      </trkpt>
      <trkpt lat="48.82491" lon="2.33597">
        <ele>132.1</ele>
        <time>2015-04-06T21:00:12.882Z</time>
      </trkpt>
      <trkpt lat="48.82498" lon="2.33594">
        <ele>132.9</ele>
        <time>2015-04-06T21:00:16.541Z</time>
      </trkpt>
      <trkpt lat="48.82502" lon="2.33593">
        <ele>132.7</ele>
        <time>2015-04-06T21:00:16.836Z</time>
      </trkpt>
      <trkpt lat="48.82509" lon="2.33593">
        <ele>132.1</ele>
        <time>2015-04-06T21:00:18.887Z</time>
      </trkpt>
      <trkpt lat="48.82512" lon="2.33592">
        <ele>131.9</ele>
        <time>2015-04-06T21:00:19.836Z</time>
      </trkpt>
      <trkpt lat="48.82517" lon="2.33591">
        <ele>132.1</ele>
        <time>2015-04-06T21:00:21.553Z</time>
      </trkpt>
      <trkpt lat="48.82522" lon="2.3359">
        <ele>132.4</ele>
        <time>2015-04-06T21:00:21.880Z</time>
      </trkpt>
      <trkpt lat="48.8253" lon="2.33585">
        <ele>132.4</ele>
        <time>2015-04-06T21:00:23.810Z</time>
      </trkpt>
      <trkpt lat="48.82534" lon="2.33581">
        <ele>132.5</ele>
        <time>2015-04-06T21:00:24.848Z</time>
      </trkpt>
      <trkpt lat="48.82539" lon="2.33578">
        <ele>132.4</ele>
        <time>2015-04-06T21:00:26.677Z</time>
      </trkpt>
      <trkpt lat="48.82543" lon="2.33576">
        <ele>132.5</ele>
        <time>2015-04-06T21:00:26.768Z</time>
      </trkpt>
      <trkpt lat="48.82547" lon="2.33574">
        <ele>132.4</ele>
        <time>2015-04-06T21:00:27.798Z</time>
      </trkpt>
      <trkpt lat="48.82552" lon="2.33573">
        <ele>132.2</ele>
        <time>2015-04-06T21:00:28.833Z</time>
      </trkpt>
      <trkpt lat="48.82557" lon="2.33572">
        <ele>132.2</ele>
        <time>2015-04-06T21:00:29.828Z</time>
      </trkpt>
      <trkpt lat="48.82562" lon="2.3357">
        <ele>132.2</ele>
        <time>2015-04-06T21:00:30.838Z</time>
      </trkpt>
      <trkpt lat="48.82569" lon="2.33564">
        <ele>133.4</ele>
        <time>2015-04-06T21:00:32.849Z</time>
      </trkpt>
      <trkpt lat="48.82573" lon="2.3356">
        <ele>134</ele>
        <time>2015-04-06T21:00:33.856Z</time>
      </trkpt>
      <trkpt lat="48.82578" lon="2.33557">
        <ele>134.6</ele>
        <time>2015-04-06T21:00:34.795Z</time>
      </trkpt>
      <trkpt lat="48.82582" lon="2.33555">
        <ele>135.2</ele>
        <time>2015-04-06T21:00:35.836Z</time>
      </trkpt>
      <trkpt lat="48.82589" lon="2.3355">
        <ele>135.9</ele>
        <time>2015-04-06T21:00:37.877Z</time>
      </trkpt>
      <trkpt lat="48.82592" lon="2.33548">
        <ele>136.1</ele>
        <time>2015-04-06T21:00:38.882Z</time>
      </trkpt>
      <trkpt lat="48.82597" lon="2.33544">
        <ele>136.4</ele>
        <time>2015-04-06T21:00:40.803Z</time>
      </trkpt>
      <trkpt lat="48.826" lon="2.33541">
        <ele>136.5</ele>
        <time>2015-04-06T21:00:41.812Z</time>
      </trkpt>
      <trkpt lat="48.82605" lon="2.3354">
        <ele>136.7</ele>
        <time>2015-04-06T21:00:42.920Z</time>
      </trkpt>
      <trkpt lat="48.82609" lon="2.33538">
        <ele>136.9</ele>
        <time>2015-04-06T21:00:43.800Z</time>
      </trkpt>
      <trkpt lat="48.82614" lon="2.33537">
        <ele>137</ele>
        <time>2015-04-06T21:00:44.795Z</time>
      </trkpt>
      <trkpt lat="48.8262" lon="2.33536">
        <ele>137</ele>
        <time>2015-04-06T21:00:45.840Z</time>
      </trkpt>
      <trkpt lat="48.82627" lon="2.33536">
        <ele>137.2</ele>
        <time>2015-04-06T21:00:47.178Z</time>
      </trkpt>
      <trkpt lat="48.82634" lon="2.33537">
        <ele>137.3</ele>
        <time>2015-04-06T21:00:47.799Z</time>
      </trkpt>
      <trkpt lat="48.8264" lon="2.33536">
        <ele>137.1</ele>
        <time>2015-04-06T21:00:48.824Z</time>
      </trkpt>
      <trkpt lat="48.82645" lon="2.33535">
        <ele>136.9</ele>
        <time>2015-04-06T21:00:49.835Z</time>
      </trkpt>
      <trkpt lat="48.82649" lon="2.33532">
        <ele>137</ele>
        <time>2015-04-06T21:00:50.841Z</time>
      </trkpt>
      <trkpt lat="48.82654" lon="2.3353">
        <ele>136.9</ele>
        <time>2015-04-06T21:00:51.845Z</time>
      </trkpt>
      <trkpt lat="48.8266" lon="2.33528">
        <ele>137.1</ele>
        <time>2015-04-06T21:00:52.776Z</time>
      </trkpt>
      <trkpt lat="48.82665" lon="2.33527">
        <ele>137.5</ele>
        <time>2015-04-06T21:00:53.759Z</time>
      </trkpt>
      <trkpt lat="48.82672" lon="2.33522">
        <ele>137.9</ele>
        <time>2015-04-06T21:00:55.822Z</time>
      </trkpt>
      <trkpt lat="48.82674" lon="2.33521">
        <ele>138</ele>
        <time>2015-04-06T21:00:56.835Z</time>
      </trkpt>
      <trkpt lat="48.8268" lon="2.33516">
        <ele>137.9</ele>
        <time>2015-04-06T21:00:58.866Z</time>
      </trkpt>
      <trkpt lat="48.82683" lon="2.33514">
        <ele>138</ele>
        <time>2015-04-06T21:00:59.889Z</time>
      </trkpt>
      <trkpt lat="48.8269" lon="2.3351">
        <ele>138</ele>
        <time>2015-04-06T21:01:01.839Z</time>
      </trkpt>
      <trkpt lat="48.82694" lon="2.33508">
        <ele>138</ele>
        <time>2015-04-06T21:01:02.853Z</time>
      </trkpt>
      <trkpt lat="48.82697" lon="2.33506">
        <ele>138</ele>
        <time>2015-04-06T21:01:03.795Z</time>
      </trkpt>
      <trkpt lat="48.82703" lon="2.33505">
        <ele>138.5</ele>
        <time>2015-04-06T21:01:04.805Z</time>
      </trkpt>
      <trkpt lat="48.82708" lon="2.33503">
        <ele>138.7</ele>
        <time>2015-04-06T21:01:05.827Z</time>
      </trkpt>
      <trkpt lat="48.82712" lon="2.33502">
        <ele>139</ele>
        <time>2015-04-06T21:01:06.834Z</time>
      </trkpt>
      <trkpt lat="48.8272" lon="2.335">
        <ele>139.6</ele>
        <time>2015-04-06T21:01:08.845Z</time>
      </trkpt>
      <trkpt lat="48.82724" lon="2.33499">
        <ele>139.9</ele>
        <time>2015-04-06T21:01:09.861Z</time>
      </trkpt>
      <trkpt lat="48.8273" lon="2.33496">
        <ele>139.8</ele>
        <time>2015-04-06T21:01:11.787Z</time>
      </trkpt>
      <trkpt lat="48.82733" lon="2.33494">
        <ele>139.7</ele>
        <time>2015-04-06T21:01:12.863Z</time>
      </trkpt>
      <trkpt lat="48.82741" lon="2.33492">
        <ele>139.5</ele>
        <time>2015-04-06T21:01:13.883Z</time>
      </trkpt>
      <trkpt lat="48.82746" lon="2.33492">
        <ele>139.5</ele>
        <time>2015-04-06T21:01:14.789Z</time>
      </trkpt>
      <trkpt lat="48.82752" lon="2.33492">
        <ele>139.8</ele>
        <time>2015-04-06T21:01:15.806Z</time>
      </trkpt>
      <trkpt lat="48.82756" lon="2.33491">
        <ele>139.9</ele>
        <time>2015-04-06T21:01:16.820Z</time>
      </trkpt>
      <trkpt lat="48.82764" lon="2.33487">
        <ele>140.2</ele>
        <time>2015-04-06T21:01:18.838Z</time>
      </trkpt>
      <trkpt lat="48.82768" lon="2.33484">
        <ele>140.4</ele>
        <time>2015-04-06T21:01:19.851Z</time>
      </trkpt>
      <trkpt lat="48.82776" lon="2.3348">
        <ele>140.5</ele>
        <time>2015-04-06T21:01:21.793Z</time>
      </trkpt>
      <trkpt lat="48.82779" lon="2.33477">
        <ele>140.6</ele>
        <time>2015-04-06T21:01:22.793Z</time>
      </trkpt>
      <trkpt lat="48.82786" lon="2.33474">
        <ele>140.2</ele>
        <time>2015-04-06T21:01:24.941Z</time>
      </trkpt>
      <trkpt lat="48.82788" lon="2.33472">
        <ele>139.8</ele>
        <time>2015-04-06T21:01:25.796Z</time>
      </trkpt>
      <trkpt lat="48.82796" lon="2.3347">
        <ele>139.1</ele>
        <time>2015-04-06T21:01:28.822Z</time>
      </trkpt>
      <trkpt lat="48.82799" lon="2.33467">
        <ele>138.7</ele>
        <time>2015-04-06T21:01:28.855Z</time>
      </trkpt>
      <trkpt lat="48.82805" lon="2.33457">
        <ele>137.6</ele>
        <time>2015-04-06T21:01:31.876Z</time>
      </trkpt>
      <trkpt lat="48.82808" lon="2.33455">
        <ele>137</ele>
        <time>2015-04-06T21:01:32.801Z</time>
      </trkpt>
      <trkpt lat="48.82815" lon="2.33446">
        <ele>135.7</ele>
        <time>2015-04-06T21:01:35.575Z</time>
      </trkpt>
      <trkpt lat="48.82816" lon="2.33443">
        <ele>135.2</ele>
        <time>2015-04-06T21:01:36.834Z</time>
      </trkpt>
      <trkpt lat="48.82822" lon="2.33438">
        <ele>134</ele>
        <time>2015-04-06T21:01:39.858Z</time>
      </trkpt>
      <trkpt lat="48.82825" lon="2.33437">
        <ele>133.8</ele>
        <time>2015-04-06T21:01:40.799Z</time>
      </trkpt>
      <trkpt lat="48.82833" lon="2.33433">
        <ele>133.5</ele>
        <time>2015-04-06T21:01:46.393Z</time>
      </trkpt>
      <trkpt lat="48.8284" lon="2.33428">
        <ele>133.5</ele>
        <time>2015-04-06T21:01:46.814Z</time>
      </trkpt>
      <trkpt lat="48.82847" lon="2.33422">
        <ele>132.9</ele>
        <time>2015-04-06T21:01:48.855Z</time>
      </trkpt>
      <trkpt lat="48.8285" lon="2.3342">
        <ele>132.7</ele>
        <time>2015-04-06T21:01:49.866Z</time>
      </trkpt>
      <trkpt lat="48.82856" lon="2.33419">
        <ele>132.4</ele>
        <time>2015-04-06T21:01:54.890Z</time>
      </trkpt>
      <trkpt lat="48.82865" lon="2.33413">
        <ele>131.7</ele>
        <time>2015-04-06T21:01:55.831Z</time>
      </trkpt>
      <trkpt lat="48.82869" lon="2.33406">
        <ele>131.8</ele>
        <time>2015-04-06T21:01:57.822Z</time>
      </trkpt>
      <trkpt lat="48.82872" lon="2.33404">
        <ele>132.4</ele>
        <time>2015-04-06T21:01:58.837Z</time>
      </trkpt>
      <trkpt lat="48.8288" lon="2.33405">
        <ele>132.6</ele>
        <time>2015-04-06T21:02:01.641Z</time>
      </trkpt>
      <trkpt lat="48.82885" lon="2.33407">
        <ele>132.7</ele>
        <time>2015-04-06T21:02:01.765Z</time>
      </trkpt>
      <trkpt lat="48.82885" lon="2.33407">
        <ele>132.7</ele>
        <time>2015-04-06T21:02:05.881Z</time>
      </trkpt>
      <trkpt lat="48.82902" lon="2.3339">
        <ele>132.3</ele>
        <time>2015-04-06T21:02:06.806Z</time>
      </trkpt>
      <trkpt lat="48.82909" lon="2.33386">
        <ele>132.5</ele>
        <time>2015-04-06T21:02:07.873Z</time>
      </trkpt>
      <trkpt lat="48.82916" lon="2.33383">
        <ele>133.2</ele>
        <time>2015-04-06T21:02:08.782Z</time>
      </trkpt>
      <trkpt lat="48.82924" lon="2.33382">
        <ele>134.4</ele>
        <time>2015-04-06T21:02:09.238Z</time>
      </trkpt>
      <trkpt lat="48.82932" lon="2.33382">
        <ele>135</ele>
        <time>2015-04-06T21:02:10.805Z</time>
      </trkpt>
      <trkpt lat="48.82938" lon="2.33381">
        <ele>135.2</ele>
        <time>2015-04-06T21:02:11.842Z</time>
      </trkpt>
      <trkpt lat="48.82943" lon="2.33378">
        <ele>135.5</ele>
        <time>2015-04-06T21:02:12.842Z</time>
      </trkpt>
      <trkpt lat="48.82949" lon="2.33369">
        <ele>135.8</ele>
        <time>2015-04-06T21:02:14.868Z</time>
      </trkpt>
      <trkpt lat="48.82952" lon="2.33365">
        <ele>136.1</ele>
        <time>2015-04-06T21:02:15.910Z</time>
      </trkpt>
      <trkpt lat="48.82958" lon="2.33358">
        <ele>136.1</ele>
        <time>2015-04-06T21:02:17.830Z</time>
      </trkpt>
      <trkpt lat="48.82961" lon="2.33356">
        <ele>136</ele>
        <time>2015-04-06T21:02:18.854Z</time>
      </trkpt>
      <trkpt lat="48.82965" lon="2.33355">
        <ele>135.9</ele>
        <time>2015-04-06T21:02:19.822Z</time>
      </trkpt>
      <trkpt lat="48.82974" lon="2.33356">
        <ele>136.9</ele>
        <time>2015-04-06T21:02:20.878Z</time>
      </trkpt>
      <trkpt lat="48.82983" lon="2.33359">
        <ele>137.9</ele>
        <time>2015-04-06T21:02:21.814Z</time>
      </trkpt>
      <trkpt lat="48.8299" lon="2.3336">
        <ele>138.2</ele>
        <time>2015-04-06T21:02:22.810Z</time>
      </trkpt>
      <trkpt lat="48.82995" lon="2.33362">
        <ele>138.4</ele>
        <time>2015-04-06T21:02:23.836Z</time>
      </trkpt>
      <trkpt lat="48.83001" lon="2.33364">
        <ele>138.6</ele>
        <time>2015-04-06T21:02:24.911Z</time>
      </trkpt>
      <trkpt lat="48.83006" lon="2.33365">
        <ele>139</ele>
        <time>2015-04-06T21:02:25.799Z</time>
      </trkpt>
      <trkpt lat="48.83012" lon="2.33366">
        <ele>139.5</ele>
        <time>2015-04-06T21:02:27.070Z</time>
      </trkpt>
      <trkpt lat="48.8302" lon="2.33368">
        <ele>140.6</ele>
        <time>2015-04-06T21:02:27.834Z</time>
      </trkpt>
      <trkpt lat="48.83029" lon="2.33371">
        <ele>141.5</ele>
        <time>2015-04-06T21:02:28.856Z</time>
      </trkpt>
      <trkpt lat="48.83037" lon="2.33374">
        <ele>142.6</ele>
        <time>2015-04-06T21:02:29.789Z</time>
      </trkpt>
      <trkpt lat="48.83041" lon="2.33375">
        <ele>142.6</ele>
        <time>2015-04-06T21:02:30.847Z</time>
      </trkpt>
      <trkpt lat="48.83047" lon="2.33376">
        <ele>142.9</ele>
        <time>2015-04-06T21:02:32.787Z</time>
      </trkpt>
      <trkpt lat="48.83051" lon="2.33374">
        <ele>143.5</ele>
        <time>2015-04-06T21:02:33.819Z</time>
      </trkpt>
      <trkpt lat="48.83059" lon="2.33368">
        <ele>143.8</ele>
        <time>2015-04-06T21:02:35.788Z</time>
      </trkpt>
      <trkpt lat="48.83063" lon="2.33365">
        <ele>143.6</ele>
        <time>2015-04-06T21:02:36.831Z</time>
      </trkpt>
      <trkpt lat="48.83071" lon="2.33362">
        <ele>143</ele>
        <time>2015-04-06T21:02:38.857Z</time>
      </trkpt>
      <trkpt lat="48.83075" lon="2.33361">
        <ele>142.7</ele>
        <time>2015-04-06T21:02:39.868Z</time>
      </trkpt>
      <trkpt lat="48.83079" lon="2.33358">
        <ele>142.8</ele>
        <time>2015-04-06T21:02:40.796Z</time>
      </trkpt>
      <trkpt lat="48.83083" lon="2.33357">
        <ele>143.2</ele>
        <time>2015-04-06T21:02:41.802Z</time>
      </trkpt>
      <trkpt lat="48.83088" lon="2.33355">
        <ele>143.4</ele>
        <time>2015-04-06T21:02:42.924Z</time>
      </trkpt>
      <trkpt lat="48.83095" lon="2.33352">
        <ele>143.9</ele>
        <time>2015-04-06T21:02:43.846Z</time>
      </trkpt>
      <trkpt lat="48.83102" lon="2.3335">
        <ele>144.5</ele>
        <time>2015-04-06T21:02:44.892Z</time>
      </trkpt>
      <trkpt lat="48.83111" lon="2.33349">
        <ele>144.3</ele>
        <time>2015-04-06T21:02:45.792Z</time>
      </trkpt>
      <trkpt lat="48.83118" lon="2.33348">
        <ele>144.3</ele>
        <time>2015-04-06T21:02:46.796Z</time>
      </trkpt>
      <trkpt lat="48.83129" lon="2.33347">
        <ele>144.5</ele>
        <time>2015-04-06T21:02:47.842Z</time>
      </trkpt>
      <trkpt lat="48.83139" lon="2.33347">
        <ele>144.5</ele>
        <time>2015-04-06T21:02:48.885Z</time>
      </trkpt>
      <trkpt lat="48.83148" lon="2.33345">
        <ele>144</ele>
        <time>2015-04-06T21:02:49.789Z</time>
      </trkpt>
      <trkpt lat="48.83157" lon="2.33344">
        <ele>143.4</ele>
        <time>2015-04-06T21:02:50.797Z</time>
      </trkpt>
      <trkpt lat="48.83157" lon="2.33344">
        <ele>143.4</ele>
        <time>2015-04-06T21:02:51.134Z</time>
      </trkpt>
      <trkpt lat="48.83167" lon="2.33342">
        <ele>142.5</ele>
        <time>2015-04-06T21:02:51.833Z</time>
      </trkpt>
      <trkpt lat="48.83177" lon="2.33341">
        <ele>142.2</ele>
        <time>2015-04-06T21:02:52.846Z</time>
      </trkpt>
      <trkpt lat="48.83187" lon="2.33338">
        <ele>141.4</ele>
        <time>2015-04-06T21:02:53.876Z</time>
      </trkpt>
      <trkpt lat="48.83197" lon="2.33336">
        <ele>140.3</ele>
        <time>2015-04-06T21:02:54.865Z</time>
      </trkpt>
      <trkpt lat="48.83206" lon="2.33333">
        <ele>139.1</ele>
        <time>2015-04-06T21:02:55.877Z</time>
      </trkpt>
      <trkpt lat="48.83214" lon="2.33331">
        <ele>137.7</ele>
        <time>2015-04-06T21:02:56.802Z</time>
      </trkpt>
      <trkpt lat="48.83222" lon="2.33329">
        <ele>136.9</ele>
        <time>2015-04-06T21:02:57.795Z</time>
      </trkpt>
      <trkpt lat="48.83234" lon="2.33327">
        <ele>133.6</ele>
        <time>2015-04-06T21:02:58.796Z</time>
      </trkpt>
      <trkpt lat="48.83244" lon="2.33324">
        <ele>131.1</ele>
        <time>2015-04-06T21:02:59.887Z</time>
      </trkpt>
      <trkpt lat="48.83251" lon="2.33321">
        <ele>131</ele>
        <time>2015-04-06T21:03:00.906Z</time>
      </trkpt>
      <trkpt lat="48.83258" lon="2.33317">
        <ele>130.7</ele>
        <time>2015-04-06T21:03:01.792Z</time>
      </trkpt>
      <trkpt lat="48.83263" lon="2.33313">
        <ele>130.8</ele>
        <time>2015-04-06T21:03:02.810Z</time>
      </trkpt>
      <trkpt lat="48.83268" lon="2.3331">
        <ele>130.7</ele>
        <time>2015-04-06T21:03:03.814Z</time>
      </trkpt>
      <trkpt lat="48.83273" lon="2.33307">
        <ele>130.7</ele>
        <time>2015-04-06T21:03:04.843Z</time>
      </trkpt>
      <trkpt lat="48.83277" lon="2.33303">
        <ele>130.7</ele>
        <time>2015-04-06T21:03:05.847Z</time>
      </trkpt>
      <trkpt lat="48.83283" lon="2.33297">
        <ele>130.8</ele>
        <time>2015-04-06T21:03:07.872Z</time>
      </trkpt>
      <trkpt lat="48.83284" lon="2.33293">
        <ele>130.7</ele>
        <time>2015-04-06T21:03:08.885Z</time>
      </trkpt>
      <trkpt lat="48.83293" lon="2.33289">
        <ele>126.6</ele>
        <time>2015-04-06T21:03:10.818Z</time>
      </trkpt>
      <trkpt lat="48.83297" lon="2.33288">
        <ele>124.9</ele>
        <time>2015-04-06T21:03:11.839Z</time>
      </trkpt>
      <trkpt lat="48.83303" lon="2.33297">
        <ele>123</ele>
        <time>2015-04-06T21:03:13.792Z</time>
      </trkpt>
      <trkpt lat="48.83305" lon="2.33302">
        <ele>121.7</ele>
        <time>2015-04-06T21:03:14.816Z</time>
      </trkpt>
      <trkpt lat="48.83309" lon="2.33306">
        <ele>120.6</ele>
        <time>2015-04-06T21:03:15.828Z</time>
      </trkpt>
      <trkpt lat="48.83314" lon="2.33311">
        <ele>119.8</ele>
        <time>2015-04-06T21:03:16.837Z</time>
      </trkpt>
      <trkpt lat="48.8332" lon="2.33317">
        <ele>120.1</ele>
        <time>2015-04-06T21:03:18.850Z</time>
      </trkpt>
      <trkpt lat="48.83323" lon="2.3332">
        <ele>120.6</ele>
        <time>2015-04-06T21:03:19.941Z</time>
      </trkpt>
      <trkpt lat="48.8333" lon="2.33325">
        <ele>120.4</ele>
        <time>2015-04-06T21:03:22.836Z</time>
      </trkpt>
      <trkpt lat="48.83332" lon="2.33325">
        <ele>119.8</ele>
        <time>2015-04-06T21:03:23.854Z</time>
      </trkpt>
      <trkpt lat="48.83335" lon="2.33323">
        <ele>119.3</ele>
        <time>2015-04-06T21:07:06.872Z</time>
      </trkpt>
      <trkpt lat="48.83326" lon="2.33313">
        <ele>113.5</ele>
        <time>2015-04-06T21:07:07.789Z</time>
      </trkpt>
      <trkpt lat="48.83327" lon="2.33305">
        <ele>114.3</ele>
        <time>2015-04-06T21:07:18.864Z</time>
      </trkpt>
      <trkpt lat="48.83333" lon="2.33284">
        <ele>117</ele>
        <time>2015-04-06T21:07:19.795Z</time>
      </trkpt>
      <trkpt lat="48.83337" lon="2.33275">
        <ele>117.4</ele>
        <time>2015-04-06T21:07:22.807Z</time>
      </trkpt>
      <trkpt lat="48.83339" lon="2.33272">
        <ele>117.6</ele>
        <time>2015-04-06T21:07:23.832Z</time>
      </trkpt>
      <trkpt lat="48.83341" lon="2.33269">
        <ele>118.6</ele>
        <time>2015-04-06T21:07:35.880Z</time>
      </trkpt>
      <trkpt lat="48.83363" lon="2.33268">
        <ele>114.6</ele>
        <time>2015-04-06T21:07:36.893Z</time>
      </trkpt>
      <trkpt lat="48.83371" lon="2.33266">
        <ele>114.6</ele>
        <time>2015-04-06T21:07:39.808Z</time>
      </trkpt>
      <trkpt lat="48.83373" lon="2.33266">
        <ele>114.7</ele>
        <time>2015-04-06T21:07:40.819Z</time>
      </trkpt>
      <trkpt lat="48.83381" lon="2.33266">
        <ele>114.9</ele>
        <time>2015-04-06T21:07:43.871Z</time>
      </trkpt>
      <trkpt lat="48.83384" lon="2.33266">
        <ele>115.1</ele>
        <time>2015-04-06T21:07:44.822Z</time>
      </trkpt>
      <trkpt lat="48.83392" lon="2.33265">
        <ele>115.3</ele>
        <time>2015-04-06T21:07:48.874Z</time>
      </trkpt>
      <trkpt lat="48.83393" lon="2.33264">
        <ele>115</ele>
        <time>2015-04-06T21:07:49.809Z</time>
      </trkpt>
      <trkpt lat="48.83395" lon="2.33261">
        <ele>115</ele>
        <time>2015-04-06T21:07:53.813Z</time>
      </trkpt>
      <trkpt lat="48.83403" lon="2.33256">
        <ele>114.8</ele>
        <time>2015-04-06T21:07:54.861Z</time>
      </trkpt>
      <trkpt lat="48.83407" lon="2.33246">
        <ele>114.7</ele>
        <time>2015-04-06T21:09:13.826Z</time>
      </trkpt>
      <trkpt lat="48.83413" lon="2.33204">
        <ele>115</ele>
        <time>2015-04-06T21:09:14.865Z</time>
      </trkpt>
      <trkpt lat="48.83411" lon="2.33201">
        <ele>115.3</ele>
        <time>2015-04-06T21:09:16.813Z</time>
      </trkpt>
      <trkpt lat="48.83411" lon="2.33201">
        <ele>115.4</ele>
        <time>2015-04-06T21:09:17.825Z</time>
      </trkpt>
      <trkpt lat="48.83411" lon="2.33201">
        <ele>115.6</ele>
        <time>2015-04-06T21:09:45.839Z</time>
      </trkpt>
      <trkpt lat="48.83414" lon="2.33202">
        <ele>121.5</ele>
        <time>2015-04-06T21:09:46.856Z</time>
      </trkpt>
      <trkpt lat="48.83413" lon="2.332">
        <ele>122</ele>
        <time>2015-04-06T21:09:48.910Z</time>
      </trkpt>
      <trkpt lat="48.83412" lon="2.33201">
        <ele>122.3</ele>
        <time>2015-04-06T21:09:49.815Z</time>
      </trkpt>
      <trkpt lat="48.83412" lon="2.33201">
        <ele>122.7</ele>
        <time>2015-04-06T21:10:40.800Z</time>
      </trkpt>
      <trkpt lat="48.83404" lon="2.33197">
        <ele>125.2</ele>
        <time>2015-04-06T21:10:45.791Z</time>
      </trkpt>
      <trkpt lat="48.83402" lon="2.33197">
        <ele>125.3</ele>
        <time>2015-04-06T21:15:17.747Z</time>
      </trkpt>
      <trkpt lat="48.83419" lon="2.33212">
        <ele>135</ele>
        <time>2015-04-06T21:15:18.848Z</time>
      </trkpt>
      <trkpt lat="48.83422" lon="2.3321">
        <ele>132.9</ele>
        <time>2015-04-06T21:16:17.812Z</time>
      </trkpt>
      <trkpt lat="48.83403" lon="2.33199">
        <ele>125.7</ele>
        <time>2015-04-06T21:16:18.835Z</time>
      </trkpt>
      <trkpt lat="48.83394" lon="2.332">
        <ele>125.5</ele>
        <time>2015-04-06T21:16:21.791Z</time>
      </trkpt>
      <trkpt lat="48.83393" lon="2.33199">
        <ele>125</ele>
        <time>2015-04-06T21:16:22.804Z</time>
      </trkpt>
      <trkpt lat="48.83386" lon="2.33196">
        <ele>124.9</ele>
        <time>2015-04-06T21:16:25.857Z</time>
      </trkpt>
      <trkpt lat="48.83383" lon="2.33195">
        <ele>125</ele>
        <time>2015-04-06T21:16:26.794Z</time>
      </trkpt>
      <trkpt lat="48.83378" lon="2.33204">
        <ele>117.2</ele>
        <time>2015-04-06T21:16:39.812Z</time>
      </trkpt>
      <trkpt lat="48.83377" lon="2.33205">
        <ele>116.3</ele>
        <time>2015-04-06T21:16:40.841Z</time>
      </trkpt>
      <trkpt lat="48.83372" lon="2.33215">
        <ele>115.2</ele>
        <time>2015-04-06T21:16:44.844Z</time>
      </trkpt>
      <trkpt lat="48.8337" lon="2.33217">
        <ele>115.1</ele>
        <time>2015-04-06T21:16:45.868Z</time>
      </trkpt>
      <trkpt lat="48.83364" lon="2.33227">
        <ele>116</ele>
        <time>2015-04-06T21:16:49.791Z</time>
      </trkpt>
      <trkpt lat="48.83362" lon="2.33229">
        <ele>116</ele>
        <time>2015-04-06T21:16:50.810Z</time>
      </trkpt>
      <trkpt lat="48.83359" lon="2.3324">
        <ele>116.1</ele>
        <time>2015-04-06T21:16:53.787Z</time>
      </trkpt>
      <trkpt lat="48.83358" lon="2.33245">
        <ele>115.5</ele>
        <time>2015-04-06T21:16:54.835Z</time>
      </trkpt>
      <trkpt lat="48.83353" lon="2.33255">
        <ele>115.1</ele>
        <time>2015-04-06T21:16:57.785Z</time>
      </trkpt>
      <trkpt lat="48.83353" lon="2.33258">
        <ele>114.5</ele>
        <time>2015-04-06T21:16:58.797Z</time>
      </trkpt>
      <trkpt lat="48.83345" lon="2.33262">
        <ele>113.9</ele>
        <time>2015-04-06T21:17:07.830Z</time>
      </trkpt>
      <trkpt lat="48.83343" lon="2.33261">
        <ele>113.9</ele>
        <time>2015-04-06T21:17:08.850Z</time>
      </trkpt>
      <trkpt lat="48.83336" lon="2.33259">
        <ele>114.4</ele>
        <time>2015-04-06T21:17:12.834Z</time>
      </trkpt>
      <trkpt lat="48.83334" lon="2.33259">
        <ele>114.7</ele>
        <time>2015-04-06T21:17:13.858Z</time>
      </trkpt>
      <trkpt lat="48.83327" lon="2.33263">
        <ele>115.3</ele>
        <time>2015-04-06T21:19:01.185Z</time>
      </trkpt>
    </trkseg>
  </trk>
</gpx>